<?xml version="1.0" encoding="UTF-8" standalone="no" ?>
<gpx xmlns="http://www.topografix.com/GPX/1/1" xmlns:xsi="http://www.w3.org/2001/XMLSchema-instance" xsi:schemaLocation="http://www.topografix.com/GPX/1/1 http://www.topografix.com/GPX/1/1/gpx.xsd" version="1.1" creator="VisuGPX - https://www.visugpx.com">
  <metadata>
    <name>Pornichet 01/05/2022</name>
    <desc><![CDATA[Sortie dimanche 1er mai 2022]]></desc>
  </metadata>
  <trk>
    <name><![CDATA[Pornichet Cyclisme]]></name>
    <trkseg>
      <trkpt lat="47.26399" lon="-2.31613">
        <ele>9.3</ele>
        <time>2022-05-01T06:59:22.000Z</time>
      </trkpt>
      <trkpt lat="47.264" lon="-2.31629">
        <ele>9.1</ele>
        <time>2022-05-01T06:59:25.000Z</time>
      </trkpt>
      <trkpt lat="47.26401" lon="-2.31634">
        <ele>9.1</ele>
        <time>2022-05-01T06:59:26.000Z</time>
      </trkpt>
      <trkpt lat="47.264" lon="-2.3164">
        <ele>9</ele>
        <time>2022-05-01T06:59:27.000Z</time>
      </trkpt>
      <trkpt lat="47.26397" lon="-2.31643">
        <ele>8.8</ele>
        <time>2022-05-01T06:59:28.000Z</time>
      </trkpt>
      <trkpt lat="47.26386" lon="-2.31649">
        <ele>8.6</ele>
        <time>2022-05-01T06:59:32.000Z</time>
      </trkpt>
      <trkpt lat="47.26373" lon="-2.31656">
        <ele>8.2</ele>
        <time>2022-05-01T06:59:36.000Z</time>
      </trkpt>
      <trkpt lat="47.26369" lon="-2.31658">
        <ele>8.1</ele>
        <time>2022-05-01T06:59:37.000Z</time>
      </trkpt>
      <trkpt lat="47.26344" lon="-2.31668">
        <ele>7.3</ele>
        <time>2022-05-01T06:59:43.000Z</time>
      </trkpt>
      <trkpt lat="47.26336" lon="-2.31672">
        <ele>6.9</ele>
        <time>2022-05-01T06:59:45.000Z</time>
      </trkpt>
      <trkpt lat="47.26327" lon="-2.31678">
        <ele>-0.40000000596046</ele>
        <time>2022-05-01T06:59:48.000Z</time>
      </trkpt>
      <trkpt lat="47.26326" lon="-2.31683">
        <ele>-1</ele>
        <time>2022-05-01T06:59:49.000Z</time>
      </trkpt>
      <trkpt lat="47.26324" lon="-2.31686">
        <ele>-1.3999999761581</ele>
        <time>2022-05-01T06:59:50.000Z</time>
      </trkpt>
      <trkpt lat="47.26321" lon="-2.31689">
        <ele>-1.7999999523163</ele>
        <time>2022-05-01T06:59:51.000Z</time>
      </trkpt>
      <trkpt lat="47.26317" lon="-2.31691">
        <ele>-2.2000000476837</ele>
        <time>2022-05-01T06:59:52.000Z</time>
      </trkpt>
      <trkpt lat="47.26299" lon="-2.31704">
        <ele>-2.5999999046326</ele>
        <time>2022-05-01T06:59:57.000Z</time>
      </trkpt>
      <trkpt lat="47.26297" lon="-2.31709">
        <ele>-3</ele>
        <time>2022-05-01T06:59:58.000Z</time>
      </trkpt>
      <trkpt lat="47.26295" lon="-2.31714">
        <ele>-3.4000000953674</ele>
        <time>2022-05-01T06:59:59.000Z</time>
      </trkpt>
      <trkpt lat="47.26295" lon="-2.31718">
        <ele>-3.7999999523163</ele>
        <time>2022-05-01T07:00:00.000Z</time>
      </trkpt>
      <trkpt lat="47.26294" lon="-2.31723">
        <ele>-4.1999998092651</ele>
        <time>2022-05-01T07:00:01.000Z</time>
      </trkpt>
      <trkpt lat="47.26296" lon="-2.31745">
        <ele>-4.1999998092651</ele>
        <time>2022-05-01T07:00:05.000Z</time>
      </trkpt>
      <trkpt lat="47.26296" lon="-2.31776">
        <ele>-4.1999998092651</ele>
        <time>2022-05-01T07:00:10.000Z</time>
      </trkpt>
      <trkpt lat="47.26295" lon="-2.3179">
        <ele>-4.1999998092651</ele>
        <time>2022-05-01T07:00:12.000Z</time>
      </trkpt>
      <trkpt lat="47.26295" lon="-2.31803">
        <ele>-4.1999998092651</ele>
        <time>2022-05-01T07:00:14.000Z</time>
      </trkpt>
      <trkpt lat="47.26293" lon="-2.31816">
        <ele>-4.1999998092651</ele>
        <time>2022-05-01T07:00:16.000Z</time>
      </trkpt>
      <trkpt lat="47.26293" lon="-2.31829">
        <ele>-4.1999998092651</ele>
        <time>2022-05-01T07:00:18.000Z</time>
      </trkpt>
      <trkpt lat="47.26292" lon="-2.31853">
        <ele>-4.1999998092651</ele>
        <time>2022-05-01T07:00:22.000Z</time>
      </trkpt>
      <trkpt lat="47.26289" lon="-2.31863">
        <ele>-4.1999998092651</ele>
        <time>2022-05-01T07:00:24.000Z</time>
      </trkpt>
      <trkpt lat="47.26283" lon="-2.31871">
        <ele>-4.1999998092651</ele>
        <time>2022-05-01T07:00:26.000Z</time>
      </trkpt>
      <trkpt lat="47.26267" lon="-2.31896">
        <ele>-4.1999998092651</ele>
        <time>2022-05-01T07:00:32.000Z</time>
      </trkpt>
      <trkpt lat="47.26257" lon="-2.31913">
        <ele>-4.1999998092651</ele>
        <time>2022-05-01T07:00:36.000Z</time>
      </trkpt>
      <trkpt lat="47.26244" lon="-2.31938">
        <ele>-4.1999998092651</ele>
        <time>2022-05-01T07:00:42.000Z</time>
      </trkpt>
      <trkpt lat="47.26232" lon="-2.31944">
        <ele>-4.1999998092651</ele>
        <time>2022-05-01T07:00:46.000Z</time>
      </trkpt>
      <trkpt lat="47.26213" lon="-2.31963">
        <ele>-4.1999998092651</ele>
        <time>2022-05-01T07:00:52.000Z</time>
      </trkpt>
      <trkpt lat="47.26204" lon="-2.31978">
        <ele>-4.1999998092651</ele>
        <time>2022-05-01T07:00:57.000Z</time>
      </trkpt>
      <trkpt lat="47.262" lon="-2.31986">
        <ele>-4.1999998092651</ele>
        <time>2022-05-01T07:01:00.000Z</time>
      </trkpt>
      <trkpt lat="47.26197" lon="-2.31986">
        <ele>-4.1999998092651</ele>
        <time>2022-05-01T07:01:02.000Z</time>
      </trkpt>
      <trkpt lat="47.26192" lon="-2.31987">
        <ele>-4.1999998092651</ele>
        <time>2022-05-01T07:01:04.000Z</time>
      </trkpt>
      <trkpt lat="47.26184" lon="-2.31989">
        <ele>-4.1999998092651</ele>
        <time>2022-05-01T07:01:07.000Z</time>
      </trkpt>
      <trkpt lat="47.26166" lon="-2.32004">
        <ele>-4.1999998092651</ele>
        <time>2022-05-01T07:01:12.000Z</time>
      </trkpt>
      <trkpt lat="47.26156" lon="-2.32023">
        <ele>-4.1999998092651</ele>
        <time>2022-05-01T07:01:16.000Z</time>
      </trkpt>
      <trkpt lat="47.26146" lon="-2.32051">
        <ele>-4.1999998092651</ele>
        <time>2022-05-01T07:01:21.000Z</time>
      </trkpt>
      <trkpt lat="47.26138" lon="-2.32078">
        <ele>-4.1999998092651</ele>
        <time>2022-05-01T07:01:27.000Z</time>
      </trkpt>
      <trkpt lat="47.26132" lon="-2.32105">
        <ele>-4.1999998092651</ele>
        <time>2022-05-01T07:01:33.000Z</time>
      </trkpt>
      <trkpt lat="47.2612" lon="-2.32131">
        <ele>-4.1999998092651</ele>
        <time>2022-05-01T07:01:38.000Z</time>
      </trkpt>
      <trkpt lat="47.26117" lon="-2.32137">
        <ele>-4.1999998092651</ele>
        <time>2022-05-01T07:01:39.000Z</time>
      </trkpt>
      <trkpt lat="47.26113" lon="-2.3215">
        <ele>-4.1999998092651</ele>
        <time>2022-05-01T07:01:41.000Z</time>
      </trkpt>
      <trkpt lat="47.26102" lon="-2.32171">
        <ele>-4.1999998092651</ele>
        <time>2022-05-01T07:01:45.000Z</time>
      </trkpt>
      <trkpt lat="47.2608" lon="-2.32205">
        <ele>-4.1999998092651</ele>
        <time>2022-05-01T07:01:52.000Z</time>
      </trkpt>
      <trkpt lat="47.26059" lon="-2.32232">
        <ele>-4.1999998092651</ele>
        <time>2022-05-01T07:01:58.000Z</time>
      </trkpt>
      <trkpt lat="47.26055" lon="-2.32236">
        <ele>-4.1999998092651</ele>
        <time>2022-05-01T07:01:59.000Z</time>
      </trkpt>
      <trkpt lat="47.26031" lon="-2.32264">
        <ele>-4.1999998092651</ele>
        <time>2022-05-01T07:02:05.000Z</time>
      </trkpt>
      <trkpt lat="47.25998" lon="-2.32303">
        <ele>-4.1999998092651</ele>
        <time>2022-05-01T07:02:13.000Z</time>
      </trkpt>
      <trkpt lat="47.25961" lon="-2.32352">
        <ele>-4.1999998092651</ele>
        <time>2022-05-01T07:02:22.000Z</time>
      </trkpt>
      <trkpt lat="47.25933" lon="-2.32388">
        <ele>-4.1999998092651</ele>
        <time>2022-05-01T07:02:29.000Z</time>
      </trkpt>
      <trkpt lat="47.25903" lon="-2.32431">
        <ele>-4.1999998092651</ele>
        <time>2022-05-01T07:02:37.000Z</time>
      </trkpt>
      <trkpt lat="47.25885" lon="-2.32452">
        <ele>-4.1999998092651</ele>
        <time>2022-05-01T07:02:43.000Z</time>
      </trkpt>
      <trkpt lat="47.2587" lon="-2.32461">
        <ele>-4.1999998092651</ele>
        <time>2022-05-01T07:02:47.000Z</time>
      </trkpt>
      <trkpt lat="47.25861" lon="-2.32463">
        <ele>-4.1999998092651</ele>
        <time>2022-05-01T07:02:49.000Z</time>
      </trkpt>
      <trkpt lat="47.25829" lon="-2.32462">
        <ele>-4.1999998092651</ele>
        <time>2022-05-01T07:02:56.000Z</time>
      </trkpt>
      <trkpt lat="47.25824" lon="-2.3246">
        <ele>-4.1999998092651</ele>
        <time>2022-05-01T07:02:57.000Z</time>
      </trkpt>
      <trkpt lat="47.25805" lon="-2.32452">
        <ele>-4.1999998092651</ele>
        <time>2022-05-01T07:03:01.000Z</time>
      </trkpt>
      <trkpt lat="47.25793" lon="-2.32448">
        <ele>-4.1999998092651</ele>
        <time>2022-05-01T07:03:04.000Z</time>
      </trkpt>
      <trkpt lat="47.25785" lon="-2.3245">
        <ele>-4.1999998092651</ele>
        <time>2022-05-01T07:03:06.000Z</time>
      </trkpt>
      <trkpt lat="47.25768" lon="-2.32445">
        <ele>-4.1999998092651</ele>
        <time>2022-05-01T07:03:11.000Z</time>
      </trkpt>
      <trkpt lat="47.25765" lon="-2.3244">
        <ele>-4.1999998092651</ele>
        <time>2022-05-01T07:03:12.000Z</time>
      </trkpt>
      <trkpt lat="47.25756" lon="-2.32426">
        <ele>-4.1999998092651</ele>
        <time>2022-05-01T07:03:15.000Z</time>
      </trkpt>
      <trkpt lat="47.25741" lon="-2.32422">
        <ele>-4.1999998092651</ele>
        <time>2022-05-01T07:03:18.000Z</time>
      </trkpt>
      <trkpt lat="47.25736" lon="-2.32421">
        <ele>-4.1999998092651</ele>
        <time>2022-05-01T07:03:19.000Z</time>
      </trkpt>
      <trkpt lat="47.25698" lon="-2.32419">
        <ele>-4.1999998092651</ele>
        <time>2022-05-01T07:03:26.000Z</time>
      </trkpt>
      <trkpt lat="47.25663" lon="-2.32418">
        <ele>-4.1999998092651</ele>
        <time>2022-05-01T07:03:33.000Z</time>
      </trkpt>
      <trkpt lat="47.25659" lon="-2.32418">
        <ele>-4.1999998092651</ele>
        <time>2022-05-01T07:03:34.000Z</time>
      </trkpt>
      <trkpt lat="47.25652" lon="-2.32426">
        <ele>-4.1999998092651</ele>
        <time>2022-05-01T07:03:36.000Z</time>
      </trkpt>
      <trkpt lat="47.25651" lon="-2.32443">
        <ele>-4.1999998092651</ele>
        <time>2022-05-01T07:03:39.000Z</time>
      </trkpt>
      <trkpt lat="47.25656" lon="-2.3246">
        <ele>-4.1999998092651</ele>
        <time>2022-05-01T07:03:42.000Z</time>
      </trkpt>
      <trkpt lat="47.2566" lon="-2.32472">
        <ele>-3.7999999523163</ele>
        <time>2022-05-01T07:03:44.000Z</time>
      </trkpt>
      <trkpt lat="47.25662" lon="-2.32477">
        <ele>-3.2000000476837</ele>
        <time>2022-05-01T07:03:45.000Z</time>
      </trkpt>
      <trkpt lat="47.25664" lon="-2.32483">
        <ele>-2.7999999523163</ele>
        <time>2022-05-01T07:03:46.000Z</time>
      </trkpt>
      <trkpt lat="47.25666" lon="-2.32488">
        <ele>-2.4000000953674</ele>
        <time>2022-05-01T07:03:47.000Z</time>
      </trkpt>
      <trkpt lat="47.25667" lon="-2.32494">
        <ele>-2</ele>
        <time>2022-05-01T07:03:48.000Z</time>
      </trkpt>
      <trkpt lat="47.25675" lon="-2.32516">
        <ele>-2</ele>
        <time>2022-05-01T07:03:52.000Z</time>
      </trkpt>
      <trkpt lat="47.25685" lon="-2.32547">
        <ele>-1.6000000238419</ele>
        <time>2022-05-01T07:03:58.000Z</time>
      </trkpt>
      <trkpt lat="47.25687" lon="-2.32552">
        <ele>-1.2000000476837</ele>
        <time>2022-05-01T07:03:59.000Z</time>
      </trkpt>
      <trkpt lat="47.25688" lon="-2.32558">
        <ele>-0.80000001192093</ele>
        <time>2022-05-01T07:04:00.000Z</time>
      </trkpt>
      <trkpt lat="47.2569" lon="-2.32563">
        <ele>-0.40000000596046</ele>
        <time>2022-05-01T07:04:01.000Z</time>
      </trkpt>
      <trkpt lat="47.25694" lon="-2.3257">
        <ele>9.5</ele>
        <time>2022-05-01T07:04:02.000Z</time>
      </trkpt>
      <trkpt lat="47.25705" lon="-2.326">
        <ele>9.6</ele>
        <time>2022-05-01T07:04:07.000Z</time>
      </trkpt>
      <trkpt lat="47.25705" lon="-2.32618">
        <ele>9.6</ele>
        <time>2022-05-01T07:04:10.000Z</time>
      </trkpt>
      <trkpt lat="47.25702" lon="-2.32622">
        <ele>9.7</ele>
        <time>2022-05-01T07:04:11.000Z</time>
      </trkpt>
      <trkpt lat="47.2569" lon="-2.32628">
        <ele>0.60000002384186</ele>
        <time>2022-05-01T07:04:14.000Z</time>
      </trkpt>
      <trkpt lat="47.25686" lon="-2.32629">
        <ele>1</ele>
        <time>2022-05-01T07:04:15.000Z</time>
      </trkpt>
      <trkpt lat="47.25683" lon="-2.32631">
        <ele>1.3999999761581</ele>
        <time>2022-05-01T07:04:16.000Z</time>
      </trkpt>
      <trkpt lat="47.25679" lon="-2.32632">
        <ele>1.7999999523163</ele>
        <time>2022-05-01T07:04:17.000Z</time>
      </trkpt>
      <trkpt lat="47.25675" lon="-2.32634">
        <ele>2.2000000476837</ele>
        <time>2022-05-01T07:04:18.000Z</time>
      </trkpt>
      <trkpt lat="47.2566" lon="-2.32642">
        <ele>2.2000000476837</ele>
        <time>2022-05-01T07:04:22.000Z</time>
      </trkpt>
      <trkpt lat="47.25636" lon="-2.32652">
        <ele>2.5999999046326</ele>
        <time>2022-05-01T07:04:28.000Z</time>
      </trkpt>
      <trkpt lat="47.25632" lon="-2.32653">
        <ele>3.5999999046326</ele>
        <time>2022-05-01T07:04:29.000Z</time>
      </trkpt>
      <trkpt lat="47.25628" lon="-2.32654">
        <ele>4</ele>
        <time>2022-05-01T07:04:30.000Z</time>
      </trkpt>
      <trkpt lat="47.25624" lon="-2.32656">
        <ele>4.4000000953674</ele>
        <time>2022-05-01T07:04:31.000Z</time>
      </trkpt>
      <trkpt lat="47.256" lon="-2.32667">
        <ele>4.4000000953674</ele>
        <time>2022-05-01T07:04:37.000Z</time>
      </trkpt>
      <trkpt lat="47.25597" lon="-2.32669">
        <ele>4.4000000953674</ele>
        <time>2022-05-01T07:04:38.000Z</time>
      </trkpt>
      <trkpt lat="47.25572" lon="-2.32679">
        <ele>4.4000000953674</ele>
        <time>2022-05-01T07:04:44.000Z</time>
      </trkpt>
      <trkpt lat="47.25563" lon="-2.32682">
        <ele>4.4000000953674</ele>
        <time>2022-05-01T07:04:46.000Z</time>
      </trkpt>
      <trkpt lat="47.25546" lon="-2.3269">
        <ele>4.4000000953674</ele>
        <time>2022-05-01T07:04:50.000Z</time>
      </trkpt>
      <trkpt lat="47.25524" lon="-2.32699">
        <ele>4.4000000953674</ele>
        <time>2022-05-01T07:04:55.000Z</time>
      </trkpt>
      <trkpt lat="47.25519" lon="-2.327">
        <ele>4.4000000953674</ele>
        <time>2022-05-01T07:04:56.000Z</time>
      </trkpt>
      <trkpt lat="47.25486" lon="-2.32704">
        <ele>4.4000000953674</ele>
        <time>2022-05-01T07:05:03.000Z</time>
      </trkpt>
      <trkpt lat="47.25481" lon="-2.32706">
        <ele>4.4000000953674</ele>
        <time>2022-05-01T07:05:04.000Z</time>
      </trkpt>
      <trkpt lat="47.25469" lon="-2.32717">
        <ele>4.4000000953674</ele>
        <time>2022-05-01T07:05:07.000Z</time>
      </trkpt>
      <trkpt lat="47.25462" lon="-2.32726">
        <ele>4.4000000953674</ele>
        <time>2022-05-01T07:05:09.000Z</time>
      </trkpt>
      <trkpt lat="47.25455" lon="-2.32736">
        <ele>4.4000000953674</ele>
        <time>2022-05-01T07:05:11.000Z</time>
      </trkpt>
      <trkpt lat="47.25449" lon="-2.32746">
        <ele>4.4000000953674</ele>
        <time>2022-05-01T07:05:13.000Z</time>
      </trkpt>
      <trkpt lat="47.25434" lon="-2.32771">
        <ele>4.4000000953674</ele>
        <time>2022-05-01T07:05:18.000Z</time>
      </trkpt>
      <trkpt lat="47.25433" lon="-2.32778">
        <ele>4.4000000953674</ele>
        <time>2022-05-01T07:05:19.000Z</time>
      </trkpt>
      <trkpt lat="47.25421" lon="-2.32798">
        <ele>4.4000000953674</ele>
        <time>2022-05-01T07:05:23.000Z</time>
      </trkpt>
      <trkpt lat="47.25417" lon="-2.32803">
        <ele>4.4000000953674</ele>
        <time>2022-05-01T07:05:24.000Z</time>
      </trkpt>
      <trkpt lat="47.25392" lon="-2.32836">
        <ele>4.4000000953674</ele>
        <time>2022-05-01T07:05:30.000Z</time>
      </trkpt>
      <trkpt lat="47.25361" lon="-2.32871">
        <ele>4.4000000953674</ele>
        <time>2022-05-01T07:05:37.000Z</time>
      </trkpt>
      <trkpt lat="47.25325" lon="-2.32906">
        <ele>4.4000000953674</ele>
        <time>2022-05-01T07:05:45.000Z</time>
      </trkpt>
      <trkpt lat="47.25317" lon="-2.32915">
        <ele>4.4000000953674</ele>
        <time>2022-05-01T07:05:47.000Z</time>
      </trkpt>
      <trkpt lat="47.25309" lon="-2.32924">
        <ele>4.4000000953674</ele>
        <time>2022-05-01T07:05:49.000Z</time>
      </trkpt>
      <trkpt lat="47.25306" lon="-2.32931">
        <ele>4.4000000953674</ele>
        <time>2022-05-01T07:05:50.000Z</time>
      </trkpt>
      <trkpt lat="47.25308" lon="-2.32952">
        <ele>4.4000000953674</ele>
        <time>2022-05-01T07:05:53.000Z</time>
      </trkpt>
      <trkpt lat="47.25312" lon="-2.32966">
        <ele>4.4000000953674</ele>
        <time>2022-05-01T07:05:55.000Z</time>
      </trkpt>
      <trkpt lat="47.25315" lon="-2.32972">
        <ele>4.4000000953674</ele>
        <time>2022-05-01T07:05:56.000Z</time>
      </trkpt>
      <trkpt lat="47.25321" lon="-2.32986">
        <ele>4.4000000953674</ele>
        <time>2022-05-01T07:05:58.000Z</time>
      </trkpt>
      <trkpt lat="47.25344" lon="-2.33046">
        <ele>4.4000000953674</ele>
        <time>2022-05-01T07:06:07.000Z</time>
      </trkpt>
      <trkpt lat="47.25361" lon="-2.33093">
        <ele>4.4000000953674</ele>
        <time>2022-05-01T07:06:14.000Z</time>
      </trkpt>
      <trkpt lat="47.25367" lon="-2.33108">
        <ele>4</ele>
        <time>2022-05-01T07:06:18.000Z</time>
      </trkpt>
      <trkpt lat="47.25367" lon="-2.33108">
        <ele>3.5999999046326</ele>
        <time>2022-05-01T07:06:19.000Z</time>
      </trkpt>
      <trkpt lat="47.25367" lon="-2.33108">
        <ele>3.2000000476837</ele>
        <time>2022-05-01T07:06:20.000Z</time>
      </trkpt>
      <trkpt lat="47.25367" lon="-2.33108">
        <ele>2.7999999523163</ele>
        <time>2022-05-01T07:06:21.000Z</time>
      </trkpt>
      <trkpt lat="47.25368" lon="-2.33113">
        <ele>2.4000000953674</ele>
        <time>2022-05-01T07:07:32.000Z</time>
      </trkpt>
      <trkpt lat="47.25377" lon="-2.33128">
        <ele>2.4000000953674</ele>
        <time>2022-05-01T07:07:40.000Z</time>
      </trkpt>
      <trkpt lat="47.25383" lon="-2.33137">
        <ele>2.4000000953674</ele>
        <time>2022-05-01T07:07:43.000Z</time>
      </trkpt>
      <trkpt lat="47.2539" lon="-2.33138">
        <ele>2.4000000953674</ele>
        <time>2022-05-01T07:07:45.000Z</time>
      </trkpt>
      <trkpt lat="47.25403" lon="-2.33129">
        <ele>2.4000000953674</ele>
        <time>2022-05-01T07:07:49.000Z</time>
      </trkpt>
      <trkpt lat="47.25407" lon="-2.33127">
        <ele>2.4000000953674</ele>
        <time>2022-05-01T07:07:50.000Z</time>
      </trkpt>
      <trkpt lat="47.25433" lon="-2.33115">
        <ele>2.4000000953674</ele>
        <time>2022-05-01T07:07:56.000Z</time>
      </trkpt>
      <trkpt lat="47.25464" lon="-2.33101">
        <ele>2.4000000953674</ele>
        <time>2022-05-01T07:08:03.000Z</time>
      </trkpt>
      <trkpt lat="47.25489" lon="-2.33082">
        <ele>2.4000000953674</ele>
        <time>2022-05-01T07:08:10.000Z</time>
      </trkpt>
      <trkpt lat="47.25508" lon="-2.33059">
        <ele>2.4000000953674</ele>
        <time>2022-05-01T07:08:16.000Z</time>
      </trkpt>
      <trkpt lat="47.25532" lon="-2.33041">
        <ele>2.4000000953674</ele>
        <time>2022-05-01T07:08:23.000Z</time>
      </trkpt>
      <trkpt lat="47.25557" lon="-2.33035">
        <ele>2.7999999523163</ele>
        <time>2022-05-01T07:08:29.000Z</time>
      </trkpt>
      <trkpt lat="47.25561" lon="-2.33034">
        <ele>3.2000000476837</ele>
        <time>2022-05-01T07:08:30.000Z</time>
      </trkpt>
      <trkpt lat="47.25565" lon="-2.33033">
        <ele>3.5999999046326</ele>
        <time>2022-05-01T07:08:31.000Z</time>
      </trkpt>
      <trkpt lat="47.25569" lon="-2.33033">
        <ele>4</ele>
        <time>2022-05-01T07:08:32.000Z</time>
      </trkpt>
      <trkpt lat="47.25574" lon="-2.33032">
        <ele>4.4000000953674</ele>
        <time>2022-05-01T07:08:33.000Z</time>
      </trkpt>
      <trkpt lat="47.25586" lon="-2.33031">
        <ele>4.4000000953674</ele>
        <time>2022-05-01T07:08:36.000Z</time>
      </trkpt>
      <trkpt lat="47.25606" lon="-2.33029">
        <ele>4.4000000953674</ele>
        <time>2022-05-01T07:08:41.000Z</time>
      </trkpt>
      <trkpt lat="47.25609" lon="-2.33027">
        <ele>4.8000001907349</ele>
        <time>2022-05-01T07:08:42.000Z</time>
      </trkpt>
      <trkpt lat="47.25613" lon="-2.33024">
        <ele>5.1999998092651</ele>
        <time>2022-05-01T07:08:43.000Z</time>
      </trkpt>
      <trkpt lat="47.25616" lon="-2.33019">
        <ele>5.5999999046326</ele>
        <time>2022-05-01T07:08:44.000Z</time>
      </trkpt>
      <trkpt lat="47.25618" lon="-2.33014">
        <ele>6</ele>
        <time>2022-05-01T07:08:45.000Z</time>
      </trkpt>
      <trkpt lat="47.25618" lon="-2.33008">
        <ele>6.4000000953674</ele>
        <time>2022-05-01T07:08:46.000Z</time>
      </trkpt>
      <trkpt lat="47.25613" lon="-2.32985">
        <ele>6.4000000953674</ele>
        <time>2022-05-01T07:08:50.000Z</time>
      </trkpt>
      <trkpt lat="47.25612" lon="-2.32979">
        <ele>6.4000000953674</ele>
        <time>2022-05-01T07:08:51.000Z</time>
      </trkpt>
      <trkpt lat="47.25607" lon="-2.32955">
        <ele>6.4000000953674</ele>
        <time>2022-05-01T07:08:55.000Z</time>
      </trkpt>
      <trkpt lat="47.25606" lon="-2.32937">
        <ele>6.4000000953674</ele>
        <time>2022-05-01T07:08:58.000Z</time>
      </trkpt>
      <trkpt lat="47.25605" lon="-2.32932">
        <ele>6.8000001907349</ele>
        <time>2022-05-01T07:08:59.000Z</time>
      </trkpt>
      <trkpt lat="47.25604" lon="-2.32926">
        <ele>7.1999998092651</ele>
        <time>2022-05-01T07:09:00.000Z</time>
      </trkpt>
      <trkpt lat="47.25603" lon="-2.3292">
        <ele>8.1999998092651</ele>
        <time>2022-05-01T07:09:01.000Z</time>
      </trkpt>
      <trkpt lat="47.25601" lon="-2.32914">
        <ele>8.6000003814697</ele>
        <time>2022-05-01T07:09:02.000Z</time>
      </trkpt>
      <trkpt lat="47.25599" lon="-2.32897">
        <ele>8.6000003814697</ele>
        <time>2022-05-01T07:09:05.000Z</time>
      </trkpt>
      <trkpt lat="47.25592" lon="-2.32841">
        <ele>8.6000003814697</ele>
        <time>2022-05-01T07:09:14.000Z</time>
      </trkpt>
      <trkpt lat="47.25592" lon="-2.32829">
        <ele>8.6000003814697</ele>
        <time>2022-05-01T07:09:16.000Z</time>
      </trkpt>
      <trkpt lat="47.25595" lon="-2.32811">
        <ele>8.6000003814697</ele>
        <time>2022-05-01T07:09:19.000Z</time>
      </trkpt>
      <trkpt lat="47.256" lon="-2.32789">
        <ele>8.6000003814697</ele>
        <time>2022-05-01T07:09:23.000Z</time>
      </trkpt>
      <trkpt lat="47.256" lon="-2.32779">
        <ele>8.6000003814697</ele>
        <time>2022-05-01T07:09:25.000Z</time>
      </trkpt>
      <trkpt lat="47.25602" lon="-2.3275">
        <ele>8.6000003814697</ele>
        <time>2022-05-01T07:09:30.000Z</time>
      </trkpt>
      <trkpt lat="47.25604" lon="-2.32709">
        <ele>8.6000003814697</ele>
        <time>2022-05-01T07:09:37.000Z</time>
      </trkpt>
      <trkpt lat="47.25606" lon="-2.32669">
        <ele>8.6000003814697</ele>
        <time>2022-05-01T07:09:44.000Z</time>
      </trkpt>
      <trkpt lat="47.25621" lon="-2.32658">
        <ele>8.6000003814697</ele>
        <time>2022-05-01T07:09:48.000Z</time>
      </trkpt>
      <trkpt lat="47.25634" lon="-2.32652">
        <ele>8.6000003814697</ele>
        <time>2022-05-01T07:09:51.000Z</time>
      </trkpt>
      <trkpt lat="47.25656" lon="-2.32641">
        <ele>8.6000003814697</ele>
        <time>2022-05-01T07:09:56.000Z</time>
      </trkpt>
      <trkpt lat="47.25688" lon="-2.32629">
        <ele>8.6000003814697</ele>
        <time>2022-05-01T07:10:03.000Z</time>
      </trkpt>
      <trkpt lat="47.25698" lon="-2.32625">
        <ele>8.1999998092651</ele>
        <time>2022-05-01T07:10:05.000Z</time>
      </trkpt>
      <trkpt lat="47.25702" lon="-2.32622">
        <ele>7.8000001907349</ele>
        <time>2022-05-01T07:10:06.000Z</time>
      </trkpt>
      <trkpt lat="47.25706" lon="-2.32618">
        <ele>7.1999998092651</ele>
        <time>2022-05-01T07:10:07.000Z</time>
      </trkpt>
      <trkpt lat="47.25709" lon="-2.32614">
        <ele>6.8000001907349</ele>
        <time>2022-05-01T07:10:08.000Z</time>
      </trkpt>
      <trkpt lat="47.2571" lon="-2.32609">
        <ele>6.4000000953674</ele>
        <time>2022-05-01T07:10:09.000Z</time>
      </trkpt>
      <trkpt lat="47.25709" lon="-2.32598">
        <ele>6.4000000953674</ele>
        <time>2022-05-01T07:10:11.000Z</time>
      </trkpt>
      <trkpt lat="47.25706" lon="-2.32586">
        <ele>6.4000000953674</ele>
        <time>2022-05-01T07:10:13.000Z</time>
      </trkpt>
      <trkpt lat="47.25699" lon="-2.32557">
        <ele>6.4000000953674</ele>
        <time>2022-05-01T07:10:18.000Z</time>
      </trkpt>
      <trkpt lat="47.25686" lon="-2.32518">
        <ele>6.4000000953674</ele>
        <time>2022-05-01T07:10:24.000Z</time>
      </trkpt>
      <trkpt lat="47.25672" lon="-2.32475">
        <ele>6</ele>
        <time>2022-05-01T07:10:30.000Z</time>
      </trkpt>
      <trkpt lat="47.2567" lon="-2.32468">
        <ele>5.5999999046326</ele>
        <time>2022-05-01T07:10:31.000Z</time>
      </trkpt>
      <trkpt lat="47.25668" lon="-2.3246">
        <ele>5.1999998092651</ele>
        <time>2022-05-01T07:10:32.000Z</time>
      </trkpt>
      <trkpt lat="47.25666" lon="-2.32453">
        <ele>4.8000001907349</ele>
        <time>2022-05-01T07:10:33.000Z</time>
      </trkpt>
      <trkpt lat="47.25664" lon="-2.32445">
        <ele>4.4000000953674</ele>
        <time>2022-05-01T07:10:34.000Z</time>
      </trkpt>
      <trkpt lat="47.25657" lon="-2.32417">
        <ele>4.4000000953674</ele>
        <time>2022-05-01T07:10:38.000Z</time>
      </trkpt>
      <trkpt lat="47.25656" lon="-2.3241">
        <ele>4.4000000953674</ele>
        <time>2022-05-01T07:10:39.000Z</time>
      </trkpt>
      <trkpt lat="47.25661" lon="-2.324">
        <ele>4.4000000953674</ele>
        <time>2022-05-01T07:10:41.000Z</time>
      </trkpt>
      <trkpt lat="47.25668" lon="-2.32403">
        <ele>4</ele>
        <time>2022-05-01T07:10:43.000Z</time>
      </trkpt>
      <trkpt lat="47.2567" lon="-2.32409">
        <ele>3.5999999046326</ele>
        <time>2022-05-01T07:10:44.000Z</time>
      </trkpt>
      <trkpt lat="47.25674" lon="-2.32414">
        <ele>3.2000000476837</ele>
        <time>2022-05-01T07:10:45.000Z</time>
      </trkpt>
      <trkpt lat="47.25679" lon="-2.32417">
        <ele>2.7999999523163</ele>
        <time>2022-05-01T07:10:46.000Z</time>
      </trkpt>
      <trkpt lat="47.25684" lon="-2.32418">
        <ele>2.4000000953674</ele>
        <time>2022-05-01T07:10:47.000Z</time>
      </trkpt>
      <trkpt lat="47.25696" lon="-2.3242">
        <ele>2.4000000953674</ele>
        <time>2022-05-01T07:10:49.000Z</time>
      </trkpt>
      <trkpt lat="47.2572" lon="-2.32421">
        <ele>2.4000000953674</ele>
        <time>2022-05-01T07:10:53.000Z</time>
      </trkpt>
      <trkpt lat="47.25762" lon="-2.32417">
        <ele>2.4000000953674</ele>
        <time>2022-05-01T07:11:00.000Z</time>
      </trkpt>
      <trkpt lat="47.25781" lon="-2.32412">
        <ele>2.4000000953674</ele>
        <time>2022-05-01T07:11:04.000Z</time>
      </trkpt>
      <trkpt lat="47.25791" lon="-2.32429">
        <ele>2.4000000953674</ele>
        <time>2022-05-01T07:11:07.000Z</time>
      </trkpt>
      <trkpt lat="47.25794" lon="-2.32436">
        <ele>2.4000000953674</ele>
        <time>2022-05-01T07:11:08.000Z</time>
      </trkpt>
      <trkpt lat="47.25802" lon="-2.32449">
        <ele>2.4000000953674</ele>
        <time>2022-05-01T07:11:10.000Z</time>
      </trkpt>
      <trkpt lat="47.25814" lon="-2.32458">
        <ele>2.4000000953674</ele>
        <time>2022-05-01T07:11:12.000Z</time>
      </trkpt>
      <trkpt lat="47.25837" lon="-2.32471">
        <ele>2.4000000953674</ele>
        <time>2022-05-01T07:11:16.000Z</time>
      </trkpt>
      <trkpt lat="47.25849" lon="-2.32474">
        <ele>2.4000000953674</ele>
        <time>2022-05-01T07:11:18.000Z</time>
      </trkpt>
      <trkpt lat="47.25866" lon="-2.32475">
        <ele>2.4000000953674</ele>
        <time>2022-05-01T07:11:21.000Z</time>
      </trkpt>
      <trkpt lat="47.25878" lon="-2.32473">
        <ele>2.4000000953674</ele>
        <time>2022-05-01T07:11:23.000Z</time>
      </trkpt>
      <trkpt lat="47.25894" lon="-2.32466">
        <ele>2.4000000953674</ele>
        <time>2022-05-01T07:11:26.000Z</time>
      </trkpt>
      <trkpt lat="47.25904" lon="-2.32456">
        <ele>2.4000000953674</ele>
        <time>2022-05-01T07:11:28.000Z</time>
      </trkpt>
      <trkpt lat="47.25913" lon="-2.32443">
        <ele>2.4000000953674</ele>
        <time>2022-05-01T07:11:30.000Z</time>
      </trkpt>
      <trkpt lat="47.25927" lon="-2.32425">
        <ele>2.4000000953674</ele>
        <time>2022-05-01T07:11:33.000Z</time>
      </trkpt>
      <trkpt lat="47.25931" lon="-2.32419">
        <ele>2.4000000953674</ele>
        <time>2022-05-01T07:11:34.000Z</time>
      </trkpt>
      <trkpt lat="47.25957" lon="-2.32383">
        <ele>2.4000000953674</ele>
        <time>2022-05-01T07:11:40.000Z</time>
      </trkpt>
      <trkpt lat="47.25988" lon="-2.32344">
        <ele>2.4000000953674</ele>
        <time>2022-05-01T07:11:47.000Z</time>
      </trkpt>
      <trkpt lat="47.26021" lon="-2.323">
        <ele>2.4000000953674</ele>
        <time>2022-05-01T07:11:55.000Z</time>
      </trkpt>
      <trkpt lat="47.26054" lon="-2.32265">
        <ele>2.4000000953674</ele>
        <time>2022-05-01T07:12:02.000Z</time>
      </trkpt>
      <trkpt lat="47.26085" lon="-2.32229">
        <ele>2.4000000953674</ele>
        <time>2022-05-01T07:12:09.000Z</time>
      </trkpt>
      <trkpt lat="47.26096" lon="-2.32211">
        <ele>2.4000000953674</ele>
        <time>2022-05-01T07:12:12.000Z</time>
      </trkpt>
      <trkpt lat="47.26102" lon="-2.32197">
        <ele>2.4000000953674</ele>
        <time>2022-05-01T07:12:14.000Z</time>
      </trkpt>
      <trkpt lat="47.26106" lon="-2.32191">
        <ele>2.4000000953674</ele>
        <time>2022-05-01T07:12:15.000Z</time>
      </trkpt>
      <trkpt lat="47.26115" lon="-2.3217">
        <ele>2.4000000953674</ele>
        <time>2022-05-01T07:12:18.000Z</time>
      </trkpt>
      <trkpt lat="47.26117" lon="-2.32163">
        <ele>2.4000000953674</ele>
        <time>2022-05-01T07:12:19.000Z</time>
      </trkpt>
      <trkpt lat="47.26129" lon="-2.32122">
        <ele>2.4000000953674</ele>
        <time>2022-05-01T07:12:24.000Z</time>
      </trkpt>
      <trkpt lat="47.2614" lon="-2.32084">
        <ele>2.4000000953674</ele>
        <time>2022-05-01T07:12:29.000Z</time>
      </trkpt>
      <trkpt lat="47.26144" lon="-2.3207">
        <ele>2.4000000953674</ele>
        <time>2022-05-01T07:12:31.000Z</time>
      </trkpt>
      <trkpt lat="47.26159" lon="-2.32029">
        <ele>2.4000000953674</ele>
        <time>2022-05-01T07:12:37.000Z</time>
      </trkpt>
      <trkpt lat="47.26162" lon="-2.32023">
        <ele>2.4000000953674</ele>
        <time>2022-05-01T07:12:38.000Z</time>
      </trkpt>
      <trkpt lat="47.2617" lon="-2.3202">
        <ele>2.4000000953674</ele>
        <time>2022-05-01T07:12:41.000Z</time>
      </trkpt>
      <trkpt lat="47.26172" lon="-2.32021">
        <ele>2.4000000953674</ele>
        <time>2022-05-01T07:12:45.000Z</time>
      </trkpt>
      <trkpt lat="47.26181" lon="-2.32021">
        <ele>2.4000000953674</ele>
        <time>2022-05-01T07:12:50.000Z</time>
      </trkpt>
      <trkpt lat="47.26193" lon="-2.32017">
        <ele>2.4000000953674</ele>
        <time>2022-05-01T07:12:56.000Z</time>
      </trkpt>
      <trkpt lat="47.26196" lon="-2.32005">
        <ele>2.4000000953674</ele>
        <time>2022-05-01T07:13:00.000Z</time>
      </trkpt>
      <trkpt lat="47.26201" lon="-2.31999">
        <ele>2.4000000953674</ele>
        <time>2022-05-01T07:13:02.000Z</time>
      </trkpt>
      <trkpt lat="47.26212" lon="-2.31988">
        <ele>2.4000000953674</ele>
        <time>2022-05-01T07:13:05.000Z</time>
      </trkpt>
      <trkpt lat="47.26216" lon="-2.31983">
        <ele>2.4000000953674</ele>
        <time>2022-05-01T07:13:06.000Z</time>
      </trkpt>
      <trkpt lat="47.26236" lon="-2.31962">
        <ele>2.4000000953674</ele>
        <time>2022-05-01T07:13:11.000Z</time>
      </trkpt>
      <trkpt lat="47.2624" lon="-2.31958">
        <ele>2.4000000953674</ele>
        <time>2022-05-01T07:13:12.000Z</time>
      </trkpt>
      <trkpt lat="47.26248" lon="-2.31943">
        <ele>2.4000000953674</ele>
        <time>2022-05-01T07:13:15.000Z</time>
      </trkpt>
      <trkpt lat="47.26263" lon="-2.31921">
        <ele>2.4000000953674</ele>
        <time>2022-05-01T07:13:20.000Z</time>
      </trkpt>
      <trkpt lat="47.26274" lon="-2.31905">
        <ele>2.4000000953674</ele>
        <time>2022-05-01T07:13:24.000Z</time>
      </trkpt>
      <trkpt lat="47.26282" lon="-2.31897">
        <ele>2.4000000953674</ele>
        <time>2022-05-01T07:13:26.000Z</time>
      </trkpt>
      <trkpt lat="47.26294" lon="-2.31897">
        <ele>2.4000000953674</ele>
        <time>2022-05-01T07:13:30.000Z</time>
      </trkpt>
      <trkpt lat="47.26294" lon="-2.31902">
        <ele>2.4000000953674</ele>
        <time>2022-05-01T07:13:31.000Z</time>
      </trkpt>
      <trkpt lat="47.26294" lon="-2.31907">
        <ele>2.4000000953674</ele>
        <time>2022-05-01T07:13:32.000Z</time>
      </trkpt>
      <trkpt lat="47.26295" lon="-2.31919">
        <ele>2.4000000953674</ele>
        <time>2022-05-01T07:13:35.000Z</time>
      </trkpt>
      <trkpt lat="47.26297" lon="-2.31922">
        <ele>2.4000000953674</ele>
        <time>2022-05-01T07:13:36.000Z</time>
      </trkpt>
      <trkpt lat="47.26308" lon="-2.31926">
        <ele>2.4000000953674</ele>
        <time>2022-05-01T07:13:40.000Z</time>
      </trkpt>
      <trkpt lat="47.26313" lon="-2.31927">
        <ele>2.4000000953674</ele>
        <time>2022-05-01T07:13:41.000Z</time>
      </trkpt>
      <trkpt lat="47.26335" lon="-2.31933">
        <ele>2.4000000953674</ele>
        <time>2022-05-01T07:13:46.000Z</time>
      </trkpt>
      <trkpt lat="47.2634" lon="-2.3194">
        <ele>2.4000000953674</ele>
        <time>2022-05-01T07:13:48.000Z</time>
      </trkpt>
      <trkpt lat="47.26343" lon="-2.31949">
        <ele>2.4000000953674</ele>
        <time>2022-05-01T07:13:50.000Z</time>
      </trkpt>
      <trkpt lat="47.26355" lon="-2.3197">
        <ele>2.4000000953674</ele>
        <time>2022-05-01T07:13:55.000Z</time>
      </trkpt>
      <trkpt lat="47.26357" lon="-2.31973">
        <ele>3.2000000476837</ele>
        <time>2022-05-01T07:13:56.000Z</time>
      </trkpt>
      <trkpt lat="47.26359" lon="-2.31976">
        <ele>3.5999999046326</ele>
        <time>2022-05-01T07:13:57.000Z</time>
      </trkpt>
      <trkpt lat="47.26362" lon="-2.31979">
        <ele>4</ele>
        <time>2022-05-01T07:13:58.000Z</time>
      </trkpt>
      <trkpt lat="47.26365" lon="-2.31981">
        <ele>4.4000000953674</ele>
        <time>2022-05-01T07:13:59.000Z</time>
      </trkpt>
      <trkpt lat="47.26367" lon="-2.31983">
        <ele>4.4000000953674</ele>
        <time>2022-05-01T07:14:00.000Z</time>
      </trkpt>
      <trkpt lat="47.26381" lon="-2.31986">
        <ele>4.4000000953674</ele>
        <time>2022-05-01T07:14:05.000Z</time>
      </trkpt>
      <trkpt lat="47.26389" lon="-2.31988">
        <ele>4.8000001907349</ele>
        <time>2022-05-01T07:14:07.000Z</time>
      </trkpt>
      <trkpt lat="47.26392" lon="-2.31989">
        <ele>5.1999998092651</ele>
        <time>2022-05-01T07:14:08.000Z</time>
      </trkpt>
      <trkpt lat="47.26395" lon="-2.3199">
        <ele>5.8000001907349</ele>
        <time>2022-05-01T07:14:09.000Z</time>
      </trkpt>
      <trkpt lat="47.26399" lon="-2.31991">
        <ele>6.1999998092651</ele>
        <time>2022-05-01T07:14:10.000Z</time>
      </trkpt>
      <trkpt lat="47.26402" lon="-2.31994">
        <ele>6.5999999046326</ele>
        <time>2022-05-01T07:14:11.000Z</time>
      </trkpt>
      <trkpt lat="47.26405" lon="-2.31994">
        <ele>6.5999999046326</ele>
        <time>2022-05-01T07:14:12.000Z</time>
      </trkpt>
      <trkpt lat="47.26414" lon="-2.31994">
        <ele>7</ele>
        <time>2022-05-01T07:14:15.000Z</time>
      </trkpt>
      <trkpt lat="47.26417" lon="-2.31993">
        <ele>7.4000000953674</ele>
        <time>2022-05-01T07:14:16.000Z</time>
      </trkpt>
      <trkpt lat="47.2642" lon="-2.31993">
        <ele>7.8000001907349</ele>
        <time>2022-05-01T07:14:17.000Z</time>
      </trkpt>
      <trkpt lat="47.26423" lon="-2.31993">
        <ele>8.1999998092651</ele>
        <time>2022-05-01T07:14:18.000Z</time>
      </trkpt>
      <trkpt lat="47.26426" lon="-2.31993">
        <ele>8.6000003814697</ele>
        <time>2022-05-01T07:14:19.000Z</time>
      </trkpt>
      <trkpt lat="47.26434" lon="-2.31993">
        <ele>8.6000003814697</ele>
        <time>2022-05-01T07:14:22.000Z</time>
      </trkpt>
      <trkpt lat="47.26444" lon="-2.31994">
        <ele>9</ele>
        <time>2022-05-01T07:14:25.000Z</time>
      </trkpt>
      <trkpt lat="47.26447" lon="-2.31995">
        <ele>9.3999996185303</ele>
        <time>2022-05-01T07:14:26.000Z</time>
      </trkpt>
      <trkpt lat="47.2645" lon="-2.31995">
        <ele>9.8000001907349</ele>
        <time>2022-05-01T07:14:27.000Z</time>
      </trkpt>
      <trkpt lat="47.26453" lon="-2.31995">
        <ele>10.199999809265</ele>
        <time>2022-05-01T07:14:28.000Z</time>
      </trkpt>
      <trkpt lat="47.26456" lon="-2.31995">
        <ele>10.800000190735</ele>
        <time>2022-05-01T07:14:29.000Z</time>
      </trkpt>
      <trkpt lat="47.26472" lon="-2.31994">
        <ele>10.800000190735</ele>
        <time>2022-05-01T07:14:34.000Z</time>
      </trkpt>
      <trkpt lat="47.26481" lon="-2.31994">
        <ele>11.199999809265</ele>
        <time>2022-05-01T07:14:36.000Z</time>
      </trkpt>
      <trkpt lat="47.26485" lon="-2.31993">
        <ele>11.60000038147</ele>
        <time>2022-05-01T07:14:37.000Z</time>
      </trkpt>
      <trkpt lat="47.26488" lon="-2.31993">
        <ele>12</ele>
        <time>2022-05-01T07:14:38.000Z</time>
      </trkpt>
      <trkpt lat="47.26492" lon="-2.31992">
        <ele>12.39999961853</ele>
        <time>2022-05-01T07:14:39.000Z</time>
      </trkpt>
      <trkpt lat="47.26496" lon="-2.31992">
        <ele>13</ele>
        <time>2022-05-01T07:14:40.000Z</time>
      </trkpt>
      <trkpt lat="47.26506" lon="-2.31994">
        <ele>13.39999961853</ele>
        <time>2022-05-01T07:14:43.000Z</time>
      </trkpt>
      <trkpt lat="47.26509" lon="-2.31995">
        <ele>13.800000190735</ele>
        <time>2022-05-01T07:14:44.000Z</time>
      </trkpt>
      <trkpt lat="47.26513" lon="-2.31996">
        <ele>14.60000038147</ele>
        <time>2022-05-01T07:14:45.000Z</time>
      </trkpt>
      <trkpt lat="47.26515" lon="-2.31997">
        <ele>15</ele>
        <time>2022-05-01T07:14:46.000Z</time>
      </trkpt>
      <trkpt lat="47.26527" lon="-2.32009">
        <ele>15</ele>
        <time>2022-05-01T07:14:50.000Z</time>
      </trkpt>
      <trkpt lat="47.26534" lon="-2.32017">
        <ele>15.39999961853</ele>
        <time>2022-05-01T07:14:53.000Z</time>
      </trkpt>
      <trkpt lat="47.26536" lon="-2.3202">
        <ele>15.800000190735</ele>
        <time>2022-05-01T07:14:54.000Z</time>
      </trkpt>
      <trkpt lat="47.26537" lon="-2.32023">
        <ele>16.200000762939</ele>
        <time>2022-05-01T07:14:55.000Z</time>
      </trkpt>
      <trkpt lat="47.26539" lon="-2.32025">
        <ele>16.60000038147</ele>
        <time>2022-05-01T07:14:56.000Z</time>
      </trkpt>
      <trkpt lat="47.26539" lon="-2.32029">
        <ele>17</ele>
        <time>2022-05-01T07:14:57.000Z</time>
      </trkpt>
      <trkpt lat="47.26547" lon="-2.32038">
        <ele>17</ele>
        <time>2022-05-01T07:15:01.000Z</time>
      </trkpt>
      <trkpt lat="47.26562" lon="-2.32032">
        <ele>17</ele>
        <time>2022-05-01T07:15:06.000Z</time>
      </trkpt>
      <trkpt lat="47.26565" lon="-2.3203">
        <ele>17.39999961853</ele>
        <time>2022-05-01T07:15:07.000Z</time>
      </trkpt>
      <trkpt lat="47.26568" lon="-2.32029">
        <ele>17.799999237061</ele>
        <time>2022-05-01T07:15:08.000Z</time>
      </trkpt>
      <trkpt lat="47.26571" lon="-2.32028">
        <ele>18.60000038147</ele>
        <time>2022-05-01T07:15:09.000Z</time>
      </trkpt>
      <trkpt lat="47.26575" lon="-2.32028">
        <ele>19</ele>
        <time>2022-05-01T07:15:10.000Z</time>
      </trkpt>
      <trkpt lat="47.26584" lon="-2.32024">
        <ele>19</ele>
        <time>2022-05-01T07:15:13.000Z</time>
      </trkpt>
      <trkpt lat="47.26603" lon="-2.32017">
        <ele>19.60000038147</ele>
        <time>2022-05-01T07:15:19.000Z</time>
      </trkpt>
      <trkpt lat="47.26606" lon="-2.32016">
        <ele>20</ele>
        <time>2022-05-01T07:15:20.000Z</time>
      </trkpt>
      <trkpt lat="47.26609" lon="-2.32015">
        <ele>20.39999961853</ele>
        <time>2022-05-01T07:15:21.000Z</time>
      </trkpt>
      <trkpt lat="47.26612" lon="-2.32014">
        <ele>20.799999237061</ele>
        <time>2022-05-01T07:15:22.000Z</time>
      </trkpt>
      <trkpt lat="47.26615" lon="-2.32014">
        <ele>21.200000762939</ele>
        <time>2022-05-01T07:15:23.000Z</time>
      </trkpt>
      <trkpt lat="47.26626" lon="-2.3201">
        <ele>21.200000762939</ele>
        <time>2022-05-01T07:15:27.000Z</time>
      </trkpt>
      <trkpt lat="47.26639" lon="-2.32005">
        <ele>21.200000762939</ele>
        <time>2022-05-01T07:15:33.000Z</time>
      </trkpt>
      <trkpt lat="47.26645" lon="-2.32">
        <ele>21.200000762939</ele>
        <time>2022-05-01T07:15:38.000Z</time>
      </trkpt>
      <trkpt lat="47.26646" lon="-2.32002">
        <ele>21.200000762939</ele>
        <time>2022-05-01T07:15:39.000Z</time>
      </trkpt>
      <trkpt lat="47.26644" lon="-2.32008">
        <ele>21.200000762939</ele>
        <time>2022-05-01T07:15:42.000Z</time>
      </trkpt>
      <trkpt lat="47.26637" lon="-2.32007">
        <ele>21.200000762939</ele>
        <time>2022-05-01T07:15:46.000Z</time>
      </trkpt>
      <trkpt lat="47.26635" lon="-2.32008">
        <ele>21.200000762939</ele>
        <time>2022-05-01T07:15:47.000Z</time>
      </trkpt>
      <trkpt lat="47.26633" lon="-2.32006">
        <ele>21.200000762939</ele>
        <time>2022-05-01T07:15:49.000Z</time>
      </trkpt>
      <trkpt lat="47.26634" lon="-2.32003">
        <ele>21.200000762939</ele>
        <time>2022-05-01T07:15:51.000Z</time>
      </trkpt>
      <trkpt lat="47.26636" lon="-2.32003">
        <ele>21.200000762939</ele>
        <time>2022-05-01T07:15:54.000Z</time>
      </trkpt>
      <trkpt lat="47.2664" lon="-2.32003">
        <ele>21.200000762939</ele>
        <time>2022-05-01T07:17:52.000Z</time>
      </trkpt>
      <trkpt lat="47.26649" lon="-2.32012">
        <ele>21.200000762939</ele>
        <time>2022-05-01T07:17:56.000Z</time>
      </trkpt>
      <trkpt lat="47.26653" lon="-2.3203">
        <ele>21.200000762939</ele>
        <time>2022-05-01T07:17:59.000Z</time>
      </trkpt>
      <trkpt lat="47.26655" lon="-2.32036">
        <ele>21.200000762939</ele>
        <time>2022-05-01T07:18:00.000Z</time>
      </trkpt>
      <trkpt lat="47.2666" lon="-2.3206">
        <ele>21.200000762939</ele>
        <time>2022-05-01T07:18:04.000Z</time>
      </trkpt>
      <trkpt lat="47.26665" lon="-2.32078">
        <ele>21.200000762939</ele>
        <time>2022-05-01T07:18:07.000Z</time>
      </trkpt>
      <trkpt lat="47.26673" lon="-2.32109">
        <ele>21.200000762939</ele>
        <time>2022-05-01T07:18:12.000Z</time>
      </trkpt>
      <trkpt lat="47.26675" lon="-2.3212">
        <ele>21.200000762939</ele>
        <time>2022-05-01T07:18:14.000Z</time>
      </trkpt>
      <trkpt lat="47.26679" lon="-2.32125">
        <ele>21.200000762939</ele>
        <time>2022-05-01T07:18:17.000Z</time>
      </trkpt>
      <trkpt lat="47.26681" lon="-2.32124">
        <ele>21.200000762939</ele>
        <time>2022-05-01T07:18:18.000Z</time>
      </trkpt>
      <trkpt lat="47.26682" lon="-2.32114">
        <ele>21.200000762939</ele>
        <time>2022-05-01T07:18:21.000Z</time>
      </trkpt>
      <trkpt lat="47.26682" lon="-2.32109">
        <ele>21.200000762939</ele>
        <time>2022-05-01T07:18:22.000Z</time>
      </trkpt>
      <trkpt lat="47.26683" lon="-2.32095">
        <ele>21.60000038147</ele>
        <time>2022-05-01T07:18:24.000Z</time>
      </trkpt>
      <trkpt lat="47.26683" lon="-2.32089">
        <ele>22</ele>
        <time>2022-05-01T07:18:25.000Z</time>
      </trkpt>
      <trkpt lat="47.26684" lon="-2.32082">
        <ele>22.39999961853</ele>
        <time>2022-05-01T07:18:26.000Z</time>
      </trkpt>
      <trkpt lat="47.26685" lon="-2.32074">
        <ele>23.200000762939</ele>
        <time>2022-05-01T07:18:27.000Z</time>
      </trkpt>
      <trkpt lat="47.26684" lon="-2.32067">
        <ele>23.200000762939</ele>
        <time>2022-05-01T07:18:28.000Z</time>
      </trkpt>
      <trkpt lat="47.26685" lon="-2.32051">
        <ele>23.200000762939</ele>
        <time>2022-05-01T07:18:31.000Z</time>
      </trkpt>
      <trkpt lat="47.26689" lon="-2.32033">
        <ele>23.200000762939</ele>
        <time>2022-05-01T07:18:36.000Z</time>
      </trkpt>
      <trkpt lat="47.267" lon="-2.32009">
        <ele>23.200000762939</ele>
        <time>2022-05-01T07:18:41.000Z</time>
      </trkpt>
      <trkpt lat="47.26717" lon="-2.31995">
        <ele>23.200000762939</ele>
        <time>2022-05-01T07:18:45.000Z</time>
      </trkpt>
      <trkpt lat="47.26732" lon="-2.31983">
        <ele>22.799999237061</ele>
        <time>2022-05-01T07:18:48.000Z</time>
      </trkpt>
      <trkpt lat="47.26738" lon="-2.31979">
        <ele>22.39999961853</ele>
        <time>2022-05-01T07:18:49.000Z</time>
      </trkpt>
      <trkpt lat="47.26743" lon="-2.31975">
        <ele>22</ele>
        <time>2022-05-01T07:18:50.000Z</time>
      </trkpt>
      <trkpt lat="47.26748" lon="-2.31971">
        <ele>21.39999961853</ele>
        <time>2022-05-01T07:18:51.000Z</time>
      </trkpt>
      <trkpt lat="47.26752" lon="-2.31965">
        <ele>21</ele>
        <time>2022-05-01T07:18:52.000Z</time>
      </trkpt>
      <trkpt lat="47.26762" lon="-2.31947">
        <ele>21</ele>
        <time>2022-05-01T07:18:55.000Z</time>
      </trkpt>
      <trkpt lat="47.26766" lon="-2.31947">
        <ele>21</ele>
        <time>2022-05-01T07:18:56.000Z</time>
      </trkpt>
      <trkpt lat="47.26771" lon="-2.31952">
        <ele>21</ele>
        <time>2022-05-01T07:18:58.000Z</time>
      </trkpt>
      <trkpt lat="47.26784" lon="-2.31975">
        <ele>21</ele>
        <time>2022-05-01T07:19:02.000Z</time>
      </trkpt>
      <trkpt lat="47.26787" lon="-2.31982">
        <ele>21</ele>
        <time>2022-05-01T07:19:03.000Z</time>
      </trkpt>
      <trkpt lat="47.26791" lon="-2.31989">
        <ele>20.60000038147</ele>
        <time>2022-05-01T07:19:04.000Z</time>
      </trkpt>
      <trkpt lat="47.26795" lon="-2.31997">
        <ele>20.200000762939</ele>
        <time>2022-05-01T07:19:05.000Z</time>
      </trkpt>
      <trkpt lat="47.26799" lon="-2.32004">
        <ele>19.60000038147</ele>
        <time>2022-05-01T07:19:06.000Z</time>
      </trkpt>
      <trkpt lat="47.26804" lon="-2.32012">
        <ele>19.200000762939</ele>
        <time>2022-05-01T07:19:07.000Z</time>
      </trkpt>
      <trkpt lat="47.26808" lon="-2.32021">
        <ele>18.799999237061</ele>
        <time>2022-05-01T07:19:08.000Z</time>
      </trkpt>
      <trkpt lat="47.26814" lon="-2.32037">
        <ele>18.799999237061</ele>
        <time>2022-05-01T07:19:10.000Z</time>
      </trkpt>
      <trkpt lat="47.26816" lon="-2.32046">
        <ele>18.200000762939</ele>
        <time>2022-05-01T07:19:11.000Z</time>
      </trkpt>
      <trkpt lat="47.26818" lon="-2.32055">
        <ele>17.799999237061</ele>
        <time>2022-05-01T07:19:12.000Z</time>
      </trkpt>
      <trkpt lat="47.26821" lon="-2.32064">
        <ele>17.39999961853</ele>
        <time>2022-05-01T07:19:13.000Z</time>
      </trkpt>
      <trkpt lat="47.26823" lon="-2.32073">
        <ele>17</ele>
        <time>2022-05-01T07:19:14.000Z</time>
      </trkpt>
      <trkpt lat="47.26826" lon="-2.32083">
        <ele>16.60000038147</ele>
        <time>2022-05-01T07:19:15.000Z</time>
      </trkpt>
      <trkpt lat="47.26832" lon="-2.32109">
        <ele>16.60000038147</ele>
        <time>2022-05-01T07:19:18.000Z</time>
      </trkpt>
      <trkpt lat="47.26834" lon="-2.32117">
        <ele>16.60000038147</ele>
        <time>2022-05-01T07:19:19.000Z</time>
      </trkpt>
      <trkpt lat="47.26851" lon="-2.32171">
        <ele>16.60000038147</ele>
        <time>2022-05-01T07:19:25.000Z</time>
      </trkpt>
      <trkpt lat="47.26858" lon="-2.32188">
        <ele>16</ele>
        <time>2022-05-01T07:19:27.000Z</time>
      </trkpt>
      <trkpt lat="47.26862" lon="-2.32197">
        <ele>15.60000038147</ele>
        <time>2022-05-01T07:19:28.000Z</time>
      </trkpt>
      <trkpt lat="47.26866" lon="-2.32204">
        <ele>15.199999809265</ele>
        <time>2022-05-01T07:19:29.000Z</time>
      </trkpt>
      <trkpt lat="47.2687" lon="-2.32212">
        <ele>14.800000190735</ele>
        <time>2022-05-01T07:19:30.000Z</time>
      </trkpt>
      <trkpt lat="47.26873" lon="-2.32221">
        <ele>14.39999961853</ele>
        <time>2022-05-01T07:19:31.000Z</time>
      </trkpt>
      <trkpt lat="47.26899" lon="-2.32271">
        <ele>14</ele>
        <time>2022-05-01T07:19:37.000Z</time>
      </trkpt>
      <trkpt lat="47.26904" lon="-2.3228">
        <ele>13.60000038147</ele>
        <time>2022-05-01T07:19:38.000Z</time>
      </trkpt>
      <trkpt lat="47.26908" lon="-2.3229">
        <ele>13</ele>
        <time>2022-05-01T07:19:39.000Z</time>
      </trkpt>
      <trkpt lat="47.26912" lon="-2.32299">
        <ele>12.60000038147</ele>
        <time>2022-05-01T07:19:40.000Z</time>
      </trkpt>
      <trkpt lat="47.26915" lon="-2.32308">
        <ele>11.800000190735</ele>
        <time>2022-05-01T07:19:41.000Z</time>
      </trkpt>
      <trkpt lat="47.26918" lon="-2.32315">
        <ele>11.39999961853</ele>
        <time>2022-05-01T07:19:42.000Z</time>
      </trkpt>
      <trkpt lat="47.2692" lon="-2.32321">
        <ele>11</ele>
        <time>2022-05-01T07:19:43.000Z</time>
      </trkpt>
      <trkpt lat="47.26919" lon="-2.32328">
        <ele>10.60000038147</ele>
        <time>2022-05-01T07:19:44.000Z</time>
      </trkpt>
      <trkpt lat="47.26917" lon="-2.32334">
        <ele>10.199999809265</ele>
        <time>2022-05-01T07:19:45.000Z</time>
      </trkpt>
      <trkpt lat="47.26912" lon="-2.32337">
        <ele>10.199999809265</ele>
        <time>2022-05-01T07:19:46.000Z</time>
      </trkpt>
      <trkpt lat="47.26899" lon="-2.32339">
        <ele>10.199999809265</ele>
        <time>2022-05-01T07:19:49.000Z</time>
      </trkpt>
      <trkpt lat="47.26873" lon="-2.32344">
        <ele>10.60000038147</ele>
        <time>2022-05-01T07:19:55.000Z</time>
      </trkpt>
      <trkpt lat="47.26868" lon="-2.32345">
        <ele>11</ele>
        <time>2022-05-01T07:19:56.000Z</time>
      </trkpt>
      <trkpt lat="47.26864" lon="-2.32346">
        <ele>11.39999961853</ele>
        <time>2022-05-01T07:19:57.000Z</time>
      </trkpt>
      <trkpt lat="47.26858" lon="-2.32347">
        <ele>11.800000190735</ele>
        <time>2022-05-01T07:19:58.000Z</time>
      </trkpt>
      <trkpt lat="47.26854" lon="-2.32348">
        <ele>12.39999961853</ele>
        <time>2022-05-01T07:19:59.000Z</time>
      </trkpt>
      <trkpt lat="47.26849" lon="-2.32348">
        <ele>12.39999961853</ele>
        <time>2022-05-01T07:20:00.000Z</time>
      </trkpt>
      <trkpt lat="47.2684" lon="-2.3235">
        <ele>12.800000190735</ele>
        <time>2022-05-01T07:20:02.000Z</time>
      </trkpt>
      <trkpt lat="47.26835" lon="-2.3235">
        <ele>13.199999809265</ele>
        <time>2022-05-01T07:20:03.000Z</time>
      </trkpt>
      <trkpt lat="47.2683" lon="-2.32351">
        <ele>13.60000038147</ele>
        <time>2022-05-01T07:20:04.000Z</time>
      </trkpt>
      <trkpt lat="47.26825" lon="-2.32352">
        <ele>14</ele>
        <time>2022-05-01T07:20:05.000Z</time>
      </trkpt>
      <trkpt lat="47.26821" lon="-2.32352">
        <ele>15</ele>
        <time>2022-05-01T07:20:06.000Z</time>
      </trkpt>
      <trkpt lat="47.26818" lon="-2.32353">
        <ele>15.39999961853</ele>
        <time>2022-05-01T07:20:07.000Z</time>
      </trkpt>
      <trkpt lat="47.26813" lon="-2.32355">
        <ele>15.800000190735</ele>
        <time>2022-05-01T07:20:08.000Z</time>
      </trkpt>
      <trkpt lat="47.26809" lon="-2.32355">
        <ele>16.200000762939</ele>
        <time>2022-05-01T07:20:09.000Z</time>
      </trkpt>
      <trkpt lat="47.26805" lon="-2.32357">
        <ele>16.60000038147</ele>
        <time>2022-05-01T07:20:10.000Z</time>
      </trkpt>
      <trkpt lat="47.26798" lon="-2.32361">
        <ele>17</ele>
        <time>2022-05-01T07:20:12.000Z</time>
      </trkpt>
      <trkpt lat="47.26794" lon="-2.32362">
        <ele>17.39999961853</ele>
        <time>2022-05-01T07:20:13.000Z</time>
      </trkpt>
      <trkpt lat="47.2679" lon="-2.32364">
        <ele>18</ele>
        <time>2022-05-01T07:20:14.000Z</time>
      </trkpt>
      <trkpt lat="47.26787" lon="-2.32365">
        <ele>18.39999961853</ele>
        <time>2022-05-01T07:20:15.000Z</time>
      </trkpt>
      <trkpt lat="47.26783" lon="-2.32368">
        <ele>18.799999237061</ele>
        <time>2022-05-01T07:20:16.000Z</time>
      </trkpt>
      <trkpt lat="47.26781" lon="-2.32374">
        <ele>18.799999237061</ele>
        <time>2022-05-01T07:20:17.000Z</time>
      </trkpt>
      <trkpt lat="47.2678" lon="-2.3238">
        <ele>18.799999237061</ele>
        <time>2022-05-01T07:20:18.000Z</time>
      </trkpt>
      <trkpt lat="47.26783" lon="-2.32399">
        <ele>18.799999237061</ele>
        <time>2022-05-01T07:20:21.000Z</time>
      </trkpt>
      <trkpt lat="47.26783" lon="-2.32406">
        <ele>18.799999237061</ele>
        <time>2022-05-01T07:20:22.000Z</time>
      </trkpt>
      <trkpt lat="47.26786" lon="-2.3242">
        <ele>19.200000762939</ele>
        <time>2022-05-01T07:20:24.000Z</time>
      </trkpt>
      <trkpt lat="47.26788" lon="-2.32427">
        <ele>19.60000038147</ele>
        <time>2022-05-01T07:20:25.000Z</time>
      </trkpt>
      <trkpt lat="47.26789" lon="-2.32435">
        <ele>20</ele>
        <time>2022-05-01T07:20:26.000Z</time>
      </trkpt>
      <trkpt lat="47.2679" lon="-2.32442">
        <ele>20.39999961853</ele>
        <time>2022-05-01T07:20:27.000Z</time>
      </trkpt>
      <trkpt lat="47.26792" lon="-2.32451">
        <ele>20.799999237061</ele>
        <time>2022-05-01T07:20:28.000Z</time>
      </trkpt>
      <trkpt lat="47.26799" lon="-2.32513">
        <ele>20.799999237061</ele>
        <time>2022-05-01T07:20:35.000Z</time>
      </trkpt>
      <trkpt lat="47.26802" lon="-2.32572">
        <ele>20.799999237061</ele>
        <time>2022-05-01T07:20:41.000Z</time>
      </trkpt>
      <trkpt lat="47.26808" lon="-2.32616">
        <ele>20.799999237061</ele>
        <time>2022-05-01T07:20:46.000Z</time>
      </trkpt>
      <trkpt lat="47.26812" lon="-2.32658">
        <ele>20.799999237061</ele>
        <time>2022-05-01T07:20:51.000Z</time>
      </trkpt>
      <trkpt lat="47.26807" lon="-2.32672">
        <ele>20.799999237061</ele>
        <time>2022-05-01T07:20:53.000Z</time>
      </trkpt>
      <trkpt lat="47.26802" lon="-2.32693">
        <ele>20.799999237061</ele>
        <time>2022-05-01T07:20:56.000Z</time>
      </trkpt>
      <trkpt lat="47.26807" lon="-2.32716">
        <ele>20.799999237061</ele>
        <time>2022-05-01T07:20:59.000Z</time>
      </trkpt>
      <trkpt lat="47.26815" lon="-2.3273">
        <ele>20.39999961853</ele>
        <time>2022-05-01T07:21:01.000Z</time>
      </trkpt>
      <trkpt lat="47.26818" lon="-2.32738">
        <ele>20</ele>
        <time>2022-05-01T07:21:02.000Z</time>
      </trkpt>
      <trkpt lat="47.26822" lon="-2.32745">
        <ele>19.60000038147</ele>
        <time>2022-05-01T07:21:03.000Z</time>
      </trkpt>
      <trkpt lat="47.26826" lon="-2.32753">
        <ele>19.200000762939</ele>
        <time>2022-05-01T07:21:04.000Z</time>
      </trkpt>
      <trkpt lat="47.26829" lon="-2.32762">
        <ele>18.60000038147</ele>
        <time>2022-05-01T07:21:05.000Z</time>
      </trkpt>
      <trkpt lat="47.26832" lon="-2.32771">
        <ele>18.200000762939</ele>
        <time>2022-05-01T07:21:06.000Z</time>
      </trkpt>
      <trkpt lat="47.26835" lon="-2.3278">
        <ele>17.799999237061</ele>
        <time>2022-05-01T07:21:07.000Z</time>
      </trkpt>
      <trkpt lat="47.26837" lon="-2.32789">
        <ele>17.39999961853</ele>
        <time>2022-05-01T07:21:08.000Z</time>
      </trkpt>
      <trkpt lat="47.2684" lon="-2.32799">
        <ele>16.799999237061</ele>
        <time>2022-05-01T07:21:09.000Z</time>
      </trkpt>
      <trkpt lat="47.26842" lon="-2.32809">
        <ele>16.39999961853</ele>
        <time>2022-05-01T07:21:10.000Z</time>
      </trkpt>
      <trkpt lat="47.26845" lon="-2.32817">
        <ele>15.800000190735</ele>
        <time>2022-05-01T07:21:11.000Z</time>
      </trkpt>
      <trkpt lat="47.26847" lon="-2.32825">
        <ele>15.199999809265</ele>
        <time>2022-05-01T07:21:12.000Z</time>
      </trkpt>
      <trkpt lat="47.26849" lon="-2.32833">
        <ele>14.60000038147</ele>
        <time>2022-05-01T07:21:13.000Z</time>
      </trkpt>
      <trkpt lat="47.26852" lon="-2.32842">
        <ele>13.800000190735</ele>
        <time>2022-05-01T07:21:14.000Z</time>
      </trkpt>
      <trkpt lat="47.26856" lon="-2.32851">
        <ele>13.199999809265</ele>
        <time>2022-05-01T07:21:15.000Z</time>
      </trkpt>
      <trkpt lat="47.2686" lon="-2.32859">
        <ele>12.39999961853</ele>
        <time>2022-05-01T07:21:16.000Z</time>
      </trkpt>
      <trkpt lat="47.26863" lon="-2.32867">
        <ele>11.800000190735</ele>
        <time>2022-05-01T07:21:17.000Z</time>
      </trkpt>
      <trkpt lat="47.26864" lon="-2.32873">
        <ele>11</ele>
        <time>2022-05-01T07:21:18.000Z</time>
      </trkpt>
      <trkpt lat="47.26861" lon="-2.32879">
        <ele>10.199999809265</ele>
        <time>2022-05-01T07:21:19.000Z</time>
      </trkpt>
      <trkpt lat="47.26857" lon="-2.32882">
        <ele>8.8000001907349</ele>
        <time>2022-05-01T07:21:20.000Z</time>
      </trkpt>
      <trkpt lat="47.26852" lon="-2.32883">
        <ele>8</ele>
        <time>2022-05-01T07:21:21.000Z</time>
      </trkpt>
      <trkpt lat="47.26847" lon="-2.32884">
        <ele>7.1999998092651</ele>
        <time>2022-05-01T07:21:22.000Z</time>
      </trkpt>
      <trkpt lat="47.26842" lon="-2.32886">
        <ele>7.1999998092651</ele>
        <time>2022-05-01T07:21:23.000Z</time>
      </trkpt>
      <trkpt lat="47.26828" lon="-2.32897">
        <ele>7.1999998092651</ele>
        <time>2022-05-01T07:21:26.000Z</time>
      </trkpt>
      <trkpt lat="47.26804" lon="-2.32921">
        <ele>7.1999998092651</ele>
        <time>2022-05-01T07:21:31.000Z</time>
      </trkpt>
      <trkpt lat="47.26799" lon="-2.32924">
        <ele>7.1999998092651</ele>
        <time>2022-05-01T07:21:32.000Z</time>
      </trkpt>
      <trkpt lat="47.26778" lon="-2.32941">
        <ele>7.1999998092651</ele>
        <time>2022-05-01T07:21:36.000Z</time>
      </trkpt>
      <trkpt lat="47.26763" lon="-2.32957">
        <ele>7.1999998092651</ele>
        <time>2022-05-01T07:21:39.000Z</time>
      </trkpt>
      <trkpt lat="47.26749" lon="-2.32972">
        <ele>7.1999998092651</ele>
        <time>2022-05-01T07:21:42.000Z</time>
      </trkpt>
      <trkpt lat="47.2674" lon="-2.32986">
        <ele>7.1999998092651</ele>
        <time>2022-05-01T07:21:44.000Z</time>
      </trkpt>
      <trkpt lat="47.26735" lon="-2.33001">
        <ele>7.1999998092651</ele>
        <time>2022-05-01T07:21:46.000Z</time>
      </trkpt>
      <trkpt lat="47.26731" lon="-2.33025">
        <ele>7.1999998092651</ele>
        <time>2022-05-01T07:21:49.000Z</time>
      </trkpt>
      <trkpt lat="47.26731" lon="-2.33033">
        <ele>7.1999998092651</ele>
        <time>2022-05-01T07:21:50.000Z</time>
      </trkpt>
      <trkpt lat="47.2673" lon="-2.3304">
        <ele>7.1999998092651</ele>
        <time>2022-05-01T07:21:51.000Z</time>
      </trkpt>
      <trkpt lat="47.2673" lon="-2.33056">
        <ele>7.1999998092651</ele>
        <time>2022-05-01T07:21:53.000Z</time>
      </trkpt>
      <trkpt lat="47.26732" lon="-2.33063">
        <ele>7.1999998092651</ele>
        <time>2022-05-01T07:21:54.000Z</time>
      </trkpt>
      <trkpt lat="47.26734" lon="-2.33066">
        <ele>6.8000001907349</ele>
        <time>2022-05-01T07:21:55.000Z</time>
      </trkpt>
      <trkpt lat="47.26736" lon="-2.33068">
        <ele>6.4000000953674</ele>
        <time>2022-05-01T07:21:56.000Z</time>
      </trkpt>
      <trkpt lat="47.26739" lon="-2.33069">
        <ele>6</ele>
        <time>2022-05-01T07:21:57.000Z</time>
      </trkpt>
      <trkpt lat="47.2674" lon="-2.33069">
        <ele>5.5999999046326</ele>
        <time>2022-05-01T07:21:58.000Z</time>
      </trkpt>
      <trkpt lat="47.26742" lon="-2.33067">
        <ele>5.1999998092651</ele>
        <time>2022-05-01T07:21:59.000Z</time>
      </trkpt>
      <trkpt lat="47.26744" lon="-2.33065">
        <ele>5.1999998092651</ele>
        <time>2022-05-01T07:22:00.000Z</time>
      </trkpt>
      <trkpt lat="47.26746" lon="-2.33063">
        <ele>5.1999998092651</ele>
        <time>2022-05-01T07:22:01.000Z</time>
      </trkpt>
      <trkpt lat="47.26758" lon="-2.3305">
        <ele>5.1999998092651</ele>
        <time>2022-05-01T07:22:06.000Z</time>
      </trkpt>
      <trkpt lat="47.26779" lon="-2.33028">
        <ele>5.1999998092651</ele>
        <time>2022-05-01T07:22:12.000Z</time>
      </trkpt>
      <trkpt lat="47.26787" lon="-2.33019">
        <ele>5.1999998092651</ele>
        <time>2022-05-01T07:22:14.000Z</time>
      </trkpt>
      <trkpt lat="47.26802" lon="-2.33004">
        <ele>5.1999998092651</ele>
        <time>2022-05-01T07:22:17.000Z</time>
      </trkpt>
      <trkpt lat="47.26816" lon="-2.32989">
        <ele>5.1999998092651</ele>
        <time>2022-05-01T07:22:20.000Z</time>
      </trkpt>
      <trkpt lat="47.26821" lon="-2.32984">
        <ele>5.5999999046326</ele>
        <time>2022-05-01T07:22:21.000Z</time>
      </trkpt>
      <trkpt lat="47.26826" lon="-2.32979">
        <ele>6</ele>
        <time>2022-05-01T07:22:22.000Z</time>
      </trkpt>
      <trkpt lat="47.26831" lon="-2.32975">
        <ele>6.4000000953674</ele>
        <time>2022-05-01T07:22:23.000Z</time>
      </trkpt>
      <trkpt lat="47.26836" lon="-2.3297">
        <ele>6.8000001907349</ele>
        <time>2022-05-01T07:22:24.000Z</time>
      </trkpt>
      <trkpt lat="47.26841" lon="-2.32966">
        <ele>7.1999998092651</ele>
        <time>2022-05-01T07:22:25.000Z</time>
      </trkpt>
      <trkpt lat="47.26869" lon="-2.32938">
        <ele>7.1999998092651</ele>
        <time>2022-05-01T07:22:31.000Z</time>
      </trkpt>
      <trkpt lat="47.26893" lon="-2.32915">
        <ele>7.1999998092651</ele>
        <time>2022-05-01T07:22:36.000Z</time>
      </trkpt>
      <trkpt lat="47.26899" lon="-2.3291">
        <ele>7.1999998092651</ele>
        <time>2022-05-01T07:22:37.000Z</time>
      </trkpt>
      <trkpt lat="47.26935" lon="-2.32878">
        <ele>7.1999998092651</ele>
        <time>2022-05-01T07:22:44.000Z</time>
      </trkpt>
      <trkpt lat="47.26966" lon="-2.32851">
        <ele>7.1999998092651</ele>
        <time>2022-05-01T07:22:50.000Z</time>
      </trkpt>
      <trkpt lat="47.26998" lon="-2.32825">
        <ele>7.1999998092651</ele>
        <time>2022-05-01T07:22:56.000Z</time>
      </trkpt>
      <trkpt lat="47.27033" lon="-2.32793">
        <ele>7.1999998092651</ele>
        <time>2022-05-01T07:23:03.000Z</time>
      </trkpt>
      <trkpt lat="47.27077" lon="-2.32753">
        <ele>7.1999998092651</ele>
        <time>2022-05-01T07:23:12.000Z</time>
      </trkpt>
      <trkpt lat="47.27104" lon="-2.32727">
        <ele>7.5999999046326</ele>
        <time>2022-05-01T07:23:18.000Z</time>
      </trkpt>
      <trkpt lat="47.27108" lon="-2.32723">
        <ele>8</ele>
        <time>2022-05-01T07:23:19.000Z</time>
      </trkpt>
      <trkpt lat="47.27112" lon="-2.32719">
        <ele>8.6000003814697</ele>
        <time>2022-05-01T07:23:20.000Z</time>
      </trkpt>
      <trkpt lat="47.27116" lon="-2.32714">
        <ele>9</ele>
        <time>2022-05-01T07:23:21.000Z</time>
      </trkpt>
      <trkpt lat="47.27121" lon="-2.3271">
        <ele>9.3999996185303</ele>
        <time>2022-05-01T07:23:22.000Z</time>
      </trkpt>
      <trkpt lat="47.27129" lon="-2.32702">
        <ele>9.3999996185303</ele>
        <time>2022-05-01T07:23:24.000Z</time>
      </trkpt>
      <trkpt lat="47.27132" lon="-2.32696">
        <ele>9.3999996185303</ele>
        <time>2022-05-01T07:23:25.000Z</time>
      </trkpt>
      <trkpt lat="47.27142" lon="-2.32683">
        <ele>9.3999996185303</ele>
        <time>2022-05-01T07:23:28.000Z</time>
      </trkpt>
      <trkpt lat="47.27175" lon="-2.32652">
        <ele>9.3999996185303</ele>
        <time>2022-05-01T07:23:36.000Z</time>
      </trkpt>
      <trkpt lat="47.27207" lon="-2.32622">
        <ele>9.3999996185303</ele>
        <time>2022-05-01T07:23:43.000Z</time>
      </trkpt>
      <trkpt lat="47.27245" lon="-2.32586">
        <ele>9.3999996185303</ele>
        <time>2022-05-01T07:23:51.000Z</time>
      </trkpt>
      <trkpt lat="47.27276" lon="-2.32552">
        <ele>9.3999996185303</ele>
        <time>2022-05-01T07:23:58.000Z</time>
      </trkpt>
      <trkpt lat="47.27303" lon="-2.32511">
        <ele>9.3999996185303</ele>
        <time>2022-05-01T07:24:05.000Z</time>
      </trkpt>
      <trkpt lat="47.27329" lon="-2.32467">
        <ele>9.3999996185303</ele>
        <time>2022-05-01T07:24:12.000Z</time>
      </trkpt>
      <trkpt lat="47.27348" lon="-2.3242">
        <ele>9.3999996185303</ele>
        <time>2022-05-01T07:24:18.000Z</time>
      </trkpt>
      <trkpt lat="47.2736" lon="-2.32371">
        <ele>9.3999996185303</ele>
        <time>2022-05-01T07:24:24.000Z</time>
      </trkpt>
      <trkpt lat="47.27366" lon="-2.32345">
        <ele>9.3999996185303</ele>
        <time>2022-05-01T07:24:28.000Z</time>
      </trkpt>
      <trkpt lat="47.27367" lon="-2.32338">
        <ele>9.3999996185303</ele>
        <time>2022-05-01T07:24:29.000Z</time>
      </trkpt>
      <trkpt lat="47.27377" lon="-2.3229">
        <ele>9.3999996185303</ele>
        <time>2022-05-01T07:24:36.000Z</time>
      </trkpt>
      <trkpt lat="47.27385" lon="-2.3226">
        <ele>9.3999996185303</ele>
        <time>2022-05-01T07:24:40.000Z</time>
      </trkpt>
      <trkpt lat="47.2739" lon="-2.32242">
        <ele>9.3999996185303</ele>
        <time>2022-05-01T07:24:42.000Z</time>
      </trkpt>
      <trkpt lat="47.27397" lon="-2.32193">
        <ele>9.3999996185303</ele>
        <time>2022-05-01T07:24:47.000Z</time>
      </trkpt>
      <trkpt lat="47.27398" lon="-2.32183">
        <ele>9.3999996185303</ele>
        <time>2022-05-01T07:24:48.000Z</time>
      </trkpt>
      <trkpt lat="47.274" lon="-2.32173">
        <ele>9.3999996185303</ele>
        <time>2022-05-01T07:24:49.000Z</time>
      </trkpt>
      <trkpt lat="47.27404" lon="-2.32137">
        <ele>9.3999996185303</ele>
        <time>2022-05-01T07:24:53.000Z</time>
      </trkpt>
      <trkpt lat="47.27408" lon="-2.32104">
        <ele>9.3999996185303</ele>
        <time>2022-05-01T07:24:57.000Z</time>
      </trkpt>
      <trkpt lat="47.27406" lon="-2.32086">
        <ele>9.3999996185303</ele>
        <time>2022-05-01T07:24:59.000Z</time>
      </trkpt>
      <trkpt lat="47.27402" lon="-2.3207">
        <ele>9.3999996185303</ele>
        <time>2022-05-01T07:25:01.000Z</time>
      </trkpt>
      <trkpt lat="47.274" lon="-2.32063">
        <ele>9.3999996185303</ele>
        <time>2022-05-01T07:25:02.000Z</time>
      </trkpt>
      <trkpt lat="47.27398" lon="-2.32057">
        <ele>9.3999996185303</ele>
        <time>2022-05-01T07:25:03.000Z</time>
      </trkpt>
      <trkpt lat="47.27387" lon="-2.32043">
        <ele>9.3999996185303</ele>
        <time>2022-05-01T07:25:06.000Z</time>
      </trkpt>
      <trkpt lat="47.27377" lon="-2.32033">
        <ele>9.3999996185303</ele>
        <time>2022-05-01T07:25:08.000Z</time>
      </trkpt>
      <trkpt lat="47.27346" lon="-2.32">
        <ele>9.3999996185303</ele>
        <time>2022-05-01T07:25:15.000Z</time>
      </trkpt>
      <trkpt lat="47.27315" lon="-2.31966">
        <ele>9.3999996185303</ele>
        <time>2022-05-01T07:25:22.000Z</time>
      </trkpt>
      <trkpt lat="47.27286" lon="-2.31948">
        <ele>9.3999996185303</ele>
        <time>2022-05-01T07:25:28.000Z</time>
      </trkpt>
      <trkpt lat="47.2725" lon="-2.31933">
        <ele>9.3999996185303</ele>
        <time>2022-05-01T07:25:35.000Z</time>
      </trkpt>
      <trkpt lat="47.2723" lon="-2.31927">
        <ele>9.3999996185303</ele>
        <time>2022-05-01T07:25:39.000Z</time>
      </trkpt>
      <trkpt lat="47.2722" lon="-2.31924">
        <ele>9.3999996185303</ele>
        <time>2022-05-01T07:25:41.000Z</time>
      </trkpt>
      <trkpt lat="47.27215" lon="-2.31926">
        <ele>9.3999996185303</ele>
        <time>2022-05-01T07:25:42.000Z</time>
      </trkpt>
      <trkpt lat="47.27207" lon="-2.3194">
        <ele>9.3999996185303</ele>
        <time>2022-05-01T07:25:45.000Z</time>
      </trkpt>
      <trkpt lat="47.27198" lon="-2.31955">
        <ele>9.3999996185303</ele>
        <time>2022-05-01T07:25:48.000Z</time>
      </trkpt>
      <trkpt lat="47.2719" lon="-2.31964">
        <ele>9.3999996185303</ele>
        <time>2022-05-01T07:25:50.000Z</time>
      </trkpt>
      <trkpt lat="47.27182" lon="-2.31973">
        <ele>9.3999996185303</ele>
        <time>2022-05-01T07:25:52.000Z</time>
      </trkpt>
      <trkpt lat="47.27176" lon="-2.31986">
        <ele>9.3999996185303</ele>
        <time>2022-05-01T07:25:54.000Z</time>
      </trkpt>
      <trkpt lat="47.27164" lon="-2.31997">
        <ele>9.3999996185303</ele>
        <time>2022-05-01T07:25:57.000Z</time>
      </trkpt>
      <trkpt lat="47.27154" lon="-2.31994">
        <ele>9.3999996185303</ele>
        <time>2022-05-01T07:25:59.000Z</time>
      </trkpt>
      <trkpt lat="47.27145" lon="-2.3199">
        <ele>9.3999996185303</ele>
        <time>2022-05-01T07:26:01.000Z</time>
      </trkpt>
      <trkpt lat="47.27131" lon="-2.31974">
        <ele>9.3999996185303</ele>
        <time>2022-05-01T07:26:06.000Z</time>
      </trkpt>
      <trkpt lat="47.27106" lon="-2.31958">
        <ele>9.3999996185303</ele>
        <time>2022-05-01T07:26:12.000Z</time>
      </trkpt>
      <trkpt lat="47.27091" lon="-2.31956">
        <ele>9.3999996185303</ele>
        <time>2022-05-01T07:26:16.000Z</time>
      </trkpt>
      <trkpt lat="47.27082" lon="-2.31955">
        <ele>9.3999996185303</ele>
        <time>2022-05-01T07:26:19.000Z</time>
      </trkpt>
      <trkpt lat="47.2708" lon="-2.31954">
        <ele>9.3999996185303</ele>
        <time>2022-05-01T07:26:20.000Z</time>
      </trkpt>
      <trkpt lat="47.27076" lon="-2.31941">
        <ele>9.3999996185303</ele>
        <time>2022-05-01T07:26:25.000Z</time>
      </trkpt>
      <trkpt lat="47.27076" lon="-2.31938">
        <ele>9.8000001907349</ele>
        <time>2022-05-01T07:26:26.000Z</time>
      </trkpt>
      <trkpt lat="47.27076" lon="-2.31934">
        <ele>10.199999809265</ele>
        <time>2022-05-01T07:26:27.000Z</time>
      </trkpt>
      <trkpt lat="47.27075" lon="-2.31931">
        <ele>10.60000038147</ele>
        <time>2022-05-01T07:26:28.000Z</time>
      </trkpt>
      <trkpt lat="47.27075" lon="-2.31927">
        <ele>11</ele>
        <time>2022-05-01T07:26:29.000Z</time>
      </trkpt>
      <trkpt lat="47.27074" lon="-2.31923">
        <ele>11.39999961853</ele>
        <time>2022-05-01T07:26:30.000Z</time>
      </trkpt>
      <trkpt lat="47.27071" lon="-2.31915">
        <ele>11.39999961853</ele>
        <time>2022-05-01T07:26:32.000Z</time>
      </trkpt>
      <trkpt lat="47.27071" lon="-2.31885">
        <ele>11.39999961853</ele>
        <time>2022-05-01T07:26:39.000Z</time>
      </trkpt>
      <trkpt lat="47.27072" lon="-2.31881">
        <ele>11.39999961853</ele>
        <time>2022-05-01T07:26:40.000Z</time>
      </trkpt>
      <trkpt lat="47.27073" lon="-2.31874">
        <ele>11.39999961853</ele>
        <time>2022-05-01T07:26:42.000Z</time>
      </trkpt>
      <trkpt lat="47.2707" lon="-2.31863">
        <ele>11.39999961853</ele>
        <time>2022-05-01T07:26:45.000Z</time>
      </trkpt>
      <trkpt lat="47.27066" lon="-2.31861">
        <ele>11.39999961853</ele>
        <time>2022-05-01T07:26:46.000Z</time>
      </trkpt>
      <trkpt lat="47.27058" lon="-2.31852">
        <ele>11.800000190735</ele>
        <time>2022-05-01T07:26:49.000Z</time>
      </trkpt>
      <trkpt lat="47.27056" lon="-2.31847">
        <ele>12.199999809265</ele>
        <time>2022-05-01T07:26:50.000Z</time>
      </trkpt>
      <trkpt lat="47.27055" lon="-2.31842">
        <ele>12.800000190735</ele>
        <time>2022-05-01T07:26:51.000Z</time>
      </trkpt>
      <trkpt lat="47.27054" lon="-2.31836">
        <ele>13.199999809265</ele>
        <time>2022-05-01T07:26:52.000Z</time>
      </trkpt>
      <trkpt lat="47.27054" lon="-2.31831">
        <ele>13.60000038147</ele>
        <time>2022-05-01T07:26:53.000Z</time>
      </trkpt>
      <trkpt lat="47.27053" lon="-2.31826">
        <ele>13.60000038147</ele>
        <time>2022-05-01T07:26:54.000Z</time>
      </trkpt>
      <trkpt lat="47.27052" lon="-2.31815">
        <ele>13.60000038147</ele>
        <time>2022-05-01T07:26:56.000Z</time>
      </trkpt>
      <trkpt lat="47.2705" lon="-2.31777">
        <ele>14</ele>
        <time>2022-05-01T07:27:03.000Z</time>
      </trkpt>
      <trkpt lat="47.27049" lon="-2.31774">
        <ele>14.39999961853</ele>
        <time>2022-05-01T07:27:04.000Z</time>
      </trkpt>
      <trkpt lat="47.27048" lon="-2.31771">
        <ele>15</ele>
        <time>2022-05-01T07:27:05.000Z</time>
      </trkpt>
      <trkpt lat="47.27048" lon="-2.31769">
        <ele>15.39999961853</ele>
        <time>2022-05-01T07:27:06.000Z</time>
      </trkpt>
      <trkpt lat="47.27047" lon="-2.31765">
        <ele>15.800000190735</ele>
        <time>2022-05-01T07:27:07.000Z</time>
      </trkpt>
      <trkpt lat="47.27047" lon="-2.31749">
        <ele>15.800000190735</ele>
        <time>2022-05-01T07:27:11.000Z</time>
      </trkpt>
      <trkpt lat="47.27045" lon="-2.31732">
        <ele>15.800000190735</ele>
        <time>2022-05-01T07:27:15.000Z</time>
      </trkpt>
      <trkpt lat="47.2703" lon="-2.31718">
        <ele>15.800000190735</ele>
        <time>2022-05-01T07:27:20.000Z</time>
      </trkpt>
      <trkpt lat="47.27023" lon="-2.31706">
        <ele>15.800000190735</ele>
        <time>2022-05-01T07:27:24.000Z</time>
      </trkpt>
      <trkpt lat="47.27025" lon="-2.31702">
        <ele>16.200000762939</ele>
        <time>2022-05-01T07:27:25.000Z</time>
      </trkpt>
      <trkpt lat="47.27027" lon="-2.31697">
        <ele>16.60000038147</ele>
        <time>2022-05-01T07:27:26.000Z</time>
      </trkpt>
      <trkpt lat="47.27029" lon="-2.31692">
        <ele>17</ele>
        <time>2022-05-01T07:27:27.000Z</time>
      </trkpt>
      <trkpt lat="47.2703" lon="-2.31686">
        <ele>17.39999961853</ele>
        <time>2022-05-01T07:27:28.000Z</time>
      </trkpt>
      <trkpt lat="47.2703" lon="-2.31681">
        <ele>17.799999237061</ele>
        <time>2022-05-01T07:27:29.000Z</time>
      </trkpt>
      <trkpt lat="47.27031" lon="-2.31676">
        <ele>17.799999237061</ele>
        <time>2022-05-01T07:27:30.000Z</time>
      </trkpt>
      <trkpt lat="47.27032" lon="-2.3165">
        <ele>18.39999961853</ele>
        <time>2022-05-01T07:27:35.000Z</time>
      </trkpt>
      <trkpt lat="47.27032" lon="-2.31645">
        <ele>18.799999237061</ele>
        <time>2022-05-01T07:27:36.000Z</time>
      </trkpt>
      <trkpt lat="47.27031" lon="-2.31641">
        <ele>19.200000762939</ele>
        <time>2022-05-01T07:27:37.000Z</time>
      </trkpt>
      <trkpt lat="47.27031" lon="-2.31636">
        <ele>19.60000038147</ele>
        <time>2022-05-01T07:27:38.000Z</time>
      </trkpt>
      <trkpt lat="47.2703" lon="-2.31632">
        <ele>20</ele>
        <time>2022-05-01T07:27:39.000Z</time>
      </trkpt>
      <trkpt lat="47.27029" lon="-2.31619">
        <ele>20</ele>
        <time>2022-05-01T07:27:42.000Z</time>
      </trkpt>
      <trkpt lat="47.27027" lon="-2.31607">
        <ele>20.39999961853</ele>
        <time>2022-05-01T07:27:45.000Z</time>
      </trkpt>
      <trkpt lat="47.27027" lon="-2.31604">
        <ele>20.799999237061</ele>
        <time>2022-05-01T07:27:46.000Z</time>
      </trkpt>
      <trkpt lat="47.27026" lon="-2.316">
        <ele>21.200000762939</ele>
        <time>2022-05-01T07:27:47.000Z</time>
      </trkpt>
      <trkpt lat="47.27024" lon="-2.31597">
        <ele>21.60000038147</ele>
        <time>2022-05-01T07:27:48.000Z</time>
      </trkpt>
      <trkpt lat="47.27023" lon="-2.31593">
        <ele>22</ele>
        <time>2022-05-01T07:27:49.000Z</time>
      </trkpt>
      <trkpt lat="47.27016" lon="-2.31581">
        <ele>22</ele>
        <time>2022-05-01T07:27:53.000Z</time>
      </trkpt>
      <trkpt lat="47.27014" lon="-2.31577">
        <ele>22.39999961853</ele>
        <time>2022-05-01T07:27:54.000Z</time>
      </trkpt>
      <trkpt lat="47.27013" lon="-2.31573">
        <ele>22.799999237061</ele>
        <time>2022-05-01T07:27:55.000Z</time>
      </trkpt>
      <trkpt lat="47.27012" lon="-2.3157">
        <ele>23.60000038147</ele>
        <time>2022-05-01T07:27:56.000Z</time>
      </trkpt>
      <trkpt lat="47.27011" lon="-2.31566">
        <ele>24</ele>
        <time>2022-05-01T07:27:57.000Z</time>
      </trkpt>
      <trkpt lat="47.2701" lon="-2.31556">
        <ele>24</ele>
        <time>2022-05-01T07:27:59.000Z</time>
      </trkpt>
      <trkpt lat="47.27003" lon="-2.31535">
        <ele>24</ele>
        <time>2022-05-01T07:28:04.000Z</time>
      </trkpt>
      <trkpt lat="47.27001" lon="-2.31528">
        <ele>24.39999961853</ele>
        <time>2022-05-01T07:28:05.000Z</time>
      </trkpt>
      <trkpt lat="47.27" lon="-2.31522">
        <ele>24.799999237061</ele>
        <time>2022-05-01T07:28:06.000Z</time>
      </trkpt>
      <trkpt lat="47.26998" lon="-2.31516">
        <ele>25.39999961853</ele>
        <time>2022-05-01T07:28:07.000Z</time>
      </trkpt>
      <trkpt lat="47.26997" lon="-2.31511">
        <ele>25.799999237061</ele>
        <time>2022-05-01T07:28:08.000Z</time>
      </trkpt>
      <trkpt lat="47.26995" lon="-2.31507">
        <ele>26.200000762939</ele>
        <time>2022-05-01T07:28:09.000Z</time>
      </trkpt>
      <trkpt lat="47.26993" lon="-2.31501">
        <ele>26.200000762939</ele>
        <time>2022-05-01T07:28:11.000Z</time>
      </trkpt>
      <trkpt lat="47.26991" lon="-2.31482">
        <ele>26.60000038147</ele>
        <time>2022-05-01T07:28:15.000Z</time>
      </trkpt>
      <trkpt lat="47.2699" lon="-2.31477">
        <ele>27</ele>
        <time>2022-05-01T07:28:16.000Z</time>
      </trkpt>
      <trkpt lat="47.26989" lon="-2.31473">
        <ele>27.39999961853</ele>
        <time>2022-05-01T07:28:17.000Z</time>
      </trkpt>
      <trkpt lat="47.26988" lon="-2.31468">
        <ele>27.799999237061</ele>
        <time>2022-05-01T07:28:18.000Z</time>
      </trkpt>
      <trkpt lat="47.26988" lon="-2.31464">
        <ele>28.200000762939</ele>
        <time>2022-05-01T07:28:19.000Z</time>
      </trkpt>
      <trkpt lat="47.26986" lon="-2.31436">
        <ele>28.200000762939</ele>
        <time>2022-05-01T07:28:24.000Z</time>
      </trkpt>
      <trkpt lat="47.26984" lon="-2.31406">
        <ele>28.60000038147</ele>
        <time>2022-05-01T07:28:30.000Z</time>
      </trkpt>
      <trkpt lat="47.26984" lon="-2.314">
        <ele>29.200000762939</ele>
        <time>2022-05-01T07:28:31.000Z</time>
      </trkpt>
      <trkpt lat="47.26984" lon="-2.31394">
        <ele>29.60000038147</ele>
        <time>2022-05-01T07:28:32.000Z</time>
      </trkpt>
      <trkpt lat="47.26984" lon="-2.31389">
        <ele>30</ele>
        <time>2022-05-01T07:28:33.000Z</time>
      </trkpt>
      <trkpt lat="47.26984" lon="-2.31384">
        <ele>30.39999961853</ele>
        <time>2022-05-01T07:28:34.000Z</time>
      </trkpt>
      <trkpt lat="47.26983" lon="-2.31364">
        <ele>30.39999961853</ele>
        <time>2022-05-01T07:28:38.000Z</time>
      </trkpt>
      <trkpt lat="47.26982" lon="-2.31359">
        <ele>30.799999237061</ele>
        <time>2022-05-01T07:28:39.000Z</time>
      </trkpt>
      <trkpt lat="47.26982" lon="-2.31353">
        <ele>31.200000762939</ele>
        <time>2022-05-01T07:28:40.000Z</time>
      </trkpt>
      <trkpt lat="47.26982" lon="-2.31348">
        <ele>31.60000038147</ele>
        <time>2022-05-01T07:28:41.000Z</time>
      </trkpt>
      <trkpt lat="47.26981" lon="-2.31341">
        <ele>32</ele>
        <time>2022-05-01T07:28:42.000Z</time>
      </trkpt>
      <trkpt lat="47.26981" lon="-2.31336">
        <ele>32.400001525879</ele>
        <time>2022-05-01T07:28:43.000Z</time>
      </trkpt>
      <trkpt lat="47.2698" lon="-2.31325">
        <ele>32.400001525879</ele>
        <time>2022-05-01T07:28:45.000Z</time>
      </trkpt>
      <trkpt lat="47.26976" lon="-2.31298">
        <ele>32.400001525879</ele>
        <time>2022-05-01T07:28:51.000Z</time>
      </trkpt>
      <trkpt lat="47.26976" lon="-2.3129">
        <ele>32.400001525879</ele>
        <time>2022-05-01T07:28:54.000Z</time>
      </trkpt>
      <trkpt lat="47.26976" lon="-2.31285">
        <ele>32.400001525879</ele>
        <time>2022-05-01T07:29:07.000Z</time>
      </trkpt>
      <trkpt lat="47.26975" lon="-2.31266">
        <ele>32.400001525879</ele>
        <time>2022-05-01T07:29:12.000Z</time>
      </trkpt>
      <trkpt lat="47.26975" lon="-2.31239">
        <ele>32.400001525879</ele>
        <time>2022-05-01T07:29:17.000Z</time>
      </trkpt>
      <trkpt lat="47.2698" lon="-2.31198">
        <ele>32.400001525879</ele>
        <time>2022-05-01T07:29:23.000Z</time>
      </trkpt>
      <trkpt lat="47.26985" lon="-2.31158">
        <ele>32.400001525879</ele>
        <time>2022-05-01T07:29:28.000Z</time>
      </trkpt>
      <trkpt lat="47.26986" lon="-2.3115">
        <ele>32.400001525879</ele>
        <time>2022-05-01T07:29:29.000Z</time>
      </trkpt>
      <trkpt lat="47.26987" lon="-2.31125">
        <ele>32</ele>
        <time>2022-05-01T07:29:32.000Z</time>
      </trkpt>
      <trkpt lat="47.26988" lon="-2.31116">
        <ele>31.60000038147</ele>
        <time>2022-05-01T07:29:33.000Z</time>
      </trkpt>
      <trkpt lat="47.26988" lon="-2.31108">
        <ele>30.60000038147</ele>
        <time>2022-05-01T07:29:34.000Z</time>
      </trkpt>
      <trkpt lat="47.26988" lon="-2.31101">
        <ele>30.200000762939</ele>
        <time>2022-05-01T07:29:35.000Z</time>
      </trkpt>
      <trkpt lat="47.26987" lon="-2.31095">
        <ele>30.200000762939</ele>
        <time>2022-05-01T07:29:36.000Z</time>
      </trkpt>
      <trkpt lat="47.26987" lon="-2.31076">
        <ele>30.200000762939</ele>
        <time>2022-05-01T07:29:40.000Z</time>
      </trkpt>
      <trkpt lat="47.2699" lon="-2.31069">
        <ele>29.799999237061</ele>
        <time>2022-05-01T07:29:42.000Z</time>
      </trkpt>
      <trkpt lat="47.26992" lon="-2.31066">
        <ele>29.39999961853</ele>
        <time>2022-05-01T07:29:43.000Z</time>
      </trkpt>
      <trkpt lat="47.26995" lon="-2.31062">
        <ele>29</ele>
        <time>2022-05-01T07:29:44.000Z</time>
      </trkpt>
      <trkpt lat="47.26999" lon="-2.31059">
        <ele>28.60000038147</ele>
        <time>2022-05-01T07:29:45.000Z</time>
      </trkpt>
      <trkpt lat="47.27004" lon="-2.31055">
        <ele>28</ele>
        <time>2022-05-01T07:29:46.000Z</time>
      </trkpt>
      <trkpt lat="47.27025" lon="-2.31037">
        <ele>27.60000038147</ele>
        <time>2022-05-01T07:29:51.000Z</time>
      </trkpt>
      <trkpt lat="47.27028" lon="-2.31034">
        <ele>27.200000762939</ele>
        <time>2022-05-01T07:29:52.000Z</time>
      </trkpt>
      <trkpt lat="47.27032" lon="-2.3103">
        <ele>26.799999237061</ele>
        <time>2022-05-01T07:29:53.000Z</time>
      </trkpt>
      <trkpt lat="47.27037" lon="-2.31027">
        <ele>26.39999961853</ele>
        <time>2022-05-01T07:29:54.000Z</time>
      </trkpt>
      <trkpt lat="47.27041" lon="-2.31023">
        <ele>26</ele>
        <time>2022-05-01T07:29:55.000Z</time>
      </trkpt>
      <trkpt lat="47.27045" lon="-2.31019">
        <ele>26</ele>
        <time>2022-05-01T07:29:56.000Z</time>
      </trkpt>
      <trkpt lat="47.27053" lon="-2.30998">
        <ele>26</ele>
        <time>2022-05-01T07:30:00.000Z</time>
      </trkpt>
      <trkpt lat="47.27052" lon="-2.30979">
        <ele>26</ele>
        <time>2022-05-01T07:30:03.000Z</time>
      </trkpt>
      <trkpt lat="47.27052" lon="-2.3096">
        <ele>26</ele>
        <time>2022-05-01T07:30:06.000Z</time>
      </trkpt>
      <trkpt lat="47.27047" lon="-2.30937">
        <ele>26</ele>
        <time>2022-05-01T07:30:10.000Z</time>
      </trkpt>
      <trkpt lat="47.27045" lon="-2.30932">
        <ele>26</ele>
        <time>2022-05-01T07:30:11.000Z</time>
      </trkpt>
      <trkpt lat="47.27044" lon="-2.30903">
        <ele>26</ele>
        <time>2022-05-01T07:30:15.000Z</time>
      </trkpt>
      <trkpt lat="47.27039" lon="-2.30886">
        <ele>26</ele>
        <time>2022-05-01T07:30:18.000Z</time>
      </trkpt>
      <trkpt lat="47.27036" lon="-2.3088">
        <ele>26</ele>
        <time>2022-05-01T07:30:19.000Z</time>
      </trkpt>
      <trkpt lat="47.27013" lon="-2.30841">
        <ele>26</ele>
        <time>2022-05-01T07:30:26.000Z</time>
      </trkpt>
      <trkpt lat="47.26995" lon="-2.30812">
        <ele>26.39999961853</ele>
        <time>2022-05-01T07:30:31.000Z</time>
      </trkpt>
      <trkpt lat="47.26991" lon="-2.30807">
        <ele>26.799999237061</ele>
        <time>2022-05-01T07:30:32.000Z</time>
      </trkpt>
      <trkpt lat="47.26988" lon="-2.30802">
        <ele>27.200000762939</ele>
        <time>2022-05-01T07:30:33.000Z</time>
      </trkpt>
      <trkpt lat="47.26984" lon="-2.30797">
        <ele>27.799999237061</ele>
        <time>2022-05-01T07:30:34.000Z</time>
      </trkpt>
      <trkpt lat="47.26981" lon="-2.30792">
        <ele>28.200000762939</ele>
        <time>2022-05-01T07:30:35.000Z</time>
      </trkpt>
      <trkpt lat="47.26977" lon="-2.30787">
        <ele>28.200000762939</ele>
        <time>2022-05-01T07:30:36.000Z</time>
      </trkpt>
      <trkpt lat="47.26974" lon="-2.30782">
        <ele>28.200000762939</ele>
        <time>2022-05-01T07:30:37.000Z</time>
      </trkpt>
      <trkpt lat="47.2697" lon="-2.30776">
        <ele>28.200000762939</ele>
        <time>2022-05-01T07:30:38.000Z</time>
      </trkpt>
      <trkpt lat="47.26957" lon="-2.30755">
        <ele>28.60000038147</ele>
        <time>2022-05-01T07:30:42.000Z</time>
      </trkpt>
      <trkpt lat="47.26954" lon="-2.30751">
        <ele>29</ele>
        <time>2022-05-01T07:30:43.000Z</time>
      </trkpt>
      <trkpt lat="47.26951" lon="-2.30746">
        <ele>29.39999961853</ele>
        <time>2022-05-01T07:30:44.000Z</time>
      </trkpt>
      <trkpt lat="47.26948" lon="-2.30742">
        <ele>29.799999237061</ele>
        <time>2022-05-01T07:30:45.000Z</time>
      </trkpt>
      <trkpt lat="47.26944" lon="-2.30736">
        <ele>30.200000762939</ele>
        <time>2022-05-01T07:30:46.000Z</time>
      </trkpt>
      <trkpt lat="47.26935" lon="-2.30721">
        <ele>30.200000762939</ele>
        <time>2022-05-01T07:30:49.000Z</time>
      </trkpt>
      <trkpt lat="47.26932" lon="-2.30717">
        <ele>30.60000038147</ele>
        <time>2022-05-01T07:30:50.000Z</time>
      </trkpt>
      <trkpt lat="47.26928" lon="-2.30713">
        <ele>31</ele>
        <time>2022-05-01T07:30:51.000Z</time>
      </trkpt>
      <trkpt lat="47.26925" lon="-2.30709">
        <ele>31.39999961853</ele>
        <time>2022-05-01T07:30:52.000Z</time>
      </trkpt>
      <trkpt lat="47.26922" lon="-2.30704">
        <ele>32</ele>
        <time>2022-05-01T07:30:53.000Z</time>
      </trkpt>
      <trkpt lat="47.26918" lon="-2.30699">
        <ele>32.400001525879</ele>
        <time>2022-05-01T07:30:54.000Z</time>
      </trkpt>
      <trkpt lat="47.26912" lon="-2.3069">
        <ele>32.400001525879</ele>
        <time>2022-05-01T07:30:56.000Z</time>
      </trkpt>
      <trkpt lat="47.26899" lon="-2.30666">
        <ele>32.400001525879</ele>
        <time>2022-05-01T07:31:02.000Z</time>
      </trkpt>
      <trkpt lat="47.26899" lon="-2.30662">
        <ele>32.400001525879</ele>
        <time>2022-05-01T07:31:03.000Z</time>
      </trkpt>
      <trkpt lat="47.26903" lon="-2.30655">
        <ele>32.400001525879</ele>
        <time>2022-05-01T07:31:05.000Z</time>
      </trkpt>
      <trkpt lat="47.26922" lon="-2.30639">
        <ele>32.400001525879</ele>
        <time>2022-05-01T07:31:11.000Z</time>
      </trkpt>
      <trkpt lat="47.26934" lon="-2.30636">
        <ele>32.400001525879</ele>
        <time>2022-05-01T07:31:14.000Z</time>
      </trkpt>
      <trkpt lat="47.26944" lon="-2.30633">
        <ele>32.400001525879</ele>
        <time>2022-05-01T07:31:16.000Z</time>
      </trkpt>
      <trkpt lat="47.26975" lon="-2.30618">
        <ele>32.400001525879</ele>
        <time>2022-05-01T07:31:22.000Z</time>
      </trkpt>
      <trkpt lat="47.27" lon="-2.30601">
        <ele>32.400001525879</ele>
        <time>2022-05-01T07:31:27.000Z</time>
      </trkpt>
      <trkpt lat="47.27005" lon="-2.30595">
        <ele>32.400001525879</ele>
        <time>2022-05-01T07:31:28.000Z</time>
      </trkpt>
      <trkpt lat="47.27013" lon="-2.30573">
        <ele>32.400001525879</ele>
        <time>2022-05-01T07:31:31.000Z</time>
      </trkpt>
      <trkpt lat="47.27015" lon="-2.30565">
        <ele>32.400001525879</ele>
        <time>2022-05-01T07:31:32.000Z</time>
      </trkpt>
      <trkpt lat="47.27029" lon="-2.30513">
        <ele>32.400001525879</ele>
        <time>2022-05-01T07:31:39.000Z</time>
      </trkpt>
      <trkpt lat="47.27036" lon="-2.30482">
        <ele>32.400001525879</ele>
        <time>2022-05-01T07:31:44.000Z</time>
      </trkpt>
      <trkpt lat="47.27041" lon="-2.30472">
        <ele>32.400001525879</ele>
        <time>2022-05-01T07:31:48.000Z</time>
      </trkpt>
      <trkpt lat="47.27043" lon="-2.30471">
        <ele>32.400001525879</ele>
        <time>2022-05-01T07:31:49.000Z</time>
      </trkpt>
      <trkpt lat="47.27051" lon="-2.30475">
        <ele>32.400001525879</ele>
        <time>2022-05-01T07:31:52.000Z</time>
      </trkpt>
      <trkpt lat="47.27054" lon="-2.30477">
        <ele>32.400001525879</ele>
        <time>2022-05-01T07:31:53.000Z</time>
      </trkpt>
      <trkpt lat="47.27062" lon="-2.30478">
        <ele>32</ele>
        <time>2022-05-01T07:31:55.000Z</time>
      </trkpt>
      <trkpt lat="47.27066" lon="-2.30479">
        <ele>31.39999961853</ele>
        <time>2022-05-01T07:31:56.000Z</time>
      </trkpt>
      <trkpt lat="47.27069" lon="-2.3048">
        <ele>31</ele>
        <time>2022-05-01T07:31:57.000Z</time>
      </trkpt>
      <trkpt lat="47.27073" lon="-2.30482">
        <ele>30.60000038147</ele>
        <time>2022-05-01T07:31:58.000Z</time>
      </trkpt>
      <trkpt lat="47.27077" lon="-2.30483">
        <ele>30.200000762939</ele>
        <time>2022-05-01T07:31:59.000Z</time>
      </trkpt>
      <trkpt lat="47.27092" lon="-2.30488">
        <ele>30.200000762939</ele>
        <time>2022-05-01T07:32:03.000Z</time>
      </trkpt>
      <trkpt lat="47.27103" lon="-2.3049">
        <ele>30.200000762939</ele>
        <time>2022-05-01T07:32:06.000Z</time>
      </trkpt>
      <trkpt lat="47.27111" lon="-2.30494">
        <ele>29.799999237061</ele>
        <time>2022-05-01T07:32:08.000Z</time>
      </trkpt>
      <trkpt lat="47.27115" lon="-2.30495">
        <ele>29.39999961853</ele>
        <time>2022-05-01T07:32:09.000Z</time>
      </trkpt>
      <trkpt lat="47.2712" lon="-2.30497">
        <ele>29</ele>
        <time>2022-05-01T07:32:10.000Z</time>
      </trkpt>
      <trkpt lat="47.27124" lon="-2.30499">
        <ele>28.60000038147</ele>
        <time>2022-05-01T07:32:11.000Z</time>
      </trkpt>
      <trkpt lat="47.27128" lon="-2.30501">
        <ele>28.200000762939</ele>
        <time>2022-05-01T07:32:12.000Z</time>
      </trkpt>
      <trkpt lat="47.27142" lon="-2.30513">
        <ele>28.200000762939</ele>
        <time>2022-05-01T07:32:16.000Z</time>
      </trkpt>
      <trkpt lat="47.27146" lon="-2.30516">
        <ele>28.200000762939</ele>
        <time>2022-05-01T07:32:17.000Z</time>
      </trkpt>
      <trkpt lat="47.27155" lon="-2.30523">
        <ele>27.60000038147</ele>
        <time>2022-05-01T07:32:20.000Z</time>
      </trkpt>
      <trkpt lat="47.27157" lon="-2.30525">
        <ele>27.200000762939</ele>
        <time>2022-05-01T07:32:21.000Z</time>
      </trkpt>
      <trkpt lat="47.2716" lon="-2.30526">
        <ele>26.799999237061</ele>
        <time>2022-05-01T07:32:22.000Z</time>
      </trkpt>
      <trkpt lat="47.27162" lon="-2.30527">
        <ele>26.39999961853</ele>
        <time>2022-05-01T07:32:23.000Z</time>
      </trkpt>
      <trkpt lat="47.27165" lon="-2.30528">
        <ele>26</ele>
        <time>2022-05-01T07:32:24.000Z</time>
      </trkpt>
      <trkpt lat="47.27175" lon="-2.30533">
        <ele>26</ele>
        <time>2022-05-01T07:32:28.000Z</time>
      </trkpt>
      <trkpt lat="47.27188" lon="-2.30537">
        <ele>26</ele>
        <time>2022-05-01T07:32:33.000Z</time>
      </trkpt>
      <trkpt lat="47.27201" lon="-2.30541">
        <ele>26</ele>
        <time>2022-05-01T07:32:38.000Z</time>
      </trkpt>
      <trkpt lat="47.27211" lon="-2.30541">
        <ele>26</ele>
        <time>2022-05-01T07:32:42.000Z</time>
      </trkpt>
      <trkpt lat="47.27225" lon="-2.30541">
        <ele>26</ele>
        <time>2022-05-01T07:32:47.000Z</time>
      </trkpt>
      <trkpt lat="47.27227" lon="-2.30542">
        <ele>25.60000038147</ele>
        <time>2022-05-01T07:32:48.000Z</time>
      </trkpt>
      <trkpt lat="47.27229" lon="-2.30542">
        <ele>25.200000762939</ele>
        <time>2022-05-01T07:32:49.000Z</time>
      </trkpt>
      <trkpt lat="47.27231" lon="-2.30543">
        <ele>24.39999961853</ele>
        <time>2022-05-01T07:32:50.000Z</time>
      </trkpt>
      <trkpt lat="47.27233" lon="-2.30542">
        <ele>24</ele>
        <time>2022-05-01T07:32:51.000Z</time>
      </trkpt>
      <trkpt lat="47.27235" lon="-2.30542">
        <ele>24</ele>
        <time>2022-05-01T07:32:52.000Z</time>
      </trkpt>
      <trkpt lat="47.27237" lon="-2.30541">
        <ele>24</ele>
        <time>2022-05-01T07:32:53.000Z</time>
      </trkpt>
      <trkpt lat="47.27243" lon="-2.30541">
        <ele>24</ele>
        <time>2022-05-01T07:32:56.000Z</time>
      </trkpt>
      <trkpt lat="47.27247" lon="-2.30542">
        <ele>24</ele>
        <time>2022-05-01T07:32:59.000Z</time>
      </trkpt>
      <trkpt lat="47.2725" lon="-2.30544">
        <ele>24</ele>
        <time>2022-05-01T07:33:01.000Z</time>
      </trkpt>
      <trkpt lat="47.27277" lon="-2.30551">
        <ele>24</ele>
        <time>2022-05-01T07:33:40.000Z</time>
      </trkpt>
      <trkpt lat="47.27281" lon="-2.30552">
        <ele>24</ele>
        <time>2022-05-01T07:33:42.000Z</time>
      </trkpt>
      <trkpt lat="47.27286" lon="-2.30549">
        <ele>24</ele>
        <time>2022-05-01T07:33:44.000Z</time>
      </trkpt>
      <trkpt lat="47.27296" lon="-2.30542">
        <ele>24</ele>
        <time>2022-05-01T07:33:48.000Z</time>
      </trkpt>
      <trkpt lat="47.27313" lon="-2.30534">
        <ele>24</ele>
        <time>2022-05-01T07:33:54.000Z</time>
      </trkpt>
      <trkpt lat="47.27327" lon="-2.30533">
        <ele>24</ele>
        <time>2022-05-01T07:33:59.000Z</time>
      </trkpt>
      <trkpt lat="47.27342" lon="-2.30527">
        <ele>24</ele>
        <time>2022-05-01T07:34:04.000Z</time>
      </trkpt>
      <trkpt lat="47.27358" lon="-2.30518">
        <ele>24</ele>
        <time>2022-05-01T07:34:10.000Z</time>
      </trkpt>
      <trkpt lat="47.27369" lon="-2.30507">
        <ele>24</ele>
        <time>2022-05-01T07:34:16.000Z</time>
      </trkpt>
      <trkpt lat="47.27376" lon="-2.30499">
        <ele>24</ele>
        <time>2022-05-01T07:34:21.000Z</time>
      </trkpt>
      <trkpt lat="47.27385" lon="-2.30489">
        <ele>24</ele>
        <time>2022-05-01T07:34:27.000Z</time>
      </trkpt>
      <trkpt lat="47.27387" lon="-2.30485">
        <ele>24</ele>
        <time>2022-05-01T07:34:30.000Z</time>
      </trkpt>
      <trkpt lat="47.2739" lon="-2.3048">
        <ele>24</ele>
        <time>2022-05-01T07:34:33.000Z</time>
      </trkpt>
      <trkpt lat="47.27397" lon="-2.30473">
        <ele>24</ele>
        <time>2022-05-01T07:34:38.000Z</time>
      </trkpt>
      <trkpt lat="47.274" lon="-2.30471">
        <ele>24</ele>
        <time>2022-05-01T07:34:40.000Z</time>
      </trkpt>
      <trkpt lat="47.27407" lon="-2.30465">
        <ele>24</ele>
        <time>2022-05-01T07:34:44.000Z</time>
      </trkpt>
      <trkpt lat="47.2742" lon="-2.30454">
        <ele>24</ele>
        <time>2022-05-01T07:34:55.000Z</time>
      </trkpt>
      <trkpt lat="47.27423" lon="-2.30451">
        <ele>24</ele>
        <time>2022-05-01T07:34:57.000Z</time>
      </trkpt>
      <trkpt lat="47.27431" lon="-2.30451">
        <ele>24</ele>
        <time>2022-05-01T07:35:00.000Z</time>
      </trkpt>
      <trkpt lat="47.27452" lon="-2.30449">
        <ele>24</ele>
        <time>2022-05-01T07:35:07.000Z</time>
      </trkpt>
      <trkpt lat="47.27464" lon="-2.30447">
        <ele>24.39999961853</ele>
        <time>2022-05-01T07:35:10.000Z</time>
      </trkpt>
      <trkpt lat="47.27469" lon="-2.30446">
        <ele>24.799999237061</ele>
        <time>2022-05-01T07:35:11.000Z</time>
      </trkpt>
      <trkpt lat="47.27474" lon="-2.30446">
        <ele>25.200000762939</ele>
        <time>2022-05-01T07:35:12.000Z</time>
      </trkpt>
      <trkpt lat="47.27479" lon="-2.30445">
        <ele>25.60000038147</ele>
        <time>2022-05-01T07:35:13.000Z</time>
      </trkpt>
      <trkpt lat="47.27483" lon="-2.30444">
        <ele>26</ele>
        <time>2022-05-01T07:35:14.000Z</time>
      </trkpt>
      <trkpt lat="47.27498" lon="-2.30437">
        <ele>26</ele>
        <time>2022-05-01T07:35:19.000Z</time>
      </trkpt>
      <trkpt lat="47.275" lon="-2.30436">
        <ele>26</ele>
        <time>2022-05-01T07:35:22.000Z</time>
      </trkpt>
      <trkpt lat="47.27505" lon="-2.30432">
        <ele>26</ele>
        <time>2022-05-01T07:36:18.000Z</time>
      </trkpt>
      <trkpt lat="47.27503" lon="-2.30419">
        <ele>26</ele>
        <time>2022-05-01T07:36:22.000Z</time>
      </trkpt>
      <trkpt lat="47.27497" lon="-2.30388">
        <ele>26</ele>
        <time>2022-05-01T07:36:28.000Z</time>
      </trkpt>
      <trkpt lat="47.27492" lon="-2.30363">
        <ele>26.39999961853</ele>
        <time>2022-05-01T07:36:32.000Z</time>
      </trkpt>
      <trkpt lat="47.27491" lon="-2.30357">
        <ele>26.799999237061</ele>
        <time>2022-05-01T07:36:33.000Z</time>
      </trkpt>
      <trkpt lat="47.27489" lon="-2.30351">
        <ele>27.200000762939</ele>
        <time>2022-05-01T07:36:34.000Z</time>
      </trkpt>
      <trkpt lat="47.27488" lon="-2.30346">
        <ele>27.60000038147</ele>
        <time>2022-05-01T07:36:35.000Z</time>
      </trkpt>
      <trkpt lat="47.27487" lon="-2.3034">
        <ele>28</ele>
        <time>2022-05-01T07:36:36.000Z</time>
      </trkpt>
      <trkpt lat="47.27481" lon="-2.30304">
        <ele>28</ele>
        <time>2022-05-01T07:36:42.000Z</time>
      </trkpt>
      <trkpt lat="47.2748" lon="-2.30299">
        <ele>28</ele>
        <time>2022-05-01T07:36:43.000Z</time>
      </trkpt>
      <trkpt lat="47.27479" lon="-2.30292">
        <ele>28.39999961853</ele>
        <time>2022-05-01T07:36:44.000Z</time>
      </trkpt>
      <trkpt lat="47.27478" lon="-2.30286">
        <ele>29</ele>
        <time>2022-05-01T07:36:45.000Z</time>
      </trkpt>
      <trkpt lat="47.27477" lon="-2.3028">
        <ele>29.39999961853</ele>
        <time>2022-05-01T07:36:46.000Z</time>
      </trkpt>
      <trkpt lat="47.27475" lon="-2.30274">
        <ele>29.799999237061</ele>
        <time>2022-05-01T07:36:47.000Z</time>
      </trkpt>
      <trkpt lat="47.27474" lon="-2.30268">
        <ele>30.200000762939</ele>
        <time>2022-05-01T07:36:48.000Z</time>
      </trkpt>
      <trkpt lat="47.27473" lon="-2.30262">
        <ele>30.200000762939</ele>
        <time>2022-05-01T07:36:49.000Z</time>
      </trkpt>
      <trkpt lat="47.27466" lon="-2.30235">
        <ele>30.200000762939</ele>
        <time>2022-05-01T07:36:54.000Z</time>
      </trkpt>
      <trkpt lat="47.27462" lon="-2.30221">
        <ele>30.60000038147</ele>
        <time>2022-05-01T07:36:57.000Z</time>
      </trkpt>
      <trkpt lat="47.27461" lon="-2.30219">
        <ele>31</ele>
        <time>2022-05-01T07:36:58.000Z</time>
      </trkpt>
      <trkpt lat="47.27459" lon="-2.30218">
        <ele>31.39999961853</ele>
        <time>2022-05-01T07:36:59.000Z</time>
      </trkpt>
      <trkpt lat="47.27457" lon="-2.30217">
        <ele>31.799999237061</ele>
        <time>2022-05-01T07:37:00.000Z</time>
      </trkpt>
      <trkpt lat="47.27454" lon="-2.30216">
        <ele>32.200000762939</ele>
        <time>2022-05-01T07:37:01.000Z</time>
      </trkpt>
      <trkpt lat="47.27448" lon="-2.30218">
        <ele>32.200000762939</ele>
        <time>2022-05-01T07:37:03.000Z</time>
      </trkpt>
      <trkpt lat="47.27444" lon="-2.3022">
        <ele>32.200000762939</ele>
        <time>2022-05-01T07:37:04.000Z</time>
      </trkpt>
      <trkpt lat="47.27426" lon="-2.3023">
        <ele>32.200000762939</ele>
        <time>2022-05-01T07:37:08.000Z</time>
      </trkpt>
      <trkpt lat="47.27393" lon="-2.30246">
        <ele>32.200000762939</ele>
        <time>2022-05-01T07:37:15.000Z</time>
      </trkpt>
      <trkpt lat="47.27363" lon="-2.30254">
        <ele>32.200000762939</ele>
        <time>2022-05-01T07:37:21.000Z</time>
      </trkpt>
      <trkpt lat="47.27334" lon="-2.30257">
        <ele>32.200000762939</ele>
        <time>2022-05-01T07:37:27.000Z</time>
      </trkpt>
      <trkpt lat="47.27304" lon="-2.30261">
        <ele>32.200000762939</ele>
        <time>2022-05-01T07:37:33.000Z</time>
      </trkpt>
      <trkpt lat="47.27299" lon="-2.30261">
        <ele>32.200000762939</ele>
        <time>2022-05-01T07:37:34.000Z</time>
      </trkpt>
      <trkpt lat="47.2729" lon="-2.30261">
        <ele>32.200000762939</ele>
        <time>2022-05-01T07:37:36.000Z</time>
      </trkpt>
      <trkpt lat="47.27277" lon="-2.30262">
        <ele>32.200000762939</ele>
        <time>2022-05-01T07:37:39.000Z</time>
      </trkpt>
      <trkpt lat="47.27274" lon="-2.30263">
        <ele>32.200000762939</ele>
        <time>2022-05-01T07:37:40.000Z</time>
      </trkpt>
      <trkpt lat="47.27268" lon="-2.30264">
        <ele>31.799999237061</ele>
        <time>2022-05-01T07:37:42.000Z</time>
      </trkpt>
      <trkpt lat="47.27266" lon="-2.30265">
        <ele>31.39999961853</ele>
        <time>2022-05-01T07:37:43.000Z</time>
      </trkpt>
      <trkpt lat="47.27263" lon="-2.30266">
        <ele>31</ele>
        <time>2022-05-01T07:37:44.000Z</time>
      </trkpt>
      <trkpt lat="47.2726" lon="-2.30266">
        <ele>30.60000038147</ele>
        <time>2022-05-01T07:37:45.000Z</time>
      </trkpt>
      <trkpt lat="47.27257" lon="-2.30266">
        <ele>30.200000762939</ele>
        <time>2022-05-01T07:37:46.000Z</time>
      </trkpt>
      <trkpt lat="47.27243" lon="-2.30264">
        <ele>30.200000762939</ele>
        <time>2022-05-01T07:37:50.000Z</time>
      </trkpt>
      <trkpt lat="47.2723" lon="-2.30261">
        <ele>30.200000762939</ele>
        <time>2022-05-01T07:37:55.000Z</time>
      </trkpt>
      <trkpt lat="47.27213" lon="-2.30257">
        <ele>30.200000762939</ele>
        <time>2022-05-01T07:38:00.000Z</time>
      </trkpt>
      <trkpt lat="47.27195" lon="-2.30264">
        <ele>30.200000762939</ele>
        <time>2022-05-01T07:38:05.000Z</time>
      </trkpt>
      <trkpt lat="47.27184" lon="-2.30264">
        <ele>30.200000762939</ele>
        <time>2022-05-01T07:38:08.000Z</time>
      </trkpt>
      <trkpt lat="47.2718" lon="-2.30262">
        <ele>30.200000762939</ele>
        <time>2022-05-01T07:38:09.000Z</time>
      </trkpt>
      <trkpt lat="47.27174" lon="-2.30256">
        <ele>31</ele>
        <time>2022-05-01T07:38:12.000Z</time>
      </trkpt>
      <trkpt lat="47.27172" lon="-2.30254">
        <ele>31.39999961853</ele>
        <time>2022-05-01T07:38:13.000Z</time>
      </trkpt>
      <trkpt lat="47.27168" lon="-2.30251">
        <ele>31.799999237061</ele>
        <time>2022-05-01T07:38:14.000Z</time>
      </trkpt>
      <trkpt lat="47.27165" lon="-2.30249">
        <ele>32.200000762939</ele>
        <time>2022-05-01T07:38:15.000Z</time>
      </trkpt>
      <trkpt lat="47.27163" lon="-2.30244">
        <ele>32.200000762939</ele>
        <time>2022-05-01T07:38:16.000Z</time>
      </trkpt>
      <trkpt lat="47.27162" lon="-2.30232">
        <ele>32.200000762939</ele>
        <time>2022-05-01T07:38:18.000Z</time>
      </trkpt>
      <trkpt lat="47.27159" lon="-2.30189">
        <ele>32.200000762939</ele>
        <time>2022-05-01T07:38:25.000Z</time>
      </trkpt>
      <trkpt lat="47.27159" lon="-2.30158">
        <ele>32.200000762939</ele>
        <time>2022-05-01T07:38:30.000Z</time>
      </trkpt>
      <trkpt lat="47.27159" lon="-2.30147">
        <ele>32.599998474121</ele>
        <time>2022-05-01T07:38:32.000Z</time>
      </trkpt>
      <trkpt lat="47.27158" lon="-2.30142">
        <ele>33</ele>
        <time>2022-05-01T07:38:33.000Z</time>
      </trkpt>
      <trkpt lat="47.27158" lon="-2.30137">
        <ele>33.400001525879</ele>
        <time>2022-05-01T07:38:34.000Z</time>
      </trkpt>
      <trkpt lat="47.27158" lon="-2.30132">
        <ele>33.799999237061</ele>
        <time>2022-05-01T07:38:35.000Z</time>
      </trkpt>
      <trkpt lat="47.27158" lon="-2.30128">
        <ele>34.200000762939</ele>
        <time>2022-05-01T07:38:36.000Z</time>
      </trkpt>
      <trkpt lat="47.27157" lon="-2.30125">
        <ele>34.200000762939</ele>
        <time>2022-05-01T07:38:37.000Z</time>
      </trkpt>
      <trkpt lat="47.27146" lon="-2.30118">
        <ele>34.200000762939</ele>
        <time>2022-05-01T07:38:41.000Z</time>
      </trkpt>
      <trkpt lat="47.27138" lon="-2.30117">
        <ele>34.200000762939</ele>
        <time>2022-05-01T07:38:43.000Z</time>
      </trkpt>
      <trkpt lat="47.27126" lon="-2.30114">
        <ele>34.200000762939</ele>
        <time>2022-05-01T07:38:46.000Z</time>
      </trkpt>
      <trkpt lat="47.27121" lon="-2.30112">
        <ele>34.599998474121</ele>
        <time>2022-05-01T07:38:47.000Z</time>
      </trkpt>
      <trkpt lat="47.27118" lon="-2.3011">
        <ele>35</ele>
        <time>2022-05-01T07:38:48.000Z</time>
      </trkpt>
      <trkpt lat="47.27114" lon="-2.30108">
        <ele>35.599998474121</ele>
        <time>2022-05-01T07:38:49.000Z</time>
      </trkpt>
      <trkpt lat="47.2711" lon="-2.30105">
        <ele>36</ele>
        <time>2022-05-01T07:38:50.000Z</time>
      </trkpt>
      <trkpt lat="47.27107" lon="-2.30103">
        <ele>36.400001525879</ele>
        <time>2022-05-01T07:38:51.000Z</time>
      </trkpt>
      <trkpt lat="47.27099" lon="-2.30097">
        <ele>36.400001525879</ele>
        <time>2022-05-01T07:38:53.000Z</time>
      </trkpt>
      <trkpt lat="47.27079" lon="-2.3008">
        <ele>36.400001525879</ele>
        <time>2022-05-01T07:38:59.000Z</time>
      </trkpt>
      <trkpt lat="47.27057" lon="-2.30072">
        <ele>36.400001525879</ele>
        <time>2022-05-01T07:39:04.000Z</time>
      </trkpt>
      <trkpt lat="47.2705" lon="-2.3007">
        <ele>36.799999237061</ele>
        <time>2022-05-01T07:39:06.000Z</time>
      </trkpt>
      <trkpt lat="47.27046" lon="-2.30069">
        <ele>37.200000762939</ele>
        <time>2022-05-01T07:39:07.000Z</time>
      </trkpt>
      <trkpt lat="47.27042" lon="-2.30068">
        <ele>37.599998474121</ele>
        <time>2022-05-01T07:39:08.000Z</time>
      </trkpt>
      <trkpt lat="47.27038" lon="-2.30068">
        <ele>38</ele>
        <time>2022-05-01T07:39:09.000Z</time>
      </trkpt>
      <trkpt lat="47.27035" lon="-2.30068">
        <ele>38.400001525879</ele>
        <time>2022-05-01T07:39:10.000Z</time>
      </trkpt>
      <trkpt lat="47.27019" lon="-2.30068">
        <ele>38.400001525879</ele>
        <time>2022-05-01T07:39:15.000Z</time>
      </trkpt>
      <trkpt lat="47.27015" lon="-2.30052">
        <ele>38.400001525879</ele>
        <time>2022-05-01T07:39:19.000Z</time>
      </trkpt>
      <trkpt lat="47.27016" lon="-2.30046">
        <ele>38.400001525879</ele>
        <time>2022-05-01T07:39:20.000Z</time>
      </trkpt>
      <trkpt lat="47.27024" lon="-2.30013">
        <ele>38.400001525879</ele>
        <time>2022-05-01T07:39:25.000Z</time>
      </trkpt>
      <trkpt lat="47.27039" lon="-2.29975">
        <ele>38.400001525879</ele>
        <time>2022-05-01T07:39:31.000Z</time>
      </trkpt>
      <trkpt lat="47.27056" lon="-2.2994">
        <ele>38.400001525879</ele>
        <time>2022-05-01T07:39:36.000Z</time>
      </trkpt>
      <trkpt lat="47.27081" lon="-2.29906">
        <ele>38.400001525879</ele>
        <time>2022-05-01T07:39:42.000Z</time>
      </trkpt>
      <trkpt lat="47.27085" lon="-2.299">
        <ele>38.400001525879</ele>
        <time>2022-05-01T07:39:43.000Z</time>
      </trkpt>
      <trkpt lat="47.27094" lon="-2.29879">
        <ele>38.400001525879</ele>
        <time>2022-05-01T07:39:46.000Z</time>
      </trkpt>
      <trkpt lat="47.27103" lon="-2.29843">
        <ele>38.400001525879</ele>
        <time>2022-05-01T07:39:51.000Z</time>
      </trkpt>
      <trkpt lat="47.27106" lon="-2.29821">
        <ele>38.799999237061</ele>
        <time>2022-05-01T07:39:54.000Z</time>
      </trkpt>
      <trkpt lat="47.27107" lon="-2.29813">
        <ele>39.200000762939</ele>
        <time>2022-05-01T07:39:55.000Z</time>
      </trkpt>
      <trkpt lat="47.27107" lon="-2.29805">
        <ele>39.599998474121</ele>
        <time>2022-05-01T07:39:56.000Z</time>
      </trkpt>
      <trkpt lat="47.27107" lon="-2.29798">
        <ele>40</ele>
        <time>2022-05-01T07:39:57.000Z</time>
      </trkpt>
      <trkpt lat="47.27107" lon="-2.29791">
        <ele>40.400001525879</ele>
        <time>2022-05-01T07:39:58.000Z</time>
      </trkpt>
      <trkpt lat="47.27108" lon="-2.29767">
        <ele>40.400001525879</ele>
        <time>2022-05-01T07:40:01.000Z</time>
      </trkpt>
      <trkpt lat="47.27111" lon="-2.29706">
        <ele>40.400001525879</ele>
        <time>2022-05-01T07:40:09.000Z</time>
      </trkpt>
      <trkpt lat="47.27114" lon="-2.29674">
        <ele>40.400001525879</ele>
        <time>2022-05-01T07:40:15.000Z</time>
      </trkpt>
      <trkpt lat="47.27117" lon="-2.2966">
        <ele>40.400001525879</ele>
        <time>2022-05-01T07:40:20.000Z</time>
      </trkpt>
      <trkpt lat="47.27125" lon="-2.29646">
        <ele>40.400001525879</ele>
        <time>2022-05-01T07:40:24.000Z</time>
      </trkpt>
      <trkpt lat="47.2714" lon="-2.29646">
        <ele>40.400001525879</ele>
        <time>2022-05-01T07:40:27.000Z</time>
      </trkpt>
      <trkpt lat="47.2715" lon="-2.29644">
        <ele>40.400001525879</ele>
        <time>2022-05-01T07:40:29.000Z</time>
      </trkpt>
      <trkpt lat="47.27165" lon="-2.29637">
        <ele>40.400001525879</ele>
        <time>2022-05-01T07:40:32.000Z</time>
      </trkpt>
      <trkpt lat="47.2717" lon="-2.29633">
        <ele>40.400001525879</ele>
        <time>2022-05-01T07:40:33.000Z</time>
      </trkpt>
      <trkpt lat="47.27176" lon="-2.29629">
        <ele>40.400001525879</ele>
        <time>2022-05-01T07:40:34.000Z</time>
      </trkpt>
      <trkpt lat="47.27202" lon="-2.29607">
        <ele>40.400001525879</ele>
        <time>2022-05-01T07:40:39.000Z</time>
      </trkpt>
      <trkpt lat="47.27207" lon="-2.29604">
        <ele>40.400001525879</ele>
        <time>2022-05-01T07:40:40.000Z</time>
      </trkpt>
      <trkpt lat="47.27221" lon="-2.29594">
        <ele>40.400001525879</ele>
        <time>2022-05-01T07:40:43.000Z</time>
      </trkpt>
      <trkpt lat="47.27236" lon="-2.29584">
        <ele>40.400001525879</ele>
        <time>2022-05-01T07:40:46.000Z</time>
      </trkpt>
      <trkpt lat="47.2724" lon="-2.29579">
        <ele>40.400001525879</ele>
        <time>2022-05-01T07:40:47.000Z</time>
      </trkpt>
      <trkpt lat="47.27245" lon="-2.29558">
        <ele>40.400001525879</ele>
        <time>2022-05-01T07:40:50.000Z</time>
      </trkpt>
      <trkpt lat="47.27246" lon="-2.29538">
        <ele>40.400001525879</ele>
        <time>2022-05-01T07:40:53.000Z</time>
      </trkpt>
      <trkpt lat="47.27246" lon="-2.29531">
        <ele>40.400001525879</ele>
        <time>2022-05-01T07:40:54.000Z</time>
      </trkpt>
      <trkpt lat="47.2724" lon="-2.29513">
        <ele>40.400001525879</ele>
        <time>2022-05-01T07:40:57.000Z</time>
      </trkpt>
      <trkpt lat="47.27232" lon="-2.29499">
        <ele>40.400001525879</ele>
        <time>2022-05-01T07:40:59.000Z</time>
      </trkpt>
      <trkpt lat="47.27214" lon="-2.29447">
        <ele>40.400001525879</ele>
        <time>2022-05-01T07:41:05.000Z</time>
      </trkpt>
      <trkpt lat="47.27196" lon="-2.29396">
        <ele>40.400001525879</ele>
        <time>2022-05-01T07:41:11.000Z</time>
      </trkpt>
      <trkpt lat="47.27192" lon="-2.29388">
        <ele>40.400001525879</ele>
        <time>2022-05-01T07:41:12.000Z</time>
      </trkpt>
      <trkpt lat="47.27177" lon="-2.29356">
        <ele>40.400001525879</ele>
        <time>2022-05-01T07:41:16.000Z</time>
      </trkpt>
      <trkpt lat="47.27168" lon="-2.29347">
        <ele>40.400001525879</ele>
        <time>2022-05-01T07:41:18.000Z</time>
      </trkpt>
      <trkpt lat="47.2716" lon="-2.29337">
        <ele>40.400001525879</ele>
        <time>2022-05-01T07:41:20.000Z</time>
      </trkpt>
      <trkpt lat="47.27152" lon="-2.29327">
        <ele>40.400001525879</ele>
        <time>2022-05-01T07:41:22.000Z</time>
      </trkpt>
      <trkpt lat="47.27149" lon="-2.29323">
        <ele>40.400001525879</ele>
        <time>2022-05-01T07:41:23.000Z</time>
      </trkpt>
      <trkpt lat="47.27149" lon="-2.29309">
        <ele>40.400001525879</ele>
        <time>2022-05-01T07:41:26.000Z</time>
      </trkpt>
      <trkpt lat="47.27157" lon="-2.29288">
        <ele>40.400001525879</ele>
        <time>2022-05-01T07:41:30.000Z</time>
      </trkpt>
      <trkpt lat="47.27159" lon="-2.29281">
        <ele>40.400001525879</ele>
        <time>2022-05-01T07:41:31.000Z</time>
      </trkpt>
      <trkpt lat="47.27163" lon="-2.29267">
        <ele>40</ele>
        <time>2022-05-01T07:41:33.000Z</time>
      </trkpt>
      <trkpt lat="47.27165" lon="-2.29259">
        <ele>39.599998474121</ele>
        <time>2022-05-01T07:41:34.000Z</time>
      </trkpt>
      <trkpt lat="47.27167" lon="-2.29251">
        <ele>39.200000762939</ele>
        <time>2022-05-01T07:41:35.000Z</time>
      </trkpt>
      <trkpt lat="47.27168" lon="-2.29244">
        <ele>38.799999237061</ele>
        <time>2022-05-01T07:41:36.000Z</time>
      </trkpt>
      <trkpt lat="47.27168" lon="-2.29238">
        <ele>38.400001525879</ele>
        <time>2022-05-01T07:41:37.000Z</time>
      </trkpt>
      <trkpt lat="47.27166" lon="-2.29232">
        <ele>38.400001525879</ele>
        <time>2022-05-01T07:41:38.000Z</time>
      </trkpt>
      <trkpt lat="47.27161" lon="-2.29218">
        <ele>38.400001525879</ele>
        <time>2022-05-01T07:41:40.000Z</time>
      </trkpt>
      <trkpt lat="47.27144" lon="-2.29181">
        <ele>38.400001525879</ele>
        <time>2022-05-01T07:41:47.000Z</time>
      </trkpt>
      <trkpt lat="47.27141" lon="-2.29181">
        <ele>38.400001525879</ele>
        <time>2022-05-01T07:41:48.000Z</time>
      </trkpt>
      <trkpt lat="47.27137" lon="-2.29183">
        <ele>38.400001525879</ele>
        <time>2022-05-01T07:41:50.000Z</time>
      </trkpt>
      <trkpt lat="47.27131" lon="-2.29178">
        <ele>38.400001525879</ele>
        <time>2022-05-01T07:41:54.000Z</time>
      </trkpt>
      <trkpt lat="47.27129" lon="-2.29177">
        <ele>38.400001525879</ele>
        <time>2022-05-01T07:41:55.000Z</time>
      </trkpt>
      <trkpt lat="47.27124" lon="-2.29175">
        <ele>38.400001525879</ele>
        <time>2022-05-01T07:41:59.000Z</time>
      </trkpt>
      <trkpt lat="47.27123" lon="-2.29173">
        <ele>38.400001525879</ele>
        <time>2022-05-01T07:42:00.000Z</time>
      </trkpt>
      <trkpt lat="47.27122" lon="-2.29168">
        <ele>38.400001525879</ele>
        <time>2022-05-01T07:42:03.000Z</time>
      </trkpt>
      <trkpt lat="47.27122" lon="-2.29159">
        <ele>38.400001525879</ele>
        <time>2022-05-01T07:42:06.000Z</time>
      </trkpt>
      <trkpt lat="47.27129" lon="-2.2914">
        <ele>38.400001525879</ele>
        <time>2022-05-01T07:42:11.000Z</time>
      </trkpt>
      <trkpt lat="47.27137" lon="-2.2912">
        <ele>38.400001525879</ele>
        <time>2022-05-01T07:42:16.000Z</time>
      </trkpt>
      <trkpt lat="47.27138" lon="-2.29111">
        <ele>38.400001525879</ele>
        <time>2022-05-01T07:42:18.000Z</time>
      </trkpt>
      <trkpt lat="47.27136" lon="-2.29108">
        <ele>38.400001525879</ele>
        <time>2022-05-01T07:42:19.000Z</time>
      </trkpt>
      <trkpt lat="47.2712" lon="-2.29093">
        <ele>38.400001525879</ele>
        <time>2022-05-01T07:42:24.000Z</time>
      </trkpt>
      <trkpt lat="47.27093" lon="-2.29074">
        <ele>38.400001525879</ele>
        <time>2022-05-01T07:42:30.000Z</time>
      </trkpt>
      <trkpt lat="47.27063" lon="-2.29061">
        <ele>38.400001525879</ele>
        <time>2022-05-01T07:42:37.000Z</time>
      </trkpt>
      <trkpt lat="47.27045" lon="-2.2905">
        <ele>38.400001525879</ele>
        <time>2022-05-01T07:42:42.000Z</time>
      </trkpt>
      <trkpt lat="47.2704" lon="-2.29029">
        <ele>38.400001525879</ele>
        <time>2022-05-01T07:42:46.000Z</time>
      </trkpt>
      <trkpt lat="47.27034" lon="-2.2902">
        <ele>38.400001525879</ele>
        <time>2022-05-01T07:42:48.000Z</time>
      </trkpt>
      <trkpt lat="47.27029" lon="-2.29017">
        <ele>38.400001525879</ele>
        <time>2022-05-01T07:42:49.000Z</time>
      </trkpt>
      <trkpt lat="47.27009" lon="-2.2901">
        <ele>38.400001525879</ele>
        <time>2022-05-01T07:42:54.000Z</time>
      </trkpt>
      <trkpt lat="47.26972" lon="-2.28998">
        <ele>38.400001525879</ele>
        <time>2022-05-01T07:43:02.000Z</time>
      </trkpt>
      <trkpt lat="47.2693" lon="-2.28985">
        <ele>38.400001525879</ele>
        <time>2022-05-01T07:43:11.000Z</time>
      </trkpt>
      <trkpt lat="47.26918" lon="-2.28976">
        <ele>38.400001525879</ele>
        <time>2022-05-01T07:43:14.000Z</time>
      </trkpt>
      <trkpt lat="47.26909" lon="-2.28972">
        <ele>38.400001525879</ele>
        <time>2022-05-01T07:43:16.000Z</time>
      </trkpt>
      <trkpt lat="47.26899" lon="-2.28969">
        <ele>38.799999237061</ele>
        <time>2022-05-01T07:43:18.000Z</time>
      </trkpt>
      <trkpt lat="47.26894" lon="-2.28967">
        <ele>39.200000762939</ele>
        <time>2022-05-01T07:43:19.000Z</time>
      </trkpt>
      <trkpt lat="47.26889" lon="-2.28965">
        <ele>39.599998474121</ele>
        <time>2022-05-01T07:43:20.000Z</time>
      </trkpt>
      <trkpt lat="47.26884" lon="-2.28964">
        <ele>40</ele>
        <time>2022-05-01T07:43:21.000Z</time>
      </trkpt>
      <trkpt lat="47.26879" lon="-2.28961">
        <ele>40.400001525879</ele>
        <time>2022-05-01T07:43:22.000Z</time>
      </trkpt>
      <trkpt lat="47.2685" lon="-2.28948">
        <ele>40.400001525879</ele>
        <time>2022-05-01T07:43:28.000Z</time>
      </trkpt>
      <trkpt lat="47.26818" lon="-2.28931">
        <ele>40.400001525879</ele>
        <time>2022-05-01T07:43:35.000Z</time>
      </trkpt>
      <trkpt lat="47.26793" lon="-2.28921">
        <ele>40.400001525879</ele>
        <time>2022-05-01T07:43:40.000Z</time>
      </trkpt>
      <trkpt lat="47.26789" lon="-2.28919">
        <ele>40.400001525879</ele>
        <time>2022-05-01T07:43:41.000Z</time>
      </trkpt>
      <trkpt lat="47.26784" lon="-2.28916">
        <ele>40.400001525879</ele>
        <time>2022-05-01T07:43:42.000Z</time>
      </trkpt>
      <trkpt lat="47.26767" lon="-2.28902">
        <ele>40.400001525879</ele>
        <time>2022-05-01T07:43:45.000Z</time>
      </trkpt>
      <trkpt lat="47.26757" lon="-2.28893">
        <ele>40.799999237061</ele>
        <time>2022-05-01T07:43:47.000Z</time>
      </trkpt>
      <trkpt lat="47.26753" lon="-2.28889">
        <ele>41.400001525879</ele>
        <time>2022-05-01T07:43:48.000Z</time>
      </trkpt>
      <trkpt lat="47.26748" lon="-2.28884">
        <ele>41.799999237061</ele>
        <time>2022-05-01T07:43:49.000Z</time>
      </trkpt>
      <trkpt lat="47.26742" lon="-2.2888">
        <ele>42.200000762939</ele>
        <time>2022-05-01T07:43:50.000Z</time>
      </trkpt>
      <trkpt lat="47.26737" lon="-2.28876">
        <ele>42.599998474121</ele>
        <time>2022-05-01T07:43:51.000Z</time>
      </trkpt>
      <trkpt lat="47.26703" lon="-2.28846">
        <ele>42.599998474121</ele>
        <time>2022-05-01T07:43:58.000Z</time>
      </trkpt>
      <trkpt lat="47.26685" lon="-2.28826">
        <ele>42.599998474121</ele>
        <time>2022-05-01T07:44:02.000Z</time>
      </trkpt>
      <trkpt lat="47.26677" lon="-2.28816">
        <ele>42.599998474121</ele>
        <time>2022-05-01T07:44:04.000Z</time>
      </trkpt>
      <trkpt lat="47.26649" lon="-2.2879">
        <ele>42.599998474121</ele>
        <time>2022-05-01T07:44:10.000Z</time>
      </trkpt>
      <trkpt lat="47.26645" lon="-2.28786">
        <ele>42.599998474121</ele>
        <time>2022-05-01T07:44:11.000Z</time>
      </trkpt>
      <trkpt lat="47.2662" lon="-2.28761">
        <ele>43</ele>
        <time>2022-05-01T07:44:17.000Z</time>
      </trkpt>
      <trkpt lat="47.26616" lon="-2.28757">
        <ele>43.400001525879</ele>
        <time>2022-05-01T07:44:18.000Z</time>
      </trkpt>
      <trkpt lat="47.26612" lon="-2.28753">
        <ele>43.799999237061</ele>
        <time>2022-05-01T07:44:19.000Z</time>
      </trkpt>
      <trkpt lat="47.26608" lon="-2.28748">
        <ele>44.200000762939</ele>
        <time>2022-05-01T07:44:20.000Z</time>
      </trkpt>
      <trkpt lat="47.26604" lon="-2.28743">
        <ele>44.599998474121</ele>
        <time>2022-05-01T07:44:21.000Z</time>
      </trkpt>
      <trkpt lat="47.26595" lon="-2.28733">
        <ele>44.599998474121</ele>
        <time>2022-05-01T07:44:23.000Z</time>
      </trkpt>
      <trkpt lat="47.26571" lon="-2.28706">
        <ele>44.599998474121</ele>
        <time>2022-05-01T07:44:29.000Z</time>
      </trkpt>
      <trkpt lat="47.26543" lon="-2.28681">
        <ele>45</ele>
        <time>2022-05-01T07:44:35.000Z</time>
      </trkpt>
      <trkpt lat="47.26539" lon="-2.28675">
        <ele>45.400001525879</ele>
        <time>2022-05-01T07:44:36.000Z</time>
      </trkpt>
      <trkpt lat="47.26536" lon="-2.28669">
        <ele>45.799999237061</ele>
        <time>2022-05-01T07:44:37.000Z</time>
      </trkpt>
      <trkpt lat="47.26532" lon="-2.28662">
        <ele>46.400001525879</ele>
        <time>2022-05-01T07:44:38.000Z</time>
      </trkpt>
      <trkpt lat="47.26529" lon="-2.28657">
        <ele>46.799999237061</ele>
        <time>2022-05-01T07:44:39.000Z</time>
      </trkpt>
      <trkpt lat="47.26519" lon="-2.2864">
        <ele>46.799999237061</ele>
        <time>2022-05-01T07:44:42.000Z</time>
      </trkpt>
      <trkpt lat="47.26515" lon="-2.28636">
        <ele>46.799999237061</ele>
        <time>2022-05-01T07:44:43.000Z</time>
      </trkpt>
      <trkpt lat="47.265" lon="-2.28621">
        <ele>46.799999237061</ele>
        <time>2022-05-01T07:44:47.000Z</time>
      </trkpt>
      <trkpt lat="47.26499" lon="-2.28615">
        <ele>47.200000762939</ele>
        <time>2022-05-01T07:44:48.000Z</time>
      </trkpt>
      <trkpt lat="47.26499" lon="-2.28609">
        <ele>47.599998474121</ele>
        <time>2022-05-01T07:44:49.000Z</time>
      </trkpt>
      <trkpt lat="47.26498" lon="-2.28603">
        <ele>48</ele>
        <time>2022-05-01T07:44:50.000Z</time>
      </trkpt>
      <trkpt lat="47.26498" lon="-2.28596">
        <ele>48.400001525879</ele>
        <time>2022-05-01T07:44:51.000Z</time>
      </trkpt>
      <trkpt lat="47.26497" lon="-2.28589">
        <ele>48.799999237061</ele>
        <time>2022-05-01T07:44:52.000Z</time>
      </trkpt>
      <trkpt lat="47.26496" lon="-2.28581">
        <ele>48.799999237061</ele>
        <time>2022-05-01T07:44:53.000Z</time>
      </trkpt>
      <trkpt lat="47.26493" lon="-2.28568">
        <ele>48.799999237061</ele>
        <time>2022-05-01T07:44:55.000Z</time>
      </trkpt>
      <trkpt lat="47.26477" lon="-2.28531">
        <ele>48.799999237061</ele>
        <time>2022-05-01T07:45:01.000Z</time>
      </trkpt>
      <trkpt lat="47.26455" lon="-2.28484">
        <ele>48.799999237061</ele>
        <time>2022-05-01T07:45:09.000Z</time>
      </trkpt>
      <trkpt lat="47.26452" lon="-2.28479">
        <ele>48.799999237061</ele>
        <time>2022-05-01T07:45:10.000Z</time>
      </trkpt>
      <trkpt lat="47.26446" lon="-2.28467">
        <ele>49.200000762939</ele>
        <time>2022-05-01T07:45:12.000Z</time>
      </trkpt>
      <trkpt lat="47.26444" lon="-2.28461">
        <ele>49.599998474121</ele>
        <time>2022-05-01T07:45:13.000Z</time>
      </trkpt>
      <trkpt lat="47.26441" lon="-2.28455">
        <ele>50</ele>
        <time>2022-05-01T07:45:14.000Z</time>
      </trkpt>
      <trkpt lat="47.26439" lon="-2.28449">
        <ele>50.599998474121</ele>
        <time>2022-05-01T07:45:15.000Z</time>
      </trkpt>
      <trkpt lat="47.26436" lon="-2.28442">
        <ele>51</ele>
        <time>2022-05-01T07:45:16.000Z</time>
      </trkpt>
      <trkpt lat="47.26417" lon="-2.28402">
        <ele>51</ele>
        <time>2022-05-01T07:45:23.000Z</time>
      </trkpt>
      <trkpt lat="47.26391" lon="-2.28346">
        <ele>51</ele>
        <time>2022-05-01T07:45:32.000Z</time>
      </trkpt>
      <trkpt lat="47.26372" lon="-2.28302">
        <ele>51.400001525879</ele>
        <time>2022-05-01T07:45:39.000Z</time>
      </trkpt>
      <trkpt lat="47.2637" lon="-2.28295">
        <ele>51.799999237061</ele>
        <time>2022-05-01T07:45:40.000Z</time>
      </trkpt>
      <trkpt lat="47.26368" lon="-2.28288">
        <ele>52.200000762939</ele>
        <time>2022-05-01T07:45:41.000Z</time>
      </trkpt>
      <trkpt lat="47.26366" lon="-2.28282">
        <ele>52.599998474121</ele>
        <time>2022-05-01T07:45:42.000Z</time>
      </trkpt>
      <trkpt lat="47.26364" lon="-2.28275">
        <ele>53</ele>
        <time>2022-05-01T07:45:43.000Z</time>
      </trkpt>
      <trkpt lat="47.26356" lon="-2.28245">
        <ele>53</ele>
        <time>2022-05-01T07:45:47.000Z</time>
      </trkpt>
      <trkpt lat="47.26342" lon="-2.28187">
        <ele>53</ele>
        <time>2022-05-01T07:45:55.000Z</time>
      </trkpt>
      <trkpt lat="47.26333" lon="-2.28134">
        <ele>53</ele>
        <time>2022-05-01T07:46:02.000Z</time>
      </trkpt>
      <trkpt lat="47.26324" lon="-2.2808">
        <ele>53</ele>
        <time>2022-05-01T07:46:09.000Z</time>
      </trkpt>
      <trkpt lat="47.2632" lon="-2.28064">
        <ele>52.599998474121</ele>
        <time>2022-05-01T07:46:11.000Z</time>
      </trkpt>
      <trkpt lat="47.26319" lon="-2.28055">
        <ele>52.200000762939</ele>
        <time>2022-05-01T07:46:12.000Z</time>
      </trkpt>
      <trkpt lat="47.26317" lon="-2.28047">
        <ele>51.599998474121</ele>
        <time>2022-05-01T07:46:13.000Z</time>
      </trkpt>
      <trkpt lat="47.26314" lon="-2.28039">
        <ele>51.200000762939</ele>
        <time>2022-05-01T07:46:14.000Z</time>
      </trkpt>
      <trkpt lat="47.26311" lon="-2.28031">
        <ele>50.799999237061</ele>
        <time>2022-05-01T07:46:15.000Z</time>
      </trkpt>
      <trkpt lat="47.26308" lon="-2.28023">
        <ele>50.799999237061</ele>
        <time>2022-05-01T07:46:16.000Z</time>
      </trkpt>
      <trkpt lat="47.26293" lon="-2.27979">
        <ele>50.799999237061</ele>
        <time>2022-05-01T07:46:22.000Z</time>
      </trkpt>
      <trkpt lat="47.26291" lon="-2.27974">
        <ele>50.799999237061</ele>
        <time>2022-05-01T07:46:23.000Z</time>
      </trkpt>
      <trkpt lat="47.26281" lon="-2.27961">
        <ele>50.799999237061</ele>
        <time>2022-05-01T07:46:26.000Z</time>
      </trkpt>
      <trkpt lat="47.26278" lon="-2.27956">
        <ele>50.799999237061</ele>
        <time>2022-05-01T07:46:27.000Z</time>
      </trkpt>
      <trkpt lat="47.26264" lon="-2.27931">
        <ele>50.799999237061</ele>
        <time>2022-05-01T07:46:32.000Z</time>
      </trkpt>
      <trkpt lat="47.26244" lon="-2.27892">
        <ele>50.799999237061</ele>
        <time>2022-05-01T07:46:39.000Z</time>
      </trkpt>
      <trkpt lat="47.26235" lon="-2.27876">
        <ele>50.799999237061</ele>
        <time>2022-05-01T07:46:42.000Z</time>
      </trkpt>
      <trkpt lat="47.26209" lon="-2.27823">
        <ele>50.799999237061</ele>
        <time>2022-05-01T07:46:51.000Z</time>
      </trkpt>
      <trkpt lat="47.26186" lon="-2.27775">
        <ele>50.799999237061</ele>
        <time>2022-05-01T07:46:59.000Z</time>
      </trkpt>
      <trkpt lat="47.26168" lon="-2.27724">
        <ele>50.799999237061</ele>
        <time>2022-05-01T07:47:07.000Z</time>
      </trkpt>
      <trkpt lat="47.26155" lon="-2.27678">
        <ele>50.799999237061</ele>
        <time>2022-05-01T07:47:14.000Z</time>
      </trkpt>
      <trkpt lat="47.26145" lon="-2.27636">
        <ele>50.799999237061</ele>
        <time>2022-05-01T07:47:20.000Z</time>
      </trkpt>
      <trkpt lat="47.26144" lon="-2.27629">
        <ele>50.799999237061</ele>
        <time>2022-05-01T07:47:21.000Z</time>
      </trkpt>
      <trkpt lat="47.26138" lon="-2.27592">
        <ele>50.799999237061</ele>
        <time>2022-05-01T07:47:26.000Z</time>
      </trkpt>
      <trkpt lat="47.26129" lon="-2.27583">
        <ele>50.799999237061</ele>
        <time>2022-05-01T07:47:28.000Z</time>
      </trkpt>
      <trkpt lat="47.26117" lon="-2.27584">
        <ele>50.799999237061</ele>
        <time>2022-05-01T07:47:30.000Z</time>
      </trkpt>
      <trkpt lat="47.26108" lon="-2.2759">
        <ele>50.799999237061</ele>
        <time>2022-05-01T07:47:32.000Z</time>
      </trkpt>
      <trkpt lat="47.26099" lon="-2.27596">
        <ele>50.799999237061</ele>
        <time>2022-05-01T07:47:34.000Z</time>
      </trkpt>
      <trkpt lat="47.26072" lon="-2.27613">
        <ele>50.799999237061</ele>
        <time>2022-05-01T07:47:40.000Z</time>
      </trkpt>
      <trkpt lat="47.26032" lon="-2.27634">
        <ele>50.799999237061</ele>
        <time>2022-05-01T07:47:48.000Z</time>
      </trkpt>
      <trkpt lat="47.2601" lon="-2.27654">
        <ele>50.799999237061</ele>
        <time>2022-05-01T07:47:53.000Z</time>
      </trkpt>
      <trkpt lat="47.25988" lon="-2.27673">
        <ele>51.200000762939</ele>
        <time>2022-05-01T07:47:58.000Z</time>
      </trkpt>
      <trkpt lat="47.25984" lon="-2.27677">
        <ele>51.599998474121</ele>
        <time>2022-05-01T07:47:59.000Z</time>
      </trkpt>
      <trkpt lat="47.2598" lon="-2.27681">
        <ele>52</ele>
        <time>2022-05-01T07:48:00.000Z</time>
      </trkpt>
      <trkpt lat="47.25975" lon="-2.27685">
        <ele>52.400001525879</ele>
        <time>2022-05-01T07:48:01.000Z</time>
      </trkpt>
      <trkpt lat="47.25971" lon="-2.27689">
        <ele>52.799999237061</ele>
        <time>2022-05-01T07:48:02.000Z</time>
      </trkpt>
      <trkpt lat="47.25942" lon="-2.27716">
        <ele>52.799999237061</ele>
        <time>2022-05-01T07:48:09.000Z</time>
      </trkpt>
      <trkpt lat="47.25921" lon="-2.27734">
        <ele>52.799999237061</ele>
        <time>2022-05-01T07:48:14.000Z</time>
      </trkpt>
      <trkpt lat="47.25914" lon="-2.27741">
        <ele>52.799999237061</ele>
        <time>2022-05-01T07:48:16.000Z</time>
      </trkpt>
      <trkpt lat="47.25903" lon="-2.2775">
        <ele>52.799999237061</ele>
        <time>2022-05-01T07:48:19.000Z</time>
      </trkpt>
      <trkpt lat="47.25894" lon="-2.27756">
        <ele>52.799999237061</ele>
        <time>2022-05-01T07:48:22.000Z</time>
      </trkpt>
      <trkpt lat="47.25881" lon="-2.27761">
        <ele>52.799999237061</ele>
        <time>2022-05-01T07:48:28.000Z</time>
      </trkpt>
      <trkpt lat="47.25876" lon="-2.27758">
        <ele>52.799999237061</ele>
        <time>2022-05-01T07:48:30.000Z</time>
      </trkpt>
      <trkpt lat="47.25875" lon="-2.27748">
        <ele>53.200000762939</ele>
        <time>2022-05-01T07:48:32.000Z</time>
      </trkpt>
      <trkpt lat="47.25874" lon="-2.27742">
        <ele>53.599998474121</ele>
        <time>2022-05-01T07:48:33.000Z</time>
      </trkpt>
      <trkpt lat="47.25874" lon="-2.27735">
        <ele>54</ele>
        <time>2022-05-01T07:48:34.000Z</time>
      </trkpt>
      <trkpt lat="47.25873" lon="-2.27729">
        <ele>54.400001525879</ele>
        <time>2022-05-01T07:48:35.000Z</time>
      </trkpt>
      <trkpt lat="47.25873" lon="-2.27723">
        <ele>54.799999237061</ele>
        <time>2022-05-01T07:48:36.000Z</time>
      </trkpt>
      <trkpt lat="47.25873" lon="-2.27717">
        <ele>54.799999237061</ele>
        <time>2022-05-01T07:48:37.000Z</time>
      </trkpt>
      <trkpt lat="47.25868" lon="-2.27711">
        <ele>54.799999237061</ele>
        <time>2022-05-01T07:48:39.000Z</time>
      </trkpt>
      <trkpt lat="47.25864" lon="-2.27712">
        <ele>54.799999237061</ele>
        <time>2022-05-01T07:48:40.000Z</time>
      </trkpt>
      <trkpt lat="47.25859" lon="-2.27726">
        <ele>54.799999237061</ele>
        <time>2022-05-01T07:48:43.000Z</time>
      </trkpt>
      <trkpt lat="47.25859" lon="-2.27746">
        <ele>54.799999237061</ele>
        <time>2022-05-01T07:48:46.000Z</time>
      </trkpt>
      <trkpt lat="47.2586" lon="-2.27753">
        <ele>54.799999237061</ele>
        <time>2022-05-01T07:48:47.000Z</time>
      </trkpt>
      <trkpt lat="47.2586" lon="-2.27759">
        <ele>54.799999237061</ele>
        <time>2022-05-01T07:48:48.000Z</time>
      </trkpt>
      <trkpt lat="47.25854" lon="-2.27777">
        <ele>54.799999237061</ele>
        <time>2022-05-01T07:48:51.000Z</time>
      </trkpt>
      <trkpt lat="47.25843" lon="-2.27792">
        <ele>54.799999237061</ele>
        <time>2022-05-01T07:48:54.000Z</time>
      </trkpt>
      <trkpt lat="47.25833" lon="-2.27806">
        <ele>54.799999237061</ele>
        <time>2022-05-01T07:48:57.000Z</time>
      </trkpt>
      <trkpt lat="47.2581" lon="-2.27833">
        <ele>54.799999237061</ele>
        <time>2022-05-01T07:49:03.000Z</time>
      </trkpt>
      <trkpt lat="47.25779" lon="-2.27873">
        <ele>54.799999237061</ele>
        <time>2022-05-01T07:49:11.000Z</time>
      </trkpt>
      <trkpt lat="47.25738" lon="-2.27923">
        <ele>54.799999237061</ele>
        <time>2022-05-01T07:49:21.000Z</time>
      </trkpt>
      <trkpt lat="47.25705" lon="-2.27966">
        <ele>54.799999237061</ele>
        <time>2022-05-01T07:49:29.000Z</time>
      </trkpt>
      <trkpt lat="47.25686" lon="-2.27986">
        <ele>54.799999237061</ele>
        <time>2022-05-01T07:49:34.000Z</time>
      </trkpt>
      <trkpt lat="47.25682" lon="-2.27987">
        <ele>54.799999237061</ele>
        <time>2022-05-01T07:49:35.000Z</time>
      </trkpt>
      <trkpt lat="47.25672" lon="-2.27978">
        <ele>54.799999237061</ele>
        <time>2022-05-01T07:49:38.000Z</time>
      </trkpt>
      <trkpt lat="47.25665" lon="-2.27968">
        <ele>54.799999237061</ele>
        <time>2022-05-01T07:49:40.000Z</time>
      </trkpt>
      <trkpt lat="47.25662" lon="-2.27961">
        <ele>54.799999237061</ele>
        <time>2022-05-01T07:49:41.000Z</time>
      </trkpt>
      <trkpt lat="47.25659" lon="-2.27953">
        <ele>54.799999237061</ele>
        <time>2022-05-01T07:49:42.000Z</time>
      </trkpt>
      <trkpt lat="47.25632" lon="-2.27908">
        <ele>54.799999237061</ele>
        <time>2022-05-01T07:49:49.000Z</time>
      </trkpt>
      <trkpt lat="47.25602" lon="-2.27885">
        <ele>54.799999237061</ele>
        <time>2022-05-01T07:49:54.000Z</time>
      </trkpt>
      <trkpt lat="47.25592" lon="-2.27874">
        <ele>54.799999237061</ele>
        <time>2022-05-01T07:49:56.000Z</time>
      </trkpt>
      <trkpt lat="47.25577" lon="-2.27854">
        <ele>54.799999237061</ele>
        <time>2022-05-01T07:49:59.000Z</time>
      </trkpt>
      <trkpt lat="47.25537" lon="-2.27797">
        <ele>54.799999237061</ele>
        <time>2022-05-01T07:50:07.000Z</time>
      </trkpt>
      <trkpt lat="47.25514" lon="-2.27763">
        <ele>54.400001525879</ele>
        <time>2022-05-01T07:50:12.000Z</time>
      </trkpt>
      <trkpt lat="47.2551" lon="-2.27756">
        <ele>54</ele>
        <time>2022-05-01T07:50:13.000Z</time>
      </trkpt>
      <trkpt lat="47.25507" lon="-2.27748">
        <ele>53.599998474121</ele>
        <time>2022-05-01T07:50:14.000Z</time>
      </trkpt>
      <trkpt lat="47.25503" lon="-2.2774">
        <ele>53.200000762939</ele>
        <time>2022-05-01T07:50:15.000Z</time>
      </trkpt>
      <trkpt lat="47.255" lon="-2.27733">
        <ele>52.799999237061</ele>
        <time>2022-05-01T07:50:16.000Z</time>
      </trkpt>
      <trkpt lat="47.25491" lon="-2.27708">
        <ele>52.799999237061</ele>
        <time>2022-05-01T07:50:19.000Z</time>
      </trkpt>
      <trkpt lat="47.25487" lon="-2.27684">
        <ele>52.799999237061</ele>
        <time>2022-05-01T07:50:22.000Z</time>
      </trkpt>
      <trkpt lat="47.25485" lon="-2.27677">
        <ele>52.799999237061</ele>
        <time>2022-05-01T07:50:23.000Z</time>
      </trkpt>
      <trkpt lat="47.25478" lon="-2.27626">
        <ele>52.799999237061</ele>
        <time>2022-05-01T07:50:29.000Z</time>
      </trkpt>
      <trkpt lat="47.25478" lon="-2.27586">
        <ele>52.799999237061</ele>
        <time>2022-05-01T07:50:34.000Z</time>
      </trkpt>
      <trkpt lat="47.25479" lon="-2.27538">
        <ele>52.799999237061</ele>
        <time>2022-05-01T07:50:40.000Z</time>
      </trkpt>
      <trkpt lat="47.25485" lon="-2.27489">
        <ele>52.799999237061</ele>
        <time>2022-05-01T07:50:46.000Z</time>
      </trkpt>
      <trkpt lat="47.25487" lon="-2.27482">
        <ele>52.799999237061</ele>
        <time>2022-05-01T07:50:47.000Z</time>
      </trkpt>
      <trkpt lat="47.25503" lon="-2.27423">
        <ele>52.799999237061</ele>
        <time>2022-05-01T07:50:55.000Z</time>
      </trkpt>
      <trkpt lat="47.25517" lon="-2.27371">
        <ele>53.200000762939</ele>
        <time>2022-05-01T07:51:02.000Z</time>
      </trkpt>
      <trkpt lat="47.25518" lon="-2.27364">
        <ele>53.599998474121</ele>
        <time>2022-05-01T07:51:03.000Z</time>
      </trkpt>
      <trkpt lat="47.2552" lon="-2.27357">
        <ele>54.200000762939</ele>
        <time>2022-05-01T07:51:04.000Z</time>
      </trkpt>
      <trkpt lat="47.25522" lon="-2.27349">
        <ele>54.599998474121</ele>
        <time>2022-05-01T07:51:05.000Z</time>
      </trkpt>
      <trkpt lat="47.25524" lon="-2.27342">
        <ele>55</ele>
        <time>2022-05-01T07:51:06.000Z</time>
      </trkpt>
      <trkpt lat="47.25529" lon="-2.27323">
        <ele>55</ele>
        <time>2022-05-01T07:51:09.000Z</time>
      </trkpt>
      <trkpt lat="47.25531" lon="-2.2731">
        <ele>55</ele>
        <time>2022-05-01T07:51:11.000Z</time>
      </trkpt>
      <trkpt lat="47.25533" lon="-2.27297">
        <ele>55</ele>
        <time>2022-05-01T07:51:13.000Z</time>
      </trkpt>
      <trkpt lat="47.25534" lon="-2.2729">
        <ele>55</ele>
        <time>2022-05-01T07:51:14.000Z</time>
      </trkpt>
      <trkpt lat="47.25535" lon="-2.27283">
        <ele>55</ele>
        <time>2022-05-01T07:51:15.000Z</time>
      </trkpt>
      <trkpt lat="47.25537" lon="-2.27255">
        <ele>55</ele>
        <time>2022-05-01T07:51:19.000Z</time>
      </trkpt>
      <trkpt lat="47.25544" lon="-2.27222">
        <ele>55</ele>
        <time>2022-05-01T07:51:24.000Z</time>
      </trkpt>
      <trkpt lat="47.25549" lon="-2.27199">
        <ele>55</ele>
        <time>2022-05-01T07:51:27.000Z</time>
      </trkpt>
      <trkpt lat="47.25554" lon="-2.27186">
        <ele>55</ele>
        <time>2022-05-01T07:51:29.000Z</time>
      </trkpt>
      <trkpt lat="47.25561" lon="-2.27163">
        <ele>55</ele>
        <time>2022-05-01T07:51:32.000Z</time>
      </trkpt>
      <trkpt lat="47.25563" lon="-2.27157">
        <ele>55</ele>
        <time>2022-05-01T07:51:33.000Z</time>
      </trkpt>
      <trkpt lat="47.25565" lon="-2.27151">
        <ele>55</ele>
        <time>2022-05-01T07:51:34.000Z</time>
      </trkpt>
      <trkpt lat="47.2557" lon="-2.27139">
        <ele>55.400001525879</ele>
        <time>2022-05-01T07:51:36.000Z</time>
      </trkpt>
      <trkpt lat="47.25572" lon="-2.27133">
        <ele>55.799999237061</ele>
        <time>2022-05-01T07:51:37.000Z</time>
      </trkpt>
      <trkpt lat="47.25573" lon="-2.27127">
        <ele>56.200000762939</ele>
        <time>2022-05-01T07:51:38.000Z</time>
      </trkpt>
      <trkpt lat="47.25574" lon="-2.27121">
        <ele>56.599998474121</ele>
        <time>2022-05-01T07:51:39.000Z</time>
      </trkpt>
      <trkpt lat="47.25572" lon="-2.27116">
        <ele>57</ele>
        <time>2022-05-01T07:51:40.000Z</time>
      </trkpt>
      <trkpt lat="47.25566" lon="-2.27108">
        <ele>57</ele>
        <time>2022-05-01T07:51:42.000Z</time>
      </trkpt>
      <trkpt lat="47.25558" lon="-2.27101">
        <ele>57</ele>
        <time>2022-05-01T07:51:44.000Z</time>
      </trkpt>
      <trkpt lat="47.25545" lon="-2.27087">
        <ele>57</ele>
        <time>2022-05-01T07:51:47.000Z</time>
      </trkpt>
      <trkpt lat="47.25534" lon="-2.27074">
        <ele>57</ele>
        <time>2022-05-01T07:51:50.000Z</time>
      </trkpt>
      <trkpt lat="47.25527" lon="-2.27065">
        <ele>57</ele>
        <time>2022-05-01T07:51:52.000Z</time>
      </trkpt>
      <trkpt lat="47.25523" lon="-2.27061">
        <ele>57</ele>
        <time>2022-05-01T07:51:53.000Z</time>
      </trkpt>
      <trkpt lat="47.25505" lon="-2.27039">
        <ele>57</ele>
        <time>2022-05-01T07:51:58.000Z</time>
      </trkpt>
      <trkpt lat="47.255" lon="-2.27035">
        <ele>57</ele>
        <time>2022-05-01T07:51:59.000Z</time>
      </trkpt>
      <trkpt lat="47.25483" lon="-2.27023">
        <ele>57</ele>
        <time>2022-05-01T07:52:03.000Z</time>
      </trkpt>
      <trkpt lat="47.25469" lon="-2.2702">
        <ele>57</ele>
        <time>2022-05-01T07:52:06.000Z</time>
      </trkpt>
      <trkpt lat="47.25465" lon="-2.27019">
        <ele>56.599998474121</ele>
        <time>2022-05-01T07:52:07.000Z</time>
      </trkpt>
      <trkpt lat="47.2546" lon="-2.27018">
        <ele>56.200000762939</ele>
        <time>2022-05-01T07:52:08.000Z</time>
      </trkpt>
      <trkpt lat="47.25456" lon="-2.27018">
        <ele>55.799999237061</ele>
        <time>2022-05-01T07:52:09.000Z</time>
      </trkpt>
      <trkpt lat="47.25452" lon="-2.27017">
        <ele>55</ele>
        <time>2022-05-01T07:52:10.000Z</time>
      </trkpt>
      <trkpt lat="47.25438" lon="-2.27013">
        <ele>55</ele>
        <time>2022-05-01T07:52:13.000Z</time>
      </trkpt>
      <trkpt lat="47.25429" lon="-2.27009">
        <ele>55</ele>
        <time>2022-05-01T07:52:15.000Z</time>
      </trkpt>
      <trkpt lat="47.2541" lon="-2.27006">
        <ele>55</ele>
        <time>2022-05-01T07:52:19.000Z</time>
      </trkpt>
      <trkpt lat="47.25398" lon="-2.27005">
        <ele>55</ele>
        <time>2022-05-01T07:52:23.000Z</time>
      </trkpt>
      <trkpt lat="47.25396" lon="-2.27003">
        <ele>55</ele>
        <time>2022-05-01T07:52:25.000Z</time>
      </trkpt>
      <trkpt lat="47.25393" lon="-2.27004">
        <ele>55</ele>
        <time>2022-05-01T07:52:27.000Z</time>
      </trkpt>
      <trkpt lat="47.25378" lon="-2.27001">
        <ele>55</ele>
        <time>2022-05-01T07:52:32.000Z</time>
      </trkpt>
      <trkpt lat="47.25373" lon="-2.26998">
        <ele>55</ele>
        <time>2022-05-01T07:52:34.000Z</time>
      </trkpt>
      <trkpt lat="47.2537" lon="-2.2699">
        <ele>55</ele>
        <time>2022-05-01T07:52:36.000Z</time>
      </trkpt>
      <trkpt lat="47.25371" lon="-2.26978">
        <ele>55</ele>
        <time>2022-05-01T07:52:38.000Z</time>
      </trkpt>
      <trkpt lat="47.25371" lon="-2.26972">
        <ele>55</ele>
        <time>2022-05-01T07:52:39.000Z</time>
      </trkpt>
      <trkpt lat="47.25374" lon="-2.26933">
        <ele>55</ele>
        <time>2022-05-01T07:52:45.000Z</time>
      </trkpt>
      <trkpt lat="47.25375" lon="-2.26926">
        <ele>55</ele>
        <time>2022-05-01T07:52:46.000Z</time>
      </trkpt>
      <trkpt lat="47.25376" lon="-2.26891">
        <ele>55</ele>
        <time>2022-05-01T07:52:51.000Z</time>
      </trkpt>
      <trkpt lat="47.25383" lon="-2.26827">
        <ele>55</ele>
        <time>2022-05-01T07:53:00.000Z</time>
      </trkpt>
      <trkpt lat="47.25388" lon="-2.26816">
        <ele>54.599998474121</ele>
        <time>2022-05-01T07:53:02.000Z</time>
      </trkpt>
      <trkpt lat="47.25392" lon="-2.26812">
        <ele>54.200000762939</ele>
        <time>2022-05-01T07:53:03.000Z</time>
      </trkpt>
      <trkpt lat="47.25396" lon="-2.26808">
        <ele>53.799999237061</ele>
        <time>2022-05-01T07:53:04.000Z</time>
      </trkpt>
      <trkpt lat="47.254" lon="-2.26804">
        <ele>53.400001525879</ele>
        <time>2022-05-01T07:53:05.000Z</time>
      </trkpt>
      <trkpt lat="47.25403" lon="-2.268">
        <ele>53</ele>
        <time>2022-05-01T07:53:06.000Z</time>
      </trkpt>
      <trkpt lat="47.25423" lon="-2.26778">
        <ele>53</ele>
        <time>2022-05-01T07:53:11.000Z</time>
      </trkpt>
      <trkpt lat="47.25449" lon="-2.2675">
        <ele>52.400001525879</ele>
        <time>2022-05-01T07:53:17.000Z</time>
      </trkpt>
      <trkpt lat="47.25453" lon="-2.26745">
        <ele>52</ele>
        <time>2022-05-01T07:53:18.000Z</time>
      </trkpt>
      <trkpt lat="47.25457" lon="-2.2674">
        <ele>51.599998474121</ele>
        <time>2022-05-01T07:53:19.000Z</time>
      </trkpt>
      <trkpt lat="47.25461" lon="-2.26736">
        <ele>51.200000762939</ele>
        <time>2022-05-01T07:53:20.000Z</time>
      </trkpt>
      <trkpt lat="47.25464" lon="-2.26732">
        <ele>50.799999237061</ele>
        <time>2022-05-01T07:53:21.000Z</time>
      </trkpt>
      <trkpt lat="47.25466" lon="-2.26729">
        <ele>50.400001525879</ele>
        <time>2022-05-01T07:53:22.000Z</time>
      </trkpt>
      <trkpt lat="47.25468" lon="-2.26727">
        <ele>50</ele>
        <time>2022-05-01T07:53:23.000Z</time>
      </trkpt>
      <trkpt lat="47.25469" lon="-2.26725">
        <ele>49</ele>
        <time>2022-05-01T07:53:24.000Z</time>
      </trkpt>
      <trkpt lat="47.25471" lon="-2.26722">
        <ele>48.599998474121</ele>
        <time>2022-05-01T07:53:25.000Z</time>
      </trkpt>
      <trkpt lat="47.25472" lon="-2.26716">
        <ele>48.599998474121</ele>
        <time>2022-05-01T07:53:28.000Z</time>
      </trkpt>
      <trkpt lat="47.25474" lon="-2.26698">
        <ele>48.599998474121</ele>
        <time>2022-05-01T07:53:32.000Z</time>
      </trkpt>
      <trkpt lat="47.25466" lon="-2.26677">
        <ele>48.599998474121</ele>
        <time>2022-05-01T07:53:36.000Z</time>
      </trkpt>
      <trkpt lat="47.25451" lon="-2.26658">
        <ele>48.599998474121</ele>
        <time>2022-05-01T07:53:41.000Z</time>
      </trkpt>
      <trkpt lat="47.25448" lon="-2.26653">
        <ele>48.599998474121</ele>
        <time>2022-05-01T07:53:42.000Z</time>
      </trkpt>
      <trkpt lat="47.25446" lon="-2.26647">
        <ele>48.599998474121</ele>
        <time>2022-05-01T07:53:43.000Z</time>
      </trkpt>
      <trkpt lat="47.25442" lon="-2.26626">
        <ele>48.599998474121</ele>
        <time>2022-05-01T07:53:46.000Z</time>
      </trkpt>
      <trkpt lat="47.25443" lon="-2.2661">
        <ele>48.599998474121</ele>
        <time>2022-05-01T07:53:48.000Z</time>
      </trkpt>
      <trkpt lat="47.25442" lon="-2.26603">
        <ele>48.200000762939</ele>
        <time>2022-05-01T07:53:49.000Z</time>
      </trkpt>
      <trkpt lat="47.2544" lon="-2.26594">
        <ele>47.799999237061</ele>
        <time>2022-05-01T07:53:50.000Z</time>
      </trkpt>
      <trkpt lat="47.25438" lon="-2.26584">
        <ele>47.400001525879</ele>
        <time>2022-05-01T07:53:51.000Z</time>
      </trkpt>
      <trkpt lat="47.25435" lon="-2.26575">
        <ele>47</ele>
        <time>2022-05-01T07:53:52.000Z</time>
      </trkpt>
      <trkpt lat="47.25431" lon="-2.26565">
        <ele>46.599998474121</ele>
        <time>2022-05-01T07:53:53.000Z</time>
      </trkpt>
      <trkpt lat="47.25428" lon="-2.26557">
        <ele>46.599998474121</ele>
        <time>2022-05-01T07:53:54.000Z</time>
      </trkpt>
      <trkpt lat="47.25425" lon="-2.26542">
        <ele>46.599998474121</ele>
        <time>2022-05-01T07:53:56.000Z</time>
      </trkpt>
      <trkpt lat="47.25425" lon="-2.26528">
        <ele>46.599998474121</ele>
        <time>2022-05-01T07:53:58.000Z</time>
      </trkpt>
      <trkpt lat="47.25425" lon="-2.2652">
        <ele>46.599998474121</ele>
        <time>2022-05-01T07:53:59.000Z</time>
      </trkpt>
      <trkpt lat="47.25427" lon="-2.26496">
        <ele>46.599998474121</ele>
        <time>2022-05-01T07:54:02.000Z</time>
      </trkpt>
      <trkpt lat="47.25427" lon="-2.26486">
        <ele>46.200000762939</ele>
        <time>2022-05-01T07:54:03.000Z</time>
      </trkpt>
      <trkpt lat="47.25426" lon="-2.26474">
        <ele>45.599998474121</ele>
        <time>2022-05-01T07:54:04.000Z</time>
      </trkpt>
      <trkpt lat="47.25426" lon="-2.26462">
        <ele>45.200000762939</ele>
        <time>2022-05-01T07:54:05.000Z</time>
      </trkpt>
      <trkpt lat="47.25427" lon="-2.26449">
        <ele>44.799999237061</ele>
        <time>2022-05-01T07:54:06.000Z</time>
      </trkpt>
      <trkpt lat="47.25427" lon="-2.26436">
        <ele>44.200000762939</ele>
        <time>2022-05-01T07:54:07.000Z</time>
      </trkpt>
      <trkpt lat="47.25429" lon="-2.26423">
        <ele>43.799999237061</ele>
        <time>2022-05-01T07:54:08.000Z</time>
      </trkpt>
      <trkpt lat="47.2543" lon="-2.2641">
        <ele>43.200000762939</ele>
        <time>2022-05-01T07:54:09.000Z</time>
      </trkpt>
      <trkpt lat="47.25429" lon="-2.26399">
        <ele>42.599998474121</ele>
        <time>2022-05-01T07:54:10.000Z</time>
      </trkpt>
      <trkpt lat="47.25428" lon="-2.26388">
        <ele>42.200000762939</ele>
        <time>2022-05-01T07:54:11.000Z</time>
      </trkpt>
      <trkpt lat="47.25426" lon="-2.2638">
        <ele>41.599998474121</ele>
        <time>2022-05-01T07:54:12.000Z</time>
      </trkpt>
      <trkpt lat="47.25422" lon="-2.26375">
        <ele>40.400001525879</ele>
        <time>2022-05-01T07:54:13.000Z</time>
      </trkpt>
      <trkpt lat="47.2542" lon="-2.26369">
        <ele>39.799999237061</ele>
        <time>2022-05-01T07:54:14.000Z</time>
      </trkpt>
      <trkpt lat="47.25414" lon="-2.2636">
        <ele>39.799999237061</ele>
        <time>2022-05-01T07:54:16.000Z</time>
      </trkpt>
      <trkpt lat="47.2541" lon="-2.26355">
        <ele>39.799999237061</ele>
        <time>2022-05-01T07:54:18.000Z</time>
      </trkpt>
      <trkpt lat="47.25408" lon="-2.26351">
        <ele>40.200000762939</ele>
        <time>2022-05-01T07:54:19.000Z</time>
      </trkpt>
      <trkpt lat="47.25406" lon="-2.26346">
        <ele>40.599998474121</ele>
        <time>2022-05-01T07:54:20.000Z</time>
      </trkpt>
      <trkpt lat="47.25405" lon="-2.26339">
        <ele>41</ele>
        <time>2022-05-01T07:54:21.000Z</time>
      </trkpt>
      <trkpt lat="47.25404" lon="-2.26332">
        <ele>41.400001525879</ele>
        <time>2022-05-01T07:54:22.000Z</time>
      </trkpt>
      <trkpt lat="47.25403" lon="-2.26326">
        <ele>41.799999237061</ele>
        <time>2022-05-01T07:54:23.000Z</time>
      </trkpt>
      <trkpt lat="47.25399" lon="-2.26319">
        <ele>41.799999237061</ele>
        <time>2022-05-01T07:54:25.000Z</time>
      </trkpt>
      <trkpt lat="47.25395" lon="-2.26311">
        <ele>41.799999237061</ele>
        <time>2022-05-01T07:54:27.000Z</time>
      </trkpt>
      <trkpt lat="47.25392" lon="-2.26299">
        <ele>41.799999237061</ele>
        <time>2022-05-01T07:54:29.000Z</time>
      </trkpt>
      <trkpt lat="47.25388" lon="-2.26289">
        <ele>41.799999237061</ele>
        <time>2022-05-01T07:54:32.000Z</time>
      </trkpt>
      <trkpt lat="47.25388" lon="-2.26267">
        <ele>41.799999237061</ele>
        <time>2022-05-01T07:54:37.000Z</time>
      </trkpt>
      <trkpt lat="47.25389" lon="-2.26245">
        <ele>41.400001525879</ele>
        <time>2022-05-01T07:54:40.000Z</time>
      </trkpt>
      <trkpt lat="47.25389" lon="-2.26236">
        <ele>41</ele>
        <time>2022-05-01T07:54:41.000Z</time>
      </trkpt>
      <trkpt lat="47.25388" lon="-2.2623">
        <ele>40.599998474121</ele>
        <time>2022-05-01T07:54:42.000Z</time>
      </trkpt>
      <trkpt lat="47.25386" lon="-2.26224">
        <ele>40.200000762939</ele>
        <time>2022-05-01T07:54:43.000Z</time>
      </trkpt>
      <trkpt lat="47.25383" lon="-2.26219">
        <ele>39.799999237061</ele>
        <time>2022-05-01T07:54:44.000Z</time>
      </trkpt>
      <trkpt lat="47.25377" lon="-2.26208">
        <ele>39.799999237061</ele>
        <time>2022-05-01T07:54:46.000Z</time>
      </trkpt>
      <trkpt lat="47.25365" lon="-2.26173">
        <ele>39.799999237061</ele>
        <time>2022-05-01T07:54:53.000Z</time>
      </trkpt>
      <trkpt lat="47.25355" lon="-2.26166">
        <ele>39.799999237061</ele>
        <time>2022-05-01T07:54:58.000Z</time>
      </trkpt>
      <trkpt lat="47.25347" lon="-2.26166">
        <ele>39.799999237061</ele>
        <time>2022-05-01T07:55:03.000Z</time>
      </trkpt>
      <trkpt lat="47.25347" lon="-2.26167">
        <ele>39.799999237061</ele>
        <time>2022-05-01T07:55:04.000Z</time>
      </trkpt>
      <trkpt lat="47.25347" lon="-2.26168">
        <ele>40.200000762939</ele>
        <time>2022-05-01T07:55:05.000Z</time>
      </trkpt>
      <trkpt lat="47.25346" lon="-2.26169">
        <ele>40.599998474121</ele>
        <time>2022-05-01T07:55:06.000Z</time>
      </trkpt>
      <trkpt lat="47.25343" lon="-2.2617">
        <ele>41</ele>
        <time>2022-05-01T07:55:07.000Z</time>
      </trkpt>
      <trkpt lat="47.25341" lon="-2.26167">
        <ele>41.400001525879</ele>
        <time>2022-05-01T07:55:08.000Z</time>
      </trkpt>
      <trkpt lat="47.25339" lon="-2.26165">
        <ele>41.799999237061</ele>
        <time>2022-05-01T07:55:09.000Z</time>
      </trkpt>
      <trkpt lat="47.25335" lon="-2.2616">
        <ele>41.799999237061</ele>
        <time>2022-05-01T07:55:12.000Z</time>
      </trkpt>
      <trkpt lat="47.25335" lon="-2.26159">
        <ele>41.799999237061</ele>
        <time>2022-05-01T07:55:13.000Z</time>
      </trkpt>
      <trkpt lat="47.25336" lon="-2.26156">
        <ele>41.799999237061</ele>
        <time>2022-05-01T07:55:14.000Z</time>
      </trkpt>
      <trkpt lat="47.25341" lon="-2.26151">
        <ele>41.799999237061</ele>
        <time>2022-05-01T07:55:20.000Z</time>
      </trkpt>
      <trkpt lat="47.25344" lon="-2.26152">
        <ele>41.799999237061</ele>
        <time>2022-05-01T07:55:22.000Z</time>
      </trkpt>
      <trkpt lat="47.25345" lon="-2.26153">
        <ele>41.400001525879</ele>
        <time>2022-05-01T07:55:23.000Z</time>
      </trkpt>
      <trkpt lat="47.25347" lon="-2.26153">
        <ele>40.799999237061</ele>
        <time>2022-05-01T07:55:24.000Z</time>
      </trkpt>
      <trkpt lat="47.25349" lon="-2.26152">
        <ele>40.400001525879</ele>
        <time>2022-05-01T07:55:25.000Z</time>
      </trkpt>
      <trkpt lat="47.25352" lon="-2.2615">
        <ele>39.400001525879</ele>
        <time>2022-05-01T07:55:26.000Z</time>
      </trkpt>
      <trkpt lat="47.25359" lon="-2.26146">
        <ele>39.400001525879</ele>
        <time>2022-05-01T07:55:29.000Z</time>
      </trkpt>
      <trkpt lat="47.25362" lon="-2.26146">
        <ele>39.400001525879</ele>
        <time>2022-05-01T07:55:30.000Z</time>
      </trkpt>
      <trkpt lat="47.25368" lon="-2.2614">
        <ele>39</ele>
        <time>2022-05-01T07:55:33.000Z</time>
      </trkpt>
      <trkpt lat="47.25369" lon="-2.26137">
        <ele>38.599998474121</ele>
        <time>2022-05-01T07:55:34.000Z</time>
      </trkpt>
      <trkpt lat="47.2537" lon="-2.26135">
        <ele>38.200000762939</ele>
        <time>2022-05-01T07:55:35.000Z</time>
      </trkpt>
      <trkpt lat="47.25371" lon="-2.26133">
        <ele>37.799999237061</ele>
        <time>2022-05-01T07:55:36.000Z</time>
      </trkpt>
      <trkpt lat="47.25373" lon="-2.26131">
        <ele>37.400001525879</ele>
        <time>2022-05-01T07:55:37.000Z</time>
      </trkpt>
      <trkpt lat="47.25375" lon="-2.26128">
        <ele>37</ele>
        <time>2022-05-01T07:55:38.000Z</time>
      </trkpt>
      <trkpt lat="47.25376" lon="-2.26124">
        <ele>36.400001525879</ele>
        <time>2022-05-01T07:55:39.000Z</time>
      </trkpt>
      <trkpt lat="47.25377" lon="-2.2612">
        <ele>36</ele>
        <time>2022-05-01T07:55:40.000Z</time>
      </trkpt>
      <trkpt lat="47.25377" lon="-2.26116">
        <ele>35.599998474121</ele>
        <time>2022-05-01T07:55:41.000Z</time>
      </trkpt>
      <trkpt lat="47.25378" lon="-2.26113">
        <ele>35</ele>
        <time>2022-05-01T07:55:42.000Z</time>
      </trkpt>
      <trkpt lat="47.25376" lon="-2.26092">
        <ele>35</ele>
        <time>2022-05-01T07:55:47.000Z</time>
      </trkpt>
      <trkpt lat="47.25377" lon="-2.26076">
        <ele>35</ele>
        <time>2022-05-01T07:55:50.000Z</time>
      </trkpt>
      <trkpt lat="47.25379" lon="-2.26053">
        <ele>35</ele>
        <time>2022-05-01T07:55:57.000Z</time>
      </trkpt>
      <trkpt lat="47.25375" lon="-2.26043">
        <ele>35.599998474121</ele>
        <time>2022-05-01T07:56:00.000Z</time>
      </trkpt>
      <trkpt lat="47.25374" lon="-2.2604">
        <ele>36</ele>
        <time>2022-05-01T07:56:01.000Z</time>
      </trkpt>
      <trkpt lat="47.25371" lon="-2.26035">
        <ele>36.400001525879</ele>
        <time>2022-05-01T07:56:02.000Z</time>
      </trkpt>
      <trkpt lat="47.25369" lon="-2.26031">
        <ele>37</ele>
        <time>2022-05-01T07:56:03.000Z</time>
      </trkpt>
      <trkpt lat="47.25366" lon="-2.26027">
        <ele>37.400001525879</ele>
        <time>2022-05-01T07:56:04.000Z</time>
      </trkpt>
      <trkpt lat="47.25356" lon="-2.26025">
        <ele>38</ele>
        <time>2022-05-01T07:56:07.000Z</time>
      </trkpt>
      <trkpt lat="47.25354" lon="-2.26026">
        <ele>38.400001525879</ele>
        <time>2022-05-01T07:56:08.000Z</time>
      </trkpt>
      <trkpt lat="47.25351" lon="-2.26027">
        <ele>38.799999237061</ele>
        <time>2022-05-01T07:56:09.000Z</time>
      </trkpt>
      <trkpt lat="47.25349" lon="-2.26029">
        <ele>39.400001525879</ele>
        <time>2022-05-01T07:56:10.000Z</time>
      </trkpt>
      <trkpt lat="47.25346" lon="-2.26032">
        <ele>39.799999237061</ele>
        <time>2022-05-01T07:56:11.000Z</time>
      </trkpt>
      <trkpt lat="47.25343" lon="-2.26033">
        <ele>39.799999237061</ele>
        <time>2022-05-01T07:56:12.000Z</time>
      </trkpt>
      <trkpt lat="47.25335" lon="-2.26033">
        <ele>39.799999237061</ele>
        <time>2022-05-01T07:56:14.000Z</time>
      </trkpt>
      <trkpt lat="47.2533" lon="-2.26029">
        <ele>39.799999237061</ele>
        <time>2022-05-01T07:56:16.000Z</time>
      </trkpt>
      <trkpt lat="47.25325" lon="-2.26016">
        <ele>39.799999237061</ele>
        <time>2022-05-01T07:56:21.000Z</time>
      </trkpt>
      <trkpt lat="47.25325" lon="-2.26015">
        <ele>39.799999237061</ele>
        <time>2022-05-01T07:56:22.000Z</time>
      </trkpt>
      <trkpt lat="47.25325" lon="-2.26015">
        <ele>39.799999237061</ele>
        <time>2022-05-01T07:56:34.000Z</time>
      </trkpt>
      <trkpt lat="47.25325" lon="-2.26008">
        <ele>39.799999237061</ele>
        <time>2022-05-01T07:56:36.000Z</time>
      </trkpt>
      <trkpt lat="47.2533" lon="-2.2599">
        <ele>39.799999237061</ele>
        <time>2022-05-01T07:56:40.000Z</time>
      </trkpt>
      <trkpt lat="47.25337" lon="-2.25962">
        <ele>39.799999237061</ele>
        <time>2022-05-01T07:56:44.000Z</time>
      </trkpt>
      <trkpt lat="47.25338" lon="-2.25954">
        <ele>39.799999237061</ele>
        <time>2022-05-01T07:56:45.000Z</time>
      </trkpt>
      <trkpt lat="47.25339" lon="-2.25947">
        <ele>39.799999237061</ele>
        <time>2022-05-01T07:56:46.000Z</time>
      </trkpt>
      <trkpt lat="47.25341" lon="-2.25931">
        <ele>39.799999237061</ele>
        <time>2022-05-01T07:56:49.000Z</time>
      </trkpt>
      <trkpt lat="47.25345" lon="-2.25927">
        <ele>39.799999237061</ele>
        <time>2022-05-01T07:56:51.000Z</time>
      </trkpt>
      <trkpt lat="47.2535" lon="-2.25921">
        <ele>39.799999237061</ele>
        <time>2022-05-01T07:56:54.000Z</time>
      </trkpt>
      <trkpt lat="47.25354" lon="-2.25912">
        <ele>39.400001525879</ele>
        <time>2022-05-01T07:56:57.000Z</time>
      </trkpt>
      <trkpt lat="47.25355" lon="-2.25909">
        <ele>39</ele>
        <time>2022-05-01T07:56:58.000Z</time>
      </trkpt>
      <trkpt lat="47.25355" lon="-2.25906">
        <ele>38.599998474121</ele>
        <time>2022-05-01T07:56:59.000Z</time>
      </trkpt>
      <trkpt lat="47.25356" lon="-2.25903">
        <ele>38.200000762939</ele>
        <time>2022-05-01T07:57:00.000Z</time>
      </trkpt>
      <trkpt lat="47.25358" lon="-2.25901">
        <ele>37.799999237061</ele>
        <time>2022-05-01T07:57:01.000Z</time>
      </trkpt>
      <trkpt lat="47.25362" lon="-2.25897">
        <ele>37.799999237061</ele>
        <time>2022-05-01T07:57:04.000Z</time>
      </trkpt>
      <trkpt lat="47.25365" lon="-2.25895">
        <ele>36.400001525879</ele>
        <time>2022-05-01T07:57:06.000Z</time>
      </trkpt>
      <trkpt lat="47.25368" lon="-2.25894">
        <ele>35.400001525879</ele>
        <time>2022-05-01T07:57:07.000Z</time>
      </trkpt>
      <trkpt lat="47.25371" lon="-2.25894">
        <ele>34.400001525879</ele>
        <time>2022-05-01T07:57:08.000Z</time>
      </trkpt>
      <trkpt lat="47.25374" lon="-2.25893">
        <ele>33</ele>
        <time>2022-05-01T07:57:09.000Z</time>
      </trkpt>
      <trkpt lat="47.25377" lon="-2.25893">
        <ele>31.799999237061</ele>
        <time>2022-05-01T07:57:10.000Z</time>
      </trkpt>
      <trkpt lat="47.25379" lon="-2.25892">
        <ele>30.60000038147</ele>
        <time>2022-05-01T07:57:11.000Z</time>
      </trkpt>
      <trkpt lat="47.2538" lon="-2.2589">
        <ele>29.200000762939</ele>
        <time>2022-05-01T07:57:12.000Z</time>
      </trkpt>
      <trkpt lat="47.25381" lon="-2.25888">
        <ele>28</ele>
        <time>2022-05-01T07:57:13.000Z</time>
      </trkpt>
      <trkpt lat="47.25381" lon="-2.25875">
        <ele>28</ele>
        <time>2022-05-01T07:57:17.000Z</time>
      </trkpt>
      <trkpt lat="47.2538" lon="-2.25871">
        <ele>28</ele>
        <time>2022-05-01T07:57:18.000Z</time>
      </trkpt>
      <trkpt lat="47.25374" lon="-2.25847">
        <ele>28</ele>
        <time>2022-05-01T07:57:23.000Z</time>
      </trkpt>
      <trkpt lat="47.2537" lon="-2.25819">
        <ele>28</ele>
        <time>2022-05-01T07:57:29.000Z</time>
      </trkpt>
      <trkpt lat="47.2537" lon="-2.25816">
        <ele>27.60000038147</ele>
        <time>2022-05-01T07:57:30.000Z</time>
      </trkpt>
      <trkpt lat="47.25369" lon="-2.25813">
        <ele>27.200000762939</ele>
        <time>2022-05-01T07:57:31.000Z</time>
      </trkpt>
      <trkpt lat="47.25367" lon="-2.25812">
        <ele>26.799999237061</ele>
        <time>2022-05-01T07:57:32.000Z</time>
      </trkpt>
      <trkpt lat="47.25366" lon="-2.25811">
        <ele>26.39999961853</ele>
        <time>2022-05-01T07:57:33.000Z</time>
      </trkpt>
      <trkpt lat="47.25365" lon="-2.25811">
        <ele>26</ele>
        <time>2022-05-01T07:57:34.000Z</time>
      </trkpt>
      <trkpt lat="47.25359" lon="-2.25814">
        <ele>26</ele>
        <time>2022-05-01T07:57:38.000Z</time>
      </trkpt>
      <trkpt lat="47.25357" lon="-2.25814">
        <ele>26.39999961853</ele>
        <time>2022-05-01T07:57:39.000Z</time>
      </trkpt>
      <trkpt lat="47.25355" lon="-2.25814">
        <ele>26.799999237061</ele>
        <time>2022-05-01T07:57:40.000Z</time>
      </trkpt>
      <trkpt lat="47.25354" lon="-2.25815">
        <ele>27.39999961853</ele>
        <time>2022-05-01T07:57:41.000Z</time>
      </trkpt>
      <trkpt lat="47.25353" lon="-2.25816">
        <ele>27.799999237061</ele>
        <time>2022-05-01T07:57:42.000Z</time>
      </trkpt>
      <trkpt lat="47.25351" lon="-2.25818">
        <ele>28.200000762939</ele>
        <time>2022-05-01T07:57:43.000Z</time>
      </trkpt>
      <trkpt lat="47.25351" lon="-2.2582">
        <ele>28.200000762939</ele>
        <time>2022-05-01T07:57:44.000Z</time>
      </trkpt>
      <trkpt lat="47.25349" lon="-2.25826">
        <ele>28.60000038147</ele>
        <time>2022-05-01T07:57:46.000Z</time>
      </trkpt>
      <trkpt lat="47.25348" lon="-2.25828">
        <ele>29.200000762939</ele>
        <time>2022-05-01T07:57:47.000Z</time>
      </trkpt>
      <trkpt lat="47.25347" lon="-2.2583">
        <ele>29.60000038147</ele>
        <time>2022-05-01T07:57:48.000Z</time>
      </trkpt>
      <trkpt lat="47.25345" lon="-2.25832">
        <ele>30</ele>
        <time>2022-05-01T07:57:49.000Z</time>
      </trkpt>
      <trkpt lat="47.25344" lon="-2.25835">
        <ele>30.60000038147</ele>
        <time>2022-05-01T07:57:50.000Z</time>
      </trkpt>
      <trkpt lat="47.25343" lon="-2.25838">
        <ele>31</ele>
        <time>2022-05-01T07:57:51.000Z</time>
      </trkpt>
      <trkpt lat="47.25341" lon="-2.2584">
        <ele>31.60000038147</ele>
        <time>2022-05-01T07:57:52.000Z</time>
      </trkpt>
      <trkpt lat="47.25341" lon="-2.25843">
        <ele>32</ele>
        <time>2022-05-01T07:57:53.000Z</time>
      </trkpt>
      <trkpt lat="47.2534" lon="-2.25846">
        <ele>33</ele>
        <time>2022-05-01T07:57:54.000Z</time>
      </trkpt>
      <trkpt lat="47.25338" lon="-2.25849">
        <ele>33.599998474121</ele>
        <time>2022-05-01T07:57:55.000Z</time>
      </trkpt>
      <trkpt lat="47.25337" lon="-2.25851">
        <ele>34</ele>
        <time>2022-05-01T07:57:56.000Z</time>
      </trkpt>
      <trkpt lat="47.25337" lon="-2.25852">
        <ele>34.599998474121</ele>
        <time>2022-05-01T07:57:57.000Z</time>
      </trkpt>
      <trkpt lat="47.25336" lon="-2.25852">
        <ele>35</ele>
        <time>2022-05-01T07:57:58.000Z</time>
      </trkpt>
      <trkpt lat="47.25336" lon="-2.25851">
        <ele>35.400001525879</ele>
        <time>2022-05-01T07:57:59.000Z</time>
      </trkpt>
      <trkpt lat="47.25335" lon="-2.25849">
        <ele>35.799999237061</ele>
        <time>2022-05-01T07:58:00.000Z</time>
      </trkpt>
      <trkpt lat="47.25335" lon="-2.25848">
        <ele>36.200000762939</ele>
        <time>2022-05-01T07:58:01.000Z</time>
      </trkpt>
      <trkpt lat="47.25335" lon="-2.25847">
        <ele>36.599998474121</ele>
        <time>2022-05-01T07:58:02.000Z</time>
      </trkpt>
      <trkpt lat="47.25334" lon="-2.25844">
        <ele>36.599998474121</ele>
        <time>2022-05-01T07:58:47.000Z</time>
      </trkpt>
      <trkpt lat="47.25335" lon="-2.25835">
        <ele>36.599998474121</ele>
        <time>2022-05-01T07:58:50.000Z</time>
      </trkpt>
      <trkpt lat="47.25336" lon="-2.25821">
        <ele>36.200000762939</ele>
        <time>2022-05-01T07:58:54.000Z</time>
      </trkpt>
      <trkpt lat="47.25336" lon="-2.25818">
        <ele>35.799999237061</ele>
        <time>2022-05-01T07:58:55.000Z</time>
      </trkpt>
      <trkpt lat="47.25337" lon="-2.25815">
        <ele>35.400001525879</ele>
        <time>2022-05-01T07:58:56.000Z</time>
      </trkpt>
      <trkpt lat="47.25337" lon="-2.25813">
        <ele>35</ele>
        <time>2022-05-01T07:58:57.000Z</time>
      </trkpt>
      <trkpt lat="47.25337" lon="-2.2581">
        <ele>34.599998474121</ele>
        <time>2022-05-01T07:58:58.000Z</time>
      </trkpt>
      <trkpt lat="47.25338" lon="-2.25806">
        <ele>34.599998474121</ele>
        <time>2022-05-01T07:59:00.000Z</time>
      </trkpt>
      <trkpt lat="47.25338" lon="-2.25802">
        <ele>34.599998474121</ele>
        <time>2022-05-01T07:59:08.000Z</time>
      </trkpt>
      <trkpt lat="47.2534" lon="-2.25795">
        <ele>34.599998474121</ele>
        <time>2022-05-01T07:59:12.000Z</time>
      </trkpt>
      <trkpt lat="47.25342" lon="-2.25795">
        <ele>34.599998474121</ele>
        <time>2022-05-01T07:59:14.000Z</time>
      </trkpt>
      <trkpt lat="47.25347" lon="-2.25794">
        <ele>34</ele>
        <time>2022-05-01T07:59:16.000Z</time>
      </trkpt>
      <trkpt lat="47.25349" lon="-2.25795">
        <ele>33.599998474121</ele>
        <time>2022-05-01T07:59:17.000Z</time>
      </trkpt>
      <trkpt lat="47.25351" lon="-2.25795">
        <ele>33</ele>
        <time>2022-05-01T07:59:18.000Z</time>
      </trkpt>
      <trkpt lat="47.25353" lon="-2.25795">
        <ele>32.599998474121</ele>
        <time>2022-05-01T07:59:19.000Z</time>
      </trkpt>
      <trkpt lat="47.25355" lon="-2.25795">
        <ele>32</ele>
        <time>2022-05-01T07:59:20.000Z</time>
      </trkpt>
      <trkpt lat="47.25357" lon="-2.25796">
        <ele>31.200000762939</ele>
        <time>2022-05-01T07:59:21.000Z</time>
      </trkpt>
      <trkpt lat="47.25361" lon="-2.25797">
        <ele>30.60000038147</ele>
        <time>2022-05-01T07:59:22.000Z</time>
      </trkpt>
      <trkpt lat="47.25364" lon="-2.25797">
        <ele>30</ele>
        <time>2022-05-01T07:59:23.000Z</time>
      </trkpt>
      <trkpt lat="47.25366" lon="-2.25796">
        <ele>29.39999961853</ele>
        <time>2022-05-01T07:59:24.000Z</time>
      </trkpt>
      <trkpt lat="47.25367" lon="-2.25794">
        <ele>28.60000038147</ele>
        <time>2022-05-01T07:59:25.000Z</time>
      </trkpt>
      <trkpt lat="47.25368" lon="-2.2579">
        <ele>28</ele>
        <time>2022-05-01T07:59:26.000Z</time>
      </trkpt>
      <trkpt lat="47.25369" lon="-2.25787">
        <ele>27.39999961853</ele>
        <time>2022-05-01T07:59:27.000Z</time>
      </trkpt>
      <trkpt lat="47.2537" lon="-2.25778">
        <ele>27.39999961853</ele>
        <time>2022-05-01T07:59:29.000Z</time>
      </trkpt>
      <trkpt lat="47.25374" lon="-2.25768">
        <ele>27.39999961853</ele>
        <time>2022-05-01T07:59:32.000Z</time>
      </trkpt>
      <trkpt lat="47.25376" lon="-2.25767">
        <ele>27.39999961853</ele>
        <time>2022-05-01T07:59:33.000Z</time>
      </trkpt>
      <trkpt lat="47.25379" lon="-2.25755">
        <ele>27</ele>
        <time>2022-05-01T07:59:36.000Z</time>
      </trkpt>
      <trkpt lat="47.2538" lon="-2.25751">
        <ele>26.39999961853</ele>
        <time>2022-05-01T07:59:37.000Z</time>
      </trkpt>
      <trkpt lat="47.2538" lon="-2.25747">
        <ele>26</ele>
        <time>2022-05-01T07:59:38.000Z</time>
      </trkpt>
      <trkpt lat="47.2538" lon="-2.25743">
        <ele>25.60000038147</ele>
        <time>2022-05-01T07:59:39.000Z</time>
      </trkpt>
      <trkpt lat="47.25379" lon="-2.2574">
        <ele>25.200000762939</ele>
        <time>2022-05-01T07:59:40.000Z</time>
      </trkpt>
      <trkpt lat="47.25379" lon="-2.25729">
        <ele>25.200000762939</ele>
        <time>2022-05-01T07:59:42.000Z</time>
      </trkpt>
      <trkpt lat="47.25379" lon="-2.25725">
        <ele>25.200000762939</ele>
        <time>2022-05-01T07:59:43.000Z</time>
      </trkpt>
      <trkpt lat="47.25384" lon="-2.25704">
        <ele>25.200000762939</ele>
        <time>2022-05-01T07:59:48.000Z</time>
      </trkpt>
      <trkpt lat="47.25389" lon="-2.25681">
        <ele>25.200000762939</ele>
        <time>2022-05-01T07:59:54.000Z</time>
      </trkpt>
      <trkpt lat="47.25403" lon="-2.25665">
        <ele>25.200000762939</ele>
        <time>2022-05-01T08:00:00.000Z</time>
      </trkpt>
      <trkpt lat="47.2542" lon="-2.25656">
        <ele>25.200000762939</ele>
        <time>2022-05-01T08:00:05.000Z</time>
      </trkpt>
      <trkpt lat="47.25423" lon="-2.25658">
        <ele>25.200000762939</ele>
        <time>2022-05-01T08:00:06.000Z</time>
      </trkpt>
      <trkpt lat="47.2543" lon="-2.25663">
        <ele>25.200000762939</ele>
        <time>2022-05-01T08:00:08.000Z</time>
      </trkpt>
      <trkpt lat="47.25438" lon="-2.25664">
        <ele>25.200000762939</ele>
        <time>2022-05-01T08:00:10.000Z</time>
      </trkpt>
      <trkpt lat="47.25442" lon="-2.25666">
        <ele>25.60000038147</ele>
        <time>2022-05-01T08:00:11.000Z</time>
      </trkpt>
      <trkpt lat="47.25445" lon="-2.25666">
        <ele>26.200000762939</ele>
        <time>2022-05-01T08:00:12.000Z</time>
      </trkpt>
      <trkpt lat="47.25447" lon="-2.25666">
        <ele>26.60000038147</ele>
        <time>2022-05-01T08:00:13.000Z</time>
      </trkpt>
      <trkpt lat="47.2545" lon="-2.25667">
        <ele>27</ele>
        <time>2022-05-01T08:00:14.000Z</time>
      </trkpt>
      <trkpt lat="47.25452" lon="-2.25668">
        <ele>27.60000038147</ele>
        <time>2022-05-01T08:00:15.000Z</time>
      </trkpt>
      <trkpt lat="47.25455" lon="-2.25668">
        <ele>28.200000762939</ele>
        <time>2022-05-01T08:00:16.000Z</time>
      </trkpt>
      <trkpt lat="47.25458" lon="-2.25668">
        <ele>28.799999237061</ele>
        <time>2022-05-01T08:00:17.000Z</time>
      </trkpt>
      <trkpt lat="47.2546" lon="-2.25669">
        <ele>29.200000762939</ele>
        <time>2022-05-01T08:00:18.000Z</time>
      </trkpt>
      <trkpt lat="47.25461" lon="-2.2567">
        <ele>29.799999237061</ele>
        <time>2022-05-01T08:00:19.000Z</time>
      </trkpt>
      <trkpt lat="47.25462" lon="-2.25672">
        <ele>29.799999237061</ele>
        <time>2022-05-01T08:00:20.000Z</time>
      </trkpt>
      <trkpt lat="47.2546" lon="-2.25681">
        <ele>29.799999237061</ele>
        <time>2022-05-01T08:00:24.000Z</time>
      </trkpt>
      <trkpt lat="47.25459" lon="-2.25684">
        <ele>29.799999237061</ele>
        <time>2022-05-01T08:00:25.000Z</time>
      </trkpt>
      <trkpt lat="47.25456" lon="-2.2569">
        <ele>29.799999237061</ele>
        <time>2022-05-01T08:00:27.000Z</time>
      </trkpt>
      <trkpt lat="47.25457" lon="-2.25694">
        <ele>29.799999237061</ele>
        <time>2022-05-01T08:00:29.000Z</time>
      </trkpt>
      <trkpt lat="47.25458" lon="-2.25697">
        <ele>29.799999237061</ele>
        <time>2022-05-01T08:00:31.000Z</time>
      </trkpt>
      <trkpt lat="47.25461" lon="-2.25712">
        <ele>29.799999237061</ele>
        <time>2022-05-01T08:00:35.000Z</time>
      </trkpt>
      <trkpt lat="47.25462" lon="-2.2572">
        <ele>30.200000762939</ele>
        <time>2022-05-01T08:00:37.000Z</time>
      </trkpt>
      <trkpt lat="47.25462" lon="-2.25723">
        <ele>30.60000038147</ele>
        <time>2022-05-01T08:00:38.000Z</time>
      </trkpt>
      <trkpt lat="47.25463" lon="-2.25726">
        <ele>31.200000762939</ele>
        <time>2022-05-01T08:00:39.000Z</time>
      </trkpt>
      <trkpt lat="47.25463" lon="-2.25729">
        <ele>31.60000038147</ele>
        <time>2022-05-01T08:00:40.000Z</time>
      </trkpt>
      <trkpt lat="47.25464" lon="-2.25732">
        <ele>32</ele>
        <time>2022-05-01T08:00:41.000Z</time>
      </trkpt>
      <trkpt lat="47.25464" lon="-2.25735">
        <ele>32</ele>
        <time>2022-05-01T08:00:42.000Z</time>
      </trkpt>
      <trkpt lat="47.25464" lon="-2.25742">
        <ele>32.400001525879</ele>
        <time>2022-05-01T08:00:44.000Z</time>
      </trkpt>
      <trkpt lat="47.25464" lon="-2.25745">
        <ele>32.799999237061</ele>
        <time>2022-05-01T08:00:45.000Z</time>
      </trkpt>
      <trkpt lat="47.25464" lon="-2.25747">
        <ele>33.200000762939</ele>
        <time>2022-05-01T08:00:46.000Z</time>
      </trkpt>
      <trkpt lat="47.25464" lon="-2.25749">
        <ele>34.200000762939</ele>
        <time>2022-05-01T08:00:47.000Z</time>
      </trkpt>
      <trkpt lat="47.25463" lon="-2.25754">
        <ele>34.200000762939</ele>
        <time>2022-05-01T08:00:49.000Z</time>
      </trkpt>
      <trkpt lat="47.25464" lon="-2.25769">
        <ele>34.200000762939</ele>
        <time>2022-05-01T08:00:55.000Z</time>
      </trkpt>
      <trkpt lat="47.25464" lon="-2.25775">
        <ele>34.599998474121</ele>
        <time>2022-05-01T08:00:57.000Z</time>
      </trkpt>
      <trkpt lat="47.25465" lon="-2.25778">
        <ele>35</ele>
        <time>2022-05-01T08:00:58.000Z</time>
      </trkpt>
      <trkpt lat="47.25465" lon="-2.25781">
        <ele>35.400001525879</ele>
        <time>2022-05-01T08:00:59.000Z</time>
      </trkpt>
      <trkpt lat="47.25466" lon="-2.25784">
        <ele>35.799999237061</ele>
        <time>2022-05-01T08:01:00.000Z</time>
      </trkpt>
      <trkpt lat="47.25468" lon="-2.25786">
        <ele>36.200000762939</ele>
        <time>2022-05-01T08:01:01.000Z</time>
      </trkpt>
      <trkpt lat="47.2547" lon="-2.25795">
        <ele>36.200000762939</ele>
        <time>2022-05-01T08:01:05.000Z</time>
      </trkpt>
      <trkpt lat="47.2547" lon="-2.25797">
        <ele>36.599998474121</ele>
        <time>2022-05-01T08:01:06.000Z</time>
      </trkpt>
      <trkpt lat="47.25468" lon="-2.25798">
        <ele>37</ele>
        <time>2022-05-01T08:01:07.000Z</time>
      </trkpt>
      <trkpt lat="47.25467" lon="-2.25799">
        <ele>37.599998474121</ele>
        <time>2022-05-01T08:01:08.000Z</time>
      </trkpt>
      <trkpt lat="47.25465" lon="-2.258">
        <ele>38</ele>
        <time>2022-05-01T08:01:09.000Z</time>
      </trkpt>
      <trkpt lat="47.25463" lon="-2.25801">
        <ele>38.400001525879</ele>
        <time>2022-05-01T08:01:10.000Z</time>
      </trkpt>
      <trkpt lat="47.25457" lon="-2.25803">
        <ele>38</ele>
        <time>2022-05-01T08:01:13.000Z</time>
      </trkpt>
      <trkpt lat="47.25455" lon="-2.25804">
        <ele>37.400001525879</ele>
        <time>2022-05-01T08:01:14.000Z</time>
      </trkpt>
      <trkpt lat="47.25454" lon="-2.25805">
        <ele>37</ele>
        <time>2022-05-01T08:01:15.000Z</time>
      </trkpt>
      <trkpt lat="47.25454" lon="-2.25806">
        <ele>36.599998474121</ele>
        <time>2022-05-01T08:01:16.000Z</time>
      </trkpt>
      <trkpt lat="47.25453" lon="-2.25807">
        <ele>36.200000762939</ele>
        <time>2022-05-01T08:01:17.000Z</time>
      </trkpt>
      <trkpt lat="47.25453" lon="-2.25812">
        <ele>36.200000762939</ele>
        <time>2022-05-01T08:01:19.000Z</time>
      </trkpt>
      <trkpt lat="47.25452" lon="-2.25822">
        <ele>36.200000762939</ele>
        <time>2022-05-01T08:01:22.000Z</time>
      </trkpt>
      <trkpt lat="47.25451" lon="-2.25831">
        <ele>35.799999237061</ele>
        <time>2022-05-01T08:01:24.000Z</time>
      </trkpt>
      <trkpt lat="47.2545" lon="-2.25836">
        <ele>35.200000762939</ele>
        <time>2022-05-01T08:01:25.000Z</time>
      </trkpt>
      <trkpt lat="47.25449" lon="-2.2584">
        <ele>34.799999237061</ele>
        <time>2022-05-01T08:01:26.000Z</time>
      </trkpt>
      <trkpt lat="47.25448" lon="-2.25845">
        <ele>34.400001525879</ele>
        <time>2022-05-01T08:01:27.000Z</time>
      </trkpt>
      <trkpt lat="47.25446" lon="-2.25849">
        <ele>34</ele>
        <time>2022-05-01T08:01:28.000Z</time>
      </trkpt>
      <trkpt lat="47.25438" lon="-2.25868">
        <ele>34</ele>
        <time>2022-05-01T08:01:33.000Z</time>
      </trkpt>
      <trkpt lat="47.25439" lon="-2.25886">
        <ele>34</ele>
        <time>2022-05-01T08:01:39.000Z</time>
      </trkpt>
      <trkpt lat="47.25436" lon="-2.25914">
        <ele>34</ele>
        <time>2022-05-01T08:01:45.000Z</time>
      </trkpt>
      <trkpt lat="47.25426" lon="-2.25925">
        <ele>33.599998474121</ele>
        <time>2022-05-01T08:01:48.000Z</time>
      </trkpt>
      <trkpt lat="47.25424" lon="-2.25929">
        <ele>33</ele>
        <time>2022-05-01T08:01:49.000Z</time>
      </trkpt>
      <trkpt lat="47.25422" lon="-2.25931">
        <ele>32.599998474121</ele>
        <time>2022-05-01T08:01:50.000Z</time>
      </trkpt>
      <trkpt lat="47.25421" lon="-2.25934">
        <ele>32.200000762939</ele>
        <time>2022-05-01T08:01:51.000Z</time>
      </trkpt>
      <trkpt lat="47.25419" lon="-2.25936">
        <ele>31.799999237061</ele>
        <time>2022-05-01T08:01:52.000Z</time>
      </trkpt>
      <trkpt lat="47.25415" lon="-2.25941">
        <ele>31.799999237061</ele>
        <time>2022-05-01T08:01:55.000Z</time>
      </trkpt>
      <trkpt lat="47.25414" lon="-2.25942">
        <ele>31.799999237061</ele>
        <time>2022-05-01T08:03:08.000Z</time>
      </trkpt>
      <trkpt lat="47.25408" lon="-2.25951">
        <ele>31.799999237061</ele>
        <time>2022-05-01T08:03:11.000Z</time>
      </trkpt>
      <trkpt lat="47.25407" lon="-2.25954">
        <ele>31.799999237061</ele>
        <time>2022-05-01T08:03:12.000Z</time>
      </trkpt>
      <trkpt lat="47.25404" lon="-2.25967">
        <ele>31.799999237061</ele>
        <time>2022-05-01T08:03:16.000Z</time>
      </trkpt>
      <trkpt lat="47.25398" lon="-2.25982">
        <ele>32.200000762939</ele>
        <time>2022-05-01T08:03:21.000Z</time>
      </trkpt>
      <trkpt lat="47.25396" lon="-2.25984">
        <ele>32.599998474121</ele>
        <time>2022-05-01T08:03:22.000Z</time>
      </trkpt>
      <trkpt lat="47.25394" lon="-2.25986">
        <ele>33</ele>
        <time>2022-05-01T08:03:23.000Z</time>
      </trkpt>
      <trkpt lat="47.25393" lon="-2.25988">
        <ele>33.400001525879</ele>
        <time>2022-05-01T08:03:24.000Z</time>
      </trkpt>
      <trkpt lat="47.25391" lon="-2.2599">
        <ele>34</ele>
        <time>2022-05-01T08:03:25.000Z</time>
      </trkpt>
      <trkpt lat="47.2539" lon="-2.25993">
        <ele>34</ele>
        <time>2022-05-01T08:03:26.000Z</time>
      </trkpt>
      <trkpt lat="47.25392" lon="-2.25998">
        <ele>34.400001525879</ele>
        <time>2022-05-01T08:03:27.000Z</time>
      </trkpt>
      <trkpt lat="47.25393" lon="-2.26002">
        <ele>34.799999237061</ele>
        <time>2022-05-01T08:03:28.000Z</time>
      </trkpt>
      <trkpt lat="47.25392" lon="-2.26005">
        <ele>35.200000762939</ele>
        <time>2022-05-01T08:03:29.000Z</time>
      </trkpt>
      <trkpt lat="47.25392" lon="-2.26009">
        <ele>35.599998474121</ele>
        <time>2022-05-01T08:03:30.000Z</time>
      </trkpt>
      <trkpt lat="47.25391" lon="-2.26012">
        <ele>36.200000762939</ele>
        <time>2022-05-01T08:03:31.000Z</time>
      </trkpt>
      <trkpt lat="47.25391" lon="-2.26015">
        <ele>36.799999237061</ele>
        <time>2022-05-01T08:03:32.000Z</time>
      </trkpt>
      <trkpt lat="47.2539" lon="-2.26017">
        <ele>37.200000762939</ele>
        <time>2022-05-01T08:03:33.000Z</time>
      </trkpt>
      <trkpt lat="47.25389" lon="-2.26018">
        <ele>37.799999237061</ele>
        <time>2022-05-01T08:03:34.000Z</time>
      </trkpt>
      <trkpt lat="47.25389" lon="-2.26018">
        <ele>38.200000762939</ele>
        <time>2022-05-01T08:03:35.000Z</time>
      </trkpt>
      <trkpt lat="47.25388" lon="-2.26018">
        <ele>38.200000762939</ele>
        <time>2022-05-01T08:03:36.000Z</time>
      </trkpt>
      <trkpt lat="47.25386" lon="-2.26017">
        <ele>38.200000762939</ele>
        <time>2022-05-01T08:03:37.000Z</time>
      </trkpt>
      <trkpt lat="47.25384" lon="-2.26015">
        <ele>38.799999237061</ele>
        <time>2022-05-01T08:03:39.000Z</time>
      </trkpt>
      <trkpt lat="47.25382" lon="-2.26014">
        <ele>39.200000762939</ele>
        <time>2022-05-01T08:03:40.000Z</time>
      </trkpt>
      <trkpt lat="47.2538" lon="-2.26014">
        <ele>40.200000762939</ele>
        <time>2022-05-01T08:03:41.000Z</time>
      </trkpt>
      <trkpt lat="47.25379" lon="-2.26014">
        <ele>40.599998474121</ele>
        <time>2022-05-01T08:03:42.000Z</time>
      </trkpt>
      <trkpt lat="47.25377" lon="-2.26015">
        <ele>40.599998474121</ele>
        <time>2022-05-01T08:03:43.000Z</time>
      </trkpt>
      <trkpt lat="47.2537" lon="-2.26013">
        <ele>41</ele>
        <time>2022-05-01T08:03:47.000Z</time>
      </trkpt>
      <trkpt lat="47.25369" lon="-2.26013">
        <ele>41.400001525879</ele>
        <time>2022-05-01T08:03:48.000Z</time>
      </trkpt>
      <trkpt lat="47.25368" lon="-2.26012">
        <ele>41.799999237061</ele>
        <time>2022-05-01T08:03:49.000Z</time>
      </trkpt>
      <trkpt lat="47.25368" lon="-2.26012">
        <ele>42.200000762939</ele>
        <time>2022-05-01T08:03:50.000Z</time>
      </trkpt>
      <trkpt lat="47.25372" lon="-2.26017">
        <ele>42.599998474121</ele>
        <time>2022-05-01T08:04:53.000Z</time>
      </trkpt>
      <trkpt lat="47.25376" lon="-2.2602">
        <ele>42.599998474121</ele>
        <time>2022-05-01T08:04:55.000Z</time>
      </trkpt>
      <trkpt lat="47.25379" lon="-2.26023">
        <ele>42.200000762939</ele>
        <time>2022-05-01T08:04:56.000Z</time>
      </trkpt>
      <trkpt lat="47.25381" lon="-2.26028">
        <ele>41.799999237061</ele>
        <time>2022-05-01T08:04:57.000Z</time>
      </trkpt>
      <trkpt lat="47.25383" lon="-2.26032">
        <ele>41.400001525879</ele>
        <time>2022-05-01T08:04:58.000Z</time>
      </trkpt>
      <trkpt lat="47.25385" lon="-2.26036">
        <ele>40.799999237061</ele>
        <time>2022-05-01T08:04:59.000Z</time>
      </trkpt>
      <trkpt lat="47.25387" lon="-2.2604">
        <ele>40.400001525879</ele>
        <time>2022-05-01T08:05:00.000Z</time>
      </trkpt>
      <trkpt lat="47.25389" lon="-2.2605">
        <ele>40.400001525879</ele>
        <time>2022-05-01T08:05:03.000Z</time>
      </trkpt>
      <trkpt lat="47.25389" lon="-2.26073">
        <ele>40.400001525879</ele>
        <time>2022-05-01T08:05:07.000Z</time>
      </trkpt>
      <trkpt lat="47.25391" lon="-2.26093">
        <ele>40.400001525879</ele>
        <time>2022-05-01T08:05:12.000Z</time>
      </trkpt>
      <trkpt lat="47.25392" lon="-2.26108">
        <ele>40</ele>
        <time>2022-05-01T08:05:15.000Z</time>
      </trkpt>
      <trkpt lat="47.25394" lon="-2.26116">
        <ele>39.599998474121</ele>
        <time>2022-05-01T08:05:16.000Z</time>
      </trkpt>
      <trkpt lat="47.25396" lon="-2.26123">
        <ele>39</ele>
        <time>2022-05-01T08:05:17.000Z</time>
      </trkpt>
      <trkpt lat="47.25398" lon="-2.2613">
        <ele>38.599998474121</ele>
        <time>2022-05-01T08:05:18.000Z</time>
      </trkpt>
      <trkpt lat="47.254" lon="-2.26136">
        <ele>38</ele>
        <time>2022-05-01T08:05:19.000Z</time>
      </trkpt>
      <trkpt lat="47.25402" lon="-2.26143">
        <ele>38</ele>
        <time>2022-05-01T08:05:20.000Z</time>
      </trkpt>
      <trkpt lat="47.25404" lon="-2.2615">
        <ele>37.599998474121</ele>
        <time>2022-05-01T08:05:21.000Z</time>
      </trkpt>
      <trkpt lat="47.25405" lon="-2.26157">
        <ele>37.200000762939</ele>
        <time>2022-05-01T08:05:22.000Z</time>
      </trkpt>
      <trkpt lat="47.25407" lon="-2.26164">
        <ele>36.799999237061</ele>
        <time>2022-05-01T08:05:23.000Z</time>
      </trkpt>
      <trkpt lat="47.25409" lon="-2.26171">
        <ele>36.400001525879</ele>
        <time>2022-05-01T08:05:24.000Z</time>
      </trkpt>
      <trkpt lat="47.2541" lon="-2.26179">
        <ele>36</ele>
        <time>2022-05-01T08:05:25.000Z</time>
      </trkpt>
      <trkpt lat="47.25409" lon="-2.262">
        <ele>36</ele>
        <time>2022-05-01T08:05:29.000Z</time>
      </trkpt>
      <trkpt lat="47.25409" lon="-2.26204">
        <ele>36.599998474121</ele>
        <time>2022-05-01T08:05:30.000Z</time>
      </trkpt>
      <trkpt lat="47.25408" lon="-2.26208">
        <ele>37</ele>
        <time>2022-05-01T08:05:31.000Z</time>
      </trkpt>
      <trkpt lat="47.25408" lon="-2.26212">
        <ele>37.400001525879</ele>
        <time>2022-05-01T08:05:32.000Z</time>
      </trkpt>
      <trkpt lat="47.25408" lon="-2.26216">
        <ele>37.799999237061</ele>
        <time>2022-05-01T08:05:33.000Z</time>
      </trkpt>
      <trkpt lat="47.25408" lon="-2.26221">
        <ele>38.400001525879</ele>
        <time>2022-05-01T08:05:34.000Z</time>
      </trkpt>
      <trkpt lat="47.25409" lon="-2.26241">
        <ele>38.799999237061</ele>
        <time>2022-05-01T08:05:37.000Z</time>
      </trkpt>
      <trkpt lat="47.25408" lon="-2.26247">
        <ele>39.200000762939</ele>
        <time>2022-05-01T08:05:38.000Z</time>
      </trkpt>
      <trkpt lat="47.25408" lon="-2.26253">
        <ele>39.599998474121</ele>
        <time>2022-05-01T08:05:39.000Z</time>
      </trkpt>
      <trkpt lat="47.25408" lon="-2.2626">
        <ele>40</ele>
        <time>2022-05-01T08:05:40.000Z</time>
      </trkpt>
      <trkpt lat="47.25408" lon="-2.26267">
        <ele>40.400001525879</ele>
        <time>2022-05-01T08:05:41.000Z</time>
      </trkpt>
      <trkpt lat="47.25414" lon="-2.26288">
        <ele>40.400001525879</ele>
        <time>2022-05-01T08:05:45.000Z</time>
      </trkpt>
      <trkpt lat="47.25419" lon="-2.26293">
        <ele>40.799999237061</ele>
        <time>2022-05-01T08:05:47.000Z</time>
      </trkpt>
      <trkpt lat="47.25422" lon="-2.26293">
        <ele>41.200000762939</ele>
        <time>2022-05-01T08:05:48.000Z</time>
      </trkpt>
      <trkpt lat="47.25425" lon="-2.26293">
        <ele>41.599998474121</ele>
        <time>2022-05-01T08:05:49.000Z</time>
      </trkpt>
      <trkpt lat="47.25429" lon="-2.26294">
        <ele>42</ele>
        <time>2022-05-01T08:05:50.000Z</time>
      </trkpt>
      <trkpt lat="47.25433" lon="-2.26295">
        <ele>42.400001525879</ele>
        <time>2022-05-01T08:05:51.000Z</time>
      </trkpt>
      <trkpt lat="47.25448" lon="-2.26295">
        <ele>42.400001525879</ele>
        <time>2022-05-01T08:05:55.000Z</time>
      </trkpt>
      <trkpt lat="47.25459" lon="-2.26279">
        <ele>42.400001525879</ele>
        <time>2022-05-01T08:05:59.000Z</time>
      </trkpt>
      <trkpt lat="47.25463" lon="-2.26272">
        <ele>42.799999237061</ele>
        <time>2022-05-01T08:06:01.000Z</time>
      </trkpt>
      <trkpt lat="47.25464" lon="-2.26271">
        <ele>43.400001525879</ele>
        <time>2022-05-01T08:06:02.000Z</time>
      </trkpt>
      <trkpt lat="47.25466" lon="-2.2627">
        <ele>43.799999237061</ele>
        <time>2022-05-01T08:06:03.000Z</time>
      </trkpt>
      <trkpt lat="47.25468" lon="-2.2627">
        <ele>44.200000762939</ele>
        <time>2022-05-01T08:06:04.000Z</time>
      </trkpt>
      <trkpt lat="47.25469" lon="-2.26271">
        <ele>44.599998474121</ele>
        <time>2022-05-01T08:06:05.000Z</time>
      </trkpt>
      <trkpt lat="47.25471" lon="-2.26274">
        <ele>45</ele>
        <time>2022-05-01T08:06:07.000Z</time>
      </trkpt>
      <trkpt lat="47.25471" lon="-2.26275">
        <ele>45.599998474121</ele>
        <time>2022-05-01T08:06:08.000Z</time>
      </trkpt>
      <trkpt lat="47.25472" lon="-2.26277">
        <ele>46.400001525879</ele>
        <time>2022-05-01T08:06:09.000Z</time>
      </trkpt>
      <trkpt lat="47.25473" lon="-2.26279">
        <ele>46.799999237061</ele>
        <time>2022-05-01T08:06:10.000Z</time>
      </trkpt>
      <trkpt lat="47.25475" lon="-2.26295">
        <ele>46.799999237061</ele>
        <time>2022-05-01T08:06:14.000Z</time>
      </trkpt>
      <trkpt lat="47.25478" lon="-2.26311">
        <ele>46.799999237061</ele>
        <time>2022-05-01T08:06:18.000Z</time>
      </trkpt>
      <trkpt lat="47.25479" lon="-2.26318">
        <ele>46.799999237061</ele>
        <time>2022-05-01T08:06:20.000Z</time>
      </trkpt>
      <trkpt lat="47.25483" lon="-2.26347">
        <ele>46.799999237061</ele>
        <time>2022-05-01T08:06:27.000Z</time>
      </trkpt>
      <trkpt lat="47.25486" lon="-2.26368">
        <ele>47.200000762939</ele>
        <time>2022-05-01T08:06:32.000Z</time>
      </trkpt>
      <trkpt lat="47.25486" lon="-2.26371">
        <ele>48</ele>
        <time>2022-05-01T08:06:33.000Z</time>
      </trkpt>
      <trkpt lat="47.25486" lon="-2.26376">
        <ele>48.400001525879</ele>
        <time>2022-05-01T08:06:34.000Z</time>
      </trkpt>
      <trkpt lat="47.25487" lon="-2.2638">
        <ele>49</ele>
        <time>2022-05-01T08:06:35.000Z</time>
      </trkpt>
      <trkpt lat="47.25489" lon="-2.26389">
        <ele>49.400001525879</ele>
        <time>2022-05-01T08:06:38.000Z</time>
      </trkpt>
      <trkpt lat="47.25489" lon="-2.26394">
        <ele>49.799999237061</ele>
        <time>2022-05-01T08:06:39.000Z</time>
      </trkpt>
      <trkpt lat="47.25489" lon="-2.26398">
        <ele>50.200000762939</ele>
        <time>2022-05-01T08:06:40.000Z</time>
      </trkpt>
      <trkpt lat="47.25488" lon="-2.26401">
        <ele>50.599998474121</ele>
        <time>2022-05-01T08:06:41.000Z</time>
      </trkpt>
      <trkpt lat="47.25488" lon="-2.26404">
        <ele>51</ele>
        <time>2022-05-01T08:06:42.000Z</time>
      </trkpt>
      <trkpt lat="47.25489" lon="-2.26409">
        <ele>51</ele>
        <time>2022-05-01T08:06:44.000Z</time>
      </trkpt>
      <trkpt lat="47.25486" lon="-2.26425">
        <ele>51</ele>
        <time>2022-05-01T08:06:49.000Z</time>
      </trkpt>
      <trkpt lat="47.25486" lon="-2.26429">
        <ele>51</ele>
        <time>2022-05-01T08:06:50.000Z</time>
      </trkpt>
      <trkpt lat="47.25481" lon="-2.26455">
        <ele>51</ele>
        <time>2022-05-01T08:06:57.000Z</time>
      </trkpt>
      <trkpt lat="47.25484" lon="-2.26472">
        <ele>51</ele>
        <time>2022-05-01T08:07:02.000Z</time>
      </trkpt>
      <trkpt lat="47.25484" lon="-2.2648">
        <ele>51</ele>
        <time>2022-05-01T08:07:04.000Z</time>
      </trkpt>
      <trkpt lat="47.25482" lon="-2.26494">
        <ele>51</ele>
        <time>2022-05-01T08:07:07.000Z</time>
      </trkpt>
      <trkpt lat="47.25478" lon="-2.26521">
        <ele>51</ele>
        <time>2022-05-01T08:07:11.000Z</time>
      </trkpt>
      <trkpt lat="47.2548" lon="-2.26538">
        <ele>51</ele>
        <time>2022-05-01T08:07:14.000Z</time>
      </trkpt>
      <trkpt lat="47.25484" lon="-2.2655">
        <ele>51</ele>
        <time>2022-05-01T08:07:16.000Z</time>
      </trkpt>
      <trkpt lat="47.25487" lon="-2.26563">
        <ele>51</ele>
        <time>2022-05-01T08:07:18.000Z</time>
      </trkpt>
      <trkpt lat="47.25488" lon="-2.26586">
        <ele>51</ele>
        <time>2022-05-01T08:07:21.000Z</time>
      </trkpt>
      <trkpt lat="47.25488" lon="-2.26594">
        <ele>51</ele>
        <time>2022-05-01T08:07:22.000Z</time>
      </trkpt>
      <trkpt lat="47.25488" lon="-2.26638">
        <ele>51</ele>
        <time>2022-05-01T08:07:27.000Z</time>
      </trkpt>
      <trkpt lat="47.25488" lon="-2.26662">
        <ele>51</ele>
        <time>2022-05-01T08:07:30.000Z</time>
      </trkpt>
      <trkpt lat="47.25486" lon="-2.26677">
        <ele>51</ele>
        <time>2022-05-01T08:07:32.000Z</time>
      </trkpt>
      <trkpt lat="47.25484" lon="-2.26682">
        <ele>51</ele>
        <time>2022-05-01T08:07:33.000Z</time>
      </trkpt>
      <trkpt lat="47.25477" lon="-2.26699">
        <ele>51</ele>
        <time>2022-05-01T08:07:37.000Z</time>
      </trkpt>
      <trkpt lat="47.25475" lon="-2.26719">
        <ele>51</ele>
        <time>2022-05-01T08:07:42.000Z</time>
      </trkpt>
      <trkpt lat="47.25475" lon="-2.26723">
        <ele>51.400001525879</ele>
        <time>2022-05-01T08:07:43.000Z</time>
      </trkpt>
      <trkpt lat="47.25475" lon="-2.26728">
        <ele>51.799999237061</ele>
        <time>2022-05-01T08:07:44.000Z</time>
      </trkpt>
      <trkpt lat="47.25476" lon="-2.26733">
        <ele>52.400001525879</ele>
        <time>2022-05-01T08:07:45.000Z</time>
      </trkpt>
      <trkpt lat="47.25477" lon="-2.26737">
        <ele>52.799999237061</ele>
        <time>2022-05-01T08:07:46.000Z</time>
      </trkpt>
      <trkpt lat="47.25479" lon="-2.26742">
        <ele>53.200000762939</ele>
        <time>2022-05-01T08:07:47.000Z</time>
      </trkpt>
      <trkpt lat="47.25494" lon="-2.26771">
        <ele>53.200000762939</ele>
        <time>2022-05-01T08:07:53.000Z</time>
      </trkpt>
      <trkpt lat="47.25503" lon="-2.26786">
        <ele>53.200000762939</ele>
        <time>2022-05-01T08:07:56.000Z</time>
      </trkpt>
      <trkpt lat="47.2551" lon="-2.26796">
        <ele>53.599998474121</ele>
        <time>2022-05-01T08:07:58.000Z</time>
      </trkpt>
      <trkpt lat="47.25514" lon="-2.26801">
        <ele>54</ele>
        <time>2022-05-01T08:07:59.000Z</time>
      </trkpt>
      <trkpt lat="47.25518" lon="-2.26806">
        <ele>54.400001525879</ele>
        <time>2022-05-01T08:08:00.000Z</time>
      </trkpt>
      <trkpt lat="47.25521" lon="-2.26811">
        <ele>54.799999237061</ele>
        <time>2022-05-01T08:08:01.000Z</time>
      </trkpt>
      <trkpt lat="47.25525" lon="-2.26816">
        <ele>55.200000762939</ele>
        <time>2022-05-01T08:08:02.000Z</time>
      </trkpt>
      <trkpt lat="47.25537" lon="-2.26829">
        <ele>55.200000762939</ele>
        <time>2022-05-01T08:08:05.000Z</time>
      </trkpt>
      <trkpt lat="47.2555" lon="-2.26843">
        <ele>55.599998474121</ele>
        <time>2022-05-01T08:08:09.000Z</time>
      </trkpt>
      <trkpt lat="47.25553" lon="-2.26847">
        <ele>56</ele>
        <time>2022-05-01T08:08:10.000Z</time>
      </trkpt>
      <trkpt lat="47.25556" lon="-2.2685">
        <ele>56.599998474121</ele>
        <time>2022-05-01T08:08:11.000Z</time>
      </trkpt>
      <trkpt lat="47.25558" lon="-2.26852">
        <ele>57.400001525879</ele>
        <time>2022-05-01T08:08:12.000Z</time>
      </trkpt>
      <trkpt lat="47.25566" lon="-2.26862">
        <ele>57.400001525879</ele>
        <time>2022-05-01T08:08:16.000Z</time>
      </trkpt>
      <trkpt lat="47.25577" lon="-2.26875">
        <ele>57.400001525879</ele>
        <time>2022-05-01T08:08:22.000Z</time>
      </trkpt>
      <trkpt lat="47.25586" lon="-2.26877">
        <ele>57.799999237061</ele>
        <time>2022-05-01T08:08:25.000Z</time>
      </trkpt>
      <trkpt lat="47.25588" lon="-2.26879">
        <ele>58.200000762939</ele>
        <time>2022-05-01T08:08:26.000Z</time>
      </trkpt>
      <trkpt lat="47.25591" lon="-2.26881">
        <ele>58.599998474121</ele>
        <time>2022-05-01T08:08:27.000Z</time>
      </trkpt>
      <trkpt lat="47.25594" lon="-2.26882">
        <ele>59</ele>
        <time>2022-05-01T08:08:28.000Z</time>
      </trkpt>
      <trkpt lat="47.25597" lon="-2.26882">
        <ele>59.400001525879</ele>
        <time>2022-05-01T08:08:29.000Z</time>
      </trkpt>
      <trkpt lat="47.25607" lon="-2.26887">
        <ele>59.400001525879</ele>
        <time>2022-05-01T08:08:33.000Z</time>
      </trkpt>
      <trkpt lat="47.25618" lon="-2.26886">
        <ele>60.200000762939</ele>
        <time>2022-05-01T08:08:37.000Z</time>
      </trkpt>
      <trkpt lat="47.2562" lon="-2.26883">
        <ele>60.599998474121</ele>
        <time>2022-05-01T08:08:38.000Z</time>
      </trkpt>
      <trkpt lat="47.25623" lon="-2.26879">
        <ele>61</ele>
        <time>2022-05-01T08:08:39.000Z</time>
      </trkpt>
      <trkpt lat="47.25625" lon="-2.26874">
        <ele>61.400001525879</ele>
        <time>2022-05-01T08:08:40.000Z</time>
      </trkpt>
      <trkpt lat="47.25628" lon="-2.26869">
        <ele>61.400001525879</ele>
        <time>2022-05-01T08:08:41.000Z</time>
      </trkpt>
      <trkpt lat="47.25633" lon="-2.26859">
        <ele>61.400001525879</ele>
        <time>2022-05-01T08:08:43.000Z</time>
      </trkpt>
      <trkpt lat="47.25649" lon="-2.26837">
        <ele>61.400001525879</ele>
        <time>2022-05-01T08:08:49.000Z</time>
      </trkpt>
      <trkpt lat="47.25656" lon="-2.2683">
        <ele>61.400001525879</ele>
        <time>2022-05-01T08:08:51.000Z</time>
      </trkpt>
      <trkpt lat="47.25668" lon="-2.26822">
        <ele>61.400001525879</ele>
        <time>2022-05-01T08:08:54.000Z</time>
      </trkpt>
      <trkpt lat="47.25672" lon="-2.26821">
        <ele>61.400001525879</ele>
        <time>2022-05-01T08:08:55.000Z</time>
      </trkpt>
      <trkpt lat="47.25688" lon="-2.26821">
        <ele>61.400001525879</ele>
        <time>2022-05-01T08:08:58.000Z</time>
      </trkpt>
      <trkpt lat="47.25715" lon="-2.26835">
        <ele>61.400001525879</ele>
        <time>2022-05-01T08:09:03.000Z</time>
      </trkpt>
      <trkpt lat="47.25725" lon="-2.26846">
        <ele>61.400001525879</ele>
        <time>2022-05-01T08:09:05.000Z</time>
      </trkpt>
      <trkpt lat="47.25728" lon="-2.26851">
        <ele>61.400001525879</ele>
        <time>2022-05-01T08:09:06.000Z</time>
      </trkpt>
      <trkpt lat="47.2573" lon="-2.26857">
        <ele>61.400001525879</ele>
        <time>2022-05-01T08:09:07.000Z</time>
      </trkpt>
      <trkpt lat="47.25743" lon="-2.2689">
        <ele>61.400001525879</ele>
        <time>2022-05-01T08:09:13.000Z</time>
      </trkpt>
      <trkpt lat="47.25756" lon="-2.269">
        <ele>61.400001525879</ele>
        <time>2022-05-01T08:09:17.000Z</time>
      </trkpt>
      <trkpt lat="47.25772" lon="-2.26894">
        <ele>61.400001525879</ele>
        <time>2022-05-01T08:09:21.000Z</time>
      </trkpt>
      <trkpt lat="47.25801" lon="-2.26881">
        <ele>61.400001525879</ele>
        <time>2022-05-01T08:09:27.000Z</time>
      </trkpt>
      <trkpt lat="47.25816" lon="-2.26873">
        <ele>61.400001525879</ele>
        <time>2022-05-01T08:09:30.000Z</time>
      </trkpt>
      <trkpt lat="47.25831" lon="-2.26866">
        <ele>61.400001525879</ele>
        <time>2022-05-01T08:09:33.000Z</time>
      </trkpt>
      <trkpt lat="47.25869" lon="-2.26849">
        <ele>61.400001525879</ele>
        <time>2022-05-01T08:09:40.000Z</time>
      </trkpt>
      <trkpt lat="47.25892" lon="-2.26838">
        <ele>61</ele>
        <time>2022-05-01T08:09:44.000Z</time>
      </trkpt>
      <trkpt lat="47.25898" lon="-2.26835">
        <ele>60.599998474121</ele>
        <time>2022-05-01T08:09:45.000Z</time>
      </trkpt>
      <trkpt lat="47.25904" lon="-2.26834">
        <ele>60</ele>
        <time>2022-05-01T08:09:46.000Z</time>
      </trkpt>
      <trkpt lat="47.2591" lon="-2.26831">
        <ele>59.599998474121</ele>
        <time>2022-05-01T08:09:47.000Z</time>
      </trkpt>
      <trkpt lat="47.25916" lon="-2.26828">
        <ele>59.200000762939</ele>
        <time>2022-05-01T08:09:48.000Z</time>
      </trkpt>
      <trkpt lat="47.25934" lon="-2.26818">
        <ele>59.200000762939</ele>
        <time>2022-05-01T08:09:51.000Z</time>
      </trkpt>
      <trkpt lat="47.2594" lon="-2.26817">
        <ele>59.200000762939</ele>
        <time>2022-05-01T08:09:52.000Z</time>
      </trkpt>
      <trkpt lat="47.25971" lon="-2.26809">
        <ele>58.799999237061</ele>
        <time>2022-05-01T08:09:57.000Z</time>
      </trkpt>
      <trkpt lat="47.25977" lon="-2.26808">
        <ele>58.400001525879</ele>
        <time>2022-05-01T08:09:58.000Z</time>
      </trkpt>
      <trkpt lat="47.25982" lon="-2.2681">
        <ele>58</ele>
        <time>2022-05-01T08:09:59.000Z</time>
      </trkpt>
      <trkpt lat="47.25985" lon="-2.26813">
        <ele>57.599998474121</ele>
        <time>2022-05-01T08:10:00.000Z</time>
      </trkpt>
      <trkpt lat="47.25988" lon="-2.26819">
        <ele>57.200000762939</ele>
        <time>2022-05-01T08:10:01.000Z</time>
      </trkpt>
      <trkpt lat="47.25991" lon="-2.26831">
        <ele>57.200000762939</ele>
        <time>2022-05-01T08:10:03.000Z</time>
      </trkpt>
      <trkpt lat="47.25992" lon="-2.26845">
        <ele>57.200000762939</ele>
        <time>2022-05-01T08:10:05.000Z</time>
      </trkpt>
      <trkpt lat="47.25994" lon="-2.26868">
        <ele>57.200000762939</ele>
        <time>2022-05-01T08:10:08.000Z</time>
      </trkpt>
      <trkpt lat="47.25998" lon="-2.26892">
        <ele>57.200000762939</ele>
        <time>2022-05-01T08:10:11.000Z</time>
      </trkpt>
      <trkpt lat="47.26004" lon="-2.26909">
        <ele>57.200000762939</ele>
        <time>2022-05-01T08:10:13.000Z</time>
      </trkpt>
      <trkpt lat="47.26016" lon="-2.26928">
        <ele>57.200000762939</ele>
        <time>2022-05-01T08:10:16.000Z</time>
      </trkpt>
      <trkpt lat="47.26024" lon="-2.26939">
        <ele>57.200000762939</ele>
        <time>2022-05-01T08:10:18.000Z</time>
      </trkpt>
      <trkpt lat="47.26028" lon="-2.26944">
        <ele>57.200000762939</ele>
        <time>2022-05-01T08:10:19.000Z</time>
      </trkpt>
      <trkpt lat="47.26044" lon="-2.26965">
        <ele>57.200000762939</ele>
        <time>2022-05-01T08:10:23.000Z</time>
      </trkpt>
      <trkpt lat="47.26067" lon="-2.27007">
        <ele>57.200000762939</ele>
        <time>2022-05-01T08:10:29.000Z</time>
      </trkpt>
      <trkpt lat="47.26082" lon="-2.27048">
        <ele>57.200000762939</ele>
        <time>2022-05-01T08:10:34.000Z</time>
      </trkpt>
      <trkpt lat="47.2609" lon="-2.27083">
        <ele>57.200000762939</ele>
        <time>2022-05-01T08:10:38.000Z</time>
      </trkpt>
      <trkpt lat="47.26092" lon="-2.27101">
        <ele>57.200000762939</ele>
        <time>2022-05-01T08:10:40.000Z</time>
      </trkpt>
      <trkpt lat="47.26101" lon="-2.27146">
        <ele>57.200000762939</ele>
        <time>2022-05-01T08:10:46.000Z</time>
      </trkpt>
      <trkpt lat="47.26106" lon="-2.27162">
        <ele>57.200000762939</ele>
        <time>2022-05-01T08:10:48.000Z</time>
      </trkpt>
      <trkpt lat="47.26128" lon="-2.2722">
        <ele>57.200000762939</ele>
        <time>2022-05-01T08:10:55.000Z</time>
      </trkpt>
      <trkpt lat="47.26141" lon="-2.27259">
        <ele>57.200000762939</ele>
        <time>2022-05-01T08:11:00.000Z</time>
      </trkpt>
      <trkpt lat="47.26143" lon="-2.27267">
        <ele>57.200000762939</ele>
        <time>2022-05-01T08:11:01.000Z</time>
      </trkpt>
      <trkpt lat="47.26145" lon="-2.27276">
        <ele>57.200000762939</ele>
        <time>2022-05-01T08:11:02.000Z</time>
      </trkpt>
      <trkpt lat="47.26151" lon="-2.2731">
        <ele>57.200000762939</ele>
        <time>2022-05-01T08:11:06.000Z</time>
      </trkpt>
      <trkpt lat="47.26159" lon="-2.27317">
        <ele>57.200000762939</ele>
        <time>2022-05-01T08:11:08.000Z</time>
      </trkpt>
      <trkpt lat="47.26181" lon="-2.27315">
        <ele>57.200000762939</ele>
        <time>2022-05-01T08:11:12.000Z</time>
      </trkpt>
      <trkpt lat="47.26205" lon="-2.27311">
        <ele>57.200000762939</ele>
        <time>2022-05-01T08:11:16.000Z</time>
      </trkpt>
      <trkpt lat="47.26216" lon="-2.27313">
        <ele>57.200000762939</ele>
        <time>2022-05-01T08:11:18.000Z</time>
      </trkpt>
      <trkpt lat="47.2624" lon="-2.27317">
        <ele>57.200000762939</ele>
        <time>2022-05-01T08:11:22.000Z</time>
      </trkpt>
      <trkpt lat="47.26252" lon="-2.27319">
        <ele>57.200000762939</ele>
        <time>2022-05-01T08:11:24.000Z</time>
      </trkpt>
      <trkpt lat="47.26284" lon="-2.27321">
        <ele>57.200000762939</ele>
        <time>2022-05-01T08:11:29.000Z</time>
      </trkpt>
      <trkpt lat="47.26325" lon="-2.27325">
        <ele>57.200000762939</ele>
        <time>2022-05-01T08:11:35.000Z</time>
      </trkpt>
      <trkpt lat="47.26357" lon="-2.27329">
        <ele>57.200000762939</ele>
        <time>2022-05-01T08:11:40.000Z</time>
      </trkpt>
      <trkpt lat="47.26383" lon="-2.27328">
        <ele>56.799999237061</ele>
        <time>2022-05-01T08:11:44.000Z</time>
      </trkpt>
      <trkpt lat="47.26389" lon="-2.27328">
        <ele>56.400001525879</ele>
        <time>2022-05-01T08:11:45.000Z</time>
      </trkpt>
      <trkpt lat="47.26396" lon="-2.27328">
        <ele>56</ele>
        <time>2022-05-01T08:11:46.000Z</time>
      </trkpt>
      <trkpt lat="47.26402" lon="-2.2733">
        <ele>55.400001525879</ele>
        <time>2022-05-01T08:11:47.000Z</time>
      </trkpt>
      <trkpt lat="47.26408" lon="-2.27332">
        <ele>55</ele>
        <time>2022-05-01T08:11:48.000Z</time>
      </trkpt>
      <trkpt lat="47.26421" lon="-2.27337">
        <ele>55</ele>
        <time>2022-05-01T08:11:50.000Z</time>
      </trkpt>
      <trkpt lat="47.26434" lon="-2.27356">
        <ele>55</ele>
        <time>2022-05-01T08:11:53.000Z</time>
      </trkpt>
      <trkpt lat="47.26437" lon="-2.27364">
        <ele>55</ele>
        <time>2022-05-01T08:11:54.000Z</time>
      </trkpt>
      <trkpt lat="47.26441" lon="-2.27372">
        <ele>54.599998474121</ele>
        <time>2022-05-01T08:11:55.000Z</time>
      </trkpt>
      <trkpt lat="47.26444" lon="-2.2738">
        <ele>54.200000762939</ele>
        <time>2022-05-01T08:11:56.000Z</time>
      </trkpt>
      <trkpt lat="47.26448" lon="-2.27389">
        <ele>53.799999237061</ele>
        <time>2022-05-01T08:11:57.000Z</time>
      </trkpt>
      <trkpt lat="47.26451" lon="-2.27397">
        <ele>53.400001525879</ele>
        <time>2022-05-01T08:11:58.000Z</time>
      </trkpt>
      <trkpt lat="47.26453" lon="-2.27405">
        <ele>53</ele>
        <time>2022-05-01T08:11:59.000Z</time>
      </trkpt>
      <trkpt lat="47.26456" lon="-2.27414">
        <ele>53</ele>
        <time>2022-05-01T08:12:00.000Z</time>
      </trkpt>
      <trkpt lat="47.26473" lon="-2.27474">
        <ele>53</ele>
        <time>2022-05-01T08:12:06.000Z</time>
      </trkpt>
      <trkpt lat="47.26481" lon="-2.27502">
        <ele>52.599998474121</ele>
        <time>2022-05-01T08:12:09.000Z</time>
      </trkpt>
      <trkpt lat="47.26484" lon="-2.27512">
        <ele>52.200000762939</ele>
        <time>2022-05-01T08:12:10.000Z</time>
      </trkpt>
      <trkpt lat="47.26486" lon="-2.27522">
        <ele>51.799999237061</ele>
        <time>2022-05-01T08:12:11.000Z</time>
      </trkpt>
      <trkpt lat="47.26487" lon="-2.27532">
        <ele>51.200000762939</ele>
        <time>2022-05-01T08:12:12.000Z</time>
      </trkpt>
      <trkpt lat="47.26489" lon="-2.27543">
        <ele>50.799999237061</ele>
        <time>2022-05-01T08:12:13.000Z</time>
      </trkpt>
      <trkpt lat="47.26495" lon="-2.27574">
        <ele>50.400001525879</ele>
        <time>2022-05-01T08:12:17.000Z</time>
      </trkpt>
      <trkpt lat="47.26499" lon="-2.27578">
        <ele>50</ele>
        <time>2022-05-01T08:12:18.000Z</time>
      </trkpt>
      <trkpt lat="47.26504" lon="-2.27579">
        <ele>49.599998474121</ele>
        <time>2022-05-01T08:12:19.000Z</time>
      </trkpt>
      <trkpt lat="47.26509" lon="-2.27578">
        <ele>48.599998474121</ele>
        <time>2022-05-01T08:12:20.000Z</time>
      </trkpt>
      <trkpt lat="47.26515" lon="-2.27577">
        <ele>48.599998474121</ele>
        <time>2022-05-01T08:12:21.000Z</time>
      </trkpt>
      <trkpt lat="47.26521" lon="-2.27577">
        <ele>48.599998474121</ele>
        <time>2022-05-01T08:12:22.000Z</time>
      </trkpt>
      <trkpt lat="47.26538" lon="-2.27581">
        <ele>48.599998474121</ele>
        <time>2022-05-01T08:12:25.000Z</time>
      </trkpt>
      <trkpt lat="47.26544" lon="-2.27582">
        <ele>48.599998474121</ele>
        <time>2022-05-01T08:12:26.000Z</time>
      </trkpt>
      <trkpt lat="47.26564" lon="-2.27581">
        <ele>48.599998474121</ele>
        <time>2022-05-01T08:12:29.000Z</time>
      </trkpt>
      <trkpt lat="47.26589" lon="-2.27587">
        <ele>48.599998474121</ele>
        <time>2022-05-01T08:12:33.000Z</time>
      </trkpt>
      <trkpt lat="47.26594" lon="-2.2759">
        <ele>48.599998474121</ele>
        <time>2022-05-01T08:12:34.000Z</time>
      </trkpt>
      <trkpt lat="47.26634" lon="-2.27611">
        <ele>48.599998474121</ele>
        <time>2022-05-01T08:12:41.000Z</time>
      </trkpt>
      <trkpt lat="47.26639" lon="-2.27613">
        <ele>48.599998474121</ele>
        <time>2022-05-01T08:12:42.000Z</time>
      </trkpt>
      <trkpt lat="47.26659" lon="-2.2762">
        <ele>48.599998474121</ele>
        <time>2022-05-01T08:12:46.000Z</time>
      </trkpt>
      <trkpt lat="47.26688" lon="-2.27631">
        <ele>48.599998474121</ele>
        <time>2022-05-01T08:12:52.000Z</time>
      </trkpt>
      <trkpt lat="47.2671" lon="-2.27641">
        <ele>48.599998474121</ele>
        <time>2022-05-01T08:12:56.000Z</time>
      </trkpt>
      <trkpt lat="47.26715" lon="-2.27643">
        <ele>48.599998474121</ele>
        <time>2022-05-01T08:12:57.000Z</time>
      </trkpt>
      <trkpt lat="47.26738" lon="-2.27649">
        <ele>48.599998474121</ele>
        <time>2022-05-01T08:13:01.000Z</time>
      </trkpt>
      <trkpt lat="47.26748" lon="-2.27651">
        <ele>48.599998474121</ele>
        <time>2022-05-01T08:13:03.000Z</time>
      </trkpt>
      <trkpt lat="47.26761" lon="-2.27643">
        <ele>48.599998474121</ele>
        <time>2022-05-01T08:13:06.000Z</time>
      </trkpt>
      <trkpt lat="47.26762" lon="-2.2763">
        <ele>48.599998474121</ele>
        <time>2022-05-01T08:13:08.000Z</time>
      </trkpt>
      <trkpt lat="47.26759" lon="-2.27616">
        <ele>48.599998474121</ele>
        <time>2022-05-01T08:13:10.000Z</time>
      </trkpt>
      <trkpt lat="47.26756" lon="-2.27601">
        <ele>48.599998474121</ele>
        <time>2022-05-01T08:13:12.000Z</time>
      </trkpt>
      <trkpt lat="47.26749" lon="-2.2754">
        <ele>48.599998474121</ele>
        <time>2022-05-01T08:13:20.000Z</time>
      </trkpt>
      <trkpt lat="47.2675" lon="-2.27495">
        <ele>49</ele>
        <time>2022-05-01T08:13:26.000Z</time>
      </trkpt>
      <trkpt lat="47.26751" lon="-2.27488">
        <ele>49.400001525879</ele>
        <time>2022-05-01T08:13:27.000Z</time>
      </trkpt>
      <trkpt lat="47.26751" lon="-2.2748">
        <ele>49.799999237061</ele>
        <time>2022-05-01T08:13:28.000Z</time>
      </trkpt>
      <trkpt lat="47.26751" lon="-2.27473">
        <ele>50.400001525879</ele>
        <time>2022-05-01T08:13:29.000Z</time>
      </trkpt>
      <trkpt lat="47.26751" lon="-2.27466">
        <ele>50.799999237061</ele>
        <time>2022-05-01T08:13:30.000Z</time>
      </trkpt>
      <trkpt lat="47.26752" lon="-2.27444">
        <ele>50.799999237061</ele>
        <time>2022-05-01T08:13:33.000Z</time>
      </trkpt>
      <trkpt lat="47.26752" lon="-2.27437">
        <ele>50.799999237061</ele>
        <time>2022-05-01T08:13:34.000Z</time>
      </trkpt>
      <trkpt lat="47.26752" lon="-2.2743">
        <ele>50.799999237061</ele>
        <time>2022-05-01T08:13:35.000Z</time>
      </trkpt>
      <trkpt lat="47.26756" lon="-2.27413">
        <ele>50.799999237061</ele>
        <time>2022-05-01T08:13:38.000Z</time>
      </trkpt>
      <trkpt lat="47.26769" lon="-2.27411">
        <ele>50.799999237061</ele>
        <time>2022-05-01T08:13:41.000Z</time>
      </trkpt>
      <trkpt lat="47.26774" lon="-2.27412">
        <ele>50.799999237061</ele>
        <time>2022-05-01T08:13:42.000Z</time>
      </trkpt>
      <trkpt lat="47.26799" lon="-2.27413">
        <ele>50.400001525879</ele>
        <time>2022-05-01T08:13:47.000Z</time>
      </trkpt>
      <trkpt lat="47.26804" lon="-2.27412">
        <ele>50</ele>
        <time>2022-05-01T08:13:48.000Z</time>
      </trkpt>
      <trkpt lat="47.26809" lon="-2.27412">
        <ele>49.599998474121</ele>
        <time>2022-05-01T08:13:49.000Z</time>
      </trkpt>
      <trkpt lat="47.26814" lon="-2.27411">
        <ele>49.200000762939</ele>
        <time>2022-05-01T08:13:50.000Z</time>
      </trkpt>
      <trkpt lat="47.26819" lon="-2.27411">
        <ele>48.799999237061</ele>
        <time>2022-05-01T08:13:51.000Z</time>
      </trkpt>
      <trkpt lat="47.26844" lon="-2.27405">
        <ele>48.799999237061</ele>
        <time>2022-05-01T08:13:56.000Z</time>
      </trkpt>
      <trkpt lat="47.2686" lon="-2.27399">
        <ele>48.200000762939</ele>
        <time>2022-05-01T08:13:59.000Z</time>
      </trkpt>
      <trkpt lat="47.26865" lon="-2.27397">
        <ele>47.799999237061</ele>
        <time>2022-05-01T08:14:00.000Z</time>
      </trkpt>
      <trkpt lat="47.2687" lon="-2.27394">
        <ele>47.400001525879</ele>
        <time>2022-05-01T08:14:01.000Z</time>
      </trkpt>
      <trkpt lat="47.26875" lon="-2.27391">
        <ele>46.799999237061</ele>
        <time>2022-05-01T08:14:02.000Z</time>
      </trkpt>
      <trkpt lat="47.26881" lon="-2.27388">
        <ele>46.400001525879</ele>
        <time>2022-05-01T08:14:03.000Z</time>
      </trkpt>
      <trkpt lat="47.26891" lon="-2.27382">
        <ele>46</ele>
        <time>2022-05-01T08:14:05.000Z</time>
      </trkpt>
      <trkpt lat="47.26896" lon="-2.27379">
        <ele>45.400001525879</ele>
        <time>2022-05-01T08:14:06.000Z</time>
      </trkpt>
      <trkpt lat="47.269" lon="-2.27376">
        <ele>45</ele>
        <time>2022-05-01T08:14:07.000Z</time>
      </trkpt>
      <trkpt lat="47.26903" lon="-2.27372">
        <ele>44.599998474121</ele>
        <time>2022-05-01T08:14:08.000Z</time>
      </trkpt>
      <trkpt lat="47.26906" lon="-2.27368">
        <ele>44.200000762939</ele>
        <time>2022-05-01T08:14:09.000Z</time>
      </trkpt>
      <trkpt lat="47.2691" lon="-2.27359">
        <ele>44.200000762939</ele>
        <time>2022-05-01T08:14:11.000Z</time>
      </trkpt>
      <trkpt lat="47.26914" lon="-2.27351">
        <ele>44.200000762939</ele>
        <time>2022-05-01T08:14:13.000Z</time>
      </trkpt>
      <trkpt lat="47.26914" lon="-2.27348">
        <ele>44.200000762939</ele>
        <time>2022-05-01T08:14:14.000Z</time>
      </trkpt>
      <trkpt lat="47.26916" lon="-2.27338">
        <ele>44.200000762939</ele>
        <time>2022-05-01T08:14:17.000Z</time>
      </trkpt>
      <trkpt lat="47.26917" lon="-2.27334">
        <ele>44.200000762939</ele>
        <time>2022-05-01T08:14:18.000Z</time>
      </trkpt>
      <trkpt lat="47.26921" lon="-2.27319">
        <ele>44.200000762939</ele>
        <time>2022-05-01T08:14:23.000Z</time>
      </trkpt>
      <trkpt lat="47.26921" lon="-2.27317">
        <ele>44.200000762939</ele>
        <time>2022-05-01T08:14:24.000Z</time>
      </trkpt>
      <trkpt lat="47.26925" lon="-2.27303">
        <ele>44.200000762939</ele>
        <time>2022-05-01T08:14:29.000Z</time>
      </trkpt>
      <trkpt lat="47.26925" lon="-2.273">
        <ele>44.200000762939</ele>
        <time>2022-05-01T08:14:30.000Z</time>
      </trkpt>
      <trkpt lat="47.26927" lon="-2.27284">
        <ele>44.200000762939</ele>
        <time>2022-05-01T08:14:35.000Z</time>
      </trkpt>
      <trkpt lat="47.26933" lon="-2.27272">
        <ele>44.200000762939</ele>
        <time>2022-05-01T08:14:40.000Z</time>
      </trkpt>
      <trkpt lat="47.26943" lon="-2.27266">
        <ele>44.200000762939</ele>
        <time>2022-05-01T08:14:44.000Z</time>
      </trkpt>
      <trkpt lat="47.26947" lon="-2.27259">
        <ele>44.200000762939</ele>
        <time>2022-05-01T08:14:46.000Z</time>
      </trkpt>
      <trkpt lat="47.26951" lon="-2.27252">
        <ele>44.200000762939</ele>
        <time>2022-05-01T08:14:48.000Z</time>
      </trkpt>
      <trkpt lat="47.26959" lon="-2.27232">
        <ele>44.200000762939</ele>
        <time>2022-05-01T08:14:53.000Z</time>
      </trkpt>
      <trkpt lat="47.26958" lon="-2.27216">
        <ele>44.200000762939</ele>
        <time>2022-05-01T08:14:57.000Z</time>
      </trkpt>
      <trkpt lat="47.26959" lon="-2.2721">
        <ele>44.200000762939</ele>
        <time>2022-05-01T08:14:59.000Z</time>
      </trkpt>
      <trkpt lat="47.26962" lon="-2.27207">
        <ele>44.200000762939</ele>
        <time>2022-05-01T08:15:01.000Z</time>
      </trkpt>
      <trkpt lat="47.26969" lon="-2.27197">
        <ele>44.200000762939</ele>
        <time>2022-05-01T08:15:07.000Z</time>
      </trkpt>
      <trkpt lat="47.26971" lon="-2.27189">
        <ele>44.200000762939</ele>
        <time>2022-05-01T08:15:11.000Z</time>
      </trkpt>
      <trkpt lat="47.26973" lon="-2.27187">
        <ele>44.200000762939</ele>
        <time>2022-05-01T08:15:13.000Z</time>
      </trkpt>
      <trkpt lat="47.26978" lon="-2.27187">
        <ele>44.200000762939</ele>
        <time>2022-05-01T08:15:17.000Z</time>
      </trkpt>
      <trkpt lat="47.26979" lon="-2.27186">
        <ele>44.200000762939</ele>
        <time>2022-05-01T08:15:18.000Z</time>
      </trkpt>
      <trkpt lat="47.26987" lon="-2.2718">
        <ele>44.200000762939</ele>
        <time>2022-05-01T08:15:22.000Z</time>
      </trkpt>
      <trkpt lat="47.26991" lon="-2.27176">
        <ele>44.200000762939</ele>
        <time>2022-05-01T08:15:24.000Z</time>
      </trkpt>
      <trkpt lat="47.26997" lon="-2.27176">
        <ele>43.799999237061</ele>
        <time>2022-05-01T08:15:27.000Z</time>
      </trkpt>
      <trkpt lat="47.26998" lon="-2.27176">
        <ele>43.400001525879</ele>
        <time>2022-05-01T08:15:28.000Z</time>
      </trkpt>
      <trkpt lat="47.26999" lon="-2.27177">
        <ele>43</ele>
        <time>2022-05-01T08:15:29.000Z</time>
      </trkpt>
      <trkpt lat="47.26999" lon="-2.27177">
        <ele>42.599998474121</ele>
        <time>2022-05-01T08:15:30.000Z</time>
      </trkpt>
      <trkpt lat="47.27001" lon="-2.27171">
        <ele>42</ele>
        <time>2022-05-01T08:15:38.000Z</time>
      </trkpt>
      <trkpt lat="47.27004" lon="-2.27167">
        <ele>42</ele>
        <time>2022-05-01T08:15:40.000Z</time>
      </trkpt>
      <trkpt lat="47.27009" lon="-2.27163">
        <ele>42</ele>
        <time>2022-05-01T08:15:43.000Z</time>
      </trkpt>
      <trkpt lat="47.27012" lon="-2.27161">
        <ele>41.599998474121</ele>
        <time>2022-05-01T08:15:44.000Z</time>
      </trkpt>
      <trkpt lat="47.27015" lon="-2.27158">
        <ele>41.200000762939</ele>
        <time>2022-05-01T08:15:45.000Z</time>
      </trkpt>
      <trkpt lat="47.27018" lon="-2.27155">
        <ele>40.799999237061</ele>
        <time>2022-05-01T08:15:46.000Z</time>
      </trkpt>
      <trkpt lat="47.27019" lon="-2.27151">
        <ele>40.200000762939</ele>
        <time>2022-05-01T08:15:47.000Z</time>
      </trkpt>
      <trkpt lat="47.27021" lon="-2.27148">
        <ele>39.799999237061</ele>
        <time>2022-05-01T08:15:48.000Z</time>
      </trkpt>
      <trkpt lat="47.27022" lon="-2.27146">
        <ele>39.799999237061</ele>
        <time>2022-05-01T08:15:49.000Z</time>
      </trkpt>
      <trkpt lat="47.2702" lon="-2.27134">
        <ele>39.799999237061</ele>
        <time>2022-05-01T08:15:54.000Z</time>
      </trkpt>
      <trkpt lat="47.2702" lon="-2.27131">
        <ele>39.799999237061</ele>
        <time>2022-05-01T08:15:55.000Z</time>
      </trkpt>
      <trkpt lat="47.27015" lon="-2.27118">
        <ele>39.799999237061</ele>
        <time>2022-05-01T08:15:59.000Z</time>
      </trkpt>
      <trkpt lat="47.27012" lon="-2.27106">
        <ele>40.599998474121</ele>
        <time>2022-05-01T08:16:02.000Z</time>
      </trkpt>
      <trkpt lat="47.27011" lon="-2.27103">
        <ele>41</ele>
        <time>2022-05-01T08:16:03.000Z</time>
      </trkpt>
      <trkpt lat="47.27011" lon="-2.271">
        <ele>41.400001525879</ele>
        <time>2022-05-01T08:16:04.000Z</time>
      </trkpt>
      <trkpt lat="47.2701" lon="-2.27098">
        <ele>42</ele>
        <time>2022-05-01T08:16:05.000Z</time>
      </trkpt>
      <trkpt lat="47.27011" lon="-2.27096">
        <ele>42</ele>
        <time>2022-05-01T08:16:06.000Z</time>
      </trkpt>
      <trkpt lat="47.2701" lon="-2.27085">
        <ele>42</ele>
        <time>2022-05-01T08:16:10.000Z</time>
      </trkpt>
      <trkpt lat="47.27009" lon="-2.27075">
        <ele>42</ele>
        <time>2022-05-01T08:16:15.000Z</time>
      </trkpt>
      <trkpt lat="47.27008" lon="-2.27071">
        <ele>42</ele>
        <time>2022-05-01T08:16:23.000Z</time>
      </trkpt>
      <trkpt lat="47.27" lon="-2.27056">
        <ele>42</ele>
        <time>2022-05-01T08:16:30.000Z</time>
      </trkpt>
      <trkpt lat="47.26989" lon="-2.27042">
        <ele>42</ele>
        <time>2022-05-01T08:16:35.000Z</time>
      </trkpt>
      <trkpt lat="47.26979" lon="-2.27029">
        <ele>42</ele>
        <time>2022-05-01T08:16:38.000Z</time>
      </trkpt>
      <trkpt lat="47.26969" lon="-2.27017">
        <ele>42</ele>
        <time>2022-05-01T08:16:41.000Z</time>
      </trkpt>
      <trkpt lat="47.26963" lon="-2.27007">
        <ele>42</ele>
        <time>2022-05-01T08:16:43.000Z</time>
      </trkpt>
      <trkpt lat="47.26961" lon="-2.27">
        <ele>41.400001525879</ele>
        <time>2022-05-01T08:16:44.000Z</time>
      </trkpt>
      <trkpt lat="47.2696" lon="-2.26993">
        <ele>41</ele>
        <time>2022-05-01T08:16:45.000Z</time>
      </trkpt>
      <trkpt lat="47.26959" lon="-2.26986">
        <ele>40.599998474121</ele>
        <time>2022-05-01T08:16:46.000Z</time>
      </trkpt>
      <trkpt lat="47.26959" lon="-2.26976">
        <ele>40</ele>
        <time>2022-05-01T08:16:47.000Z</time>
      </trkpt>
      <trkpt lat="47.26959" lon="-2.2697">
        <ele>39.599998474121</ele>
        <time>2022-05-01T08:16:48.000Z</time>
      </trkpt>
      <trkpt lat="47.2696" lon="-2.26962">
        <ele>39.599998474121</ele>
        <time>2022-05-01T08:16:49.000Z</time>
      </trkpt>
      <trkpt lat="47.26962" lon="-2.2692">
        <ele>39.599998474121</ele>
        <time>2022-05-01T08:16:54.000Z</time>
      </trkpt>
      <trkpt lat="47.26959" lon="-2.26887">
        <ele>39.599998474121</ele>
        <time>2022-05-01T08:16:58.000Z</time>
      </trkpt>
      <trkpt lat="47.26957" lon="-2.26879">
        <ele>39.599998474121</ele>
        <time>2022-05-01T08:16:59.000Z</time>
      </trkpt>
      <trkpt lat="47.26954" lon="-2.26857">
        <ele>39.599998474121</ele>
        <time>2022-05-01T08:17:02.000Z</time>
      </trkpt>
      <trkpt lat="47.26953" lon="-2.26842">
        <ele>39.599998474121</ele>
        <time>2022-05-01T08:17:04.000Z</time>
      </trkpt>
      <trkpt lat="47.26953" lon="-2.26835">
        <ele>39.599998474121</ele>
        <time>2022-05-01T08:17:05.000Z</time>
      </trkpt>
      <trkpt lat="47.26959" lon="-2.26818">
        <ele>39.200000762939</ele>
        <time>2022-05-01T08:17:08.000Z</time>
      </trkpt>
      <trkpt lat="47.26962" lon="-2.26814">
        <ele>38.799999237061</ele>
        <time>2022-05-01T08:17:09.000Z</time>
      </trkpt>
      <trkpt lat="47.26965" lon="-2.26809">
        <ele>38.400001525879</ele>
        <time>2022-05-01T08:17:10.000Z</time>
      </trkpt>
      <trkpt lat="47.26969" lon="-2.26806">
        <ele>38</ele>
        <time>2022-05-01T08:17:11.000Z</time>
      </trkpt>
      <trkpt lat="47.26973" lon="-2.26803">
        <ele>37.599998474121</ele>
        <time>2022-05-01T08:17:12.000Z</time>
      </trkpt>
      <trkpt lat="47.26977" lon="-2.268">
        <ele>37.599998474121</ele>
        <time>2022-05-01T08:17:13.000Z</time>
      </trkpt>
      <trkpt lat="47.26988" lon="-2.26792">
        <ele>37.599998474121</ele>
        <time>2022-05-01T08:17:17.000Z</time>
      </trkpt>
      <trkpt lat="47.26996" lon="-2.26786">
        <ele>37.599998474121</ele>
        <time>2022-05-01T08:17:20.000Z</time>
      </trkpt>
      <trkpt lat="47.27002" lon="-2.26778">
        <ele>37.599998474121</ele>
        <time>2022-05-01T08:17:22.000Z</time>
      </trkpt>
      <trkpt lat="47.2701" lon="-2.26767">
        <ele>37.599998474121</ele>
        <time>2022-05-01T08:17:26.000Z</time>
      </trkpt>
      <trkpt lat="47.27015" lon="-2.26763">
        <ele>37.599998474121</ele>
        <time>2022-05-01T08:17:28.000Z</time>
      </trkpt>
      <trkpt lat="47.27022" lon="-2.26757">
        <ele>37</ele>
        <time>2022-05-01T08:17:32.000Z</time>
      </trkpt>
      <trkpt lat="47.27024" lon="-2.26755">
        <ele>36.599998474121</ele>
        <time>2022-05-01T08:17:33.000Z</time>
      </trkpt>
      <trkpt lat="47.27025" lon="-2.26754">
        <ele>36.200000762939</ele>
        <time>2022-05-01T08:17:34.000Z</time>
      </trkpt>
      <trkpt lat="47.27025" lon="-2.26752">
        <ele>35.799999237061</ele>
        <time>2022-05-01T08:17:35.000Z</time>
      </trkpt>
      <trkpt lat="47.27025" lon="-2.2675">
        <ele>35.400001525879</ele>
        <time>2022-05-01T08:17:36.000Z</time>
      </trkpt>
      <trkpt lat="47.27026" lon="-2.26747">
        <ele>35.400001525879</ele>
        <time>2022-05-01T08:17:37.000Z</time>
      </trkpt>
      <trkpt lat="47.27028" lon="-2.2673">
        <ele>35.400001525879</ele>
        <time>2022-05-01T08:17:40.000Z</time>
      </trkpt>
      <trkpt lat="47.27028" lon="-2.26724">
        <ele>35.400001525879</ele>
        <time>2022-05-01T08:17:41.000Z</time>
      </trkpt>
      <trkpt lat="47.27031" lon="-2.26705">
        <ele>35.400001525879</ele>
        <time>2022-05-01T08:17:44.000Z</time>
      </trkpt>
      <trkpt lat="47.2703" lon="-2.26691">
        <ele>35.400001525879</ele>
        <time>2022-05-01T08:17:46.000Z</time>
      </trkpt>
      <trkpt lat="47.2703" lon="-2.26675">
        <ele>35.400001525879</ele>
        <time>2022-05-01T08:17:48.000Z</time>
      </trkpt>
      <trkpt lat="47.27029" lon="-2.26643">
        <ele>35.400001525879</ele>
        <time>2022-05-01T08:17:52.000Z</time>
      </trkpt>
      <trkpt lat="47.27016" lon="-2.26621">
        <ele>35.400001525879</ele>
        <time>2022-05-01T08:17:56.000Z</time>
      </trkpt>
      <trkpt lat="47.2701" lon="-2.26612">
        <ele>36</ele>
        <time>2022-05-01T08:17:58.000Z</time>
      </trkpt>
      <trkpt lat="47.27007" lon="-2.26607">
        <ele>36.400001525879</ele>
        <time>2022-05-01T08:17:59.000Z</time>
      </trkpt>
      <trkpt lat="47.27005" lon="-2.26602">
        <ele>36.799999237061</ele>
        <time>2022-05-01T08:18:00.000Z</time>
      </trkpt>
      <trkpt lat="47.27001" lon="-2.26597">
        <ele>37.200000762939</ele>
        <time>2022-05-01T08:18:01.000Z</time>
      </trkpt>
      <trkpt lat="47.26997" lon="-2.26592">
        <ele>37.599998474121</ele>
        <time>2022-05-01T08:18:02.000Z</time>
      </trkpt>
      <trkpt lat="47.26987" lon="-2.26577">
        <ele>37.599998474121</ele>
        <time>2022-05-01T08:18:05.000Z</time>
      </trkpt>
      <trkpt lat="47.26978" lon="-2.26556">
        <ele>37.599998474121</ele>
        <time>2022-05-01T08:18:08.000Z</time>
      </trkpt>
      <trkpt lat="47.26976" lon="-2.2655">
        <ele>37.599998474121</ele>
        <time>2022-05-01T08:18:09.000Z</time>
      </trkpt>
      <trkpt lat="47.26969" lon="-2.26528">
        <ele>38</ele>
        <time>2022-05-01T08:18:13.000Z</time>
      </trkpt>
      <trkpt lat="47.26968" lon="-2.26525">
        <ele>38.400001525879</ele>
        <time>2022-05-01T08:18:14.000Z</time>
      </trkpt>
      <trkpt lat="47.26967" lon="-2.26521">
        <ele>39</ele>
        <time>2022-05-01T08:18:15.000Z</time>
      </trkpt>
      <trkpt lat="47.26967" lon="-2.26518">
        <ele>39.400001525879</ele>
        <time>2022-05-01T08:18:16.000Z</time>
      </trkpt>
      <trkpt lat="47.26967" lon="-2.26514">
        <ele>39.799999237061</ele>
        <time>2022-05-01T08:18:17.000Z</time>
      </trkpt>
      <trkpt lat="47.26967" lon="-2.26511">
        <ele>39.799999237061</ele>
        <time>2022-05-01T08:18:18.000Z</time>
      </trkpt>
      <trkpt lat="47.26974" lon="-2.26493">
        <ele>39.799999237061</ele>
        <time>2022-05-01T08:18:23.000Z</time>
      </trkpt>
      <trkpt lat="47.26983" lon="-2.26478">
        <ele>39.799999237061</ele>
        <time>2022-05-01T08:18:28.000Z</time>
      </trkpt>
      <trkpt lat="47.26984" lon="-2.26476">
        <ele>39.799999237061</ele>
        <time>2022-05-01T08:18:31.000Z</time>
      </trkpt>
      <trkpt lat="47.26988" lon="-2.26477">
        <ele>39.799999237061</ele>
        <time>2022-05-01T08:18:40.000Z</time>
      </trkpt>
      <trkpt lat="47.2699" lon="-2.26478">
        <ele>39.799999237061</ele>
        <time>2022-05-01T08:18:41.000Z</time>
      </trkpt>
      <trkpt lat="47.27004" lon="-2.26489">
        <ele>39.799999237061</ele>
        <time>2022-05-01T08:18:46.000Z</time>
      </trkpt>
      <trkpt lat="47.27015" lon="-2.26502">
        <ele>39.799999237061</ele>
        <time>2022-05-01T08:18:51.000Z</time>
      </trkpt>
      <trkpt lat="47.27018" lon="-2.26506">
        <ele>39.799999237061</ele>
        <time>2022-05-01T08:18:56.000Z</time>
      </trkpt>
      <trkpt lat="47.27025" lon="-2.26517">
        <ele>39.799999237061</ele>
        <time>2022-05-01T08:19:04.000Z</time>
      </trkpt>
      <trkpt lat="47.27027" lon="-2.26524">
        <ele>39.400001525879</ele>
        <time>2022-05-01T08:19:07.000Z</time>
      </trkpt>
      <trkpt lat="47.27029" lon="-2.26526">
        <ele>39</ele>
        <time>2022-05-01T08:19:08.000Z</time>
      </trkpt>
      <trkpt lat="47.2703" lon="-2.26527">
        <ele>38.599998474121</ele>
        <time>2022-05-01T08:19:09.000Z</time>
      </trkpt>
      <trkpt lat="47.27031" lon="-2.26529">
        <ele>38.200000762939</ele>
        <time>2022-05-01T08:19:10.000Z</time>
      </trkpt>
      <trkpt lat="47.27032" lon="-2.26532">
        <ele>37.799999237061</ele>
        <time>2022-05-01T08:19:11.000Z</time>
      </trkpt>
      <trkpt lat="47.27034" lon="-2.26543">
        <ele>37.799999237061</ele>
        <time>2022-05-01T08:19:15.000Z</time>
      </trkpt>
      <trkpt lat="47.27036" lon="-2.26565">
        <ele>37.799999237061</ele>
        <time>2022-05-01T08:19:21.000Z</time>
      </trkpt>
      <trkpt lat="47.27033" lon="-2.26582">
        <ele>37.799999237061</ele>
        <time>2022-05-01T08:19:27.000Z</time>
      </trkpt>
      <trkpt lat="47.27029" lon="-2.26598">
        <ele>37.799999237061</ele>
        <time>2022-05-01T08:19:33.000Z</time>
      </trkpt>
      <trkpt lat="47.27028" lon="-2.26599">
        <ele>37.799999237061</ele>
        <time>2022-05-01T08:19:34.000Z</time>
      </trkpt>
      <trkpt lat="47.27027" lon="-2.266">
        <ele>37.799999237061</ele>
        <time>2022-05-01T08:19:35.000Z</time>
      </trkpt>
      <trkpt lat="47.27024" lon="-2.26599">
        <ele>37.799999237061</ele>
        <time>2022-05-01T08:19:37.000Z</time>
      </trkpt>
      <trkpt lat="47.27014" lon="-2.26591">
        <ele>37.799999237061</ele>
        <time>2022-05-01T08:19:42.000Z</time>
      </trkpt>
      <trkpt lat="47.27002" lon="-2.26579">
        <ele>37.799999237061</ele>
        <time>2022-05-01T08:19:46.000Z</time>
      </trkpt>
      <trkpt lat="47.26984" lon="-2.26559">
        <ele>37.799999237061</ele>
        <time>2022-05-01T08:19:52.000Z</time>
      </trkpt>
      <trkpt lat="47.26975" lon="-2.26533">
        <ele>37.799999237061</ele>
        <time>2022-05-01T08:19:57.000Z</time>
      </trkpt>
      <trkpt lat="47.2697" lon="-2.26517">
        <ele>38.200000762939</ele>
        <time>2022-05-01T08:20:00.000Z</time>
      </trkpt>
      <trkpt lat="47.26969" lon="-2.26513">
        <ele>38.599998474121</ele>
        <time>2022-05-01T08:20:01.000Z</time>
      </trkpt>
      <trkpt lat="47.26968" lon="-2.26509">
        <ele>39</ele>
        <time>2022-05-01T08:20:02.000Z</time>
      </trkpt>
      <trkpt lat="47.26968" lon="-2.26506">
        <ele>39.400001525879</ele>
        <time>2022-05-01T08:20:03.000Z</time>
      </trkpt>
      <trkpt lat="47.26969" lon="-2.26503">
        <ele>39.799999237061</ele>
        <time>2022-05-01T08:20:04.000Z</time>
      </trkpt>
      <trkpt lat="47.26977" lon="-2.26489">
        <ele>39.799999237061</ele>
        <time>2022-05-01T08:20:08.000Z</time>
      </trkpt>
      <trkpt lat="47.2698" lon="-2.26485">
        <ele>39.799999237061</ele>
        <time>2022-05-01T08:20:09.000Z</time>
      </trkpt>
      <trkpt lat="47.26998" lon="-2.26465">
        <ele>39.799999237061</ele>
        <time>2022-05-01T08:20:14.000Z</time>
      </trkpt>
      <trkpt lat="47.27001" lon="-2.2646">
        <ele>39.799999237061</ele>
        <time>2022-05-01T08:20:15.000Z</time>
      </trkpt>
      <trkpt lat="47.27018" lon="-2.26433">
        <ele>39.799999237061</ele>
        <time>2022-05-01T08:20:20.000Z</time>
      </trkpt>
      <trkpt lat="47.2704" lon="-2.26397">
        <ele>39.799999237061</ele>
        <time>2022-05-01T08:20:27.000Z</time>
      </trkpt>
      <trkpt lat="47.27044" lon="-2.26392">
        <ele>39.799999237061</ele>
        <time>2022-05-01T08:20:28.000Z</time>
      </trkpt>
      <trkpt lat="47.27047" lon="-2.26387">
        <ele>40.400001525879</ele>
        <time>2022-05-01T08:20:29.000Z</time>
      </trkpt>
      <trkpt lat="47.27051" lon="-2.26381">
        <ele>40.799999237061</ele>
        <time>2022-05-01T08:20:30.000Z</time>
      </trkpt>
      <trkpt lat="47.27055" lon="-2.26376">
        <ele>41.200000762939</ele>
        <time>2022-05-01T08:20:31.000Z</time>
      </trkpt>
      <trkpt lat="47.27059" lon="-2.26371">
        <ele>41.599998474121</ele>
        <time>2022-05-01T08:20:32.000Z</time>
      </trkpt>
      <trkpt lat="47.27062" lon="-2.26366">
        <ele>42</ele>
        <time>2022-05-01T08:20:33.000Z</time>
      </trkpt>
      <trkpt lat="47.27073" lon="-2.26352">
        <ele>42</ele>
        <time>2022-05-01T08:20:36.000Z</time>
      </trkpt>
      <trkpt lat="47.27087" lon="-2.26329">
        <ele>42</ele>
        <time>2022-05-01T08:20:41.000Z</time>
      </trkpt>
      <trkpt lat="47.27093" lon="-2.26323">
        <ele>42</ele>
        <time>2022-05-01T08:20:45.000Z</time>
      </trkpt>
      <trkpt lat="47.27093" lon="-2.26324">
        <ele>42</ele>
        <time>2022-05-01T08:20:47.000Z</time>
      </trkpt>
      <trkpt lat="47.27098" lon="-2.26312">
        <ele>42</ele>
        <time>2022-05-01T08:25:16.000Z</time>
      </trkpt>
      <trkpt lat="47.271" lon="-2.26309">
        <ele>42</ele>
        <time>2022-05-01T08:25:17.000Z</time>
      </trkpt>
      <trkpt lat="47.27115" lon="-2.2629">
        <ele>42</ele>
        <time>2022-05-01T08:25:22.000Z</time>
      </trkpt>
      <trkpt lat="47.27118" lon="-2.26285">
        <ele>42</ele>
        <time>2022-05-01T08:25:23.000Z</time>
      </trkpt>
      <trkpt lat="47.27131" lon="-2.26263">
        <ele>42</ele>
        <time>2022-05-01T08:25:27.000Z</time>
      </trkpt>
      <trkpt lat="47.27156" lon="-2.26231">
        <ele>41.599998474121</ele>
        <time>2022-05-01T08:25:33.000Z</time>
      </trkpt>
      <trkpt lat="47.27162" lon="-2.26225">
        <ele>41</ele>
        <time>2022-05-01T08:25:34.000Z</time>
      </trkpt>
      <trkpt lat="47.27168" lon="-2.2622">
        <ele>40.599998474121</ele>
        <time>2022-05-01T08:25:35.000Z</time>
      </trkpt>
      <trkpt lat="47.27174" lon="-2.26214">
        <ele>40.200000762939</ele>
        <time>2022-05-01T08:25:36.000Z</time>
      </trkpt>
      <trkpt lat="47.2718" lon="-2.26209">
        <ele>39.799999237061</ele>
        <time>2022-05-01T08:25:37.000Z</time>
      </trkpt>
      <trkpt lat="47.27197" lon="-2.26192">
        <ele>39.799999237061</ele>
        <time>2022-05-01T08:25:40.000Z</time>
      </trkpt>
      <trkpt lat="47.27232" lon="-2.26168">
        <ele>39.799999237061</ele>
        <time>2022-05-01T08:25:46.000Z</time>
      </trkpt>
      <trkpt lat="47.2726" lon="-2.26154">
        <ele>39.400001525879</ele>
        <time>2022-05-01T08:25:51.000Z</time>
      </trkpt>
      <trkpt lat="47.27266" lon="-2.26152">
        <ele>39</ele>
        <time>2022-05-01T08:25:52.000Z</time>
      </trkpt>
      <trkpt lat="47.27272" lon="-2.26148">
        <ele>38.599998474121</ele>
        <time>2022-05-01T08:25:53.000Z</time>
      </trkpt>
      <trkpt lat="47.27277" lon="-2.26146">
        <ele>38.200000762939</ele>
        <time>2022-05-01T08:25:54.000Z</time>
      </trkpt>
      <trkpt lat="47.27283" lon="-2.26143">
        <ele>37.799999237061</ele>
        <time>2022-05-01T08:25:55.000Z</time>
      </trkpt>
      <trkpt lat="47.27288" lon="-2.26141">
        <ele>37.799999237061</ele>
        <time>2022-05-01T08:25:56.000Z</time>
      </trkpt>
      <trkpt lat="47.27315" lon="-2.26134">
        <ele>37.799999237061</ele>
        <time>2022-05-01T08:26:00.000Z</time>
      </trkpt>
      <trkpt lat="47.27352" lon="-2.26124">
        <ele>37.799999237061</ele>
        <time>2022-05-01T08:26:07.000Z</time>
      </trkpt>
      <trkpt lat="47.27357" lon="-2.26126">
        <ele>37.799999237061</ele>
        <time>2022-05-01T08:26:08.000Z</time>
      </trkpt>
      <trkpt lat="47.27369" lon="-2.26142">
        <ele>37.799999237061</ele>
        <time>2022-05-01T08:26:11.000Z</time>
      </trkpt>
      <trkpt lat="47.27377" lon="-2.26153">
        <ele>37.799999237061</ele>
        <time>2022-05-01T08:26:13.000Z</time>
      </trkpt>
      <trkpt lat="47.27397" lon="-2.26183">
        <ele>37.799999237061</ele>
        <time>2022-05-01T08:26:18.000Z</time>
      </trkpt>
      <trkpt lat="47.2743" lon="-2.26234">
        <ele>37.799999237061</ele>
        <time>2022-05-01T08:26:26.000Z</time>
      </trkpt>
      <trkpt lat="47.27445" lon="-2.26252">
        <ele>37.400001525879</ele>
        <time>2022-05-01T08:26:29.000Z</time>
      </trkpt>
      <trkpt lat="47.2745" lon="-2.26257">
        <ele>36.799999237061</ele>
        <time>2022-05-01T08:26:30.000Z</time>
      </trkpt>
      <trkpt lat="47.27456" lon="-2.26262">
        <ele>36.400001525879</ele>
        <time>2022-05-01T08:26:31.000Z</time>
      </trkpt>
      <trkpt lat="47.27462" lon="-2.26266">
        <ele>36</ele>
        <time>2022-05-01T08:26:32.000Z</time>
      </trkpt>
      <trkpt lat="47.27468" lon="-2.26271">
        <ele>35.599998474121</ele>
        <time>2022-05-01T08:26:33.000Z</time>
      </trkpt>
      <trkpt lat="47.27503" lon="-2.26284">
        <ele>35.599998474121</ele>
        <time>2022-05-01T08:26:38.000Z</time>
      </trkpt>
      <trkpt lat="47.27509" lon="-2.26285">
        <ele>35.200000762939</ele>
        <time>2022-05-01T08:26:39.000Z</time>
      </trkpt>
      <trkpt lat="47.27515" lon="-2.26287">
        <ele>34.599998474121</ele>
        <time>2022-05-01T08:26:40.000Z</time>
      </trkpt>
      <trkpt lat="47.27521" lon="-2.26287">
        <ele>34.200000762939</ele>
        <time>2022-05-01T08:26:41.000Z</time>
      </trkpt>
      <trkpt lat="47.27527" lon="-2.26287">
        <ele>33.799999237061</ele>
        <time>2022-05-01T08:26:42.000Z</time>
      </trkpt>
      <trkpt lat="47.27533" lon="-2.26286">
        <ele>33.400001525879</ele>
        <time>2022-05-01T08:26:43.000Z</time>
      </trkpt>
      <trkpt lat="47.27539" lon="-2.26286">
        <ele>33.400001525879</ele>
        <time>2022-05-01T08:26:44.000Z</time>
      </trkpt>
      <trkpt lat="47.27578" lon="-2.26284">
        <ele>33.400001525879</ele>
        <time>2022-05-01T08:26:50.000Z</time>
      </trkpt>
      <trkpt lat="47.27602" lon="-2.26288">
        <ele>33.400001525879</ele>
        <time>2022-05-01T08:26:54.000Z</time>
      </trkpt>
      <trkpt lat="47.27608" lon="-2.2629">
        <ele>33.400001525879</ele>
        <time>2022-05-01T08:26:55.000Z</time>
      </trkpt>
      <trkpt lat="47.27625" lon="-2.263">
        <ele>33.400001525879</ele>
        <time>2022-05-01T08:26:58.000Z</time>
      </trkpt>
      <trkpt lat="47.27635" lon="-2.2631">
        <ele>33.400001525879</ele>
        <time>2022-05-01T08:27:00.000Z</time>
      </trkpt>
      <trkpt lat="47.27639" lon="-2.26315">
        <ele>33</ele>
        <time>2022-05-01T08:27:01.000Z</time>
      </trkpt>
      <trkpt lat="47.27644" lon="-2.2632">
        <ele>32.599998474121</ele>
        <time>2022-05-01T08:27:02.000Z</time>
      </trkpt>
      <trkpt lat="47.27648" lon="-2.26325">
        <ele>32.200000762939</ele>
        <time>2022-05-01T08:27:03.000Z</time>
      </trkpt>
      <trkpt lat="47.27652" lon="-2.26331">
        <ele>31.799999237061</ele>
        <time>2022-05-01T08:27:04.000Z</time>
      </trkpt>
      <trkpt lat="47.27655" lon="-2.26336">
        <ele>31.39999961853</ele>
        <time>2022-05-01T08:27:05.000Z</time>
      </trkpt>
      <trkpt lat="47.27658" lon="-2.26338">
        <ele>31.39999961853</ele>
        <time>2022-05-01T08:27:06.000Z</time>
      </trkpt>
      <trkpt lat="47.2766" lon="-2.26335">
        <ele>31.39999961853</ele>
        <time>2022-05-01T08:27:07.000Z</time>
      </trkpt>
      <trkpt lat="47.27662" lon="-2.26331">
        <ele>31.39999961853</ele>
        <time>2022-05-01T08:27:08.000Z</time>
      </trkpt>
      <trkpt lat="47.27662" lon="-2.26319">
        <ele>31.39999961853</ele>
        <time>2022-05-01T08:27:11.000Z</time>
      </trkpt>
      <trkpt lat="47.27661" lon="-2.26312">
        <ele>31.39999961853</ele>
        <time>2022-05-01T08:27:13.000Z</time>
      </trkpt>
      <trkpt lat="47.27656" lon="-2.26297">
        <ele>31.39999961853</ele>
        <time>2022-05-01T08:27:16.000Z</time>
      </trkpt>
      <trkpt lat="47.27656" lon="-2.2629">
        <ele>31.39999961853</ele>
        <time>2022-05-01T08:27:17.000Z</time>
      </trkpt>
      <trkpt lat="47.27652" lon="-2.26275">
        <ele>31.39999961853</ele>
        <time>2022-05-01T08:27:20.000Z</time>
      </trkpt>
      <trkpt lat="47.27641" lon="-2.26244">
        <ele>31.39999961853</ele>
        <time>2022-05-01T08:27:26.000Z</time>
      </trkpt>
      <trkpt lat="47.27631" lon="-2.26228">
        <ele>31.39999961853</ele>
        <time>2022-05-01T08:27:29.000Z</time>
      </trkpt>
      <trkpt lat="47.27627" lon="-2.26215">
        <ele>31.39999961853</ele>
        <time>2022-05-01T08:27:31.000Z</time>
      </trkpt>
      <trkpt lat="47.27626" lon="-2.26209">
        <ele>31.799999237061</ele>
        <time>2022-05-01T08:27:32.000Z</time>
      </trkpt>
      <trkpt lat="47.27625" lon="-2.26202">
        <ele>32.200000762939</ele>
        <time>2022-05-01T08:27:33.000Z</time>
      </trkpt>
      <trkpt lat="47.27625" lon="-2.26195">
        <ele>32.599998474121</ele>
        <time>2022-05-01T08:27:34.000Z</time>
      </trkpt>
      <trkpt lat="47.27623" lon="-2.2619">
        <ele>33.400001525879</ele>
        <time>2022-05-01T08:27:35.000Z</time>
      </trkpt>
      <trkpt lat="47.27621" lon="-2.26185">
        <ele>33.400001525879</ele>
        <time>2022-05-01T08:27:36.000Z</time>
      </trkpt>
      <trkpt lat="47.27621" lon="-2.26176">
        <ele>33.400001525879</ele>
        <time>2022-05-01T08:27:38.000Z</time>
      </trkpt>
      <trkpt lat="47.27623" lon="-2.26174">
        <ele>33.400001525879</ele>
        <time>2022-05-01T08:27:39.000Z</time>
      </trkpt>
      <trkpt lat="47.27626" lon="-2.26171">
        <ele>33.400001525879</ele>
        <time>2022-05-01T08:27:40.000Z</time>
      </trkpt>
      <trkpt lat="47.27638" lon="-2.26162">
        <ele>33.400001525879</ele>
        <time>2022-05-01T08:27:43.000Z</time>
      </trkpt>
      <trkpt lat="47.27645" lon="-2.26155">
        <ele>33.400001525879</ele>
        <time>2022-05-01T08:27:45.000Z</time>
      </trkpt>
      <trkpt lat="47.27659" lon="-2.26143">
        <ele>33.400001525879</ele>
        <time>2022-05-01T08:27:49.000Z</time>
      </trkpt>
      <trkpt lat="47.27676" lon="-2.2612">
        <ele>33.400001525879</ele>
        <time>2022-05-01T08:27:54.000Z</time>
      </trkpt>
      <trkpt lat="47.27684" lon="-2.26113">
        <ele>33.400001525879</ele>
        <time>2022-05-01T08:27:56.000Z</time>
      </trkpt>
      <trkpt lat="47.27698" lon="-2.261">
        <ele>33.400001525879</ele>
        <time>2022-05-01T08:27:59.000Z</time>
      </trkpt>
      <trkpt lat="47.27704" lon="-2.26094">
        <ele>33.400001525879</ele>
        <time>2022-05-01T08:28:00.000Z</time>
      </trkpt>
      <trkpt lat="47.27709" lon="-2.2609">
        <ele>33</ele>
        <time>2022-05-01T08:28:01.000Z</time>
      </trkpt>
      <trkpt lat="47.27713" lon="-2.26086">
        <ele>32.599998474121</ele>
        <time>2022-05-01T08:28:02.000Z</time>
      </trkpt>
      <trkpt lat="47.27719" lon="-2.26085">
        <ele>32.200000762939</ele>
        <time>2022-05-01T08:28:03.000Z</time>
      </trkpt>
      <trkpt lat="47.27725" lon="-2.26084">
        <ele>31.799999237061</ele>
        <time>2022-05-01T08:28:04.000Z</time>
      </trkpt>
      <trkpt lat="47.27732" lon="-2.26083">
        <ele>31.39999961853</ele>
        <time>2022-05-01T08:28:05.000Z</time>
      </trkpt>
      <trkpt lat="47.27738" lon="-2.26082">
        <ele>31.39999961853</ele>
        <time>2022-05-01T08:28:06.000Z</time>
      </trkpt>
      <trkpt lat="47.27744" lon="-2.26083">
        <ele>31.39999961853</ele>
        <time>2022-05-01T08:28:07.000Z</time>
      </trkpt>
      <trkpt lat="47.27756" lon="-2.26084">
        <ele>31.39999961853</ele>
        <time>2022-05-01T08:28:09.000Z</time>
      </trkpt>
      <trkpt lat="47.27767" lon="-2.26082">
        <ele>31.39999961853</ele>
        <time>2022-05-01T08:28:11.000Z</time>
      </trkpt>
      <trkpt lat="47.27773" lon="-2.26076">
        <ele>31.39999961853</ele>
        <time>2022-05-01T08:28:12.000Z</time>
      </trkpt>
      <trkpt lat="47.27784" lon="-2.26056">
        <ele>31.39999961853</ele>
        <time>2022-05-01T08:28:15.000Z</time>
      </trkpt>
      <trkpt lat="47.27787" lon="-2.26048">
        <ele>31.39999961853</ele>
        <time>2022-05-01T08:28:16.000Z</time>
      </trkpt>
      <trkpt lat="47.27797" lon="-2.26015">
        <ele>31.39999961853</ele>
        <time>2022-05-01T08:28:20.000Z</time>
      </trkpt>
      <trkpt lat="47.27798" lon="-2.26006">
        <ele>31.39999961853</ele>
        <time>2022-05-01T08:28:21.000Z</time>
      </trkpt>
      <trkpt lat="47.27798" lon="-2.25964">
        <ele>31.39999961853</ele>
        <time>2022-05-01T08:28:26.000Z</time>
      </trkpt>
      <trkpt lat="47.27787" lon="-2.25932">
        <ele>31.39999961853</ele>
        <time>2022-05-01T08:28:30.000Z</time>
      </trkpt>
      <trkpt lat="47.27783" lon="-2.25924">
        <ele>31.39999961853</ele>
        <time>2022-05-01T08:28:31.000Z</time>
      </trkpt>
      <trkpt lat="47.27771" lon="-2.25905">
        <ele>31.39999961853</ele>
        <time>2022-05-01T08:28:34.000Z</time>
      </trkpt>
      <trkpt lat="47.27764" lon="-2.25892">
        <ele>31.39999961853</ele>
        <time>2022-05-01T08:28:36.000Z</time>
      </trkpt>
      <trkpt lat="47.27758" lon="-2.25879">
        <ele>31.39999961853</ele>
        <time>2022-05-01T08:28:38.000Z</time>
      </trkpt>
      <trkpt lat="47.27752" lon="-2.25866">
        <ele>31.39999961853</ele>
        <time>2022-05-01T08:28:40.000Z</time>
      </trkpt>
      <trkpt lat="47.27748" lon="-2.25861">
        <ele>31.39999961853</ele>
        <time>2022-05-01T08:28:41.000Z</time>
      </trkpt>
      <trkpt lat="47.27732" lon="-2.25856">
        <ele>31.39999961853</ele>
        <time>2022-05-01T08:28:44.000Z</time>
      </trkpt>
      <trkpt lat="47.27727" lon="-2.25855">
        <ele>31.39999961853</ele>
        <time>2022-05-01T08:28:45.000Z</time>
      </trkpt>
      <trkpt lat="47.27716" lon="-2.25854">
        <ele>31.39999961853</ele>
        <time>2022-05-01T08:28:47.000Z</time>
      </trkpt>
      <trkpt lat="47.27701" lon="-2.25847">
        <ele>31.39999961853</ele>
        <time>2022-05-01T08:28:50.000Z</time>
      </trkpt>
      <trkpt lat="47.27696" lon="-2.25844">
        <ele>31.39999961853</ele>
        <time>2022-05-01T08:28:51.000Z</time>
      </trkpt>
      <trkpt lat="47.27682" lon="-2.25839">
        <ele>31.39999961853</ele>
        <time>2022-05-01T08:28:54.000Z</time>
      </trkpt>
      <trkpt lat="47.27674" lon="-2.25829">
        <ele>31.39999961853</ele>
        <time>2022-05-01T08:28:58.000Z</time>
      </trkpt>
      <trkpt lat="47.27672" lon="-2.25816">
        <ele>31.39999961853</ele>
        <time>2022-05-01T08:29:03.000Z</time>
      </trkpt>
      <trkpt lat="47.27667" lon="-2.2581">
        <ele>31.39999961853</ele>
        <time>2022-05-01T08:29:06.000Z</time>
      </trkpt>
      <trkpt lat="47.27667" lon="-2.25807">
        <ele>31.39999961853</ele>
        <time>2022-05-01T08:29:07.000Z</time>
      </trkpt>
      <trkpt lat="47.27666" lon="-2.25796">
        <ele>31.39999961853</ele>
        <time>2022-05-01T08:29:11.000Z</time>
      </trkpt>
      <trkpt lat="47.27665" lon="-2.25794">
        <ele>31.39999961853</ele>
        <time>2022-05-01T08:29:12.000Z</time>
      </trkpt>
      <trkpt lat="47.27665" lon="-2.25792">
        <ele>31.39999961853</ele>
        <time>2022-05-01T08:29:13.000Z</time>
      </trkpt>
      <trkpt lat="47.27664" lon="-2.25785">
        <ele>31.39999961853</ele>
        <time>2022-05-01T08:29:15.000Z</time>
      </trkpt>
      <trkpt lat="47.27661" lon="-2.25766">
        <ele>31.39999961853</ele>
        <time>2022-05-01T08:29:20.000Z</time>
      </trkpt>
      <trkpt lat="47.27657" lon="-2.25745">
        <ele>31.39999961853</ele>
        <time>2022-05-01T08:29:25.000Z</time>
      </trkpt>
      <trkpt lat="47.27655" lon="-2.2573">
        <ele>31.39999961853</ele>
        <time>2022-05-01T08:29:29.000Z</time>
      </trkpt>
      <trkpt lat="47.27655" lon="-2.25721">
        <ele>31.39999961853</ele>
        <time>2022-05-01T08:29:31.000Z</time>
      </trkpt>
      <trkpt lat="47.27651" lon="-2.25695">
        <ele>31.39999961853</ele>
        <time>2022-05-01T08:29:36.000Z</time>
      </trkpt>
      <trkpt lat="47.2765" lon="-2.25689">
        <ele>31.39999961853</ele>
        <time>2022-05-01T08:29:38.000Z</time>
      </trkpt>
      <trkpt lat="47.2765" lon="-2.25682">
        <ele>31.39999961853</ele>
        <time>2022-05-01T08:29:40.000Z</time>
      </trkpt>
      <trkpt lat="47.27649" lon="-2.25671">
        <ele>31.39999961853</ele>
        <time>2022-05-01T08:29:43.000Z</time>
      </trkpt>
      <trkpt lat="47.27645" lon="-2.25665">
        <ele>31.39999961853</ele>
        <time>2022-05-01T08:29:45.000Z</time>
      </trkpt>
      <trkpt lat="47.2763" lon="-2.25656">
        <ele>31.39999961853</ele>
        <time>2022-05-01T08:29:49.000Z</time>
      </trkpt>
      <trkpt lat="47.27614" lon="-2.25661">
        <ele>31.39999961853</ele>
        <time>2022-05-01T08:29:53.000Z</time>
      </trkpt>
      <trkpt lat="47.27604" lon="-2.2566">
        <ele>31.39999961853</ele>
        <time>2022-05-01T08:29:55.000Z</time>
      </trkpt>
      <trkpt lat="47.27589" lon="-2.25659">
        <ele>31.39999961853</ele>
        <time>2022-05-01T08:29:59.000Z</time>
      </trkpt>
      <trkpt lat="47.27565" lon="-2.25651">
        <ele>31.39999961853</ele>
        <time>2022-05-01T08:30:06.000Z</time>
      </trkpt>
      <trkpt lat="47.27561" lon="-2.25627">
        <ele>31.39999961853</ele>
        <time>2022-05-01T08:30:11.000Z</time>
      </trkpt>
      <trkpt lat="47.27561" lon="-2.25576">
        <ele>31.39999961853</ele>
        <time>2022-05-01T08:30:19.000Z</time>
      </trkpt>
      <trkpt lat="47.27559" lon="-2.25568">
        <ele>31.39999961853</ele>
        <time>2022-05-01T08:30:20.000Z</time>
      </trkpt>
      <trkpt lat="47.27552" lon="-2.25535">
        <ele>31.39999961853</ele>
        <time>2022-05-01T08:30:24.000Z</time>
      </trkpt>
      <trkpt lat="47.2755" lon="-2.25528">
        <ele>31.39999961853</ele>
        <time>2022-05-01T08:30:25.000Z</time>
      </trkpt>
      <trkpt lat="47.27537" lon="-2.25501">
        <ele>31.39999961853</ele>
        <time>2022-05-01T08:30:29.000Z</time>
      </trkpt>
      <trkpt lat="47.27531" lon="-2.25488">
        <ele>31.39999961853</ele>
        <time>2022-05-01T08:30:31.000Z</time>
      </trkpt>
      <trkpt lat="47.27516" lon="-2.25467">
        <ele>31.39999961853</ele>
        <time>2022-05-01T08:30:35.000Z</time>
      </trkpt>
      <trkpt lat="47.27498" lon="-2.25454">
        <ele>31.39999961853</ele>
        <time>2022-05-01T08:30:39.000Z</time>
      </trkpt>
      <trkpt lat="47.27493" lon="-2.25453">
        <ele>31.39999961853</ele>
        <time>2022-05-01T08:30:40.000Z</time>
      </trkpt>
      <trkpt lat="47.27484" lon="-2.2545">
        <ele>31.39999961853</ele>
        <time>2022-05-01T08:30:42.000Z</time>
      </trkpt>
      <trkpt lat="47.27469" lon="-2.25452">
        <ele>31.39999961853</ele>
        <time>2022-05-01T08:30:45.000Z</time>
      </trkpt>
      <trkpt lat="47.2745" lon="-2.25448">
        <ele>31.39999961853</ele>
        <time>2022-05-01T08:30:49.000Z</time>
      </trkpt>
      <trkpt lat="47.27446" lon="-2.25446">
        <ele>31.39999961853</ele>
        <time>2022-05-01T08:30:50.000Z</time>
      </trkpt>
      <trkpt lat="47.2743" lon="-2.25429">
        <ele>31.39999961853</ele>
        <time>2022-05-01T08:30:54.000Z</time>
      </trkpt>
      <trkpt lat="47.27423" lon="-2.2542">
        <ele>31.39999961853</ele>
        <time>2022-05-01T08:30:56.000Z</time>
      </trkpt>
      <trkpt lat="47.27419" lon="-2.25411">
        <ele>31.39999961853</ele>
        <time>2022-05-01T08:30:58.000Z</time>
      </trkpt>
      <trkpt lat="47.27412" lon="-2.25393">
        <ele>31.39999961853</ele>
        <time>2022-05-01T08:31:02.000Z</time>
      </trkpt>
      <trkpt lat="47.27404" lon="-2.25378">
        <ele>31.39999961853</ele>
        <time>2022-05-01T08:31:06.000Z</time>
      </trkpt>
      <trkpt lat="47.27402" lon="-2.25359">
        <ele>31.39999961853</ele>
        <time>2022-05-01T08:31:10.000Z</time>
      </trkpt>
      <trkpt lat="47.27398" lon="-2.25328">
        <ele>31.39999961853</ele>
        <time>2022-05-01T08:31:15.000Z</time>
      </trkpt>
      <trkpt lat="47.27392" lon="-2.25307">
        <ele>31.39999961853</ele>
        <time>2022-05-01T08:31:19.000Z</time>
      </trkpt>
      <trkpt lat="47.27393" lon="-2.25294">
        <ele>31.39999961853</ele>
        <time>2022-05-01T08:31:21.000Z</time>
      </trkpt>
      <trkpt lat="47.27389" lon="-2.25247">
        <ele>31.39999961853</ele>
        <time>2022-05-01T08:31:28.000Z</time>
      </trkpt>
      <trkpt lat="47.27389" lon="-2.25202">
        <ele>31.39999961853</ele>
        <time>2022-05-01T08:31:34.000Z</time>
      </trkpt>
      <trkpt lat="47.27387" lon="-2.25175">
        <ele>31.39999961853</ele>
        <time>2022-05-01T08:31:38.000Z</time>
      </trkpt>
      <trkpt lat="47.27375" lon="-2.25139">
        <ele>31.39999961853</ele>
        <time>2022-05-01T08:31:43.000Z</time>
      </trkpt>
      <trkpt lat="47.27363" lon="-2.25114">
        <ele>31.39999961853</ele>
        <time>2022-05-01T08:31:48.000Z</time>
      </trkpt>
      <trkpt lat="47.27351" lon="-2.25087">
        <ele>31.39999961853</ele>
        <time>2022-05-01T08:31:54.000Z</time>
      </trkpt>
      <trkpt lat="47.27342" lon="-2.25062">
        <ele>31.39999961853</ele>
        <time>2022-05-01T08:32:00.000Z</time>
      </trkpt>
      <trkpt lat="47.27337" lon="-2.25046">
        <ele>31.39999961853</ele>
        <time>2022-05-01T08:32:06.000Z</time>
      </trkpt>
      <trkpt lat="47.27336" lon="-2.25043">
        <ele>31.39999961853</ele>
        <time>2022-05-01T08:32:09.000Z</time>
      </trkpt>
      <trkpt lat="47.2734" lon="-2.25042">
        <ele>31.39999961853</ele>
        <time>2022-05-01T08:45:37.000Z</time>
      </trkpt>
      <trkpt lat="47.27342" lon="-2.2504">
        <ele>31.39999961853</ele>
        <time>2022-05-01T08:45:38.000Z</time>
      </trkpt>
      <trkpt lat="47.27345" lon="-2.25027">
        <ele>31.39999961853</ele>
        <time>2022-05-01T08:45:43.000Z</time>
      </trkpt>
      <trkpt lat="47.27347" lon="-2.25023">
        <ele>31.39999961853</ele>
        <time>2022-05-01T08:45:45.000Z</time>
      </trkpt>
      <trkpt lat="47.27352" lon="-2.2501">
        <ele>31.39999961853</ele>
        <time>2022-05-01T08:45:50.000Z</time>
      </trkpt>
      <trkpt lat="47.27366" lon="-2.24989">
        <ele>31.39999961853</ele>
        <time>2022-05-01T08:45:57.000Z</time>
      </trkpt>
      <trkpt lat="47.27377" lon="-2.24976">
        <ele>31.39999961853</ele>
        <time>2022-05-01T08:46:03.000Z</time>
      </trkpt>
      <trkpt lat="47.27391" lon="-2.24969">
        <ele>31.39999961853</ele>
        <time>2022-05-01T08:46:10.000Z</time>
      </trkpt>
      <trkpt lat="47.27393" lon="-2.24968">
        <ele>31.39999961853</ele>
        <time>2022-05-01T08:46:11.000Z</time>
      </trkpt>
      <trkpt lat="47.27404" lon="-2.24964">
        <ele>31.39999961853</ele>
        <time>2022-05-01T08:46:15.000Z</time>
      </trkpt>
      <trkpt lat="47.27407" lon="-2.24962">
        <ele>31.39999961853</ele>
        <time>2022-05-01T08:46:16.000Z</time>
      </trkpt>
      <trkpt lat="47.27424" lon="-2.24948">
        <ele>31.39999961853</ele>
        <time>2022-05-01T08:46:22.000Z</time>
      </trkpt>
      <trkpt lat="47.2744" lon="-2.24951">
        <ele>31.39999961853</ele>
        <time>2022-05-01T08:46:27.000Z</time>
      </trkpt>
      <trkpt lat="47.27459" lon="-2.2496">
        <ele>31.39999961853</ele>
        <time>2022-05-01T08:46:33.000Z</time>
      </trkpt>
      <trkpt lat="47.2748" lon="-2.24977">
        <ele>31.39999961853</ele>
        <time>2022-05-01T08:46:39.000Z</time>
      </trkpt>
      <trkpt lat="47.27502" lon="-2.24995">
        <ele>31.39999961853</ele>
        <time>2022-05-01T08:46:46.000Z</time>
      </trkpt>
      <trkpt lat="47.2752" lon="-2.25016">
        <ele>31.39999961853</ele>
        <time>2022-05-01T08:46:52.000Z</time>
      </trkpt>
      <trkpt lat="47.27539" lon="-2.25042">
        <ele>31.39999961853</ele>
        <time>2022-05-01T08:46:58.000Z</time>
      </trkpt>
      <trkpt lat="47.27556" lon="-2.25058">
        <ele>31.39999961853</ele>
        <time>2022-05-01T08:47:03.000Z</time>
      </trkpt>
      <trkpt lat="47.2756" lon="-2.2506">
        <ele>31.39999961853</ele>
        <time>2022-05-01T08:47:04.000Z</time>
      </trkpt>
      <trkpt lat="47.27588" lon="-2.25076">
        <ele>31.39999961853</ele>
        <time>2022-05-01T08:47:11.000Z</time>
      </trkpt>
      <trkpt lat="47.27611" lon="-2.25089">
        <ele>31.39999961853</ele>
        <time>2022-05-01T08:47:17.000Z</time>
      </trkpt>
      <trkpt lat="47.2762" lon="-2.25094">
        <ele>31.39999961853</ele>
        <time>2022-05-01T08:47:19.000Z</time>
      </trkpt>
      <trkpt lat="47.27632" lon="-2.25096">
        <ele>31.39999961853</ele>
        <time>2022-05-01T08:47:21.000Z</time>
      </trkpt>
      <trkpt lat="47.27643" lon="-2.25094">
        <ele>31.39999961853</ele>
        <time>2022-05-01T08:47:23.000Z</time>
      </trkpt>
      <trkpt lat="47.27658" lon="-2.25092">
        <ele>31.39999961853</ele>
        <time>2022-05-01T08:47:26.000Z</time>
      </trkpt>
      <trkpt lat="47.27671" lon="-2.25087">
        <ele>31.39999961853</ele>
        <time>2022-05-01T08:47:29.000Z</time>
      </trkpt>
      <trkpt lat="47.27679" lon="-2.25081">
        <ele>31.39999961853</ele>
        <time>2022-05-01T08:47:31.000Z</time>
      </trkpt>
      <trkpt lat="47.27697" lon="-2.25079">
        <ele>31.39999961853</ele>
        <time>2022-05-01T08:47:35.000Z</time>
      </trkpt>
      <trkpt lat="47.27709" lon="-2.25069">
        <ele>31.39999961853</ele>
        <time>2022-05-01T08:47:38.000Z</time>
      </trkpt>
      <trkpt lat="47.27713" lon="-2.25065">
        <ele>31.39999961853</ele>
        <time>2022-05-01T08:47:39.000Z</time>
      </trkpt>
      <trkpt lat="47.27717" lon="-2.25062">
        <ele>31.39999961853</ele>
        <time>2022-05-01T08:47:40.000Z</time>
      </trkpt>
      <trkpt lat="47.27737" lon="-2.25044">
        <ele>31.39999961853</ele>
        <time>2022-05-01T08:47:46.000Z</time>
      </trkpt>
      <trkpt lat="47.27748" lon="-2.25035">
        <ele>31.39999961853</ele>
        <time>2022-05-01T08:47:51.000Z</time>
      </trkpt>
      <trkpt lat="47.27766" lon="-2.25026">
        <ele>31.39999961853</ele>
        <time>2022-05-01T08:47:56.000Z</time>
      </trkpt>
      <trkpt lat="47.2778" lon="-2.25022">
        <ele>31.39999961853</ele>
        <time>2022-05-01T08:47:59.000Z</time>
      </trkpt>
      <trkpt lat="47.27789" lon="-2.25022">
        <ele>31.39999961853</ele>
        <time>2022-05-01T08:48:01.000Z</time>
      </trkpt>
      <trkpt lat="47.27812" lon="-2.25031">
        <ele>31.39999961853</ele>
        <time>2022-05-01T08:48:06.000Z</time>
      </trkpt>
      <trkpt lat="47.27817" lon="-2.25033">
        <ele>31.39999961853</ele>
        <time>2022-05-01T08:48:07.000Z</time>
      </trkpt>
      <trkpt lat="47.27848" lon="-2.25052">
        <ele>31.39999961853</ele>
        <time>2022-05-01T08:48:14.000Z</time>
      </trkpt>
      <trkpt lat="47.27858" lon="-2.25057">
        <ele>31.39999961853</ele>
        <time>2022-05-01T08:48:16.000Z</time>
      </trkpt>
      <trkpt lat="47.27872" lon="-2.25062">
        <ele>31.39999961853</ele>
        <time>2022-05-01T08:48:19.000Z</time>
      </trkpt>
      <trkpt lat="47.27877" lon="-2.25064">
        <ele>31.39999961853</ele>
        <time>2022-05-01T08:48:20.000Z</time>
      </trkpt>
      <trkpt lat="47.27893" lon="-2.25077">
        <ele>31.39999961853</ele>
        <time>2022-05-01T08:48:24.000Z</time>
      </trkpt>
      <trkpt lat="47.27902" lon="-2.2508">
        <ele>31.39999961853</ele>
        <time>2022-05-01T08:48:26.000Z</time>
      </trkpt>
      <trkpt lat="47.27911" lon="-2.25078">
        <ele>31.39999961853</ele>
        <time>2022-05-01T08:48:28.000Z</time>
      </trkpt>
      <trkpt lat="47.27946" lon="-2.25072">
        <ele>31.39999961853</ele>
        <time>2022-05-01T08:48:34.000Z</time>
      </trkpt>
      <trkpt lat="47.27951" lon="-2.25071">
        <ele>31.39999961853</ele>
        <time>2022-05-01T08:48:35.000Z</time>
      </trkpt>
      <trkpt lat="47.27968" lon="-2.25069">
        <ele>31.39999961853</ele>
        <time>2022-05-01T08:48:38.000Z</time>
      </trkpt>
      <trkpt lat="47.27974" lon="-2.2507">
        <ele>31.39999961853</ele>
        <time>2022-05-01T08:48:39.000Z</time>
      </trkpt>
      <trkpt lat="47.27983" lon="-2.25068">
        <ele>31.39999961853</ele>
        <time>2022-05-01T08:48:41.000Z</time>
      </trkpt>
      <trkpt lat="47.27989" lon="-2.25071">
        <ele>31.39999961853</ele>
        <time>2022-05-01T08:48:43.000Z</time>
      </trkpt>
      <trkpt lat="47.27996" lon="-2.25077">
        <ele>31.39999961853</ele>
        <time>2022-05-01T08:48:45.000Z</time>
      </trkpt>
      <trkpt lat="47.28007" lon="-2.25086">
        <ele>31.39999961853</ele>
        <time>2022-05-01T08:48:48.000Z</time>
      </trkpt>
      <trkpt lat="47.2804" lon="-2.25112">
        <ele>31.39999961853</ele>
        <time>2022-05-01T08:48:56.000Z</time>
      </trkpt>
      <trkpt lat="47.28083" lon="-2.25148">
        <ele>31.39999961853</ele>
        <time>2022-05-01T08:49:06.000Z</time>
      </trkpt>
      <trkpt lat="47.28093" lon="-2.25162">
        <ele>31.39999961853</ele>
        <time>2022-05-01T08:49:09.000Z</time>
      </trkpt>
      <trkpt lat="47.28098" lon="-2.25172">
        <ele>31.39999961853</ele>
        <time>2022-05-01T08:49:11.000Z</time>
      </trkpt>
      <trkpt lat="47.28099" lon="-2.25179">
        <ele>31.39999961853</ele>
        <time>2022-05-01T08:49:12.000Z</time>
      </trkpt>
      <trkpt lat="47.28099" lon="-2.25193">
        <ele>31.39999961853</ele>
        <time>2022-05-01T08:49:14.000Z</time>
      </trkpt>
      <trkpt lat="47.28098" lon="-2.252">
        <ele>31.39999961853</ele>
        <time>2022-05-01T08:49:15.000Z</time>
      </trkpt>
      <trkpt lat="47.28095" lon="-2.25223">
        <ele>31.39999961853</ele>
        <time>2022-05-01T08:49:19.000Z</time>
      </trkpt>
      <trkpt lat="47.28089" lon="-2.25244">
        <ele>31.39999961853</ele>
        <time>2022-05-01T08:49:24.000Z</time>
      </trkpt>
      <trkpt lat="47.28081" lon="-2.25278">
        <ele>31.39999961853</ele>
        <time>2022-05-01T08:49:30.000Z</time>
      </trkpt>
      <trkpt lat="47.2808" lon="-2.25318">
        <ele>31.39999961853</ele>
        <time>2022-05-01T08:49:36.000Z</time>
      </trkpt>
      <trkpt lat="47.28081" lon="-2.25362">
        <ele>31.39999961853</ele>
        <time>2022-05-01T08:49:42.000Z</time>
      </trkpt>
      <trkpt lat="47.28082" lon="-2.25393">
        <ele>31.39999961853</ele>
        <time>2022-05-01T08:49:46.000Z</time>
      </trkpt>
      <trkpt lat="47.28083" lon="-2.25409">
        <ele>31.39999961853</ele>
        <time>2022-05-01T08:49:48.000Z</time>
      </trkpt>
      <trkpt lat="47.28086" lon="-2.25441">
        <ele>31.39999961853</ele>
        <time>2022-05-01T08:49:52.000Z</time>
      </trkpt>
      <trkpt lat="47.28089" lon="-2.2546">
        <ele>31.39999961853</ele>
        <time>2022-05-01T08:49:55.000Z</time>
      </trkpt>
      <trkpt lat="47.28097" lon="-2.25473">
        <ele>31.39999961853</ele>
        <time>2022-05-01T08:49:59.000Z</time>
      </trkpt>
      <trkpt lat="47.281" lon="-2.25473">
        <ele>31.39999961853</ele>
        <time>2022-05-01T08:50:00.000Z</time>
      </trkpt>
      <trkpt lat="47.28103" lon="-2.25473">
        <ele>31.39999961853</ele>
        <time>2022-05-01T08:50:02.000Z</time>
      </trkpt>
      <trkpt lat="47.2811" lon="-2.25469">
        <ele>31.39999961853</ele>
        <time>2022-05-01T08:50:06.000Z</time>
      </trkpt>
      <trkpt lat="47.28113" lon="-2.25466">
        <ele>31.39999961853</ele>
        <time>2022-05-01T08:50:07.000Z</time>
      </trkpt>
      <trkpt lat="47.28123" lon="-2.25457">
        <ele>31.39999961853</ele>
        <time>2022-05-01T08:50:10.000Z</time>
      </trkpt>
      <trkpt lat="47.28132" lon="-2.25453">
        <ele>31.39999961853</ele>
        <time>2022-05-01T08:50:12.000Z</time>
      </trkpt>
      <trkpt lat="47.28137" lon="-2.25451">
        <ele>31.39999961853</ele>
        <time>2022-05-01T08:50:13.000Z</time>
      </trkpt>
      <trkpt lat="47.28153" lon="-2.25441">
        <ele>31.39999961853</ele>
        <time>2022-05-01T08:50:17.000Z</time>
      </trkpt>
      <trkpt lat="47.28156" lon="-2.25439">
        <ele>31.39999961853</ele>
        <time>2022-05-01T08:50:18.000Z</time>
      </trkpt>
      <trkpt lat="47.28169" lon="-2.25432">
        <ele>31.39999961853</ele>
        <time>2022-05-01T08:50:21.000Z</time>
      </trkpt>
      <trkpt lat="47.28173" lon="-2.25429">
        <ele>31.39999961853</ele>
        <time>2022-05-01T08:50:22.000Z</time>
      </trkpt>
      <trkpt lat="47.28177" lon="-2.25426">
        <ele>31.799999237061</ele>
        <time>2022-05-01T08:50:23.000Z</time>
      </trkpt>
      <trkpt lat="47.28181" lon="-2.25423">
        <ele>32.200000762939</ele>
        <time>2022-05-01T08:50:24.000Z</time>
      </trkpt>
      <trkpt lat="47.28185" lon="-2.25421">
        <ele>32.599998474121</ele>
        <time>2022-05-01T08:50:25.000Z</time>
      </trkpt>
      <trkpt lat="47.28189" lon="-2.25417">
        <ele>33.200000762939</ele>
        <time>2022-05-01T08:50:26.000Z</time>
      </trkpt>
      <trkpt lat="47.28192" lon="-2.25414">
        <ele>33.599998474121</ele>
        <time>2022-05-01T08:50:27.000Z</time>
      </trkpt>
      <trkpt lat="47.28196" lon="-2.25411">
        <ele>33.599998474121</ele>
        <time>2022-05-01T08:50:28.000Z</time>
      </trkpt>
      <trkpt lat="47.28211" lon="-2.254">
        <ele>34</ele>
        <time>2022-05-01T08:50:32.000Z</time>
      </trkpt>
      <trkpt lat="47.28215" lon="-2.25397">
        <ele>34.400001525879</ele>
        <time>2022-05-01T08:50:33.000Z</time>
      </trkpt>
      <trkpt lat="47.28218" lon="-2.25393">
        <ele>34.799999237061</ele>
        <time>2022-05-01T08:50:34.000Z</time>
      </trkpt>
      <trkpt lat="47.28221" lon="-2.25391">
        <ele>35.400001525879</ele>
        <time>2022-05-01T08:50:35.000Z</time>
      </trkpt>
      <trkpt lat="47.28225" lon="-2.2539">
        <ele>35.799999237061</ele>
        <time>2022-05-01T08:50:36.000Z</time>
      </trkpt>
      <trkpt lat="47.28236" lon="-2.25383">
        <ele>35.799999237061</ele>
        <time>2022-05-01T08:50:39.000Z</time>
      </trkpt>
      <trkpt lat="47.28242" lon="-2.25378">
        <ele>36.200000762939</ele>
        <time>2022-05-01T08:50:41.000Z</time>
      </trkpt>
      <trkpt lat="47.28245" lon="-2.25377">
        <ele>36.599998474121</ele>
        <time>2022-05-01T08:50:42.000Z</time>
      </trkpt>
      <trkpt lat="47.28248" lon="-2.25375">
        <ele>37</ele>
        <time>2022-05-01T08:50:43.000Z</time>
      </trkpt>
      <trkpt lat="47.28251" lon="-2.25372">
        <ele>37.400001525879</ele>
        <time>2022-05-01T08:50:44.000Z</time>
      </trkpt>
      <trkpt lat="47.28253" lon="-2.2537">
        <ele>38</ele>
        <time>2022-05-01T08:50:45.000Z</time>
      </trkpt>
      <trkpt lat="47.28263" lon="-2.25365">
        <ele>38</ele>
        <time>2022-05-01T08:50:48.000Z</time>
      </trkpt>
      <trkpt lat="47.28286" lon="-2.25362">
        <ele>38.400001525879</ele>
        <time>2022-05-01T08:50:54.000Z</time>
      </trkpt>
      <trkpt lat="47.2829" lon="-2.25361">
        <ele>38.799999237061</ele>
        <time>2022-05-01T08:50:55.000Z</time>
      </trkpt>
      <trkpt lat="47.28294" lon="-2.25361">
        <ele>39.200000762939</ele>
        <time>2022-05-01T08:50:56.000Z</time>
      </trkpt>
      <trkpt lat="47.28298" lon="-2.25359">
        <ele>39.599998474121</ele>
        <time>2022-05-01T08:50:57.000Z</time>
      </trkpt>
      <trkpt lat="47.28303" lon="-2.25357">
        <ele>40</ele>
        <time>2022-05-01T08:50:58.000Z</time>
      </trkpt>
      <trkpt lat="47.2831" lon="-2.25354">
        <ele>40</ele>
        <time>2022-05-01T08:51:00.000Z</time>
      </trkpt>
      <trkpt lat="47.2833" lon="-2.25342">
        <ele>40.400001525879</ele>
        <time>2022-05-01T08:51:06.000Z</time>
      </trkpt>
      <trkpt lat="47.28333" lon="-2.2534">
        <ele>40.799999237061</ele>
        <time>2022-05-01T08:51:07.000Z</time>
      </trkpt>
      <trkpt lat="47.28336" lon="-2.25337">
        <ele>41.200000762939</ele>
        <time>2022-05-01T08:51:08.000Z</time>
      </trkpt>
      <trkpt lat="47.28338" lon="-2.25335">
        <ele>41.599998474121</ele>
        <time>2022-05-01T08:51:09.000Z</time>
      </trkpt>
      <trkpt lat="47.2834" lon="-2.25332">
        <ele>42</ele>
        <time>2022-05-01T08:51:10.000Z</time>
      </trkpt>
      <trkpt lat="47.28347" lon="-2.25328">
        <ele>42</ele>
        <time>2022-05-01T08:51:12.000Z</time>
      </trkpt>
      <trkpt lat="47.28363" lon="-2.25316">
        <ele>42</ele>
        <time>2022-05-01T08:51:16.000Z</time>
      </trkpt>
      <trkpt lat="47.28374" lon="-2.25312">
        <ele>42</ele>
        <time>2022-05-01T08:51:20.000Z</time>
      </trkpt>
      <trkpt lat="47.28377" lon="-2.25316">
        <ele>42</ele>
        <time>2022-05-01T08:51:21.000Z</time>
      </trkpt>
      <trkpt lat="47.2838" lon="-2.25323">
        <ele>42</ele>
        <time>2022-05-01T08:51:23.000Z</time>
      </trkpt>
      <trkpt lat="47.28383" lon="-2.25343">
        <ele>42</ele>
        <time>2022-05-01T08:51:27.000Z</time>
      </trkpt>
      <trkpt lat="47.28383" lon="-2.25348">
        <ele>42</ele>
        <time>2022-05-01T08:51:28.000Z</time>
      </trkpt>
      <trkpt lat="47.28382" lon="-2.25376">
        <ele>42</ele>
        <time>2022-05-01T08:51:33.000Z</time>
      </trkpt>
      <trkpt lat="47.28379" lon="-2.25423">
        <ele>42</ele>
        <time>2022-05-01T08:51:40.000Z</time>
      </trkpt>
      <trkpt lat="47.28378" lon="-2.2546">
        <ele>42</ele>
        <time>2022-05-01T08:51:45.000Z</time>
      </trkpt>
      <trkpt lat="47.28374" lon="-2.25501">
        <ele>42</ele>
        <time>2022-05-01T08:51:50.000Z</time>
      </trkpt>
      <trkpt lat="47.28373" lon="-2.25517">
        <ele>42</ele>
        <time>2022-05-01T08:51:52.000Z</time>
      </trkpt>
      <trkpt lat="47.28369" lon="-2.25581">
        <ele>42</ele>
        <time>2022-05-01T08:52:00.000Z</time>
      </trkpt>
      <trkpt lat="47.28368" lon="-2.25588">
        <ele>42</ele>
        <time>2022-05-01T08:52:01.000Z</time>
      </trkpt>
      <trkpt lat="47.28365" lon="-2.25633">
        <ele>42</ele>
        <time>2022-05-01T08:52:07.000Z</time>
      </trkpt>
      <trkpt lat="47.28373" lon="-2.2566">
        <ele>42</ele>
        <time>2022-05-01T08:52:11.000Z</time>
      </trkpt>
      <trkpt lat="47.28381" lon="-2.25699">
        <ele>42</ele>
        <time>2022-05-01T08:52:17.000Z</time>
      </trkpt>
      <trkpt lat="47.28382" lon="-2.25705">
        <ele>42</ele>
        <time>2022-05-01T08:52:18.000Z</time>
      </trkpt>
      <trkpt lat="47.28382" lon="-2.25727">
        <ele>42</ele>
        <time>2022-05-01T08:52:23.000Z</time>
      </trkpt>
      <trkpt lat="47.28382" lon="-2.25731">
        <ele>42.400001525879</ele>
        <time>2022-05-01T08:52:25.000Z</time>
      </trkpt>
      <trkpt lat="47.28381" lon="-2.25735">
        <ele>42.799999237061</ele>
        <time>2022-05-01T08:52:26.000Z</time>
      </trkpt>
      <trkpt lat="47.28381" lon="-2.2574">
        <ele>43.200000762939</ele>
        <time>2022-05-01T08:52:27.000Z</time>
      </trkpt>
      <trkpt lat="47.2838" lon="-2.25745">
        <ele>43.599998474121</ele>
        <time>2022-05-01T08:52:28.000Z</time>
      </trkpt>
      <trkpt lat="47.2838" lon="-2.2575">
        <ele>44</ele>
        <time>2022-05-01T08:52:29.000Z</time>
      </trkpt>
      <trkpt lat="47.28378" lon="-2.25774">
        <ele>44</ele>
        <time>2022-05-01T08:52:33.000Z</time>
      </trkpt>
      <trkpt lat="47.28377" lon="-2.25802">
        <ele>44</ele>
        <time>2022-05-01T08:52:39.000Z</time>
      </trkpt>
      <trkpt lat="47.28379" lon="-2.25814">
        <ele>44</ele>
        <time>2022-05-01T08:52:43.000Z</time>
      </trkpt>
      <trkpt lat="47.28396" lon="-2.25826">
        <ele>44</ele>
        <time>2022-05-01T08:52:48.000Z</time>
      </trkpt>
      <trkpt lat="47.2841" lon="-2.2582">
        <ele>44</ele>
        <time>2022-05-01T08:52:52.000Z</time>
      </trkpt>
      <trkpt lat="47.28413" lon="-2.25816">
        <ele>44</ele>
        <time>2022-05-01T08:52:53.000Z</time>
      </trkpt>
      <trkpt lat="47.28418" lon="-2.25814">
        <ele>44</ele>
        <time>2022-05-01T08:52:54.000Z</time>
      </trkpt>
      <trkpt lat="47.28428" lon="-2.25815">
        <ele>44</ele>
        <time>2022-05-01T08:52:56.000Z</time>
      </trkpt>
      <trkpt lat="47.28475" lon="-2.25823">
        <ele>44</ele>
        <time>2022-05-01T08:53:04.000Z</time>
      </trkpt>
      <trkpt lat="47.28508" lon="-2.25832">
        <ele>43.599998474121</ele>
        <time>2022-05-01T08:53:09.000Z</time>
      </trkpt>
      <trkpt lat="47.28515" lon="-2.25833">
        <ele>43.200000762939</ele>
        <time>2022-05-01T08:53:10.000Z</time>
      </trkpt>
      <trkpt lat="47.28522" lon="-2.25834">
        <ele>42.799999237061</ele>
        <time>2022-05-01T08:53:11.000Z</time>
      </trkpt>
      <trkpt lat="47.28529" lon="-2.25835">
        <ele>42.200000762939</ele>
        <time>2022-05-01T08:53:12.000Z</time>
      </trkpt>
      <trkpt lat="47.28536" lon="-2.25836">
        <ele>41.799999237061</ele>
        <time>2022-05-01T08:53:13.000Z</time>
      </trkpt>
      <trkpt lat="47.28555" lon="-2.25842">
        <ele>41.799999237061</ele>
        <time>2022-05-01T08:53:16.000Z</time>
      </trkpt>
      <trkpt lat="47.28563" lon="-2.25855">
        <ele>41.400001525879</ele>
        <time>2022-05-01T08:53:18.000Z</time>
      </trkpt>
      <trkpt lat="47.28564" lon="-2.25865">
        <ele>41</ele>
        <time>2022-05-01T08:53:19.000Z</time>
      </trkpt>
      <trkpt lat="47.28566" lon="-2.25874">
        <ele>40.599998474121</ele>
        <time>2022-05-01T08:53:20.000Z</time>
      </trkpt>
      <trkpt lat="47.28566" lon="-2.25883">
        <ele>40.200000762939</ele>
        <time>2022-05-01T08:53:21.000Z</time>
      </trkpt>
      <trkpt lat="47.28565" lon="-2.25892">
        <ele>39.799999237061</ele>
        <time>2022-05-01T08:53:22.000Z</time>
      </trkpt>
      <trkpt lat="47.28563" lon="-2.259">
        <ele>39.799999237061</ele>
        <time>2022-05-01T08:53:23.000Z</time>
      </trkpt>
      <trkpt lat="47.28562" lon="-2.25944">
        <ele>39.799999237061</ele>
        <time>2022-05-01T08:53:29.000Z</time>
      </trkpt>
      <trkpt lat="47.28563" lon="-2.25957">
        <ele>39.799999237061</ele>
        <time>2022-05-01T08:53:31.000Z</time>
      </trkpt>
      <trkpt lat="47.28567" lon="-2.25966">
        <ele>39.799999237061</ele>
        <time>2022-05-01T08:53:33.000Z</time>
      </trkpt>
      <trkpt lat="47.28577" lon="-2.25972">
        <ele>39.799999237061</ele>
        <time>2022-05-01T08:53:36.000Z</time>
      </trkpt>
      <trkpt lat="47.28594" lon="-2.25976">
        <ele>39.799999237061</ele>
        <time>2022-05-01T08:53:41.000Z</time>
      </trkpt>
      <trkpt lat="47.28604" lon="-2.25982">
        <ele>39.799999237061</ele>
        <time>2022-05-01T08:53:44.000Z</time>
      </trkpt>
      <trkpt lat="47.28606" lon="-2.25988">
        <ele>39.799999237061</ele>
        <time>2022-05-01T08:53:45.000Z</time>
      </trkpt>
      <trkpt lat="47.28605" lon="-2.26013">
        <ele>39.799999237061</ele>
        <time>2022-05-01T08:53:49.000Z</time>
      </trkpt>
      <trkpt lat="47.28605" lon="-2.26035">
        <ele>39.799999237061</ele>
        <time>2022-05-01T08:53:52.000Z</time>
      </trkpt>
      <trkpt lat="47.28603" lon="-2.26058">
        <ele>39.799999237061</ele>
        <time>2022-05-01T08:53:55.000Z</time>
      </trkpt>
      <trkpt lat="47.28602" lon="-2.26105">
        <ele>39.799999237061</ele>
        <time>2022-05-01T08:54:01.000Z</time>
      </trkpt>
      <trkpt lat="47.28599" lon="-2.26166">
        <ele>39.799999237061</ele>
        <time>2022-05-01T08:54:08.000Z</time>
      </trkpt>
      <trkpt lat="47.28603" lon="-2.26213">
        <ele>39.799999237061</ele>
        <time>2022-05-01T08:54:13.000Z</time>
      </trkpt>
      <trkpt lat="47.28606" lon="-2.26221">
        <ele>39.799999237061</ele>
        <time>2022-05-01T08:54:14.000Z</time>
      </trkpt>
      <trkpt lat="47.28613" lon="-2.26235">
        <ele>39.799999237061</ele>
        <time>2022-05-01T08:54:16.000Z</time>
      </trkpt>
      <trkpt lat="47.2863" lon="-2.26267">
        <ele>39.799999237061</ele>
        <time>2022-05-01T08:54:20.000Z</time>
      </trkpt>
      <trkpt lat="47.28633" lon="-2.26275">
        <ele>39.799999237061</ele>
        <time>2022-05-01T08:54:21.000Z</time>
      </trkpt>
      <trkpt lat="47.28651" lon="-2.26321">
        <ele>39.799999237061</ele>
        <time>2022-05-01T08:54:27.000Z</time>
      </trkpt>
      <trkpt lat="47.28654" lon="-2.2633">
        <ele>39.799999237061</ele>
        <time>2022-05-01T08:54:28.000Z</time>
      </trkpt>
      <trkpt lat="47.28666" lon="-2.26359">
        <ele>39.799999237061</ele>
        <time>2022-05-01T08:54:32.000Z</time>
      </trkpt>
      <trkpt lat="47.2867" lon="-2.26364">
        <ele>39.799999237061</ele>
        <time>2022-05-01T08:54:33.000Z</time>
      </trkpt>
      <trkpt lat="47.28695" lon="-2.26383">
        <ele>39.799999237061</ele>
        <time>2022-05-01T08:54:38.000Z</time>
      </trkpt>
      <trkpt lat="47.28709" lon="-2.26396">
        <ele>39.799999237061</ele>
        <time>2022-05-01T08:54:42.000Z</time>
      </trkpt>
      <trkpt lat="47.28719" lon="-2.26397">
        <ele>39.799999237061</ele>
        <time>2022-05-01T08:54:45.000Z</time>
      </trkpt>
      <trkpt lat="47.2872" lon="-2.26393">
        <ele>39.799999237061</ele>
        <time>2022-05-01T08:54:46.000Z</time>
      </trkpt>
      <trkpt lat="47.28722" lon="-2.26375">
        <ele>39.799999237061</ele>
        <time>2022-05-01T08:54:49.000Z</time>
      </trkpt>
      <trkpt lat="47.28733" lon="-2.26359">
        <ele>39.799999237061</ele>
        <time>2022-05-01T08:54:53.000Z</time>
      </trkpt>
      <trkpt lat="47.28742" lon="-2.26362">
        <ele>39.799999237061</ele>
        <time>2022-05-01T08:54:55.000Z</time>
      </trkpt>
      <trkpt lat="47.2875" lon="-2.26362">
        <ele>39.799999237061</ele>
        <time>2022-05-01T08:54:57.000Z</time>
      </trkpt>
      <trkpt lat="47.28777" lon="-2.26365">
        <ele>40.200000762939</ele>
        <time>2022-05-01T08:55:03.000Z</time>
      </trkpt>
      <trkpt lat="47.28782" lon="-2.26365">
        <ele>40.599998474121</ele>
        <time>2022-05-01T08:55:04.000Z</time>
      </trkpt>
      <trkpt lat="47.28787" lon="-2.26365">
        <ele>41</ele>
        <time>2022-05-01T08:55:05.000Z</time>
      </trkpt>
      <trkpt lat="47.28792" lon="-2.26367">
        <ele>41.400001525879</ele>
        <time>2022-05-01T08:55:06.000Z</time>
      </trkpt>
      <trkpt lat="47.28797" lon="-2.26367">
        <ele>41.799999237061</ele>
        <time>2022-05-01T08:55:07.000Z</time>
      </trkpt>
      <trkpt lat="47.28801" lon="-2.26367">
        <ele>41.799999237061</ele>
        <time>2022-05-01T08:55:08.000Z</time>
      </trkpt>
      <trkpt lat="47.28825" lon="-2.26366">
        <ele>41.799999237061</ele>
        <time>2022-05-01T08:55:13.000Z</time>
      </trkpt>
      <trkpt lat="47.2883" lon="-2.26367">
        <ele>41.799999237061</ele>
        <time>2022-05-01T08:55:14.000Z</time>
      </trkpt>
      <trkpt lat="47.28843" lon="-2.2637">
        <ele>41.799999237061</ele>
        <time>2022-05-01T08:55:17.000Z</time>
      </trkpt>
      <trkpt lat="47.28854" lon="-2.26368">
        <ele>42.200000762939</ele>
        <time>2022-05-01T08:55:19.000Z</time>
      </trkpt>
      <trkpt lat="47.28859" lon="-2.26366">
        <ele>42.799999237061</ele>
        <time>2022-05-01T08:55:20.000Z</time>
      </trkpt>
      <trkpt lat="47.28863" lon="-2.26365">
        <ele>43.200000762939</ele>
        <time>2022-05-01T08:55:21.000Z</time>
      </trkpt>
      <trkpt lat="47.28868" lon="-2.26364">
        <ele>43.599998474121</ele>
        <time>2022-05-01T08:55:22.000Z</time>
      </trkpt>
      <trkpt lat="47.28873" lon="-2.26363">
        <ele>44</ele>
        <time>2022-05-01T08:55:23.000Z</time>
      </trkpt>
      <trkpt lat="47.28888" lon="-2.26362">
        <ele>44</ele>
        <time>2022-05-01T08:55:26.000Z</time>
      </trkpt>
      <trkpt lat="47.28902" lon="-2.26364">
        <ele>44</ele>
        <time>2022-05-01T08:55:29.000Z</time>
      </trkpt>
      <trkpt lat="47.28912" lon="-2.26366">
        <ele>44</ele>
        <time>2022-05-01T08:55:31.000Z</time>
      </trkpt>
      <trkpt lat="47.2893" lon="-2.26371">
        <ele>44</ele>
        <time>2022-05-01T08:55:35.000Z</time>
      </trkpt>
      <trkpt lat="47.28949" lon="-2.26373">
        <ele>44</ele>
        <time>2022-05-01T08:55:39.000Z</time>
      </trkpt>
      <trkpt lat="47.28959" lon="-2.26369">
        <ele>44</ele>
        <time>2022-05-01T08:55:41.000Z</time>
      </trkpt>
      <trkpt lat="47.28985" lon="-2.26361">
        <ele>44</ele>
        <time>2022-05-01T08:55:46.000Z</time>
      </trkpt>
      <trkpt lat="47.2899" lon="-2.26364">
        <ele>44</ele>
        <time>2022-05-01T08:55:47.000Z</time>
      </trkpt>
      <trkpt lat="47.29002" lon="-2.26382">
        <ele>44</ele>
        <time>2022-05-01T08:55:50.000Z</time>
      </trkpt>
      <trkpt lat="47.29008" lon="-2.26387">
        <ele>44</ele>
        <time>2022-05-01T08:55:51.000Z</time>
      </trkpt>
      <trkpt lat="47.29014" lon="-2.26404">
        <ele>44</ele>
        <time>2022-05-01T08:55:53.000Z</time>
      </trkpt>
      <trkpt lat="47.29017" lon="-2.26423">
        <ele>43.599998474121</ele>
        <time>2022-05-01T08:55:55.000Z</time>
      </trkpt>
      <trkpt lat="47.29018" lon="-2.26433">
        <ele>43</ele>
        <time>2022-05-01T08:55:56.000Z</time>
      </trkpt>
      <trkpt lat="47.29018" lon="-2.26444">
        <ele>42.599998474121</ele>
        <time>2022-05-01T08:55:57.000Z</time>
      </trkpt>
      <trkpt lat="47.2902" lon="-2.26456">
        <ele>42.200000762939</ele>
        <time>2022-05-01T08:55:58.000Z</time>
      </trkpt>
      <trkpt lat="47.29021" lon="-2.26468">
        <ele>41.200000762939</ele>
        <time>2022-05-01T08:55:59.000Z</time>
      </trkpt>
      <trkpt lat="47.29022" lon="-2.2648">
        <ele>40.599998474121</ele>
        <time>2022-05-01T08:56:00.000Z</time>
      </trkpt>
      <trkpt lat="47.29024" lon="-2.26491">
        <ele>40</ele>
        <time>2022-05-01T08:56:01.000Z</time>
      </trkpt>
      <trkpt lat="47.29026" lon="-2.26503">
        <ele>39.599998474121</ele>
        <time>2022-05-01T08:56:02.000Z</time>
      </trkpt>
      <trkpt lat="47.2904" lon="-2.26568">
        <ele>39.599998474121</ele>
        <time>2022-05-01T08:56:08.000Z</time>
      </trkpt>
      <trkpt lat="47.29045" lon="-2.26591">
        <ele>39.599998474121</ele>
        <time>2022-05-01T08:56:11.000Z</time>
      </trkpt>
      <trkpt lat="47.29045" lon="-2.266">
        <ele>39.599998474121</ele>
        <time>2022-05-01T08:56:12.000Z</time>
      </trkpt>
      <trkpt lat="47.29047" lon="-2.26645">
        <ele>39.200000762939</ele>
        <time>2022-05-01T08:56:17.000Z</time>
      </trkpt>
      <trkpt lat="47.29048" lon="-2.26655">
        <ele>38.799999237061</ele>
        <time>2022-05-01T08:56:18.000Z</time>
      </trkpt>
      <trkpt lat="47.29049" lon="-2.26664">
        <ele>38.400001525879</ele>
        <time>2022-05-01T08:56:19.000Z</time>
      </trkpt>
      <trkpt lat="47.2905" lon="-2.26674">
        <ele>38</ele>
        <time>2022-05-01T08:56:20.000Z</time>
      </trkpt>
      <trkpt lat="47.29051" lon="-2.26685">
        <ele>37.599998474121</ele>
        <time>2022-05-01T08:56:21.000Z</time>
      </trkpt>
      <trkpt lat="47.29053" lon="-2.26707">
        <ele>37.599998474121</ele>
        <time>2022-05-01T08:56:23.000Z</time>
      </trkpt>
      <trkpt lat="47.29055" lon="-2.26719">
        <ele>36.799999237061</ele>
        <time>2022-05-01T08:56:24.000Z</time>
      </trkpt>
      <trkpt lat="47.29057" lon="-2.26731">
        <ele>36.400001525879</ele>
        <time>2022-05-01T08:56:25.000Z</time>
      </trkpt>
      <trkpt lat="47.29058" lon="-2.26744">
        <ele>36</ele>
        <time>2022-05-01T08:56:26.000Z</time>
      </trkpt>
      <trkpt lat="47.2906" lon="-2.26757">
        <ele>35.599998474121</ele>
        <time>2022-05-01T08:56:27.000Z</time>
      </trkpt>
      <trkpt lat="47.29062" lon="-2.2677">
        <ele>35</ele>
        <time>2022-05-01T08:56:28.000Z</time>
      </trkpt>
      <trkpt lat="47.29064" lon="-2.26783">
        <ele>34.599998474121</ele>
        <time>2022-05-01T08:56:29.000Z</time>
      </trkpt>
      <trkpt lat="47.29064" lon="-2.26796">
        <ele>34.200000762939</ele>
        <time>2022-05-01T08:56:30.000Z</time>
      </trkpt>
      <trkpt lat="47.29065" lon="-2.26809">
        <ele>33.799999237061</ele>
        <time>2022-05-01T08:56:31.000Z</time>
      </trkpt>
      <trkpt lat="47.29065" lon="-2.26823">
        <ele>33.400001525879</ele>
        <time>2022-05-01T08:56:32.000Z</time>
      </trkpt>
      <trkpt lat="47.29064" lon="-2.26836">
        <ele>33.400001525879</ele>
        <time>2022-05-01T08:56:33.000Z</time>
      </trkpt>
      <trkpt lat="47.29063" lon="-2.2686">
        <ele>32.799999237061</ele>
        <time>2022-05-01T08:56:35.000Z</time>
      </trkpt>
      <trkpt lat="47.29062" lon="-2.26872">
        <ele>32.400001525879</ele>
        <time>2022-05-01T08:56:36.000Z</time>
      </trkpt>
      <trkpt lat="47.29062" lon="-2.26881">
        <ele>32</ele>
        <time>2022-05-01T08:56:37.000Z</time>
      </trkpt>
      <trkpt lat="47.29062" lon="-2.26887">
        <ele>31.60000038147</ele>
        <time>2022-05-01T08:56:38.000Z</time>
      </trkpt>
      <trkpt lat="47.29062" lon="-2.2689">
        <ele>31.200000762939</ele>
        <time>2022-05-01T08:56:39.000Z</time>
      </trkpt>
      <trkpt lat="47.29063" lon="-2.26893">
        <ele>31.200000762939</ele>
        <time>2022-05-01T08:56:41.000Z</time>
      </trkpt>
      <trkpt lat="47.29066" lon="-2.26896">
        <ele>31.200000762939</ele>
        <time>2022-05-01T08:56:46.000Z</time>
      </trkpt>
      <trkpt lat="47.29069" lon="-2.26902">
        <ele>31.200000762939</ele>
        <time>2022-05-01T08:56:58.000Z</time>
      </trkpt>
      <trkpt lat="47.29074" lon="-2.2691">
        <ele>31.200000762939</ele>
        <time>2022-05-01T08:57:00.000Z</time>
      </trkpt>
      <trkpt lat="47.2908" lon="-2.26923">
        <ele>31.200000762939</ele>
        <time>2022-05-01T08:57:04.000Z</time>
      </trkpt>
      <trkpt lat="47.29079" lon="-2.26927">
        <ele>31.200000762939</ele>
        <time>2022-05-01T08:57:05.000Z</time>
      </trkpt>
      <trkpt lat="47.29079" lon="-2.26943">
        <ele>31.200000762939</ele>
        <time>2022-05-01T08:57:09.000Z</time>
      </trkpt>
      <trkpt lat="47.29079" lon="-2.26948">
        <ele>31.200000762939</ele>
        <time>2022-05-01T08:57:10.000Z</time>
      </trkpt>
      <trkpt lat="47.29078" lon="-2.26967">
        <ele>31.200000762939</ele>
        <time>2022-05-01T08:57:13.000Z</time>
      </trkpt>
      <trkpt lat="47.29078" lon="-2.26985">
        <ele>31.200000762939</ele>
        <time>2022-05-01T08:57:16.000Z</time>
      </trkpt>
      <trkpt lat="47.29076" lon="-2.27002">
        <ele>31.200000762939</ele>
        <time>2022-05-01T08:57:19.000Z</time>
      </trkpt>
      <trkpt lat="47.29076" lon="-2.27019">
        <ele>31.200000762939</ele>
        <time>2022-05-01T08:57:23.000Z</time>
      </trkpt>
      <trkpt lat="47.29074" lon="-2.27042">
        <ele>31.200000762939</ele>
        <time>2022-05-01T08:57:28.000Z</time>
      </trkpt>
      <trkpt lat="47.29073" lon="-2.27051">
        <ele>31.200000762939</ele>
        <time>2022-05-01T08:57:30.000Z</time>
      </trkpt>
      <trkpt lat="47.29072" lon="-2.27059">
        <ele>31.200000762939</ele>
        <time>2022-05-01T08:57:32.000Z</time>
      </trkpt>
      <trkpt lat="47.29072" lon="-2.27067">
        <ele>31.200000762939</ele>
        <time>2022-05-01T08:57:34.000Z</time>
      </trkpt>
      <trkpt lat="47.29071" lon="-2.27077">
        <ele>31.200000762939</ele>
        <time>2022-05-01T08:57:36.000Z</time>
      </trkpt>
      <trkpt lat="47.29071" lon="-2.27107">
        <ele>31.200000762939</ele>
        <time>2022-05-01T08:57:41.000Z</time>
      </trkpt>
      <trkpt lat="47.29068" lon="-2.27128">
        <ele>31.200000762939</ele>
        <time>2022-05-01T08:57:45.000Z</time>
      </trkpt>
      <trkpt lat="47.29068" lon="-2.27163">
        <ele>31.200000762939</ele>
        <time>2022-05-01T08:57:51.000Z</time>
      </trkpt>
      <trkpt lat="47.29074" lon="-2.27187">
        <ele>31.200000762939</ele>
        <time>2022-05-01T08:57:56.000Z</time>
      </trkpt>
      <trkpt lat="47.29086" lon="-2.27199">
        <ele>31.200000762939</ele>
        <time>2022-05-01T08:57:59.000Z</time>
      </trkpt>
      <trkpt lat="47.29091" lon="-2.272">
        <ele>31.200000762939</ele>
        <time>2022-05-01T08:58:00.000Z</time>
      </trkpt>
      <trkpt lat="47.29106" lon="-2.272">
        <ele>31.200000762939</ele>
        <time>2022-05-01T08:58:04.000Z</time>
      </trkpt>
      <trkpt lat="47.29108" lon="-2.27201">
        <ele>31.200000762939</ele>
        <time>2022-05-01T08:58:05.000Z</time>
      </trkpt>
      <trkpt lat="47.29115" lon="-2.27203">
        <ele>31.200000762939</ele>
        <time>2022-05-01T08:58:08.000Z</time>
      </trkpt>
      <trkpt lat="47.29116" lon="-2.2721">
        <ele>31.200000762939</ele>
        <time>2022-05-01T08:58:12.000Z</time>
      </trkpt>
      <trkpt lat="47.29113" lon="-2.27233">
        <ele>31.200000762939</ele>
        <time>2022-05-01T08:58:18.000Z</time>
      </trkpt>
      <trkpt lat="47.29108" lon="-2.27263">
        <ele>31.200000762939</ele>
        <time>2022-05-01T08:58:23.000Z</time>
      </trkpt>
      <trkpt lat="47.29103" lon="-2.27284">
        <ele>31.200000762939</ele>
        <time>2022-05-01T08:58:27.000Z</time>
      </trkpt>
      <trkpt lat="47.29099" lon="-2.27307">
        <ele>31.200000762939</ele>
        <time>2022-05-01T08:58:31.000Z</time>
      </trkpt>
      <trkpt lat="47.29093" lon="-2.2733">
        <ele>31.200000762939</ele>
        <time>2022-05-01T08:58:36.000Z</time>
      </trkpt>
      <trkpt lat="47.29094" lon="-2.2735">
        <ele>31.200000762939</ele>
        <time>2022-05-01T08:58:40.000Z</time>
      </trkpt>
      <trkpt lat="47.29097" lon="-2.27353">
        <ele>31.200000762939</ele>
        <time>2022-05-01T08:58:41.000Z</time>
      </trkpt>
      <trkpt lat="47.291" lon="-2.27366">
        <ele>31.200000762939</ele>
        <time>2022-05-01T08:58:44.000Z</time>
      </trkpt>
      <trkpt lat="47.29102" lon="-2.2737">
        <ele>31.200000762939</ele>
        <time>2022-05-01T08:58:45.000Z</time>
      </trkpt>
      <trkpt lat="47.29107" lon="-2.27408">
        <ele>31.200000762939</ele>
        <time>2022-05-01T08:58:50.000Z</time>
      </trkpt>
      <trkpt lat="47.29107" lon="-2.27426">
        <ele>31.200000762939</ele>
        <time>2022-05-01T08:58:52.000Z</time>
      </trkpt>
      <trkpt lat="47.29106" lon="-2.27443">
        <ele>31.200000762939</ele>
        <time>2022-05-01T08:58:54.000Z</time>
      </trkpt>
      <trkpt lat="47.29105" lon="-2.27466">
        <ele>31.200000762939</ele>
        <time>2022-05-01T08:58:57.000Z</time>
      </trkpt>
      <trkpt lat="47.29105" lon="-2.27482">
        <ele>31.200000762939</ele>
        <time>2022-05-01T08:58:59.000Z</time>
      </trkpt>
      <trkpt lat="47.29107" lon="-2.27523">
        <ele>31.200000762939</ele>
        <time>2022-05-01T08:59:05.000Z</time>
      </trkpt>
      <trkpt lat="47.29113" lon="-2.2753">
        <ele>31.200000762939</ele>
        <time>2022-05-01T08:59:07.000Z</time>
      </trkpt>
      <trkpt lat="47.29118" lon="-2.2753">
        <ele>31.200000762939</ele>
        <time>2022-05-01T08:59:08.000Z</time>
      </trkpt>
      <trkpt lat="47.29141" lon="-2.27528">
        <ele>31.200000762939</ele>
        <time>2022-05-01T08:59:12.000Z</time>
      </trkpt>
      <trkpt lat="47.29147" lon="-2.27528">
        <ele>31.200000762939</ele>
        <time>2022-05-01T08:59:13.000Z</time>
      </trkpt>
      <trkpt lat="47.29196" lon="-2.27528">
        <ele>31.200000762939</ele>
        <time>2022-05-01T08:59:21.000Z</time>
      </trkpt>
      <trkpt lat="47.29242" lon="-2.27527">
        <ele>31.200000762939</ele>
        <time>2022-05-01T08:59:29.000Z</time>
      </trkpt>
      <trkpt lat="47.29274" lon="-2.27519">
        <ele>31.60000038147</ele>
        <time>2022-05-01T08:59:35.000Z</time>
      </trkpt>
      <trkpt lat="47.29279" lon="-2.2752">
        <ele>32</ele>
        <time>2022-05-01T08:59:36.000Z</time>
      </trkpt>
      <trkpt lat="47.29284" lon="-2.27522">
        <ele>32.400001525879</ele>
        <time>2022-05-01T08:59:37.000Z</time>
      </trkpt>
      <trkpt lat="47.29289" lon="-2.27525">
        <ele>33</ele>
        <time>2022-05-01T08:59:38.000Z</time>
      </trkpt>
      <trkpt lat="47.29294" lon="-2.27528">
        <ele>33.400001525879</ele>
        <time>2022-05-01T08:59:39.000Z</time>
      </trkpt>
      <trkpt lat="47.29305" lon="-2.27531">
        <ele>33.400001525879</ele>
        <time>2022-05-01T08:59:41.000Z</time>
      </trkpt>
      <trkpt lat="47.29317" lon="-2.27533">
        <ele>33.400001525879</ele>
        <time>2022-05-01T08:59:43.000Z</time>
      </trkpt>
      <trkpt lat="47.29323" lon="-2.27533">
        <ele>33.400001525879</ele>
        <time>2022-05-01T08:59:44.000Z</time>
      </trkpt>
      <trkpt lat="47.2937" lon="-2.27525">
        <ele>33.400001525879</ele>
        <time>2022-05-01T08:59:52.000Z</time>
      </trkpt>
      <trkpt lat="47.29394" lon="-2.27519">
        <ele>33.400001525879</ele>
        <time>2022-05-01T08:59:56.000Z</time>
      </trkpt>
      <trkpt lat="47.29406" lon="-2.27514">
        <ele>33.400001525879</ele>
        <time>2022-05-01T08:59:58.000Z</time>
      </trkpt>
      <trkpt lat="47.29446" lon="-2.27512">
        <ele>33.400001525879</ele>
        <time>2022-05-01T09:00:04.000Z</time>
      </trkpt>
      <trkpt lat="47.29452" lon="-2.27514">
        <ele>33.400001525879</ele>
        <time>2022-05-01T09:00:05.000Z</time>
      </trkpt>
      <trkpt lat="47.29511" lon="-2.2753">
        <ele>33.400001525879</ele>
        <time>2022-05-01T09:00:13.000Z</time>
      </trkpt>
      <trkpt lat="47.29564" lon="-2.27546">
        <ele>33.400001525879</ele>
        <time>2022-05-01T09:00:20.000Z</time>
      </trkpt>
      <trkpt lat="47.29578" lon="-2.27552">
        <ele>33.400001525879</ele>
        <time>2022-05-01T09:00:22.000Z</time>
      </trkpt>
      <trkpt lat="47.296" lon="-2.27565">
        <ele>33</ele>
        <time>2022-05-01T09:00:25.000Z</time>
      </trkpt>
      <trkpt lat="47.29606" lon="-2.2757">
        <ele>32.599998474121</ele>
        <time>2022-05-01T09:00:26.000Z</time>
      </trkpt>
      <trkpt lat="47.29614" lon="-2.27576">
        <ele>32.200000762939</ele>
        <time>2022-05-01T09:00:27.000Z</time>
      </trkpt>
      <trkpt lat="47.29622" lon="-2.27581">
        <ele>31.799999237061</ele>
        <time>2022-05-01T09:00:28.000Z</time>
      </trkpt>
      <trkpt lat="47.2963" lon="-2.27586">
        <ele>31.39999961853</ele>
        <time>2022-05-01T09:00:29.000Z</time>
      </trkpt>
      <trkpt lat="47.29661" lon="-2.27605">
        <ele>31</ele>
        <time>2022-05-01T09:00:33.000Z</time>
      </trkpt>
      <trkpt lat="47.2967" lon="-2.27609">
        <ele>30.60000038147</ele>
        <time>2022-05-01T09:00:34.000Z</time>
      </trkpt>
      <trkpt lat="47.29678" lon="-2.27613">
        <ele>30.200000762939</ele>
        <time>2022-05-01T09:00:35.000Z</time>
      </trkpt>
      <trkpt lat="47.29686" lon="-2.27615">
        <ele>29.799999237061</ele>
        <time>2022-05-01T09:00:36.000Z</time>
      </trkpt>
      <trkpt lat="47.29694" lon="-2.27617">
        <ele>29.39999961853</ele>
        <time>2022-05-01T09:00:37.000Z</time>
      </trkpt>
      <trkpt lat="47.29703" lon="-2.27617">
        <ele>29.39999961853</ele>
        <time>2022-05-01T09:00:38.000Z</time>
      </trkpt>
      <trkpt lat="47.29712" lon="-2.27617">
        <ele>29.39999961853</ele>
        <time>2022-05-01T09:00:39.000Z</time>
      </trkpt>
      <trkpt lat="47.29729" lon="-2.27614">
        <ele>28.799999237061</ele>
        <time>2022-05-01T09:00:41.000Z</time>
      </trkpt>
      <trkpt lat="47.29737" lon="-2.27611">
        <ele>28.39999961853</ele>
        <time>2022-05-01T09:00:42.000Z</time>
      </trkpt>
      <trkpt lat="47.29744" lon="-2.27608">
        <ele>28</ele>
        <time>2022-05-01T09:00:43.000Z</time>
      </trkpt>
      <trkpt lat="47.29752" lon="-2.27605">
        <ele>27.60000038147</ele>
        <time>2022-05-01T09:00:44.000Z</time>
      </trkpt>
      <trkpt lat="47.29758" lon="-2.27602">
        <ele>27</ele>
        <time>2022-05-01T09:00:45.000Z</time>
      </trkpt>
      <trkpt lat="47.29778" lon="-2.27596">
        <ele>27</ele>
        <time>2022-05-01T09:00:48.000Z</time>
      </trkpt>
      <trkpt lat="47.29786" lon="-2.27595">
        <ele>27</ele>
        <time>2022-05-01T09:00:49.000Z</time>
      </trkpt>
      <trkpt lat="47.29805" lon="-2.27599">
        <ele>27</ele>
        <time>2022-05-01T09:00:52.000Z</time>
      </trkpt>
      <trkpt lat="47.29812" lon="-2.27602">
        <ele>27</ele>
        <time>2022-05-01T09:00:53.000Z</time>
      </trkpt>
      <trkpt lat="47.29836" lon="-2.27615">
        <ele>27</ele>
        <time>2022-05-01T09:00:57.000Z</time>
      </trkpt>
      <trkpt lat="47.29857" lon="-2.27622">
        <ele>27</ele>
        <time>2022-05-01T09:01:00.000Z</time>
      </trkpt>
      <trkpt lat="47.29871" lon="-2.27619">
        <ele>27</ele>
        <time>2022-05-01T09:01:02.000Z</time>
      </trkpt>
      <trkpt lat="47.29886" lon="-2.27613">
        <ele>27</ele>
        <time>2022-05-01T09:01:04.000Z</time>
      </trkpt>
      <trkpt lat="47.29914" lon="-2.27601">
        <ele>27</ele>
        <time>2022-05-01T09:01:08.000Z</time>
      </trkpt>
      <trkpt lat="47.29928" lon="-2.27596">
        <ele>27</ele>
        <time>2022-05-01T09:01:10.000Z</time>
      </trkpt>
      <trkpt lat="47.29941" lon="-2.27596">
        <ele>27</ele>
        <time>2022-05-01T09:01:12.000Z</time>
      </trkpt>
      <trkpt lat="47.29948" lon="-2.27598">
        <ele>27</ele>
        <time>2022-05-01T09:01:13.000Z</time>
      </trkpt>
      <trkpt lat="47.29961" lon="-2.27618">
        <ele>27</ele>
        <time>2022-05-01T09:01:16.000Z</time>
      </trkpt>
      <trkpt lat="47.29962" lon="-2.27647">
        <ele>27</ele>
        <time>2022-05-01T09:01:19.000Z</time>
      </trkpt>
      <trkpt lat="47.29961" lon="-2.27657">
        <ele>27</ele>
        <time>2022-05-01T09:01:20.000Z</time>
      </trkpt>
      <trkpt lat="47.29955" lon="-2.27715">
        <ele>27</ele>
        <time>2022-05-01T09:01:26.000Z</time>
      </trkpt>
      <trkpt lat="47.29951" lon="-2.27762">
        <ele>27</ele>
        <time>2022-05-01T09:01:31.000Z</time>
      </trkpt>
      <trkpt lat="47.29948" lon="-2.2778">
        <ele>27</ele>
        <time>2022-05-01T09:01:33.000Z</time>
      </trkpt>
      <trkpt lat="47.29943" lon="-2.27831">
        <ele>27</ele>
        <time>2022-05-01T09:01:39.000Z</time>
      </trkpt>
      <trkpt lat="47.29937" lon="-2.27901">
        <ele>27</ele>
        <time>2022-05-01T09:01:47.000Z</time>
      </trkpt>
      <trkpt lat="47.29931" lon="-2.27963">
        <ele>27</ele>
        <time>2022-05-01T09:01:54.000Z</time>
      </trkpt>
      <trkpt lat="47.29931" lon="-2.27972">
        <ele>27</ele>
        <time>2022-05-01T09:01:55.000Z</time>
      </trkpt>
      <trkpt lat="47.29934" lon="-2.28007">
        <ele>27</ele>
        <time>2022-05-01T09:01:59.000Z</time>
      </trkpt>
      <trkpt lat="47.29935" lon="-2.28016">
        <ele>27</ele>
        <time>2022-05-01T09:02:00.000Z</time>
      </trkpt>
      <trkpt lat="47.29943" lon="-2.28038">
        <ele>27</ele>
        <time>2022-05-01T09:02:03.000Z</time>
      </trkpt>
      <trkpt lat="47.29956" lon="-2.28049">
        <ele>27</ele>
        <time>2022-05-01T09:02:06.000Z</time>
      </trkpt>
      <trkpt lat="47.29971" lon="-2.28043">
        <ele>27</ele>
        <time>2022-05-01T09:02:09.000Z</time>
      </trkpt>
      <trkpt lat="47.29986" lon="-2.28036">
        <ele>27</ele>
        <time>2022-05-01T09:02:12.000Z</time>
      </trkpt>
      <trkpt lat="47.29992" lon="-2.28039">
        <ele>27</ele>
        <time>2022-05-01T09:02:14.000Z</time>
      </trkpt>
      <trkpt lat="47.29989" lon="-2.28052">
        <ele>27</ele>
        <time>2022-05-01T09:02:17.000Z</time>
      </trkpt>
      <trkpt lat="47.29983" lon="-2.28074">
        <ele>27</ele>
        <time>2022-05-01T09:02:21.000Z</time>
      </trkpt>
      <trkpt lat="47.29981" lon="-2.2808">
        <ele>27</ele>
        <time>2022-05-01T09:02:22.000Z</time>
      </trkpt>
      <trkpt lat="47.29966" lon="-2.28132">
        <ele>27</ele>
        <time>2022-05-01T09:02:29.000Z</time>
      </trkpt>
      <trkpt lat="47.29951" lon="-2.28183">
        <ele>27</ele>
        <time>2022-05-01T09:02:36.000Z</time>
      </trkpt>
      <trkpt lat="47.29947" lon="-2.28198">
        <ele>27</ele>
        <time>2022-05-01T09:02:38.000Z</time>
      </trkpt>
      <trkpt lat="47.29947" lon="-2.28215">
        <ele>27</ele>
        <time>2022-05-01T09:02:40.000Z</time>
      </trkpt>
      <trkpt lat="47.29948" lon="-2.28269">
        <ele>27</ele>
        <time>2022-05-01T09:02:46.000Z</time>
      </trkpt>
      <trkpt lat="47.2995" lon="-2.28295">
        <ele>27</ele>
        <time>2022-05-01T09:02:49.000Z</time>
      </trkpt>
      <trkpt lat="47.29949" lon="-2.28313">
        <ele>27</ele>
        <time>2022-05-01T09:02:51.000Z</time>
      </trkpt>
      <trkpt lat="47.2995" lon="-2.2833">
        <ele>27</ele>
        <time>2022-05-01T09:02:53.000Z</time>
      </trkpt>
      <trkpt lat="47.29948" lon="-2.28344">
        <ele>27</ele>
        <time>2022-05-01T09:02:55.000Z</time>
      </trkpt>
      <trkpt lat="47.29948" lon="-2.28352">
        <ele>27</ele>
        <time>2022-05-01T09:02:56.000Z</time>
      </trkpt>
      <trkpt lat="47.29946" lon="-2.28387">
        <ele>27</ele>
        <time>2022-05-01T09:03:00.000Z</time>
      </trkpt>
      <trkpt lat="47.29944" lon="-2.28421">
        <ele>27</ele>
        <time>2022-05-01T09:03:04.000Z</time>
      </trkpt>
      <trkpt lat="47.29942" lon="-2.28428">
        <ele>27</ele>
        <time>2022-05-01T09:03:05.000Z</time>
      </trkpt>
      <trkpt lat="47.29936" lon="-2.28442">
        <ele>27</ele>
        <time>2022-05-01T09:03:07.000Z</time>
      </trkpt>
      <trkpt lat="47.29935" lon="-2.28458">
        <ele>27</ele>
        <time>2022-05-01T09:03:09.000Z</time>
      </trkpt>
      <trkpt lat="47.29935" lon="-2.28466">
        <ele>27</ele>
        <time>2022-05-01T09:03:10.000Z</time>
      </trkpt>
      <trkpt lat="47.29935" lon="-2.28473">
        <ele>27</ele>
        <time>2022-05-01T09:03:11.000Z</time>
      </trkpt>
      <trkpt lat="47.29935" lon="-2.28499">
        <ele>27</ele>
        <time>2022-05-01T09:03:14.000Z</time>
      </trkpt>
      <trkpt lat="47.29932" lon="-2.28509">
        <ele>27</ele>
        <time>2022-05-01T09:03:15.000Z</time>
      </trkpt>
      <trkpt lat="47.29927" lon="-2.28539">
        <ele>27</ele>
        <time>2022-05-01T09:03:18.000Z</time>
      </trkpt>
      <trkpt lat="47.29929" lon="-2.28548">
        <ele>27</ele>
        <time>2022-05-01T09:03:19.000Z</time>
      </trkpt>
      <trkpt lat="47.2994" lon="-2.28567">
        <ele>27</ele>
        <time>2022-05-01T09:03:22.000Z</time>
      </trkpt>
      <trkpt lat="47.2994" lon="-2.28591">
        <ele>27</ele>
        <time>2022-05-01T09:03:25.000Z</time>
      </trkpt>
      <trkpt lat="47.29936" lon="-2.28608">
        <ele>27</ele>
        <time>2022-05-01T09:03:27.000Z</time>
      </trkpt>
      <trkpt lat="47.29931" lon="-2.28637">
        <ele>27</ele>
        <time>2022-05-01T09:03:30.000Z</time>
      </trkpt>
      <trkpt lat="47.29924" lon="-2.28665">
        <ele>26.60000038147</ele>
        <time>2022-05-01T09:03:33.000Z</time>
      </trkpt>
      <trkpt lat="47.29922" lon="-2.28673">
        <ele>26.200000762939</ele>
        <time>2022-05-01T09:03:34.000Z</time>
      </trkpt>
      <trkpt lat="47.29919" lon="-2.28682">
        <ele>25.799999237061</ele>
        <time>2022-05-01T09:03:35.000Z</time>
      </trkpt>
      <trkpt lat="47.29917" lon="-2.2869">
        <ele>25.39999961853</ele>
        <time>2022-05-01T09:03:36.000Z</time>
      </trkpt>
      <trkpt lat="47.29916" lon="-2.28699">
        <ele>25</ele>
        <time>2022-05-01T09:03:37.000Z</time>
      </trkpt>
      <trkpt lat="47.29911" lon="-2.28727">
        <ele>25</ele>
        <time>2022-05-01T09:03:40.000Z</time>
      </trkpt>
      <trkpt lat="47.29901" lon="-2.28776">
        <ele>25</ele>
        <time>2022-05-01T09:03:45.000Z</time>
      </trkpt>
      <trkpt lat="47.29898" lon="-2.28794">
        <ele>25</ele>
        <time>2022-05-01T09:03:47.000Z</time>
      </trkpt>
      <trkpt lat="47.29895" lon="-2.28812">
        <ele>25</ele>
        <time>2022-05-01T09:03:49.000Z</time>
      </trkpt>
      <trkpt lat="47.29887" lon="-2.28866">
        <ele>25</ele>
        <time>2022-05-01T09:03:55.000Z</time>
      </trkpt>
      <trkpt lat="47.29881" lon="-2.2889">
        <ele>25</ele>
        <time>2022-05-01T09:03:58.000Z</time>
      </trkpt>
      <trkpt lat="47.29875" lon="-2.28903">
        <ele>25</ele>
        <time>2022-05-01T09:04:00.000Z</time>
      </trkpt>
      <trkpt lat="47.29874" lon="-2.28921">
        <ele>24.60000038147</ele>
        <time>2022-05-01T09:04:03.000Z</time>
      </trkpt>
      <trkpt lat="47.29873" lon="-2.28927">
        <ele>24.200000762939</ele>
        <time>2022-05-01T09:04:04.000Z</time>
      </trkpt>
      <trkpt lat="47.29872" lon="-2.28932">
        <ele>23.799999237061</ele>
        <time>2022-05-01T09:04:05.000Z</time>
      </trkpt>
      <trkpt lat="47.29872" lon="-2.28937">
        <ele>23.39999961853</ele>
        <time>2022-05-01T09:04:06.000Z</time>
      </trkpt>
      <trkpt lat="47.29873" lon="-2.2894">
        <ele>23</ele>
        <time>2022-05-01T09:04:07.000Z</time>
      </trkpt>
      <trkpt lat="47.29885" lon="-2.28946">
        <ele>23</ele>
        <time>2022-05-01T09:04:11.000Z</time>
      </trkpt>
      <trkpt lat="47.29889" lon="-2.28947">
        <ele>23</ele>
        <time>2022-05-01T09:04:12.000Z</time>
      </trkpt>
      <trkpt lat="47.29915" lon="-2.28951">
        <ele>23</ele>
        <time>2022-05-01T09:04:17.000Z</time>
      </trkpt>
      <trkpt lat="47.29926" lon="-2.28965">
        <ele>23</ele>
        <time>2022-05-01T09:04:20.000Z</time>
      </trkpt>
      <trkpt lat="47.29929" lon="-2.28971">
        <ele>23</ele>
        <time>2022-05-01T09:04:21.000Z</time>
      </trkpt>
      <trkpt lat="47.29944" lon="-2.28999">
        <ele>23</ele>
        <time>2022-05-01T09:04:25.000Z</time>
      </trkpt>
      <trkpt lat="47.29968" lon="-2.29044">
        <ele>23</ele>
        <time>2022-05-01T09:04:31.000Z</time>
      </trkpt>
      <trkpt lat="47.29985" lon="-2.29073">
        <ele>22.60000038147</ele>
        <time>2022-05-01T09:04:35.000Z</time>
      </trkpt>
      <trkpt lat="47.29989" lon="-2.2908">
        <ele>22.200000762939</ele>
        <time>2022-05-01T09:04:36.000Z</time>
      </trkpt>
      <trkpt lat="47.29994" lon="-2.29087">
        <ele>21.60000038147</ele>
        <time>2022-05-01T09:04:37.000Z</time>
      </trkpt>
      <trkpt lat="47.29999" lon="-2.29094">
        <ele>21.200000762939</ele>
        <time>2022-05-01T09:04:38.000Z</time>
      </trkpt>
      <trkpt lat="47.30003" lon="-2.29099">
        <ele>20.799999237061</ele>
        <time>2022-05-01T09:04:39.000Z</time>
      </trkpt>
      <trkpt lat="47.30014" lon="-2.2911">
        <ele>20.799999237061</ele>
        <time>2022-05-01T09:04:41.000Z</time>
      </trkpt>
      <trkpt lat="47.30025" lon="-2.29118">
        <ele>20.799999237061</ele>
        <time>2022-05-01T09:04:43.000Z</time>
      </trkpt>
      <trkpt lat="47.30031" lon="-2.29122">
        <ele>20.799999237061</ele>
        <time>2022-05-01T09:04:44.000Z</time>
      </trkpt>
      <trkpt lat="47.30038" lon="-2.29126">
        <ele>20.799999237061</ele>
        <time>2022-05-01T09:04:45.000Z</time>
      </trkpt>
      <trkpt lat="47.30057" lon="-2.29135">
        <ele>20.799999237061</ele>
        <time>2022-05-01T09:04:48.000Z</time>
      </trkpt>
      <trkpt lat="47.30062" lon="-2.2914">
        <ele>20.799999237061</ele>
        <time>2022-05-01T09:04:49.000Z</time>
      </trkpt>
      <trkpt lat="47.30077" lon="-2.29161">
        <ele>20.799999237061</ele>
        <time>2022-05-01T09:04:52.000Z</time>
      </trkpt>
      <trkpt lat="47.30082" lon="-2.2917">
        <ele>20.799999237061</ele>
        <time>2022-05-01T09:04:53.000Z</time>
      </trkpt>
      <trkpt lat="47.30112" lon="-2.29218">
        <ele>20.799999237061</ele>
        <time>2022-05-01T09:04:59.000Z</time>
      </trkpt>
      <trkpt lat="47.30148" lon="-2.29277">
        <ele>20.799999237061</ele>
        <time>2022-05-01T09:05:06.000Z</time>
      </trkpt>
      <trkpt lat="47.30154" lon="-2.29286">
        <ele>20.799999237061</ele>
        <time>2022-05-01T09:05:07.000Z</time>
      </trkpt>
      <trkpt lat="47.30165" lon="-2.29302">
        <ele>20.39999961853</ele>
        <time>2022-05-01T09:05:09.000Z</time>
      </trkpt>
      <trkpt lat="47.3017" lon="-2.29311">
        <ele>20</ele>
        <time>2022-05-01T09:05:10.000Z</time>
      </trkpt>
      <trkpt lat="47.30176" lon="-2.29319">
        <ele>19.60000038147</ele>
        <time>2022-05-01T09:05:11.000Z</time>
      </trkpt>
      <trkpt lat="47.3018" lon="-2.29328">
        <ele>19.200000762939</ele>
        <time>2022-05-01T09:05:12.000Z</time>
      </trkpt>
      <trkpt lat="47.30185" lon="-2.29336">
        <ele>18.799999237061</ele>
        <time>2022-05-01T09:05:13.000Z</time>
      </trkpt>
      <trkpt lat="47.30201" lon="-2.29359">
        <ele>18.799999237061</ele>
        <time>2022-05-01T09:05:16.000Z</time>
      </trkpt>
      <trkpt lat="47.30214" lon="-2.29368">
        <ele>18.799999237061</ele>
        <time>2022-05-01T09:05:18.000Z</time>
      </trkpt>
      <trkpt lat="47.30242" lon="-2.2937">
        <ele>18.799999237061</ele>
        <time>2022-05-01T09:05:22.000Z</time>
      </trkpt>
      <trkpt lat="47.30268" lon="-2.29351">
        <ele>18.799999237061</ele>
        <time>2022-05-01T09:05:26.000Z</time>
      </trkpt>
      <trkpt lat="47.30301" lon="-2.29317">
        <ele>18.799999237061</ele>
        <time>2022-05-01T09:05:32.000Z</time>
      </trkpt>
      <trkpt lat="47.30317" lon="-2.29301">
        <ele>18.799999237061</ele>
        <time>2022-05-01T09:05:35.000Z</time>
      </trkpt>
      <trkpt lat="47.30335" lon="-2.29293">
        <ele>18.799999237061</ele>
        <time>2022-05-01T09:05:38.000Z</time>
      </trkpt>
      <trkpt lat="47.30348" lon="-2.29291">
        <ele>18.799999237061</ele>
        <time>2022-05-01T09:05:40.000Z</time>
      </trkpt>
      <trkpt lat="47.30368" lon="-2.29289">
        <ele>18.799999237061</ele>
        <time>2022-05-01T09:05:43.000Z</time>
      </trkpt>
      <trkpt lat="47.3038" lon="-2.29286">
        <ele>18.799999237061</ele>
        <time>2022-05-01T09:05:45.000Z</time>
      </trkpt>
      <trkpt lat="47.30398" lon="-2.29278">
        <ele>18.799999237061</ele>
        <time>2022-05-01T09:05:48.000Z</time>
      </trkpt>
      <trkpt lat="47.30403" lon="-2.29275">
        <ele>18.799999237061</ele>
        <time>2022-05-01T09:05:49.000Z</time>
      </trkpt>
      <trkpt lat="47.30415" lon="-2.2926">
        <ele>18.799999237061</ele>
        <time>2022-05-01T09:05:52.000Z</time>
      </trkpt>
      <trkpt lat="47.30434" lon="-2.29234">
        <ele>18.799999237061</ele>
        <time>2022-05-01T09:05:58.000Z</time>
      </trkpt>
      <trkpt lat="47.30451" lon="-2.29207">
        <ele>18.799999237061</ele>
        <time>2022-05-01T09:06:03.000Z</time>
      </trkpt>
      <trkpt lat="47.30478" lon="-2.29169">
        <ele>18.799999237061</ele>
        <time>2022-05-01T09:06:10.000Z</time>
      </trkpt>
      <trkpt lat="47.30484" lon="-2.29156">
        <ele>18.799999237061</ele>
        <time>2022-05-01T09:06:12.000Z</time>
      </trkpt>
      <trkpt lat="47.30495" lon="-2.29131">
        <ele>18.799999237061</ele>
        <time>2022-05-01T09:06:16.000Z</time>
      </trkpt>
      <trkpt lat="47.30497" lon="-2.29125">
        <ele>18.799999237061</ele>
        <time>2022-05-01T09:06:17.000Z</time>
      </trkpt>
      <trkpt lat="47.30503" lon="-2.29103">
        <ele>18.799999237061</ele>
        <time>2022-05-01T09:06:21.000Z</time>
      </trkpt>
      <trkpt lat="47.30505" lon="-2.2908">
        <ele>18.799999237061</ele>
        <time>2022-05-01T09:06:25.000Z</time>
      </trkpt>
      <trkpt lat="47.30505" lon="-2.29074">
        <ele>18.799999237061</ele>
        <time>2022-05-01T09:06:26.000Z</time>
      </trkpt>
      <trkpt lat="47.30502" lon="-2.29056">
        <ele>18.799999237061</ele>
        <time>2022-05-01T09:06:29.000Z</time>
      </trkpt>
      <trkpt lat="47.30499" lon="-2.29043">
        <ele>18.799999237061</ele>
        <time>2022-05-01T09:06:31.000Z</time>
      </trkpt>
      <trkpt lat="47.30494" lon="-2.29015">
        <ele>18.799999237061</ele>
        <time>2022-05-01T09:06:36.000Z</time>
      </trkpt>
      <trkpt lat="47.30494" lon="-2.29002">
        <ele>18.799999237061</ele>
        <time>2022-05-01T09:06:38.000Z</time>
      </trkpt>
      <trkpt lat="47.30496" lon="-2.28996">
        <ele>18.799999237061</ele>
        <time>2022-05-01T09:06:39.000Z</time>
      </trkpt>
      <trkpt lat="47.30506" lon="-2.28982">
        <ele>18.799999237061</ele>
        <time>2022-05-01T09:06:42.000Z</time>
      </trkpt>
      <trkpt lat="47.3051" lon="-2.28978">
        <ele>18.799999237061</ele>
        <time>2022-05-01T09:06:43.000Z</time>
      </trkpt>
      <trkpt lat="47.30518" lon="-2.28969">
        <ele>18.799999237061</ele>
        <time>2022-05-01T09:06:45.000Z</time>
      </trkpt>
      <trkpt lat="47.30528" lon="-2.28963">
        <ele>18.799999237061</ele>
        <time>2022-05-01T09:06:47.000Z</time>
      </trkpt>
      <trkpt lat="47.30539" lon="-2.28957">
        <ele>18.799999237061</ele>
        <time>2022-05-01T09:06:49.000Z</time>
      </trkpt>
      <trkpt lat="47.3055" lon="-2.28949">
        <ele>18.799999237061</ele>
        <time>2022-05-01T09:06:51.000Z</time>
      </trkpt>
      <trkpt lat="47.30579" lon="-2.28923">
        <ele>18.799999237061</ele>
        <time>2022-05-01T09:06:57.000Z</time>
      </trkpt>
      <trkpt lat="47.30614" lon="-2.28896">
        <ele>18.799999237061</ele>
        <time>2022-05-01T09:07:04.000Z</time>
      </trkpt>
      <trkpt lat="47.30634" lon="-2.28885">
        <ele>18.799999237061</ele>
        <time>2022-05-01T09:07:08.000Z</time>
      </trkpt>
      <trkpt lat="47.30639" lon="-2.28882">
        <ele>19.200000762939</ele>
        <time>2022-05-01T09:07:09.000Z</time>
      </trkpt>
      <trkpt lat="47.30644" lon="-2.28879">
        <ele>19.799999237061</ele>
        <time>2022-05-01T09:07:10.000Z</time>
      </trkpt>
      <trkpt lat="47.30649" lon="-2.28877">
        <ele>20.200000762939</ele>
        <time>2022-05-01T09:07:11.000Z</time>
      </trkpt>
      <trkpt lat="47.30654" lon="-2.28874">
        <ele>20.60000038147</ele>
        <time>2022-05-01T09:07:12.000Z</time>
      </trkpt>
      <trkpt lat="47.30658" lon="-2.28872">
        <ele>21</ele>
        <time>2022-05-01T09:07:13.000Z</time>
      </trkpt>
      <trkpt lat="47.30664" lon="-2.28868">
        <ele>21</ele>
        <time>2022-05-01T09:07:14.000Z</time>
      </trkpt>
      <trkpt lat="47.30695" lon="-2.28843">
        <ele>21</ele>
        <time>2022-05-01T09:07:21.000Z</time>
      </trkpt>
      <trkpt lat="47.30711" lon="-2.28834">
        <ele>21</ele>
        <time>2022-05-01T09:07:25.000Z</time>
      </trkpt>
      <trkpt lat="47.30715" lon="-2.28832">
        <ele>21</ele>
        <time>2022-05-01T09:07:26.000Z</time>
      </trkpt>
      <trkpt lat="47.30745" lon="-2.28825">
        <ele>21</ele>
        <time>2022-05-01T09:07:34.000Z</time>
      </trkpt>
      <trkpt lat="47.30778" lon="-2.28819">
        <ele>21</ele>
        <time>2022-05-01T09:07:40.000Z</time>
      </trkpt>
      <trkpt lat="47.30823" lon="-2.28816">
        <ele>21</ele>
        <time>2022-05-01T09:07:47.000Z</time>
      </trkpt>
      <trkpt lat="47.30849" lon="-2.28821">
        <ele>20.60000038147</ele>
        <time>2022-05-01T09:07:51.000Z</time>
      </trkpt>
      <trkpt lat="47.30856" lon="-2.28821">
        <ele>20.200000762939</ele>
        <time>2022-05-01T09:07:52.000Z</time>
      </trkpt>
      <trkpt lat="47.30863" lon="-2.28821">
        <ele>19.799999237061</ele>
        <time>2022-05-01T09:07:53.000Z</time>
      </trkpt>
      <trkpt lat="47.30871" lon="-2.28821">
        <ele>19.39999961853</ele>
        <time>2022-05-01T09:07:54.000Z</time>
      </trkpt>
      <trkpt lat="47.30879" lon="-2.2882">
        <ele>19</ele>
        <time>2022-05-01T09:07:55.000Z</time>
      </trkpt>
      <trkpt lat="47.30902" lon="-2.28819">
        <ele>19</ele>
        <time>2022-05-01T09:07:58.000Z</time>
      </trkpt>
      <trkpt lat="47.30943" lon="-2.28821">
        <ele>19</ele>
        <time>2022-05-01T09:08:04.000Z</time>
      </trkpt>
      <trkpt lat="47.30958" lon="-2.2882">
        <ele>19</ele>
        <time>2022-05-01T09:08:08.000Z</time>
      </trkpt>
      <trkpt lat="47.30967" lon="-2.28817">
        <ele>19.39999961853</ele>
        <time>2022-05-01T09:08:11.000Z</time>
      </trkpt>
      <trkpt lat="47.30971" lon="-2.28815">
        <ele>19.799999237061</ele>
        <time>2022-05-01T09:08:12.000Z</time>
      </trkpt>
      <trkpt lat="47.30974" lon="-2.28814">
        <ele>20.39999961853</ele>
        <time>2022-05-01T09:08:13.000Z</time>
      </trkpt>
      <trkpt lat="47.30978" lon="-2.28813">
        <ele>20.799999237061</ele>
        <time>2022-05-01T09:08:14.000Z</time>
      </trkpt>
      <trkpt lat="47.30982" lon="-2.28811">
        <ele>21.200000762939</ele>
        <time>2022-05-01T09:08:15.000Z</time>
      </trkpt>
      <trkpt lat="47.30996" lon="-2.28806">
        <ele>21.60000038147</ele>
        <time>2022-05-01T09:08:18.000Z</time>
      </trkpt>
      <trkpt lat="47.31001" lon="-2.28806">
        <ele>22</ele>
        <time>2022-05-01T09:08:19.000Z</time>
      </trkpt>
      <trkpt lat="47.31005" lon="-2.28806">
        <ele>22.39999961853</ele>
        <time>2022-05-01T09:08:20.000Z</time>
      </trkpt>
      <trkpt lat="47.3101" lon="-2.28808">
        <ele>22.799999237061</ele>
        <time>2022-05-01T09:08:21.000Z</time>
      </trkpt>
      <trkpt lat="47.31014" lon="-2.28811">
        <ele>23.39999961853</ele>
        <time>2022-05-01T09:08:22.000Z</time>
      </trkpt>
      <trkpt lat="47.31021" lon="-2.28818">
        <ele>23.39999961853</ele>
        <time>2022-05-01T09:08:24.000Z</time>
      </trkpt>
      <trkpt lat="47.3103" lon="-2.28827">
        <ele>23.39999961853</ele>
        <time>2022-05-01T09:08:26.000Z</time>
      </trkpt>
      <trkpt lat="47.3104" lon="-2.28835">
        <ele>23.39999961853</ele>
        <time>2022-05-01T09:08:28.000Z</time>
      </trkpt>
      <trkpt lat="47.3108" lon="-2.28864">
        <ele>23.39999961853</ele>
        <time>2022-05-01T09:08:35.000Z</time>
      </trkpt>
      <trkpt lat="47.31105" lon="-2.28884">
        <ele>22.799999237061</ele>
        <time>2022-05-01T09:08:39.000Z</time>
      </trkpt>
      <trkpt lat="47.31112" lon="-2.2889">
        <ele>22</ele>
        <time>2022-05-01T09:08:40.000Z</time>
      </trkpt>
      <trkpt lat="47.31118" lon="-2.28896">
        <ele>21.60000038147</ele>
        <time>2022-05-01T09:08:41.000Z</time>
      </trkpt>
      <trkpt lat="47.31123" lon="-2.28902">
        <ele>21.200000762939</ele>
        <time>2022-05-01T09:08:42.000Z</time>
      </trkpt>
      <trkpt lat="47.31129" lon="-2.28907">
        <ele>21.200000762939</ele>
        <time>2022-05-01T09:08:43.000Z</time>
      </trkpt>
      <trkpt lat="47.3114" lon="-2.28907">
        <ele>21.200000762939</ele>
        <time>2022-05-01T09:08:45.000Z</time>
      </trkpt>
      <trkpt lat="47.31162" lon="-2.28895">
        <ele>21.200000762939</ele>
        <time>2022-05-01T09:08:49.000Z</time>
      </trkpt>
      <trkpt lat="47.31177" lon="-2.28903">
        <ele>21.200000762939</ele>
        <time>2022-05-01T09:08:52.000Z</time>
      </trkpt>
      <trkpt lat="47.31182" lon="-2.28917">
        <ele>20.799999237061</ele>
        <time>2022-05-01T09:08:54.000Z</time>
      </trkpt>
      <trkpt lat="47.31185" lon="-2.28925">
        <ele>20.39999961853</ele>
        <time>2022-05-01T09:08:55.000Z</time>
      </trkpt>
      <trkpt lat="47.31187" lon="-2.28934">
        <ele>20</ele>
        <time>2022-05-01T09:08:56.000Z</time>
      </trkpt>
      <trkpt lat="47.31189" lon="-2.28942">
        <ele>19.60000038147</ele>
        <time>2022-05-01T09:08:57.000Z</time>
      </trkpt>
      <trkpt lat="47.3119" lon="-2.28951">
        <ele>19.200000762939</ele>
        <time>2022-05-01T09:08:58.000Z</time>
      </trkpt>
      <trkpt lat="47.31195" lon="-2.28976">
        <ele>19.200000762939</ele>
        <time>2022-05-01T09:09:01.000Z</time>
      </trkpt>
      <trkpt lat="47.312" lon="-2.29019">
        <ele>19.200000762939</ele>
        <time>2022-05-01T09:09:06.000Z</time>
      </trkpt>
      <trkpt lat="47.31201" lon="-2.29036">
        <ele>19.200000762939</ele>
        <time>2022-05-01T09:09:08.000Z</time>
      </trkpt>
      <trkpt lat="47.31203" lon="-2.2906">
        <ele>19.60000038147</ele>
        <time>2022-05-01T09:09:11.000Z</time>
      </trkpt>
      <trkpt lat="47.31204" lon="-2.29068">
        <ele>20</ele>
        <time>2022-05-01T09:09:12.000Z</time>
      </trkpt>
      <trkpt lat="47.31205" lon="-2.29076">
        <ele>20.39999961853</ele>
        <time>2022-05-01T09:09:13.000Z</time>
      </trkpt>
      <trkpt lat="47.31206" lon="-2.29084">
        <ele>20.799999237061</ele>
        <time>2022-05-01T09:09:14.000Z</time>
      </trkpt>
      <trkpt lat="47.31207" lon="-2.29093">
        <ele>21.200000762939</ele>
        <time>2022-05-01T09:09:15.000Z</time>
      </trkpt>
      <trkpt lat="47.31211" lon="-2.29127">
        <ele>21.200000762939</ele>
        <time>2022-05-01T09:09:19.000Z</time>
      </trkpt>
      <trkpt lat="47.31215" lon="-2.29144">
        <ele>21.200000762939</ele>
        <time>2022-05-01T09:09:21.000Z</time>
      </trkpt>
      <trkpt lat="47.31221" lon="-2.29171">
        <ele>21.200000762939</ele>
        <time>2022-05-01T09:09:24.000Z</time>
      </trkpt>
      <trkpt lat="47.31228" lon="-2.292">
        <ele>21.200000762939</ele>
        <time>2022-05-01T09:09:27.000Z</time>
      </trkpt>
      <trkpt lat="47.31243" lon="-2.29259">
        <ele>21.200000762939</ele>
        <time>2022-05-01T09:09:33.000Z</time>
      </trkpt>
      <trkpt lat="47.31256" lon="-2.29311">
        <ele>21.200000762939</ele>
        <time>2022-05-01T09:09:39.000Z</time>
      </trkpt>
      <trkpt lat="47.3126" lon="-2.29328">
        <ele>21.200000762939</ele>
        <time>2022-05-01T09:09:41.000Z</time>
      </trkpt>
      <trkpt lat="47.31265" lon="-2.29341">
        <ele>21.200000762939</ele>
        <time>2022-05-01T09:09:43.000Z</time>
      </trkpt>
      <trkpt lat="47.31269" lon="-2.29342">
        <ele>21.200000762939</ele>
        <time>2022-05-01T09:09:44.000Z</time>
      </trkpt>
      <trkpt lat="47.31276" lon="-2.29332">
        <ele>21.200000762939</ele>
        <time>2022-05-01T09:09:47.000Z</time>
      </trkpt>
      <trkpt lat="47.31278" lon="-2.29323">
        <ele>21.200000762939</ele>
        <time>2022-05-01T09:09:49.000Z</time>
      </trkpt>
      <trkpt lat="47.31283" lon="-2.29309">
        <ele>21.200000762939</ele>
        <time>2022-05-01T09:09:52.000Z</time>
      </trkpt>
      <trkpt lat="47.31293" lon="-2.29297">
        <ele>21.200000762939</ele>
        <time>2022-05-01T09:09:55.000Z</time>
      </trkpt>
      <trkpt lat="47.31297" lon="-2.29295">
        <ele>21.200000762939</ele>
        <time>2022-05-01T09:09:56.000Z</time>
      </trkpt>
      <trkpt lat="47.31307" lon="-2.29293">
        <ele>21.200000762939</ele>
        <time>2022-05-01T09:09:58.000Z</time>
      </trkpt>
      <trkpt lat="47.31321" lon="-2.29295">
        <ele>21.200000762939</ele>
        <time>2022-05-01T09:10:01.000Z</time>
      </trkpt>
      <trkpt lat="47.31366" lon="-2.29313">
        <ele>21.200000762939</ele>
        <time>2022-05-01T09:10:09.000Z</time>
      </trkpt>
      <trkpt lat="47.31371" lon="-2.29316">
        <ele>21.60000038147</ele>
        <time>2022-05-01T09:10:10.000Z</time>
      </trkpt>
      <trkpt lat="47.31376" lon="-2.29318">
        <ele>22</ele>
        <time>2022-05-01T09:10:11.000Z</time>
      </trkpt>
      <trkpt lat="47.31381" lon="-2.2932">
        <ele>22.39999961853</ele>
        <time>2022-05-01T09:10:12.000Z</time>
      </trkpt>
      <trkpt lat="47.31386" lon="-2.29323">
        <ele>22.799999237061</ele>
        <time>2022-05-01T09:10:13.000Z</time>
      </trkpt>
      <trkpt lat="47.3139" lon="-2.29325">
        <ele>23.200000762939</ele>
        <time>2022-05-01T09:10:14.000Z</time>
      </trkpt>
      <trkpt lat="47.31395" lon="-2.29328">
        <ele>23.200000762939</ele>
        <time>2022-05-01T09:10:15.000Z</time>
      </trkpt>
      <trkpt lat="47.31404" lon="-2.29335">
        <ele>23.200000762939</ele>
        <time>2022-05-01T09:10:17.000Z</time>
      </trkpt>
      <trkpt lat="47.31414" lon="-2.29347">
        <ele>23.200000762939</ele>
        <time>2022-05-01T09:10:20.000Z</time>
      </trkpt>
      <trkpt lat="47.31431" lon="-2.29375">
        <ele>23.200000762939</ele>
        <time>2022-05-01T09:10:26.000Z</time>
      </trkpt>
      <trkpt lat="47.31441" lon="-2.29389">
        <ele>23.60000038147</ele>
        <time>2022-05-01T09:10:29.000Z</time>
      </trkpt>
      <trkpt lat="47.31445" lon="-2.29394">
        <ele>24</ele>
        <time>2022-05-01T09:10:30.000Z</time>
      </trkpt>
      <trkpt lat="47.31448" lon="-2.29397">
        <ele>24.60000038147</ele>
        <time>2022-05-01T09:10:31.000Z</time>
      </trkpt>
      <trkpt lat="47.31452" lon="-2.294">
        <ele>25</ele>
        <time>2022-05-01T09:10:32.000Z</time>
      </trkpt>
      <trkpt lat="47.31456" lon="-2.294">
        <ele>25.39999961853</ele>
        <time>2022-05-01T09:10:33.000Z</time>
      </trkpt>
      <trkpt lat="47.31465" lon="-2.29399">
        <ele>25.39999961853</ele>
        <time>2022-05-01T09:10:35.000Z</time>
      </trkpt>
      <trkpt lat="47.3147" lon="-2.29398">
        <ele>25.39999961853</ele>
        <time>2022-05-01T09:10:36.000Z</time>
      </trkpt>
      <trkpt lat="47.31491" lon="-2.29395">
        <ele>25.39999961853</ele>
        <time>2022-05-01T09:10:40.000Z</time>
      </trkpt>
      <trkpt lat="47.31505" lon="-2.29406">
        <ele>25.39999961853</ele>
        <time>2022-05-01T09:10:44.000Z</time>
      </trkpt>
      <trkpt lat="47.31513" lon="-2.29421">
        <ele>25.39999961853</ele>
        <time>2022-05-01T09:10:47.000Z</time>
      </trkpt>
      <trkpt lat="47.31518" lon="-2.29434">
        <ele>25.39999961853</ele>
        <time>2022-05-01T09:10:49.000Z</time>
      </trkpt>
      <trkpt lat="47.31528" lon="-2.29456">
        <ele>25.799999237061</ele>
        <time>2022-05-01T09:10:52.000Z</time>
      </trkpt>
      <trkpt lat="47.3153" lon="-2.29463">
        <ele>26.200000762939</ele>
        <time>2022-05-01T09:10:53.000Z</time>
      </trkpt>
      <trkpt lat="47.31532" lon="-2.29469">
        <ele>26.60000038147</ele>
        <time>2022-05-01T09:10:54.000Z</time>
      </trkpt>
      <trkpt lat="47.31534" lon="-2.29477">
        <ele>27</ele>
        <time>2022-05-01T09:10:55.000Z</time>
      </trkpt>
      <trkpt lat="47.31536" lon="-2.29484">
        <ele>27.39999961853</ele>
        <time>2022-05-01T09:10:56.000Z</time>
      </trkpt>
      <trkpt lat="47.3154" lon="-2.29504">
        <ele>27.39999961853</ele>
        <time>2022-05-01T09:10:59.000Z</time>
      </trkpt>
      <trkpt lat="47.31542" lon="-2.29511">
        <ele>27.39999961853</ele>
        <time>2022-05-01T09:11:00.000Z</time>
      </trkpt>
      <trkpt lat="47.31546" lon="-2.29525">
        <ele>27.39999961853</ele>
        <time>2022-05-01T09:11:02.000Z</time>
      </trkpt>
      <trkpt lat="47.31554" lon="-2.29544">
        <ele>27.39999961853</ele>
        <time>2022-05-01T09:11:05.000Z</time>
      </trkpt>
      <trkpt lat="47.31571" lon="-2.29571">
        <ele>27.39999961853</ele>
        <time>2022-05-01T09:11:11.000Z</time>
      </trkpt>
      <trkpt lat="47.31578" lon="-2.2958">
        <ele>27.39999961853</ele>
        <time>2022-05-01T09:11:13.000Z</time>
      </trkpt>
      <trkpt lat="47.31588" lon="-2.29593">
        <ele>27.39999961853</ele>
        <time>2022-05-01T09:11:16.000Z</time>
      </trkpt>
      <trkpt lat="47.31592" lon="-2.29596">
        <ele>27.39999961853</ele>
        <time>2022-05-01T09:11:17.000Z</time>
      </trkpt>
      <trkpt lat="47.31604" lon="-2.29606">
        <ele>27.799999237061</ele>
        <time>2022-05-01T09:11:20.000Z</time>
      </trkpt>
      <trkpt lat="47.31608" lon="-2.29612">
        <ele>28.200000762939</ele>
        <time>2022-05-01T09:11:21.000Z</time>
      </trkpt>
      <trkpt lat="47.31611" lon="-2.29618">
        <ele>28.60000038147</ele>
        <time>2022-05-01T09:11:22.000Z</time>
      </trkpt>
      <trkpt lat="47.31614" lon="-2.29624">
        <ele>29</ele>
        <time>2022-05-01T09:11:23.000Z</time>
      </trkpt>
      <trkpt lat="47.31617" lon="-2.29629">
        <ele>29.39999961853</ele>
        <time>2022-05-01T09:11:24.000Z</time>
      </trkpt>
      <trkpt lat="47.31626" lon="-2.29648">
        <ele>29.39999961853</ele>
        <time>2022-05-01T09:11:27.000Z</time>
      </trkpt>
      <trkpt lat="47.31631" lon="-2.29662">
        <ele>29.39999961853</ele>
        <time>2022-05-01T09:11:29.000Z</time>
      </trkpt>
      <trkpt lat="47.3164" lon="-2.29682">
        <ele>29.39999961853</ele>
        <time>2022-05-01T09:11:32.000Z</time>
      </trkpt>
      <trkpt lat="47.31642" lon="-2.29689">
        <ele>29.39999961853</ele>
        <time>2022-05-01T09:11:33.000Z</time>
      </trkpt>
      <trkpt lat="47.31647" lon="-2.29701">
        <ele>29.39999961853</ele>
        <time>2022-05-01T09:11:35.000Z</time>
      </trkpt>
      <trkpt lat="47.31651" lon="-2.29713">
        <ele>29.39999961853</ele>
        <time>2022-05-01T09:11:37.000Z</time>
      </trkpt>
      <trkpt lat="47.31653" lon="-2.29719">
        <ele>29.39999961853</ele>
        <time>2022-05-01T09:11:38.000Z</time>
      </trkpt>
      <trkpt lat="47.31657" lon="-2.29724">
        <ele>29.39999961853</ele>
        <time>2022-05-01T09:11:39.000Z</time>
      </trkpt>
      <trkpt lat="47.31666" lon="-2.29732">
        <ele>29.39999961853</ele>
        <time>2022-05-01T09:11:41.000Z</time>
      </trkpt>
      <trkpt lat="47.31683" lon="-2.29732">
        <ele>29.39999961853</ele>
        <time>2022-05-01T09:11:44.000Z</time>
      </trkpt>
      <trkpt lat="47.31688" lon="-2.29731">
        <ele>29.39999961853</ele>
        <time>2022-05-01T09:11:45.000Z</time>
      </trkpt>
      <trkpt lat="47.31703" lon="-2.29727">
        <ele>29.39999961853</ele>
        <time>2022-05-01T09:11:48.000Z</time>
      </trkpt>
      <trkpt lat="47.31708" lon="-2.29723">
        <ele>29.39999961853</ele>
        <time>2022-05-01T09:11:49.000Z</time>
      </trkpt>
      <trkpt lat="47.31732" lon="-2.29704">
        <ele>29.39999961853</ele>
        <time>2022-05-01T09:11:54.000Z</time>
      </trkpt>
      <trkpt lat="47.31766" lon="-2.29677">
        <ele>29.39999961853</ele>
        <time>2022-05-01T09:12:01.000Z</time>
      </trkpt>
      <trkpt lat="47.31808" lon="-2.29649">
        <ele>29.39999961853</ele>
        <time>2022-05-01T09:12:09.000Z</time>
      </trkpt>
      <trkpt lat="47.31839" lon="-2.29632">
        <ele>29.39999961853</ele>
        <time>2022-05-01T09:12:15.000Z</time>
      </trkpt>
      <trkpt lat="47.31855" lon="-2.2962">
        <ele>29.39999961853</ele>
        <time>2022-05-01T09:12:18.000Z</time>
      </trkpt>
      <trkpt lat="47.31864" lon="-2.2961">
        <ele>29.39999961853</ele>
        <time>2022-05-01T09:12:20.000Z</time>
      </trkpt>
      <trkpt lat="47.31896" lon="-2.29573">
        <ele>29.39999961853</ele>
        <time>2022-05-01T09:12:27.000Z</time>
      </trkpt>
      <trkpt lat="47.3193" lon="-2.29542">
        <ele>29</ele>
        <time>2022-05-01T09:12:33.000Z</time>
      </trkpt>
      <trkpt lat="47.31937" lon="-2.29537">
        <ele>28.60000038147</ele>
        <time>2022-05-01T09:12:34.000Z</time>
      </trkpt>
      <trkpt lat="47.31943" lon="-2.29532">
        <ele>28.200000762939</ele>
        <time>2022-05-01T09:12:35.000Z</time>
      </trkpt>
      <trkpt lat="47.31949" lon="-2.29527">
        <ele>27.799999237061</ele>
        <time>2022-05-01T09:12:36.000Z</time>
      </trkpt>
      <trkpt lat="47.31954" lon="-2.29522">
        <ele>27.39999961853</ele>
        <time>2022-05-01T09:12:37.000Z</time>
      </trkpt>
      <trkpt lat="47.31976" lon="-2.29499">
        <ele>27.39999961853</ele>
        <time>2022-05-01T09:12:41.000Z</time>
      </trkpt>
      <trkpt lat="47.31999" lon="-2.29475">
        <ele>27</ele>
        <time>2022-05-01T09:12:45.000Z</time>
      </trkpt>
      <trkpt lat="47.32005" lon="-2.29469">
        <ele>26.60000038147</ele>
        <time>2022-05-01T09:12:46.000Z</time>
      </trkpt>
      <trkpt lat="47.3201" lon="-2.29463">
        <ele>25.60000038147</ele>
        <time>2022-05-01T09:12:47.000Z</time>
      </trkpt>
      <trkpt lat="47.32016" lon="-2.29457">
        <ele>25.200000762939</ele>
        <time>2022-05-01T09:12:48.000Z</time>
      </trkpt>
      <trkpt lat="47.32021" lon="-2.29451">
        <ele>25.200000762939</ele>
        <time>2022-05-01T09:12:49.000Z</time>
      </trkpt>
      <trkpt lat="47.32058" lon="-2.2941">
        <ele>25.200000762939</ele>
        <time>2022-05-01T09:12:56.000Z</time>
      </trkpt>
      <trkpt lat="47.32075" lon="-2.29392">
        <ele>24.799999237061</ele>
        <time>2022-05-01T09:12:59.000Z</time>
      </trkpt>
      <trkpt lat="47.32081" lon="-2.29386">
        <ele>24.39999961853</ele>
        <time>2022-05-01T09:13:00.000Z</time>
      </trkpt>
      <trkpt lat="47.32087" lon="-2.29379">
        <ele>24</ele>
        <time>2022-05-01T09:13:01.000Z</time>
      </trkpt>
      <trkpt lat="47.32093" lon="-2.29373">
        <ele>23.60000038147</ele>
        <time>2022-05-01T09:13:02.000Z</time>
      </trkpt>
      <trkpt lat="47.32099" lon="-2.29367">
        <ele>23.200000762939</ele>
        <time>2022-05-01T09:13:03.000Z</time>
      </trkpt>
      <trkpt lat="47.32104" lon="-2.2936">
        <ele>23.200000762939</ele>
        <time>2022-05-01T09:13:04.000Z</time>
      </trkpt>
      <trkpt lat="47.32133" lon="-2.2933">
        <ele>23.200000762939</ele>
        <time>2022-05-01T09:13:09.000Z</time>
      </trkpt>
      <trkpt lat="47.32138" lon="-2.29324">
        <ele>23.200000762939</ele>
        <time>2022-05-01T09:13:10.000Z</time>
      </trkpt>
      <trkpt lat="47.3217" lon="-2.29286">
        <ele>22.799999237061</ele>
        <time>2022-05-01T09:13:16.000Z</time>
      </trkpt>
      <trkpt lat="47.32176" lon="-2.2928">
        <ele>22.39999961853</ele>
        <time>2022-05-01T09:13:17.000Z</time>
      </trkpt>
      <trkpt lat="47.32182" lon="-2.29273">
        <ele>22</ele>
        <time>2022-05-01T09:13:18.000Z</time>
      </trkpt>
      <trkpt lat="47.32188" lon="-2.29266">
        <ele>21.60000038147</ele>
        <time>2022-05-01T09:13:19.000Z</time>
      </trkpt>
      <trkpt lat="47.32193" lon="-2.29259">
        <ele>21.200000762939</ele>
        <time>2022-05-01T09:13:20.000Z</time>
      </trkpt>
      <trkpt lat="47.32218" lon="-2.29238">
        <ele>21.200000762939</ele>
        <time>2022-05-01T09:13:24.000Z</time>
      </trkpt>
      <trkpt lat="47.32253" lon="-2.29223">
        <ele>21.200000762939</ele>
        <time>2022-05-01T09:13:29.000Z</time>
      </trkpt>
      <trkpt lat="47.32261" lon="-2.29221">
        <ele>20.799999237061</ele>
        <time>2022-05-01T09:13:30.000Z</time>
      </trkpt>
      <trkpt lat="47.32268" lon="-2.29219">
        <ele>20.39999961853</ele>
        <time>2022-05-01T09:13:31.000Z</time>
      </trkpt>
      <trkpt lat="47.32275" lon="-2.29217">
        <ele>20</ele>
        <time>2022-05-01T09:13:32.000Z</time>
      </trkpt>
      <trkpt lat="47.32283" lon="-2.29216">
        <ele>19.60000038147</ele>
        <time>2022-05-01T09:13:33.000Z</time>
      </trkpt>
      <trkpt lat="47.3229" lon="-2.29214">
        <ele>19.200000762939</ele>
        <time>2022-05-01T09:13:34.000Z</time>
      </trkpt>
      <trkpt lat="47.32304" lon="-2.29213">
        <ele>19.200000762939</ele>
        <time>2022-05-01T09:13:36.000Z</time>
      </trkpt>
      <trkpt lat="47.32325" lon="-2.29223">
        <ele>19.200000762939</ele>
        <time>2022-05-01T09:13:39.000Z</time>
      </trkpt>
      <trkpt lat="47.32332" lon="-2.29227">
        <ele>19.200000762939</ele>
        <time>2022-05-01T09:13:40.000Z</time>
      </trkpt>
      <trkpt lat="47.32379" lon="-2.29252">
        <ele>19.200000762939</ele>
        <time>2022-05-01T09:13:47.000Z</time>
      </trkpt>
      <trkpt lat="47.32404" lon="-2.29267">
        <ele>19.200000762939</ele>
        <time>2022-05-01T09:13:51.000Z</time>
      </trkpt>
      <trkpt lat="47.32413" lon="-2.29283">
        <ele>19.200000762939</ele>
        <time>2022-05-01T09:13:53.000Z</time>
      </trkpt>
      <trkpt lat="47.32419" lon="-2.29311">
        <ele>19.200000762939</ele>
        <time>2022-05-01T09:13:56.000Z</time>
      </trkpt>
      <trkpt lat="47.3242" lon="-2.2932">
        <ele>19.200000762939</ele>
        <time>2022-05-01T09:13:57.000Z</time>
      </trkpt>
      <trkpt lat="47.32427" lon="-2.29384">
        <ele>19.200000762939</ele>
        <time>2022-05-01T09:14:04.000Z</time>
      </trkpt>
      <trkpt lat="47.32433" lon="-2.29416">
        <ele>19.200000762939</ele>
        <time>2022-05-01T09:14:08.000Z</time>
      </trkpt>
      <trkpt lat="47.32434" lon="-2.29423">
        <ele>19.200000762939</ele>
        <time>2022-05-01T09:14:09.000Z</time>
      </trkpt>
      <trkpt lat="47.32437" lon="-2.29446">
        <ele>19.200000762939</ele>
        <time>2022-05-01T09:14:12.000Z</time>
      </trkpt>
      <trkpt lat="47.32439" lon="-2.29461">
        <ele>19.200000762939</ele>
        <time>2022-05-01T09:14:14.000Z</time>
      </trkpt>
      <trkpt lat="47.32442" lon="-2.29476">
        <ele>19.200000762939</ele>
        <time>2022-05-01T09:14:16.000Z</time>
      </trkpt>
      <trkpt lat="47.32447" lon="-2.29489">
        <ele>19.200000762939</ele>
        <time>2022-05-01T09:14:18.000Z</time>
      </trkpt>
      <trkpt lat="47.32449" lon="-2.29496">
        <ele>19.60000038147</ele>
        <time>2022-05-01T09:14:19.000Z</time>
      </trkpt>
      <trkpt lat="47.32451" lon="-2.29503">
        <ele>20</ele>
        <time>2022-05-01T09:14:20.000Z</time>
      </trkpt>
      <trkpt lat="47.32453" lon="-2.29509">
        <ele>20.39999961853</ele>
        <time>2022-05-01T09:14:21.000Z</time>
      </trkpt>
      <trkpt lat="47.32455" lon="-2.29516">
        <ele>20.799999237061</ele>
        <time>2022-05-01T09:14:22.000Z</time>
      </trkpt>
      <trkpt lat="47.32457" lon="-2.29522">
        <ele>21.200000762939</ele>
        <time>2022-05-01T09:14:23.000Z</time>
      </trkpt>
      <trkpt lat="47.32464" lon="-2.29548">
        <ele>21.799999237061</ele>
        <time>2022-05-01T09:14:27.000Z</time>
      </trkpt>
      <trkpt lat="47.32466" lon="-2.29554">
        <ele>22.200000762939</ele>
        <time>2022-05-01T09:14:28.000Z</time>
      </trkpt>
      <trkpt lat="47.32468" lon="-2.29559">
        <ele>22.60000038147</ele>
        <time>2022-05-01T09:14:29.000Z</time>
      </trkpt>
      <trkpt lat="47.3247" lon="-2.29565">
        <ele>23</ele>
        <time>2022-05-01T09:14:30.000Z</time>
      </trkpt>
      <trkpt lat="47.32472" lon="-2.29571">
        <ele>23.39999961853</ele>
        <time>2022-05-01T09:14:31.000Z</time>
      </trkpt>
      <trkpt lat="47.32477" lon="-2.29587">
        <ele>23.39999961853</ele>
        <time>2022-05-01T09:14:34.000Z</time>
      </trkpt>
      <trkpt lat="47.3248" lon="-2.29599">
        <ele>23.799999237061</ele>
        <time>2022-05-01T09:14:36.000Z</time>
      </trkpt>
      <trkpt lat="47.32482" lon="-2.29605">
        <ele>24.200000762939</ele>
        <time>2022-05-01T09:14:37.000Z</time>
      </trkpt>
      <trkpt lat="47.32483" lon="-2.29611">
        <ele>24.60000038147</ele>
        <time>2022-05-01T09:14:38.000Z</time>
      </trkpt>
      <trkpt lat="47.32484" lon="-2.29617">
        <ele>25</ele>
        <time>2022-05-01T09:14:39.000Z</time>
      </trkpt>
      <trkpt lat="47.32486" lon="-2.29622">
        <ele>25.60000038147</ele>
        <time>2022-05-01T09:14:40.000Z</time>
      </trkpt>
      <trkpt lat="47.32494" lon="-2.29647">
        <ele>26</ele>
        <time>2022-05-01T09:14:45.000Z</time>
      </trkpt>
      <trkpt lat="47.32495" lon="-2.29652">
        <ele>26.39999961853</ele>
        <time>2022-05-01T09:14:46.000Z</time>
      </trkpt>
      <trkpt lat="47.32497" lon="-2.29657">
        <ele>26.799999237061</ele>
        <time>2022-05-01T09:14:47.000Z</time>
      </trkpt>
      <trkpt lat="47.32498" lon="-2.29662">
        <ele>27.200000762939</ele>
        <time>2022-05-01T09:14:48.000Z</time>
      </trkpt>
      <trkpt lat="47.325" lon="-2.29668">
        <ele>27.60000038147</ele>
        <time>2022-05-01T09:14:49.000Z</time>
      </trkpt>
      <trkpt lat="47.32504" lon="-2.29684">
        <ele>27.60000038147</ele>
        <time>2022-05-01T09:14:52.000Z</time>
      </trkpt>
      <trkpt lat="47.3251" lon="-2.29707">
        <ele>28</ele>
        <time>2022-05-01T09:14:56.000Z</time>
      </trkpt>
      <trkpt lat="47.32511" lon="-2.29713">
        <ele>28.39999961853</ele>
        <time>2022-05-01T09:14:57.000Z</time>
      </trkpt>
      <trkpt lat="47.32512" lon="-2.29719">
        <ele>29</ele>
        <time>2022-05-01T09:14:58.000Z</time>
      </trkpt>
      <trkpt lat="47.32514" lon="-2.29725">
        <ele>29.39999961853</ele>
        <time>2022-05-01T09:14:59.000Z</time>
      </trkpt>
      <trkpt lat="47.32515" lon="-2.29732">
        <ele>29.799999237061</ele>
        <time>2022-05-01T09:15:00.000Z</time>
      </trkpt>
      <trkpt lat="47.32522" lon="-2.29767">
        <ele>29.799999237061</ele>
        <time>2022-05-01T09:15:06.000Z</time>
      </trkpt>
      <trkpt lat="47.32525" lon="-2.2979">
        <ele>29.799999237061</ele>
        <time>2022-05-01T09:15:10.000Z</time>
      </trkpt>
      <trkpt lat="47.32522" lon="-2.29795">
        <ele>29.799999237061</ele>
        <time>2022-05-01T09:15:11.000Z</time>
      </trkpt>
      <trkpt lat="47.32509" lon="-2.29805">
        <ele>29.799999237061</ele>
        <time>2022-05-01T09:15:14.000Z</time>
      </trkpt>
      <trkpt lat="47.32505" lon="-2.29809">
        <ele>29.799999237061</ele>
        <time>2022-05-01T09:15:15.000Z</time>
      </trkpt>
      <trkpt lat="47.32486" lon="-2.29827">
        <ele>29.799999237061</ele>
        <time>2022-05-01T09:15:20.000Z</time>
      </trkpt>
      <trkpt lat="47.32457" lon="-2.29852">
        <ele>29.799999237061</ele>
        <time>2022-05-01T09:15:27.000Z</time>
      </trkpt>
      <trkpt lat="47.32444" lon="-2.2987">
        <ele>29.799999237061</ele>
        <time>2022-05-01T09:15:31.000Z</time>
      </trkpt>
      <trkpt lat="47.32444" lon="-2.29894">
        <ele>29.799999237061</ele>
        <time>2022-05-01T09:15:34.000Z</time>
      </trkpt>
      <trkpt lat="47.32446" lon="-2.29917">
        <ele>29.799999237061</ele>
        <time>2022-05-01T09:15:37.000Z</time>
      </trkpt>
      <trkpt lat="47.32448" lon="-2.29933">
        <ele>29.799999237061</ele>
        <time>2022-05-01T09:15:39.000Z</time>
      </trkpt>
      <trkpt lat="47.32446" lon="-2.29958">
        <ele>29.799999237061</ele>
        <time>2022-05-01T09:15:43.000Z</time>
      </trkpt>
      <trkpt lat="47.32454" lon="-2.29969">
        <ele>29.799999237061</ele>
        <time>2022-05-01T09:15:46.000Z</time>
      </trkpt>
      <trkpt lat="47.32457" lon="-2.29974">
        <ele>29.799999237061</ele>
        <time>2022-05-01T09:15:47.000Z</time>
      </trkpt>
      <trkpt lat="47.32469" lon="-2.29997">
        <ele>29.799999237061</ele>
        <time>2022-05-01T09:15:51.000Z</time>
      </trkpt>
      <trkpt lat="47.32478" lon="-2.30016">
        <ele>29.799999237061</ele>
        <time>2022-05-01T09:15:54.000Z</time>
      </trkpt>
      <trkpt lat="47.32484" lon="-2.30038">
        <ele>29.799999237061</ele>
        <time>2022-05-01T09:15:57.000Z</time>
      </trkpt>
      <trkpt lat="47.32493" lon="-2.30073">
        <ele>29.799999237061</ele>
        <time>2022-05-01T09:16:02.000Z</time>
      </trkpt>
      <trkpt lat="47.32494" lon="-2.3008">
        <ele>29.799999237061</ele>
        <time>2022-05-01T09:16:03.000Z</time>
      </trkpt>
      <trkpt lat="47.32496" lon="-2.3011">
        <ele>29.799999237061</ele>
        <time>2022-05-01T09:16:07.000Z</time>
      </trkpt>
      <trkpt lat="47.32497" lon="-2.30118">
        <ele>29.799999237061</ele>
        <time>2022-05-01T09:16:08.000Z</time>
      </trkpt>
      <trkpt lat="47.32504" lon="-2.3017">
        <ele>29.799999237061</ele>
        <time>2022-05-01T09:16:15.000Z</time>
      </trkpt>
      <trkpt lat="47.32506" lon="-2.30177">
        <ele>29.799999237061</ele>
        <time>2022-05-01T09:16:16.000Z</time>
      </trkpt>
      <trkpt lat="47.3251" lon="-2.30208">
        <ele>29.799999237061</ele>
        <time>2022-05-01T09:16:20.000Z</time>
      </trkpt>
      <trkpt lat="47.32518" lon="-2.30265">
        <ele>29.799999237061</ele>
        <time>2022-05-01T09:16:27.000Z</time>
      </trkpt>
      <trkpt lat="47.32531" lon="-2.30335">
        <ele>29.799999237061</ele>
        <time>2022-05-01T09:16:35.000Z</time>
      </trkpt>
      <trkpt lat="47.32537" lon="-2.30365">
        <ele>29.39999961853</ele>
        <time>2022-05-01T09:16:39.000Z</time>
      </trkpt>
      <trkpt lat="47.32539" lon="-2.30372">
        <ele>29</ele>
        <time>2022-05-01T09:16:40.000Z</time>
      </trkpt>
      <trkpt lat="47.3254" lon="-2.30379">
        <ele>28.60000038147</ele>
        <time>2022-05-01T09:16:41.000Z</time>
      </trkpt>
      <trkpt lat="47.32542" lon="-2.30386">
        <ele>28.200000762939</ele>
        <time>2022-05-01T09:16:42.000Z</time>
      </trkpt>
      <trkpt lat="47.32542" lon="-2.30393">
        <ele>27.799999237061</ele>
        <time>2022-05-01T09:16:43.000Z</time>
      </trkpt>
      <trkpt lat="47.32536" lon="-2.30404">
        <ele>27.799999237061</ele>
        <time>2022-05-01T09:16:45.000Z</time>
      </trkpt>
      <trkpt lat="47.32522" lon="-2.3041">
        <ele>27.799999237061</ele>
        <time>2022-05-01T09:16:48.000Z</time>
      </trkpt>
      <trkpt lat="47.32502" lon="-2.30418">
        <ele>27.799999237061</ele>
        <time>2022-05-01T09:16:52.000Z</time>
      </trkpt>
      <trkpt lat="47.32499" lon="-2.3043">
        <ele>27.799999237061</ele>
        <time>2022-05-01T09:16:54.000Z</time>
      </trkpt>
      <trkpt lat="47.32504" lon="-2.30452">
        <ele>27.799999237061</ele>
        <time>2022-05-01T09:16:57.000Z</time>
      </trkpt>
      <trkpt lat="47.32514" lon="-2.305">
        <ele>27.799999237061</ele>
        <time>2022-05-01T09:17:03.000Z</time>
      </trkpt>
      <trkpt lat="47.32522" lon="-2.30551">
        <ele>27.799999237061</ele>
        <time>2022-05-01T09:17:09.000Z</time>
      </trkpt>
      <trkpt lat="47.3253" lon="-2.306">
        <ele>27.799999237061</ele>
        <time>2022-05-01T09:17:15.000Z</time>
      </trkpt>
      <trkpt lat="47.32531" lon="-2.30609">
        <ele>27.799999237061</ele>
        <time>2022-05-01T09:17:16.000Z</time>
      </trkpt>
      <trkpt lat="47.32536" lon="-2.30637">
        <ele>26.799999237061</ele>
        <time>2022-05-01T09:17:19.000Z</time>
      </trkpt>
      <trkpt lat="47.32539" lon="-2.30645">
        <ele>26.39999961853</ele>
        <time>2022-05-01T09:17:20.000Z</time>
      </trkpt>
      <trkpt lat="47.32541" lon="-2.30653">
        <ele>26</ele>
        <time>2022-05-01T09:17:21.000Z</time>
      </trkpt>
      <trkpt lat="47.32542" lon="-2.30662">
        <ele>25.60000038147</ele>
        <time>2022-05-01T09:17:22.000Z</time>
      </trkpt>
      <trkpt lat="47.32545" lon="-2.30678">
        <ele>25.60000038147</ele>
        <time>2022-05-01T09:17:24.000Z</time>
      </trkpt>
      <trkpt lat="47.32551" lon="-2.30722">
        <ele>25.60000038147</ele>
        <time>2022-05-01T09:17:29.000Z</time>
      </trkpt>
      <trkpt lat="47.32553" lon="-2.30731">
        <ele>25.60000038147</ele>
        <time>2022-05-01T09:17:30.000Z</time>
      </trkpt>
      <trkpt lat="47.32564" lon="-2.30793">
        <ele>25.60000038147</ele>
        <time>2022-05-01T09:17:37.000Z</time>
      </trkpt>
      <trkpt lat="47.32566" lon="-2.30836">
        <ele>25.60000038147</ele>
        <time>2022-05-01T09:17:42.000Z</time>
      </trkpt>
      <trkpt lat="47.32566" lon="-2.30845">
        <ele>25.60000038147</ele>
        <time>2022-05-01T09:17:43.000Z</time>
      </trkpt>
      <trkpt lat="47.32567" lon="-2.30885">
        <ele>25.60000038147</ele>
        <time>2022-05-01T09:17:48.000Z</time>
      </trkpt>
      <trkpt lat="47.32567" lon="-2.30902">
        <ele>25.60000038147</ele>
        <time>2022-05-01T09:17:50.000Z</time>
      </trkpt>
      <trkpt lat="47.32566" lon="-2.30926">
        <ele>25.60000038147</ele>
        <time>2022-05-01T09:17:53.000Z</time>
      </trkpt>
      <trkpt lat="47.32566" lon="-2.30941">
        <ele>25.60000038147</ele>
        <time>2022-05-01T09:17:55.000Z</time>
      </trkpt>
      <trkpt lat="47.32566" lon="-2.30977">
        <ele>25.60000038147</ele>
        <time>2022-05-01T09:18:00.000Z</time>
      </trkpt>
      <trkpt lat="47.3257" lon="-2.31023">
        <ele>25.60000038147</ele>
        <time>2022-05-01T09:18:06.000Z</time>
      </trkpt>
      <trkpt lat="47.32577" lon="-2.31069">
        <ele>25.60000038147</ele>
        <time>2022-05-01T09:18:12.000Z</time>
      </trkpt>
      <trkpt lat="47.32577" lon="-2.31086">
        <ele>25.60000038147</ele>
        <time>2022-05-01T09:18:14.000Z</time>
      </trkpt>
      <trkpt lat="47.32573" lon="-2.31114">
        <ele>25.60000038147</ele>
        <time>2022-05-01T09:18:17.000Z</time>
      </trkpt>
      <trkpt lat="47.32569" lon="-2.31139">
        <ele>25.60000038147</ele>
        <time>2022-05-01T09:18:20.000Z</time>
      </trkpt>
      <trkpt lat="47.32566" lon="-2.31157">
        <ele>25.200000762939</ele>
        <time>2022-05-01T09:18:22.000Z</time>
      </trkpt>
      <trkpt lat="47.32565" lon="-2.31166">
        <ele>24.60000038147</ele>
        <time>2022-05-01T09:18:23.000Z</time>
      </trkpt>
      <trkpt lat="47.32564" lon="-2.31175">
        <ele>24.200000762939</ele>
        <time>2022-05-01T09:18:24.000Z</time>
      </trkpt>
      <trkpt lat="47.32564" lon="-2.31184">
        <ele>23.799999237061</ele>
        <time>2022-05-01T09:18:25.000Z</time>
      </trkpt>
      <trkpt lat="47.32566" lon="-2.31193">
        <ele>23.39999961853</ele>
        <time>2022-05-01T09:18:26.000Z</time>
      </trkpt>
      <trkpt lat="47.3257" lon="-2.31201">
        <ele>23.39999961853</ele>
        <time>2022-05-01T09:18:27.000Z</time>
      </trkpt>
      <trkpt lat="47.32574" lon="-2.31219">
        <ele>23.39999961853</ele>
        <time>2022-05-01T09:18:29.000Z</time>
      </trkpt>
      <trkpt lat="47.32574" lon="-2.31236">
        <ele>23.39999961853</ele>
        <time>2022-05-01T09:18:31.000Z</time>
      </trkpt>
      <trkpt lat="47.32573" lon="-2.31254">
        <ele>23.39999961853</ele>
        <time>2022-05-01T09:18:33.000Z</time>
      </trkpt>
      <trkpt lat="47.32571" lon="-2.31282">
        <ele>23.39999961853</ele>
        <time>2022-05-01T09:18:36.000Z</time>
      </trkpt>
      <trkpt lat="47.32571" lon="-2.3129">
        <ele>23.39999961853</ele>
        <time>2022-05-01T09:18:37.000Z</time>
      </trkpt>
      <trkpt lat="47.3257" lon="-2.31306">
        <ele>23.39999961853</ele>
        <time>2022-05-01T09:18:39.000Z</time>
      </trkpt>
      <trkpt lat="47.32565" lon="-2.31321">
        <ele>23.39999961853</ele>
        <time>2022-05-01T09:18:41.000Z</time>
      </trkpt>
      <trkpt lat="47.3256" lon="-2.31334">
        <ele>23.39999961853</ele>
        <time>2022-05-01T09:18:43.000Z</time>
      </trkpt>
      <trkpt lat="47.32558" lon="-2.31341">
        <ele>23.39999961853</ele>
        <time>2022-05-01T09:18:44.000Z</time>
      </trkpt>
      <trkpt lat="47.32556" lon="-2.31355">
        <ele>23.39999961853</ele>
        <time>2022-05-01T09:18:46.000Z</time>
      </trkpt>
      <trkpt lat="47.32555" lon="-2.31373">
        <ele>23.39999961853</ele>
        <time>2022-05-01T09:18:50.000Z</time>
      </trkpt>
      <trkpt lat="47.32554" lon="-2.31377">
        <ele>23.39999961853</ele>
        <time>2022-05-01T09:18:53.000Z</time>
      </trkpt>
      <trkpt lat="47.32554" lon="-2.31384">
        <ele>23.39999961853</ele>
        <time>2022-05-01T09:19:22.000Z</time>
      </trkpt>
      <trkpt lat="47.32551" lon="-2.31404">
        <ele>23.39999961853</ele>
        <time>2022-05-01T09:19:27.000Z</time>
      </trkpt>
      <trkpt lat="47.32554" lon="-2.31425">
        <ele>23.39999961853</ele>
        <time>2022-05-01T09:19:31.000Z</time>
      </trkpt>
      <trkpt lat="47.3256" lon="-2.31466">
        <ele>23.39999961853</ele>
        <time>2022-05-01T09:19:37.000Z</time>
      </trkpt>
      <trkpt lat="47.32561" lon="-2.31495">
        <ele>23.39999961853</ele>
        <time>2022-05-01T09:19:41.000Z</time>
      </trkpt>
      <trkpt lat="47.3256" lon="-2.31502">
        <ele>23.39999961853</ele>
        <time>2022-05-01T09:19:42.000Z</time>
      </trkpt>
      <trkpt lat="47.32559" lon="-2.31544">
        <ele>23.39999961853</ele>
        <time>2022-05-01T09:19:47.000Z</time>
      </trkpt>
      <trkpt lat="47.3256" lon="-2.31579">
        <ele>23.39999961853</ele>
        <time>2022-05-01T09:19:51.000Z</time>
      </trkpt>
      <trkpt lat="47.32558" lon="-2.31587">
        <ele>23.39999961853</ele>
        <time>2022-05-01T09:19:52.000Z</time>
      </trkpt>
      <trkpt lat="47.32544" lon="-2.31604">
        <ele>23.39999961853</ele>
        <time>2022-05-01T09:19:55.000Z</time>
      </trkpt>
      <trkpt lat="47.32519" lon="-2.31637">
        <ele>23.39999961853</ele>
        <time>2022-05-01T09:20:01.000Z</time>
      </trkpt>
      <trkpt lat="47.32511" lon="-2.31649">
        <ele>23.39999961853</ele>
        <time>2022-05-01T09:20:03.000Z</time>
      </trkpt>
      <trkpt lat="47.32507" lon="-2.31671">
        <ele>23.39999961853</ele>
        <time>2022-05-01T09:20:06.000Z</time>
      </trkpt>
      <trkpt lat="47.32507" lon="-2.31687">
        <ele>23.39999961853</ele>
        <time>2022-05-01T09:20:08.000Z</time>
      </trkpt>
      <trkpt lat="47.3251" lon="-2.31711">
        <ele>23.39999961853</ele>
        <time>2022-05-01T09:20:11.000Z</time>
      </trkpt>
      <trkpt lat="47.32514" lon="-2.3176">
        <ele>23.39999961853</ele>
        <time>2022-05-01T09:20:17.000Z</time>
      </trkpt>
      <trkpt lat="47.32519" lon="-2.3182">
        <ele>23.39999961853</ele>
        <time>2022-05-01T09:20:24.000Z</time>
      </trkpt>
      <trkpt lat="47.3252" lon="-2.31856">
        <ele>23.39999961853</ele>
        <time>2022-05-01T09:20:28.000Z</time>
      </trkpt>
      <trkpt lat="47.32518" lon="-2.31875">
        <ele>23.39999961853</ele>
        <time>2022-05-01T09:20:30.000Z</time>
      </trkpt>
      <trkpt lat="47.32516" lon="-2.31893">
        <ele>23.39999961853</ele>
        <time>2022-05-01T09:20:32.000Z</time>
      </trkpt>
      <trkpt lat="47.32513" lon="-2.31928">
        <ele>23.39999961853</ele>
        <time>2022-05-01T09:20:36.000Z</time>
      </trkpt>
      <trkpt lat="47.32512" lon="-2.31937">
        <ele>23.39999961853</ele>
        <time>2022-05-01T09:20:37.000Z</time>
      </trkpt>
      <trkpt lat="47.32507" lon="-2.31981">
        <ele>23.39999961853</ele>
        <time>2022-05-01T09:20:42.000Z</time>
      </trkpt>
      <trkpt lat="47.32506" lon="-2.32025">
        <ele>23.39999961853</ele>
        <time>2022-05-01T09:20:47.000Z</time>
      </trkpt>
      <trkpt lat="47.32502" lon="-2.32077">
        <ele>23.39999961853</ele>
        <time>2022-05-01T09:20:53.000Z</time>
      </trkpt>
      <trkpt lat="47.32498" lon="-2.32091">
        <ele>23.39999961853</ele>
        <time>2022-05-01T09:20:56.000Z</time>
      </trkpt>
      <trkpt lat="47.32487" lon="-2.321">
        <ele>23.39999961853</ele>
        <time>2022-05-01T09:21:01.000Z</time>
      </trkpt>
      <trkpt lat="47.32486" lon="-2.321">
        <ele>23.39999961853</ele>
        <time>2022-05-01T09:21:03.000Z</time>
      </trkpt>
      <trkpt lat="47.32489" lon="-2.321">
        <ele>23.39999961853</ele>
        <time>2022-05-01T09:21:25.000Z</time>
      </trkpt>
      <trkpt lat="47.32501" lon="-2.32099">
        <ele>23.39999961853</ele>
        <time>2022-05-01T09:21:31.000Z</time>
      </trkpt>
      <trkpt lat="47.3252" lon="-2.321">
        <ele>23.39999961853</ele>
        <time>2022-05-01T09:21:37.000Z</time>
      </trkpt>
      <trkpt lat="47.32536" lon="-2.32096">
        <ele>23.39999961853</ele>
        <time>2022-05-01T09:21:41.000Z</time>
      </trkpt>
      <trkpt lat="47.32541" lon="-2.32095">
        <ele>23.39999961853</ele>
        <time>2022-05-01T09:21:42.000Z</time>
      </trkpt>
      <trkpt lat="47.32569" lon="-2.32094">
        <ele>23.39999961853</ele>
        <time>2022-05-01T09:21:47.000Z</time>
      </trkpt>
      <trkpt lat="47.32585" lon="-2.32099">
        <ele>23.39999961853</ele>
        <time>2022-05-01T09:21:50.000Z</time>
      </trkpt>
      <trkpt lat="47.32588" lon="-2.32106">
        <ele>23.39999961853</ele>
        <time>2022-05-01T09:21:51.000Z</time>
      </trkpt>
      <trkpt lat="47.32589" lon="-2.32123">
        <ele>23</ele>
        <time>2022-05-01T09:21:53.000Z</time>
      </trkpt>
      <trkpt lat="47.32587" lon="-2.32131">
        <ele>22.60000038147</ele>
        <time>2022-05-01T09:21:54.000Z</time>
      </trkpt>
      <trkpt lat="47.32585" lon="-2.3214">
        <ele>22.200000762939</ele>
        <time>2022-05-01T09:21:55.000Z</time>
      </trkpt>
      <trkpt lat="47.32582" lon="-2.32149">
        <ele>21.799999237061</ele>
        <time>2022-05-01T09:21:56.000Z</time>
      </trkpt>
      <trkpt lat="47.3258" lon="-2.32159">
        <ele>21.39999961853</ele>
        <time>2022-05-01T09:21:57.000Z</time>
      </trkpt>
      <trkpt lat="47.32573" lon="-2.32177">
        <ele>21.39999961853</ele>
        <time>2022-05-01T09:21:59.000Z</time>
      </trkpt>
      <trkpt lat="47.32562" lon="-2.32214">
        <ele>21</ele>
        <time>2022-05-01T09:22:03.000Z</time>
      </trkpt>
      <trkpt lat="47.32559" lon="-2.32222">
        <ele>20.60000038147</ele>
        <time>2022-05-01T09:22:04.000Z</time>
      </trkpt>
      <trkpt lat="47.32557" lon="-2.3223">
        <ele>20.200000762939</ele>
        <time>2022-05-01T09:22:05.000Z</time>
      </trkpt>
      <trkpt lat="47.32555" lon="-2.32238">
        <ele>19.799999237061</ele>
        <time>2022-05-01T09:22:06.000Z</time>
      </trkpt>
      <trkpt lat="47.32552" lon="-2.32245">
        <ele>19.200000762939</ele>
        <time>2022-05-01T09:22:07.000Z</time>
      </trkpt>
      <trkpt lat="47.32549" lon="-2.32252">
        <ele>19.200000762939</ele>
        <time>2022-05-01T09:22:08.000Z</time>
      </trkpt>
      <trkpt lat="47.32544" lon="-2.32265">
        <ele>19.200000762939</ele>
        <time>2022-05-01T09:22:10.000Z</time>
      </trkpt>
      <trkpt lat="47.3254" lon="-2.32274">
        <ele>19.200000762939</ele>
        <time>2022-05-01T09:22:12.000Z</time>
      </trkpt>
      <trkpt lat="47.32536" lon="-2.32289">
        <ele>20.200000762939</ele>
        <time>2022-05-01T09:22:15.000Z</time>
      </trkpt>
      <trkpt lat="47.32535" lon="-2.32294">
        <ele>20.60000038147</ele>
        <time>2022-05-01T09:22:16.000Z</time>
      </trkpt>
      <trkpt lat="47.32534" lon="-2.32298">
        <ele>21</ele>
        <time>2022-05-01T09:22:17.000Z</time>
      </trkpt>
      <trkpt lat="47.32534" lon="-2.32301">
        <ele>21.60000038147</ele>
        <time>2022-05-01T09:22:18.000Z</time>
      </trkpt>
      <trkpt lat="47.32532" lon="-2.32307">
        <ele>21.60000038147</ele>
        <time>2022-05-01T09:22:20.000Z</time>
      </trkpt>
      <trkpt lat="47.32525" lon="-2.3233">
        <ele>21.60000038147</ele>
        <time>2022-05-01T09:22:27.000Z</time>
      </trkpt>
      <trkpt lat="47.32521" lon="-2.32345">
        <ele>21.60000038147</ele>
        <time>2022-05-01T09:22:34.000Z</time>
      </trkpt>
      <trkpt lat="47.32516" lon="-2.32367">
        <ele>21.60000038147</ele>
        <time>2022-05-01T09:22:44.000Z</time>
      </trkpt>
      <trkpt lat="47.32514" lon="-2.32378">
        <ele>21.60000038147</ele>
        <time>2022-05-01T09:22:51.000Z</time>
      </trkpt>
      <trkpt lat="47.32513" lon="-2.32373">
        <ele>21.60000038147</ele>
        <time>2022-05-01T09:23:01.000Z</time>
      </trkpt>
      <trkpt lat="47.32513" lon="-2.32369">
        <ele>21.60000038147</ele>
        <time>2022-05-01T09:23:03.000Z</time>
      </trkpt>
      <trkpt lat="47.32514" lon="-2.32365">
        <ele>21.60000038147</ele>
        <time>2022-05-01T09:23:04.000Z</time>
      </trkpt>
      <trkpt lat="47.3252" lon="-2.32349">
        <ele>21.60000038147</ele>
        <time>2022-05-01T09:23:08.000Z</time>
      </trkpt>
      <trkpt lat="47.32527" lon="-2.32327">
        <ele>21.60000038147</ele>
        <time>2022-05-01T09:23:14.000Z</time>
      </trkpt>
      <trkpt lat="47.32529" lon="-2.32323">
        <ele>21.60000038147</ele>
        <time>2022-05-01T09:23:15.000Z</time>
      </trkpt>
      <trkpt lat="47.32534" lon="-2.32319">
        <ele>21.60000038147</ele>
        <time>2022-05-01T09:23:17.000Z</time>
      </trkpt>
      <trkpt lat="47.32542" lon="-2.32318">
        <ele>21.60000038147</ele>
        <time>2022-05-01T09:23:19.000Z</time>
      </trkpt>
      <trkpt lat="47.32551" lon="-2.32318">
        <ele>21.60000038147</ele>
        <time>2022-05-01T09:23:21.000Z</time>
      </trkpt>
      <trkpt lat="47.32565" lon="-2.32316">
        <ele>22</ele>
        <time>2022-05-01T09:23:24.000Z</time>
      </trkpt>
      <trkpt lat="47.3257" lon="-2.32315">
        <ele>22.39999961853</ele>
        <time>2022-05-01T09:23:25.000Z</time>
      </trkpt>
      <trkpt lat="47.32575" lon="-2.32314">
        <ele>22.799999237061</ele>
        <time>2022-05-01T09:23:26.000Z</time>
      </trkpt>
      <trkpt lat="47.32581" lon="-2.32314">
        <ele>23.200000762939</ele>
        <time>2022-05-01T09:23:27.000Z</time>
      </trkpt>
      <trkpt lat="47.32587" lon="-2.32313">
        <ele>23.60000038147</ele>
        <time>2022-05-01T09:23:28.000Z</time>
      </trkpt>
      <trkpt lat="47.32604" lon="-2.32312">
        <ele>23.60000038147</ele>
        <time>2022-05-01T09:23:31.000Z</time>
      </trkpt>
      <trkpt lat="47.32641" lon="-2.32312">
        <ele>23.60000038147</ele>
        <time>2022-05-01T09:23:37.000Z</time>
      </trkpt>
      <trkpt lat="47.32688" lon="-2.32322">
        <ele>23.60000038147</ele>
        <time>2022-05-01T09:23:44.000Z</time>
      </trkpt>
      <trkpt lat="47.32715" lon="-2.32332">
        <ele>23.200000762939</ele>
        <time>2022-05-01T09:23:48.000Z</time>
      </trkpt>
      <trkpt lat="47.32721" lon="-2.32335">
        <ele>22.799999237061</ele>
        <time>2022-05-01T09:23:49.000Z</time>
      </trkpt>
      <trkpt lat="47.32728" lon="-2.32339">
        <ele>22.39999961853</ele>
        <time>2022-05-01T09:23:50.000Z</time>
      </trkpt>
      <trkpt lat="47.32734" lon="-2.32342">
        <ele>22</ele>
        <time>2022-05-01T09:23:51.000Z</time>
      </trkpt>
      <trkpt lat="47.3274" lon="-2.32346">
        <ele>21.60000038147</ele>
        <time>2022-05-01T09:23:52.000Z</time>
      </trkpt>
      <trkpt lat="47.32765" lon="-2.32361">
        <ele>21.200000762939</ele>
        <time>2022-05-01T09:23:56.000Z</time>
      </trkpt>
      <trkpt lat="47.32771" lon="-2.32365">
        <ele>20.799999237061</ele>
        <time>2022-05-01T09:23:57.000Z</time>
      </trkpt>
      <trkpt lat="47.32778" lon="-2.32369">
        <ele>20.200000762939</ele>
        <time>2022-05-01T09:23:58.000Z</time>
      </trkpt>
      <trkpt lat="47.32784" lon="-2.32373">
        <ele>19.799999237061</ele>
        <time>2022-05-01T09:23:59.000Z</time>
      </trkpt>
      <trkpt lat="47.32791" lon="-2.32377">
        <ele>19.39999961853</ele>
        <time>2022-05-01T09:24:00.000Z</time>
      </trkpt>
      <trkpt lat="47.32797" lon="-2.32381">
        <ele>19.39999961853</ele>
        <time>2022-05-01T09:24:01.000Z</time>
      </trkpt>
      <trkpt lat="47.32807" lon="-2.32392">
        <ele>19.39999961853</ele>
        <time>2022-05-01T09:24:03.000Z</time>
      </trkpt>
      <trkpt lat="47.32811" lon="-2.32398">
        <ele>19.39999961853</ele>
        <time>2022-05-01T09:24:04.000Z</time>
      </trkpt>
      <trkpt lat="47.32827" lon="-2.32415">
        <ele>19.39999961853</ele>
        <time>2022-05-01T09:24:07.000Z</time>
      </trkpt>
      <trkpt lat="47.32838" lon="-2.32424">
        <ele>19.39999961853</ele>
        <time>2022-05-01T09:24:09.000Z</time>
      </trkpt>
      <trkpt lat="47.32878" lon="-2.32449">
        <ele>19.39999961853</ele>
        <time>2022-05-01T09:24:16.000Z</time>
      </trkpt>
      <trkpt lat="47.32884" lon="-2.32452">
        <ele>19.39999961853</ele>
        <time>2022-05-01T09:24:17.000Z</time>
      </trkpt>
      <trkpt lat="47.32894" lon="-2.32463">
        <ele>19.39999961853</ele>
        <time>2022-05-01T09:24:19.000Z</time>
      </trkpt>
      <trkpt lat="47.32898" lon="-2.3247">
        <ele>19.39999961853</ele>
        <time>2022-05-01T09:24:20.000Z</time>
      </trkpt>
      <trkpt lat="47.32905" lon="-2.32498">
        <ele>19.39999961853</ele>
        <time>2022-05-01T09:24:23.000Z</time>
      </trkpt>
      <trkpt lat="47.32913" lon="-2.32534">
        <ele>19.39999961853</ele>
        <time>2022-05-01T09:24:27.000Z</time>
      </trkpt>
      <trkpt lat="47.32915" lon="-2.32552">
        <ele>19.39999961853</ele>
        <time>2022-05-01T09:24:29.000Z</time>
      </trkpt>
      <trkpt lat="47.32917" lon="-2.32604">
        <ele>19.39999961853</ele>
        <time>2022-05-01T09:24:35.000Z</time>
      </trkpt>
      <trkpt lat="47.32917" lon="-2.32614">
        <ele>19.39999961853</ele>
        <time>2022-05-01T09:24:36.000Z</time>
      </trkpt>
      <trkpt lat="47.32924" lon="-2.32639">
        <ele>19.39999961853</ele>
        <time>2022-05-01T09:24:39.000Z</time>
      </trkpt>
      <trkpt lat="47.3294" lon="-2.32644">
        <ele>19.39999961853</ele>
        <time>2022-05-01T09:24:42.000Z</time>
      </trkpt>
      <trkpt lat="47.32946" lon="-2.32643">
        <ele>19.39999961853</ele>
        <time>2022-05-01T09:24:43.000Z</time>
      </trkpt>
      <trkpt lat="47.32972" lon="-2.32635">
        <ele>19.39999961853</ele>
        <time>2022-05-01T09:24:47.000Z</time>
      </trkpt>
      <trkpt lat="47.32994" lon="-2.32623">
        <ele>19</ele>
        <time>2022-05-01T09:24:51.000Z</time>
      </trkpt>
      <trkpt lat="47.33" lon="-2.32625">
        <ele>18.60000038147</ele>
        <time>2022-05-01T09:24:52.000Z</time>
      </trkpt>
      <trkpt lat="47.33007" lon="-2.32629">
        <ele>18</ele>
        <time>2022-05-01T09:24:53.000Z</time>
      </trkpt>
      <trkpt lat="47.33012" lon="-2.32632">
        <ele>17.60000038147</ele>
        <time>2022-05-01T09:24:54.000Z</time>
      </trkpt>
      <trkpt lat="47.33018" lon="-2.32634">
        <ele>17.200000762939</ele>
        <time>2022-05-01T09:24:55.000Z</time>
      </trkpt>
      <trkpt lat="47.3303" lon="-2.32632">
        <ele>17.200000762939</ele>
        <time>2022-05-01T09:24:57.000Z</time>
      </trkpt>
      <trkpt lat="47.33046" lon="-2.32621">
        <ele>17.200000762939</ele>
        <time>2022-05-01T09:25:00.000Z</time>
      </trkpt>
      <trkpt lat="47.33051" lon="-2.32617">
        <ele>17.200000762939</ele>
        <time>2022-05-01T09:25:01.000Z</time>
      </trkpt>
      <trkpt lat="47.33076" lon="-2.32596">
        <ele>17.200000762939</ele>
        <time>2022-05-01T09:25:07.000Z</time>
      </trkpt>
      <trkpt lat="47.3311" lon="-2.32567">
        <ele>17.200000762939</ele>
        <time>2022-05-01T09:25:14.000Z</time>
      </trkpt>
      <trkpt lat="47.3313" lon="-2.32552">
        <ele>17.60000038147</ele>
        <time>2022-05-01T09:25:18.000Z</time>
      </trkpt>
      <trkpt lat="47.33135" lon="-2.32549">
        <ele>18</ele>
        <time>2022-05-01T09:25:19.000Z</time>
      </trkpt>
      <trkpt lat="47.33139" lon="-2.32545">
        <ele>18.39999961853</ele>
        <time>2022-05-01T09:25:20.000Z</time>
      </trkpt>
      <trkpt lat="47.33144" lon="-2.32541">
        <ele>18.799999237061</ele>
        <time>2022-05-01T09:25:21.000Z</time>
      </trkpt>
      <trkpt lat="47.33149" lon="-2.32538">
        <ele>19.200000762939</ele>
        <time>2022-05-01T09:25:22.000Z</time>
      </trkpt>
      <trkpt lat="47.3317" lon="-2.32523">
        <ele>19.200000762939</ele>
        <time>2022-05-01T09:25:27.000Z</time>
      </trkpt>
      <trkpt lat="47.3318" lon="-2.32519">
        <ele>19.200000762939</ele>
        <time>2022-05-01T09:25:29.000Z</time>
      </trkpt>
      <trkpt lat="47.33217" lon="-2.32502">
        <ele>19.60000038147</ele>
        <time>2022-05-01T09:25:36.000Z</time>
      </trkpt>
      <trkpt lat="47.33222" lon="-2.325">
        <ele>20</ele>
        <time>2022-05-01T09:25:37.000Z</time>
      </trkpt>
      <trkpt lat="47.33228" lon="-2.32498">
        <ele>20.39999961853</ele>
        <time>2022-05-01T09:25:38.000Z</time>
      </trkpt>
      <trkpt lat="47.33233" lon="-2.32495">
        <ele>20.799999237061</ele>
        <time>2022-05-01T09:25:39.000Z</time>
      </trkpt>
      <trkpt lat="47.33238" lon="-2.32493">
        <ele>21.200000762939</ele>
        <time>2022-05-01T09:25:40.000Z</time>
      </trkpt>
      <trkpt lat="47.33249" lon="-2.32488">
        <ele>21.200000762939</ele>
        <time>2022-05-01T09:25:42.000Z</time>
      </trkpt>
      <trkpt lat="47.33275" lon="-2.32476">
        <ele>21.200000762939</ele>
        <time>2022-05-01T09:25:47.000Z</time>
      </trkpt>
      <trkpt lat="47.33307" lon="-2.32461">
        <ele>21.200000762939</ele>
        <time>2022-05-01T09:25:53.000Z</time>
      </trkpt>
      <trkpt lat="47.33329" lon="-2.32454">
        <ele>21.200000762939</ele>
        <time>2022-05-01T09:25:57.000Z</time>
      </trkpt>
      <trkpt lat="47.33335" lon="-2.3245">
        <ele>21.200000762939</ele>
        <time>2022-05-01T09:25:58.000Z</time>
      </trkpt>
      <trkpt lat="47.33354" lon="-2.32429">
        <ele>21.200000762939</ele>
        <time>2022-05-01T09:26:02.000Z</time>
      </trkpt>
      <trkpt lat="47.33358" lon="-2.32423">
        <ele>21.200000762939</ele>
        <time>2022-05-01T09:26:03.000Z</time>
      </trkpt>
      <trkpt lat="47.33389" lon="-2.32392">
        <ele>21.200000762939</ele>
        <time>2022-05-01T09:26:09.000Z</time>
      </trkpt>
      <trkpt lat="47.33427" lon="-2.32358">
        <ele>20.799999237061</ele>
        <time>2022-05-01T09:26:16.000Z</time>
      </trkpt>
      <trkpt lat="47.33433" lon="-2.32354">
        <ele>20.39999961853</ele>
        <time>2022-05-01T09:26:17.000Z</time>
      </trkpt>
      <trkpt lat="47.33439" lon="-2.32349">
        <ele>20</ele>
        <time>2022-05-01T09:26:18.000Z</time>
      </trkpt>
      <trkpt lat="47.33444" lon="-2.32346">
        <ele>19.60000038147</ele>
        <time>2022-05-01T09:26:19.000Z</time>
      </trkpt>
      <trkpt lat="47.3345" lon="-2.32341">
        <ele>19.200000762939</ele>
        <time>2022-05-01T09:26:20.000Z</time>
      </trkpt>
      <trkpt lat="47.3348" lon="-2.32323">
        <ele>19.200000762939</ele>
        <time>2022-05-01T09:26:25.000Z</time>
      </trkpt>
      <trkpt lat="47.33516" lon="-2.32307">
        <ele>19.200000762939</ele>
        <time>2022-05-01T09:26:31.000Z</time>
      </trkpt>
      <trkpt lat="47.33526" lon="-2.32302">
        <ele>19.200000762939</ele>
        <time>2022-05-01T09:26:33.000Z</time>
      </trkpt>
      <trkpt lat="47.33542" lon="-2.32302">
        <ele>19.200000762939</ele>
        <time>2022-05-01T09:26:36.000Z</time>
      </trkpt>
      <trkpt lat="47.33546" lon="-2.32302">
        <ele>19.200000762939</ele>
        <time>2022-05-01T09:26:37.000Z</time>
      </trkpt>
      <trkpt lat="47.33565" lon="-2.32297">
        <ele>19.200000762939</ele>
        <time>2022-05-01T09:26:41.000Z</time>
      </trkpt>
      <trkpt lat="47.33589" lon="-2.32289">
        <ele>20</ele>
        <time>2022-05-01T09:26:46.000Z</time>
      </trkpt>
      <trkpt lat="47.33594" lon="-2.32289">
        <ele>20.39999961853</ele>
        <time>2022-05-01T09:26:47.000Z</time>
      </trkpt>
      <trkpt lat="47.336" lon="-2.32288">
        <ele>20.799999237061</ele>
        <time>2022-05-01T09:26:48.000Z</time>
      </trkpt>
      <trkpt lat="47.33605" lon="-2.32288">
        <ele>21.200000762939</ele>
        <time>2022-05-01T09:26:49.000Z</time>
      </trkpt>
      <trkpt lat="47.33621" lon="-2.32285">
        <ele>21.200000762939</ele>
        <time>2022-05-01T09:26:52.000Z</time>
      </trkpt>
      <trkpt lat="47.33641" lon="-2.32281">
        <ele>21.200000762939</ele>
        <time>2022-05-01T09:26:56.000Z</time>
      </trkpt>
      <trkpt lat="47.33656" lon="-2.32275">
        <ele>21.200000762939</ele>
        <time>2022-05-01T09:26:59.000Z</time>
      </trkpt>
      <trkpt lat="47.33677" lon="-2.32264">
        <ele>21.200000762939</ele>
        <time>2022-05-01T09:27:03.000Z</time>
      </trkpt>
      <trkpt lat="47.33686" lon="-2.32257">
        <ele>21.200000762939</ele>
        <time>2022-05-01T09:27:05.000Z</time>
      </trkpt>
      <trkpt lat="47.33722" lon="-2.32234">
        <ele>21.200000762939</ele>
        <time>2022-05-01T09:27:12.000Z</time>
      </trkpt>
      <trkpt lat="47.33763" lon="-2.32214">
        <ele>21.200000762939</ele>
        <time>2022-05-01T09:27:19.000Z</time>
      </trkpt>
      <trkpt lat="47.33804" lon="-2.32202">
        <ele>21.200000762939</ele>
        <time>2022-05-01T09:27:26.000Z</time>
      </trkpt>
      <trkpt lat="47.33842" lon="-2.32199">
        <ele>21.200000762939</ele>
        <time>2022-05-01T09:27:32.000Z</time>
      </trkpt>
      <trkpt lat="47.33874" lon="-2.32196">
        <ele>20.799999237061</ele>
        <time>2022-05-01T09:27:37.000Z</time>
      </trkpt>
      <trkpt lat="47.33881" lon="-2.32196">
        <ele>20.39999961853</ele>
        <time>2022-05-01T09:27:38.000Z</time>
      </trkpt>
      <trkpt lat="47.33887" lon="-2.32196">
        <ele>20</ele>
        <time>2022-05-01T09:27:39.000Z</time>
      </trkpt>
      <trkpt lat="47.33894" lon="-2.32197">
        <ele>19.60000038147</ele>
        <time>2022-05-01T09:27:40.000Z</time>
      </trkpt>
      <trkpt lat="47.339" lon="-2.32197">
        <ele>19</ele>
        <time>2022-05-01T09:27:41.000Z</time>
      </trkpt>
      <trkpt lat="47.33926" lon="-2.32196">
        <ele>19</ele>
        <time>2022-05-01T09:27:45.000Z</time>
      </trkpt>
      <trkpt lat="47.33931" lon="-2.32196">
        <ele>19</ele>
        <time>2022-05-01T09:27:46.000Z</time>
      </trkpt>
      <trkpt lat="47.33948" lon="-2.32204">
        <ele>19</ele>
        <time>2022-05-01T09:27:49.000Z</time>
      </trkpt>
      <trkpt lat="47.33972" lon="-2.32214">
        <ele>19</ele>
        <time>2022-05-01T09:27:53.000Z</time>
      </trkpt>
      <trkpt lat="47.33978" lon="-2.32214">
        <ele>19</ele>
        <time>2022-05-01T09:27:54.000Z</time>
      </trkpt>
      <trkpt lat="47.34011" lon="-2.32215">
        <ele>19</ele>
        <time>2022-05-01T09:27:59.000Z</time>
      </trkpt>
      <trkpt lat="47.34053" lon="-2.32218">
        <ele>19</ele>
        <time>2022-05-01T09:28:06.000Z</time>
      </trkpt>
      <trkpt lat="47.34064" lon="-2.3222">
        <ele>19</ele>
        <time>2022-05-01T09:28:08.000Z</time>
      </trkpt>
      <trkpt lat="47.34074" lon="-2.32226">
        <ele>19</ele>
        <time>2022-05-01T09:28:10.000Z</time>
      </trkpt>
      <trkpt lat="47.34087" lon="-2.32249">
        <ele>19</ele>
        <time>2022-05-01T09:28:14.000Z</time>
      </trkpt>
      <trkpt lat="47.3409" lon="-2.32256">
        <ele>19</ele>
        <time>2022-05-01T09:28:15.000Z</time>
      </trkpt>
      <trkpt lat="47.34096" lon="-2.32282">
        <ele>19.60000038147</ele>
        <time>2022-05-01T09:28:19.000Z</time>
      </trkpt>
      <trkpt lat="47.34098" lon="-2.32288">
        <ele>20</ele>
        <time>2022-05-01T09:28:20.000Z</time>
      </trkpt>
      <trkpt lat="47.34099" lon="-2.32294">
        <ele>20.39999961853</ele>
        <time>2022-05-01T09:28:21.000Z</time>
      </trkpt>
      <trkpt lat="47.34101" lon="-2.32301">
        <ele>20.799999237061</ele>
        <time>2022-05-01T09:28:22.000Z</time>
      </trkpt>
      <trkpt lat="47.34103" lon="-2.32307">
        <ele>21.200000762939</ele>
        <time>2022-05-01T09:28:23.000Z</time>
      </trkpt>
      <trkpt lat="47.34109" lon="-2.32339">
        <ele>21.200000762939</ele>
        <time>2022-05-01T09:28:28.000Z</time>
      </trkpt>
      <trkpt lat="47.34113" lon="-2.32358">
        <ele>21.200000762939</ele>
        <time>2022-05-01T09:28:31.000Z</time>
      </trkpt>
      <trkpt lat="47.34115" lon="-2.32364">
        <ele>21.799999237061</ele>
        <time>2022-05-01T09:28:32.000Z</time>
      </trkpt>
      <trkpt lat="47.34116" lon="-2.3237">
        <ele>22.200000762939</ele>
        <time>2022-05-01T09:28:33.000Z</time>
      </trkpt>
      <trkpt lat="47.34118" lon="-2.32377">
        <ele>22.60000038147</ele>
        <time>2022-05-01T09:28:34.000Z</time>
      </trkpt>
      <trkpt lat="47.3412" lon="-2.32384">
        <ele>23</ele>
        <time>2022-05-01T09:28:35.000Z</time>
      </trkpt>
      <trkpt lat="47.34121" lon="-2.32391">
        <ele>23.39999961853</ele>
        <time>2022-05-01T09:28:36.000Z</time>
      </trkpt>
      <trkpt lat="47.3413" lon="-2.32427">
        <ele>23.39999961853</ele>
        <time>2022-05-01T09:28:41.000Z</time>
      </trkpt>
      <trkpt lat="47.34143" lon="-2.32473">
        <ele>23.39999961853</ele>
        <time>2022-05-01T09:28:47.000Z</time>
      </trkpt>
      <trkpt lat="47.34151" lon="-2.32518">
        <ele>23.39999961853</ele>
        <time>2022-05-01T09:28:53.000Z</time>
      </trkpt>
      <trkpt lat="47.34154" lon="-2.32568">
        <ele>23.39999961853</ele>
        <time>2022-05-01T09:29:00.000Z</time>
      </trkpt>
      <trkpt lat="47.34152" lon="-2.32586">
        <ele>23.39999961853</ele>
        <time>2022-05-01T09:29:03.000Z</time>
      </trkpt>
      <trkpt lat="47.34151" lon="-2.32592">
        <ele>23.39999961853</ele>
        <time>2022-05-01T09:29:04.000Z</time>
      </trkpt>
      <trkpt lat="47.34151" lon="-2.32599">
        <ele>23.39999961853</ele>
        <time>2022-05-01T09:29:05.000Z</time>
      </trkpt>
      <trkpt lat="47.34152" lon="-2.32627">
        <ele>23.39999961853</ele>
        <time>2022-05-01T09:29:09.000Z</time>
      </trkpt>
      <trkpt lat="47.34153" lon="-2.32634">
        <ele>23.39999961853</ele>
        <time>2022-05-01T09:29:10.000Z</time>
      </trkpt>
      <trkpt lat="47.34158" lon="-2.3267">
        <ele>23.39999961853</ele>
        <time>2022-05-01T09:29:15.000Z</time>
      </trkpt>
      <trkpt lat="47.34159" lon="-2.32684">
        <ele>23.39999961853</ele>
        <time>2022-05-01T09:29:17.000Z</time>
      </trkpt>
      <trkpt lat="47.3416" lon="-2.3273">
        <ele>23.39999961853</ele>
        <time>2022-05-01T09:29:24.000Z</time>
      </trkpt>
      <trkpt lat="47.34158" lon="-2.32739">
        <ele>23.39999961853</ele>
        <time>2022-05-01T09:29:26.000Z</time>
      </trkpt>
      <trkpt lat="47.34155" lon="-2.32747">
        <ele>23.39999961853</ele>
        <time>2022-05-01T09:29:28.000Z</time>
      </trkpt>
      <trkpt lat="47.34154" lon="-2.32754">
        <ele>23.39999961853</ele>
        <time>2022-05-01T09:29:30.000Z</time>
      </trkpt>
      <trkpt lat="47.34155" lon="-2.32766">
        <ele>23.39999961853</ele>
        <time>2022-05-01T09:29:33.000Z</time>
      </trkpt>
      <trkpt lat="47.34157" lon="-2.3278">
        <ele>23.39999961853</ele>
        <time>2022-05-01T09:29:37.000Z</time>
      </trkpt>
      <trkpt lat="47.3416" lon="-2.32787">
        <ele>23.39999961853</ele>
        <time>2022-05-01T09:29:39.000Z</time>
      </trkpt>
      <trkpt lat="47.34161" lon="-2.3279">
        <ele>23.39999961853</ele>
        <time>2022-05-01T09:29:40.000Z</time>
      </trkpt>
      <trkpt lat="47.3416" lon="-2.32795">
        <ele>23.39999961853</ele>
        <time>2022-05-01T09:29:42.000Z</time>
      </trkpt>
      <trkpt lat="47.34162" lon="-2.32803">
        <ele>23.39999961853</ele>
        <time>2022-05-01T09:29:45.000Z</time>
      </trkpt>
      <trkpt lat="47.34163" lon="-2.32805">
        <ele>23.39999961853</ele>
        <time>2022-05-01T09:29:46.000Z</time>
      </trkpt>
      <trkpt lat="47.3417" lon="-2.32825">
        <ele>23.39999961853</ele>
        <time>2022-05-01T09:29:52.000Z</time>
      </trkpt>
      <trkpt lat="47.34183" lon="-2.32841">
        <ele>23.39999961853</ele>
        <time>2022-05-01T09:29:57.000Z</time>
      </trkpt>
      <trkpt lat="47.34191" lon="-2.32853">
        <ele>23.39999961853</ele>
        <time>2022-05-01T09:30:03.000Z</time>
      </trkpt>
      <trkpt lat="47.34192" lon="-2.32856">
        <ele>23</ele>
        <time>2022-05-01T09:30:04.000Z</time>
      </trkpt>
      <trkpt lat="47.34194" lon="-2.32858">
        <ele>22.60000038147</ele>
        <time>2022-05-01T09:30:05.000Z</time>
      </trkpt>
      <trkpt lat="47.34195" lon="-2.32861">
        <ele>22.200000762939</ele>
        <time>2022-05-01T09:30:06.000Z</time>
      </trkpt>
      <trkpt lat="47.34196" lon="-2.32863">
        <ele>21.60000038147</ele>
        <time>2022-05-01T09:30:07.000Z</time>
      </trkpt>
      <trkpt lat="47.34197" lon="-2.32866">
        <ele>21.200000762939</ele>
        <time>2022-05-01T09:30:08.000Z</time>
      </trkpt>
      <trkpt lat="47.34199" lon="-2.32869">
        <ele>21.200000762939</ele>
        <time>2022-05-01T09:30:09.000Z</time>
      </trkpt>
      <trkpt lat="47.34213" lon="-2.32894">
        <ele>21.200000762939</ele>
        <time>2022-05-01T09:30:16.000Z</time>
      </trkpt>
      <trkpt lat="47.34221" lon="-2.32906">
        <ele>20.799999237061</ele>
        <time>2022-05-01T09:30:20.000Z</time>
      </trkpt>
      <trkpt lat="47.34223" lon="-2.32909">
        <ele>20.39999961853</ele>
        <time>2022-05-01T09:30:21.000Z</time>
      </trkpt>
      <trkpt lat="47.34224" lon="-2.32912">
        <ele>20</ele>
        <time>2022-05-01T09:30:22.000Z</time>
      </trkpt>
      <trkpt lat="47.34226" lon="-2.32915">
        <ele>19.60000038147</ele>
        <time>2022-05-01T09:30:23.000Z</time>
      </trkpt>
      <trkpt lat="47.34228" lon="-2.32917">
        <ele>19.200000762939</ele>
        <time>2022-05-01T09:30:24.000Z</time>
      </trkpt>
      <trkpt lat="47.34236" lon="-2.3293">
        <ele>19.200000762939</ele>
        <time>2022-05-01T09:30:29.000Z</time>
      </trkpt>
      <trkpt lat="47.34239" lon="-2.32932">
        <ele>18.799999237061</ele>
        <time>2022-05-01T09:30:31.000Z</time>
      </trkpt>
      <trkpt lat="47.34241" lon="-2.32934">
        <ele>18.39999961853</ele>
        <time>2022-05-01T09:30:32.000Z</time>
      </trkpt>
      <trkpt lat="47.34242" lon="-2.32935">
        <ele>17.799999237061</ele>
        <time>2022-05-01T09:30:33.000Z</time>
      </trkpt>
      <trkpt lat="47.34244" lon="-2.32938">
        <ele>17.39999961853</ele>
        <time>2022-05-01T09:30:34.000Z</time>
      </trkpt>
      <trkpt lat="47.34245" lon="-2.32941">
        <ele>17</ele>
        <time>2022-05-01T09:30:35.000Z</time>
      </trkpt>
      <trkpt lat="47.34248" lon="-2.32944">
        <ele>17</ele>
        <time>2022-05-01T09:30:37.000Z</time>
      </trkpt>
      <trkpt lat="47.3425" lon="-2.32949">
        <ele>17</ele>
        <time>2022-05-01T09:30:40.000Z</time>
      </trkpt>
      <trkpt lat="47.3425" lon="-2.32949">
        <ele>17</ele>
        <time>2022-05-01T09:30:45.000Z</time>
      </trkpt>
      <trkpt lat="47.34255" lon="-2.32958">
        <ele>17</ele>
        <time>2022-05-01T09:30:48.000Z</time>
      </trkpt>
      <trkpt lat="47.34265" lon="-2.32983">
        <ele>17</ele>
        <time>2022-05-01T09:30:53.000Z</time>
      </trkpt>
      <trkpt lat="47.34265" lon="-2.32992">
        <ele>17</ele>
        <time>2022-05-01T09:30:56.000Z</time>
      </trkpt>
      <trkpt lat="47.34265" lon="-2.32993">
        <ele>17</ele>
        <time>2022-05-01T09:30:57.000Z</time>
      </trkpt>
      <trkpt lat="47.34268" lon="-2.33004">
        <ele>17</ele>
        <time>2022-05-01T09:31:22.000Z</time>
      </trkpt>
      <trkpt lat="47.34268" lon="-2.33014">
        <ele>17</ele>
        <time>2022-05-01T09:31:25.000Z</time>
      </trkpt>
      <trkpt lat="47.34272" lon="-2.33039">
        <ele>17</ele>
        <time>2022-05-01T09:31:32.000Z</time>
      </trkpt>
      <trkpt lat="47.34271" lon="-2.3305">
        <ele>17</ele>
        <time>2022-05-01T09:31:36.000Z</time>
      </trkpt>
      <trkpt lat="47.34269" lon="-2.33058">
        <ele>17</ele>
        <time>2022-05-01T09:31:40.000Z</time>
      </trkpt>
      <trkpt lat="47.34265" lon="-2.33063">
        <ele>17</ele>
        <time>2022-05-01T09:31:45.000Z</time>
      </trkpt>
      <trkpt lat="47.34263" lon="-2.33065">
        <ele>17</ele>
        <time>2022-05-01T09:31:50.000Z</time>
      </trkpt>
      <trkpt lat="47.34258" lon="-2.33075">
        <ele>17</ele>
        <time>2022-05-01T09:31:53.000Z</time>
      </trkpt>
      <trkpt lat="47.34252" lon="-2.33089">
        <ele>17</ele>
        <time>2022-05-01T09:31:57.000Z</time>
      </trkpt>
      <trkpt lat="47.34244" lon="-2.33114">
        <ele>17</ele>
        <time>2022-05-01T09:32:02.000Z</time>
      </trkpt>
      <trkpt lat="47.34237" lon="-2.33143">
        <ele>17</ele>
        <time>2022-05-01T09:32:08.000Z</time>
      </trkpt>
      <trkpt lat="47.34226" lon="-2.33175">
        <ele>17</ele>
        <time>2022-05-01T09:32:15.000Z</time>
      </trkpt>
      <trkpt lat="47.34217" lon="-2.33217">
        <ele>17</ele>
        <time>2022-05-01T09:32:22.000Z</time>
      </trkpt>
      <trkpt lat="47.34206" lon="-2.33254">
        <ele>17</ele>
        <time>2022-05-01T09:32:28.000Z</time>
      </trkpt>
      <trkpt lat="47.34197" lon="-2.33282">
        <ele>17.39999961853</ele>
        <time>2022-05-01T09:32:32.000Z</time>
      </trkpt>
      <trkpt lat="47.34195" lon="-2.33289">
        <ele>17.799999237061</ele>
        <time>2022-05-01T09:32:33.000Z</time>
      </trkpt>
      <trkpt lat="47.34193" lon="-2.33295">
        <ele>18.200000762939</ele>
        <time>2022-05-01T09:32:34.000Z</time>
      </trkpt>
      <trkpt lat="47.34191" lon="-2.33302">
        <ele>18.60000038147</ele>
        <time>2022-05-01T09:32:35.000Z</time>
      </trkpt>
      <trkpt lat="47.34189" lon="-2.33308">
        <ele>19</ele>
        <time>2022-05-01T09:32:36.000Z</time>
      </trkpt>
      <trkpt lat="47.34178" lon="-2.33339">
        <ele>19</ele>
        <time>2022-05-01T09:32:41.000Z</time>
      </trkpt>
      <trkpt lat="47.34162" lon="-2.33394">
        <ele>19</ele>
        <time>2022-05-01T09:32:49.000Z</time>
      </trkpt>
      <trkpt lat="47.34157" lon="-2.33406">
        <ele>19</ele>
        <time>2022-05-01T09:32:51.000Z</time>
      </trkpt>
      <trkpt lat="47.34146" lon="-2.33422">
        <ele>19</ele>
        <time>2022-05-01T09:32:54.000Z</time>
      </trkpt>
      <trkpt lat="47.34139" lon="-2.33432">
        <ele>19</ele>
        <time>2022-05-01T09:32:56.000Z</time>
      </trkpt>
      <trkpt lat="47.34129" lon="-2.33447">
        <ele>19</ele>
        <time>2022-05-01T09:32:59.000Z</time>
      </trkpt>
      <trkpt lat="47.34126" lon="-2.33451">
        <ele>19</ele>
        <time>2022-05-01T09:33:00.000Z</time>
      </trkpt>
      <trkpt lat="47.34119" lon="-2.33462">
        <ele>19.39999961853</ele>
        <time>2022-05-01T09:33:02.000Z</time>
      </trkpt>
      <trkpt lat="47.34116" lon="-2.33467">
        <ele>19.799999237061</ele>
        <time>2022-05-01T09:33:03.000Z</time>
      </trkpt>
      <trkpt lat="47.34113" lon="-2.33471">
        <ele>20.200000762939</ele>
        <time>2022-05-01T09:33:04.000Z</time>
      </trkpt>
      <trkpt lat="47.3411" lon="-2.33477">
        <ele>20.799999237061</ele>
        <time>2022-05-01T09:33:05.000Z</time>
      </trkpt>
      <trkpt lat="47.34106" lon="-2.33482">
        <ele>21.200000762939</ele>
        <time>2022-05-01T09:33:06.000Z</time>
      </trkpt>
      <trkpt lat="47.34093" lon="-2.33503">
        <ele>21.200000762939</ele>
        <time>2022-05-01T09:33:10.000Z</time>
      </trkpt>
      <trkpt lat="47.34087" lon="-2.33513">
        <ele>21.200000762939</ele>
        <time>2022-05-01T09:33:12.000Z</time>
      </trkpt>
      <trkpt lat="47.34075" lon="-2.33534">
        <ele>21.200000762939</ele>
        <time>2022-05-01T09:33:16.000Z</time>
      </trkpt>
      <trkpt lat="47.3407" lon="-2.33544">
        <ele>21.200000762939</ele>
        <time>2022-05-01T09:33:18.000Z</time>
      </trkpt>
      <trkpt lat="47.34052" lon="-2.33577">
        <ele>21.200000762939</ele>
        <time>2022-05-01T09:33:24.000Z</time>
      </trkpt>
      <trkpt lat="47.34034" lon="-2.33609">
        <ele>21.200000762939</ele>
        <time>2022-05-01T09:33:30.000Z</time>
      </trkpt>
      <trkpt lat="47.34028" lon="-2.3362">
        <ele>21.60000038147</ele>
        <time>2022-05-01T09:33:32.000Z</time>
      </trkpt>
      <trkpt lat="47.34026" lon="-2.33625">
        <ele>22</ele>
        <time>2022-05-01T09:33:33.000Z</time>
      </trkpt>
      <trkpt lat="47.34022" lon="-2.3363">
        <ele>22.39999961853</ele>
        <time>2022-05-01T09:33:34.000Z</time>
      </trkpt>
      <trkpt lat="47.34019" lon="-2.33635">
        <ele>22.799999237061</ele>
        <time>2022-05-01T09:33:35.000Z</time>
      </trkpt>
      <trkpt lat="47.34016" lon="-2.33641">
        <ele>23.200000762939</ele>
        <time>2022-05-01T09:33:36.000Z</time>
      </trkpt>
      <trkpt lat="47.3401" lon="-2.33652">
        <ele>23.200000762939</ele>
        <time>2022-05-01T09:33:38.000Z</time>
      </trkpt>
      <trkpt lat="47.33997" lon="-2.33674">
        <ele>23.200000762939</ele>
        <time>2022-05-01T09:33:42.000Z</time>
      </trkpt>
      <trkpt lat="47.33991" lon="-2.33684">
        <ele>23.200000762939</ele>
        <time>2022-05-01T09:33:44.000Z</time>
      </trkpt>
      <trkpt lat="47.33969" lon="-2.33712">
        <ele>23.200000762939</ele>
        <time>2022-05-01T09:33:50.000Z</time>
      </trkpt>
      <trkpt lat="47.33965" lon="-2.33719">
        <ele>23.200000762939</ele>
        <time>2022-05-01T09:33:51.000Z</time>
      </trkpt>
      <trkpt lat="47.33934" lon="-2.3377">
        <ele>23.200000762939</ele>
        <time>2022-05-01T09:33:59.000Z</time>
      </trkpt>
      <trkpt lat="47.33931" lon="-2.33776">
        <ele>23.200000762939</ele>
        <time>2022-05-01T09:34:00.000Z</time>
      </trkpt>
      <trkpt lat="47.33917" lon="-2.33798">
        <ele>23.200000762939</ele>
        <time>2022-05-01T09:34:04.000Z</time>
      </trkpt>
      <trkpt lat="47.33914" lon="-2.33803">
        <ele>23.60000038147</ele>
        <time>2022-05-01T09:34:05.000Z</time>
      </trkpt>
      <trkpt lat="47.3391" lon="-2.33808">
        <ele>24</ele>
        <time>2022-05-01T09:34:06.000Z</time>
      </trkpt>
      <trkpt lat="47.33907" lon="-2.33814">
        <ele>24.39999961853</ele>
        <time>2022-05-01T09:34:07.000Z</time>
      </trkpt>
      <trkpt lat="47.33903" lon="-2.3382">
        <ele>24.799999237061</ele>
        <time>2022-05-01T09:34:08.000Z</time>
      </trkpt>
      <trkpt lat="47.339" lon="-2.33826">
        <ele>25.200000762939</ele>
        <time>2022-05-01T09:34:09.000Z</time>
      </trkpt>
      <trkpt lat="47.33897" lon="-2.33832">
        <ele>25.200000762939</ele>
        <time>2022-05-01T09:34:10.000Z</time>
      </trkpt>
      <trkpt lat="47.33885" lon="-2.33857">
        <ele>25.200000762939</ele>
        <time>2022-05-01T09:34:15.000Z</time>
      </trkpt>
      <trkpt lat="47.33881" lon="-2.33867">
        <ele>25.200000762939</ele>
        <time>2022-05-01T09:34:20.000Z</time>
      </trkpt>
      <trkpt lat="47.33872" lon="-2.33879">
        <ele>25.200000762939</ele>
        <time>2022-05-01T09:34:24.000Z</time>
      </trkpt>
      <trkpt lat="47.3385" lon="-2.33897">
        <ele>25.200000762939</ele>
        <time>2022-05-01T09:34:30.000Z</time>
      </trkpt>
      <trkpt lat="47.3383" lon="-2.33914">
        <ele>25.60000038147</ele>
        <time>2022-05-01T09:34:35.000Z</time>
      </trkpt>
      <trkpt lat="47.33826" lon="-2.33918">
        <ele>26.60000038147</ele>
        <time>2022-05-01T09:34:36.000Z</time>
      </trkpt>
      <trkpt lat="47.33822" lon="-2.33921">
        <ele>27</ele>
        <time>2022-05-01T09:34:37.000Z</time>
      </trkpt>
      <trkpt lat="47.33817" lon="-2.33924">
        <ele>27.39999961853</ele>
        <time>2022-05-01T09:34:38.000Z</time>
      </trkpt>
      <trkpt lat="47.33786" lon="-2.33948">
        <ele>27.39999961853</ele>
        <time>2022-05-01T09:34:45.000Z</time>
      </trkpt>
      <trkpt lat="47.33763" lon="-2.33966">
        <ele>27.39999961853</ele>
        <time>2022-05-01T09:34:50.000Z</time>
      </trkpt>
      <trkpt lat="47.33726" lon="-2.33996">
        <ele>27.39999961853</ele>
        <time>2022-05-01T09:34:58.000Z</time>
      </trkpt>
      <trkpt lat="47.33705" lon="-2.34013">
        <ele>27.39999961853</ele>
        <time>2022-05-01T09:35:03.000Z</time>
      </trkpt>
      <trkpt lat="47.33667" lon="-2.34048">
        <ele>27.39999961853</ele>
        <time>2022-05-01T09:35:12.000Z</time>
      </trkpt>
      <trkpt lat="47.33662" lon="-2.34052">
        <ele>27.799999237061</ele>
        <time>2022-05-01T09:35:13.000Z</time>
      </trkpt>
      <trkpt lat="47.33657" lon="-2.34056">
        <ele>28.200000762939</ele>
        <time>2022-05-01T09:35:14.000Z</time>
      </trkpt>
      <trkpt lat="47.33652" lon="-2.3406">
        <ele>28.60000038147</ele>
        <time>2022-05-01T09:35:15.000Z</time>
      </trkpt>
      <trkpt lat="47.33648" lon="-2.34064">
        <ele>29</ele>
        <time>2022-05-01T09:35:16.000Z</time>
      </trkpt>
      <trkpt lat="47.33643" lon="-2.34069">
        <ele>29.39999961853</ele>
        <time>2022-05-01T09:35:17.000Z</time>
      </trkpt>
      <trkpt lat="47.33635" lon="-2.34078">
        <ele>29.39999961853</ele>
        <time>2022-05-01T09:35:19.000Z</time>
      </trkpt>
      <trkpt lat="47.3363" lon="-2.34081">
        <ele>29.39999961853</ele>
        <time>2022-05-01T09:35:20.000Z</time>
      </trkpt>
      <trkpt lat="47.33611" lon="-2.34102">
        <ele>29.39999961853</ele>
        <time>2022-05-01T09:35:25.000Z</time>
      </trkpt>
      <trkpt lat="47.33606" lon="-2.34105">
        <ele>29.39999961853</ele>
        <time>2022-05-01T09:35:26.000Z</time>
      </trkpt>
      <trkpt lat="47.33583" lon="-2.34123">
        <ele>29.39999961853</ele>
        <time>2022-05-01T09:35:31.000Z</time>
      </trkpt>
      <trkpt lat="47.33549" lon="-2.34148">
        <ele>29.39999961853</ele>
        <time>2022-05-01T09:35:38.000Z</time>
      </trkpt>
      <trkpt lat="47.33508" lon="-2.34177">
        <ele>29.39999961853</ele>
        <time>2022-05-01T09:35:46.000Z</time>
      </trkpt>
      <trkpt lat="47.3348" lon="-2.34202">
        <ele>29.799999237061</ele>
        <time>2022-05-01T09:35:52.000Z</time>
      </trkpt>
      <trkpt lat="47.33476" lon="-2.34206">
        <ele>30.200000762939</ele>
        <time>2022-05-01T09:35:53.000Z</time>
      </trkpt>
      <trkpt lat="47.33471" lon="-2.34211">
        <ele>30.60000038147</ele>
        <time>2022-05-01T09:35:54.000Z</time>
      </trkpt>
      <trkpt lat="47.33467" lon="-2.34216">
        <ele>31</ele>
        <time>2022-05-01T09:35:55.000Z</time>
      </trkpt>
      <trkpt lat="47.33463" lon="-2.34221">
        <ele>31.39999961853</ele>
        <time>2022-05-01T09:35:56.000Z</time>
      </trkpt>
      <trkpt lat="47.33452" lon="-2.34236">
        <ele>31.39999961853</ele>
        <time>2022-05-01T09:35:59.000Z</time>
      </trkpt>
      <trkpt lat="47.33433" lon="-2.3427">
        <ele>31.39999961853</ele>
        <time>2022-05-01T09:36:05.000Z</time>
      </trkpt>
      <trkpt lat="47.33431" lon="-2.34276">
        <ele>31.39999961853</ele>
        <time>2022-05-01T09:36:06.000Z</time>
      </trkpt>
      <trkpt lat="47.33411" lon="-2.34331">
        <ele>31.39999961853</ele>
        <time>2022-05-01T09:36:14.000Z</time>
      </trkpt>
      <trkpt lat="47.33391" lon="-2.34388">
        <ele>31.39999961853</ele>
        <time>2022-05-01T09:36:22.000Z</time>
      </trkpt>
      <trkpt lat="47.33376" lon="-2.34433">
        <ele>31.39999961853</ele>
        <time>2022-05-01T09:36:29.000Z</time>
      </trkpt>
      <trkpt lat="47.33364" lon="-2.34469">
        <ele>31.39999961853</ele>
        <time>2022-05-01T09:36:34.000Z</time>
      </trkpt>
      <trkpt lat="47.3336" lon="-2.34482">
        <ele>31.39999961853</ele>
        <time>2022-05-01T09:36:36.000Z</time>
      </trkpt>
      <trkpt lat="47.33346" lon="-2.34507">
        <ele>31.39999961853</ele>
        <time>2022-05-01T09:36:41.000Z</time>
      </trkpt>
      <trkpt lat="47.33343" lon="-2.34513">
        <ele>31.39999961853</ele>
        <time>2022-05-01T09:36:42.000Z</time>
      </trkpt>
      <trkpt lat="47.33337" lon="-2.34536">
        <ele>31.39999961853</ele>
        <time>2022-05-01T09:36:46.000Z</time>
      </trkpt>
      <trkpt lat="47.33332" lon="-2.34557">
        <ele>31.39999961853</ele>
        <time>2022-05-01T09:36:51.000Z</time>
      </trkpt>
      <trkpt lat="47.33331" lon="-2.34559">
        <ele>31.39999961853</ele>
        <time>2022-05-01T09:36:52.000Z</time>
      </trkpt>
      <trkpt lat="47.33328" lon="-2.34567">
        <ele>31.39999961853</ele>
        <time>2022-05-01T09:36:55.000Z</time>
      </trkpt>
      <trkpt lat="47.33324" lon="-2.34586">
        <ele>31.39999961853</ele>
        <time>2022-05-01T09:37:01.000Z</time>
      </trkpt>
      <trkpt lat="47.33315" lon="-2.34612">
        <ele>31.39999961853</ele>
        <time>2022-05-01T09:37:07.000Z</time>
      </trkpt>
      <trkpt lat="47.33305" lon="-2.34637">
        <ele>31.39999961853</ele>
        <time>2022-05-01T09:37:13.000Z</time>
      </trkpt>
      <trkpt lat="47.33297" lon="-2.34652">
        <ele>31.39999961853</ele>
        <time>2022-05-01T09:37:18.000Z</time>
      </trkpt>
      <trkpt lat="47.33296" lon="-2.34656">
        <ele>31.39999961853</ele>
        <time>2022-05-01T09:37:19.000Z</time>
      </trkpt>
      <trkpt lat="47.33291" lon="-2.34673">
        <ele>31.39999961853</ele>
        <time>2022-05-01T09:37:24.000Z</time>
      </trkpt>
      <trkpt lat="47.33283" lon="-2.34702">
        <ele>31.39999961853</ele>
        <time>2022-05-01T09:37:29.000Z</time>
      </trkpt>
      <trkpt lat="47.33266" lon="-2.34752">
        <ele>31.39999961853</ele>
        <time>2022-05-01T09:37:37.000Z</time>
      </trkpt>
      <trkpt lat="47.33254" lon="-2.34781">
        <ele>31.39999961853</ele>
        <time>2022-05-01T09:37:43.000Z</time>
      </trkpt>
      <trkpt lat="47.33245" lon="-2.34809">
        <ele>31.39999961853</ele>
        <time>2022-05-01T09:37:48.000Z</time>
      </trkpt>
      <trkpt lat="47.33233" lon="-2.34837">
        <ele>31.799999237061</ele>
        <time>2022-05-01T09:37:53.000Z</time>
      </trkpt>
      <trkpt lat="47.33231" lon="-2.34842">
        <ele>32.200000762939</ele>
        <time>2022-05-01T09:37:54.000Z</time>
      </trkpt>
      <trkpt lat="47.33229" lon="-2.34848">
        <ele>32.599998474121</ele>
        <time>2022-05-01T09:37:55.000Z</time>
      </trkpt>
      <trkpt lat="47.33226" lon="-2.34854">
        <ele>33</ele>
        <time>2022-05-01T09:37:56.000Z</time>
      </trkpt>
      <trkpt lat="47.33224" lon="-2.34859">
        <ele>33.400001525879</ele>
        <time>2022-05-01T09:37:57.000Z</time>
      </trkpt>
      <trkpt lat="47.3322" lon="-2.34869">
        <ele>33.400001525879</ele>
        <time>2022-05-01T09:37:59.000Z</time>
      </trkpt>
      <trkpt lat="47.33204" lon="-2.34899">
        <ele>33.400001525879</ele>
        <time>2022-05-01T09:38:05.000Z</time>
      </trkpt>
      <trkpt lat="47.3319" lon="-2.3493">
        <ele>33.400001525879</ele>
        <time>2022-05-01T09:38:11.000Z</time>
      </trkpt>
      <trkpt lat="47.33177" lon="-2.34961">
        <ele>33.799999237061</ele>
        <time>2022-05-01T09:38:16.000Z</time>
      </trkpt>
      <trkpt lat="47.33174" lon="-2.34966">
        <ele>34.200000762939</ele>
        <time>2022-05-01T09:38:17.000Z</time>
      </trkpt>
      <trkpt lat="47.33171" lon="-2.34972">
        <ele>35</ele>
        <time>2022-05-01T09:38:18.000Z</time>
      </trkpt>
      <trkpt lat="47.33167" lon="-2.34978">
        <ele>35.400001525879</ele>
        <time>2022-05-01T09:38:19.000Z</time>
      </trkpt>
      <trkpt lat="47.33157" lon="-2.34995">
        <ele>35.400001525879</ele>
        <time>2022-05-01T09:38:22.000Z</time>
      </trkpt>
      <trkpt lat="47.33138" lon="-2.35027">
        <ele>35.400001525879</ele>
        <time>2022-05-01T09:38:28.000Z</time>
      </trkpt>
      <trkpt lat="47.33128" lon="-2.35044">
        <ele>35.400001525879</ele>
        <time>2022-05-01T09:38:32.000Z</time>
      </trkpt>
      <trkpt lat="47.3312" lon="-2.35059">
        <ele>35.400001525879</ele>
        <time>2022-05-01T09:38:36.000Z</time>
      </trkpt>
      <trkpt lat="47.33115" lon="-2.35066">
        <ele>35.400001525879</ele>
        <time>2022-05-01T09:38:38.000Z</time>
      </trkpt>
      <trkpt lat="47.33098" lon="-2.35088">
        <ele>35.400001525879</ele>
        <time>2022-05-01T09:38:43.000Z</time>
      </trkpt>
      <trkpt lat="47.33089" lon="-2.35099">
        <ele>35.400001525879</ele>
        <time>2022-05-01T09:38:45.000Z</time>
      </trkpt>
      <trkpt lat="47.33083" lon="-2.35108">
        <ele>35.799999237061</ele>
        <time>2022-05-01T09:38:47.000Z</time>
      </trkpt>
      <trkpt lat="47.3308" lon="-2.35113">
        <ele>36.200000762939</ele>
        <time>2022-05-01T09:38:48.000Z</time>
      </trkpt>
      <trkpt lat="47.33078" lon="-2.35117">
        <ele>36.599998474121</ele>
        <time>2022-05-01T09:38:49.000Z</time>
      </trkpt>
      <trkpt lat="47.33075" lon="-2.35121">
        <ele>37.200000762939</ele>
        <time>2022-05-01T09:38:50.000Z</time>
      </trkpt>
      <trkpt lat="47.33072" lon="-2.35125">
        <ele>37.599998474121</ele>
        <time>2022-05-01T09:38:51.000Z</time>
      </trkpt>
      <trkpt lat="47.33066" lon="-2.35135">
        <ele>37.599998474121</ele>
        <time>2022-05-01T09:38:53.000Z</time>
      </trkpt>
      <trkpt lat="47.33062" lon="-2.35139">
        <ele>37.599998474121</ele>
        <time>2022-05-01T09:38:54.000Z</time>
      </trkpt>
      <trkpt lat="47.33052" lon="-2.35151">
        <ele>37.599998474121</ele>
        <time>2022-05-01T09:38:57.000Z</time>
      </trkpt>
      <trkpt lat="47.3304" lon="-2.3516">
        <ele>37.599998474121</ele>
        <time>2022-05-01T09:39:01.000Z</time>
      </trkpt>
      <trkpt lat="47.33031" lon="-2.35161">
        <ele>37.599998474121</ele>
        <time>2022-05-01T09:39:05.000Z</time>
      </trkpt>
      <trkpt lat="47.33025" lon="-2.35149">
        <ele>37.599998474121</ele>
        <time>2022-05-01T09:39:09.000Z</time>
      </trkpt>
      <trkpt lat="47.33025" lon="-2.35126">
        <ele>37.599998474121</ele>
        <time>2022-05-01T09:39:14.000Z</time>
      </trkpt>
      <trkpt lat="47.33024" lon="-2.351">
        <ele>37.599998474121</ele>
        <time>2022-05-01T09:39:19.000Z</time>
      </trkpt>
      <trkpt lat="47.3302" lon="-2.35073">
        <ele>37.599998474121</ele>
        <time>2022-05-01T09:39:25.000Z</time>
      </trkpt>
      <trkpt lat="47.33015" lon="-2.35046">
        <ele>37.599998474121</ele>
        <time>2022-05-01T09:39:30.000Z</time>
      </trkpt>
      <trkpt lat="47.33009" lon="-2.35019">
        <ele>37.599998474121</ele>
        <time>2022-05-01T09:39:35.000Z</time>
      </trkpt>
      <trkpt lat="47.33008" lon="-2.35011">
        <ele>37.200000762939</ele>
        <time>2022-05-01T09:39:37.000Z</time>
      </trkpt>
      <trkpt lat="47.33007" lon="-2.35006">
        <ele>36.799999237061</ele>
        <time>2022-05-01T09:39:38.000Z</time>
      </trkpt>
      <trkpt lat="47.33004" lon="-2.34997">
        <ele>36.400001525879</ele>
        <time>2022-05-01T09:39:39.000Z</time>
      </trkpt>
      <trkpt lat="47.33002" lon="-2.3499">
        <ele>35.799999237061</ele>
        <time>2022-05-01T09:39:40.000Z</time>
      </trkpt>
      <trkpt lat="47.33" lon="-2.34984">
        <ele>35.400001525879</ele>
        <time>2022-05-01T09:39:41.000Z</time>
      </trkpt>
      <trkpt lat="47.32988" lon="-2.34944">
        <ele>35.400001525879</ele>
        <time>2022-05-01T09:39:46.000Z</time>
      </trkpt>
      <trkpt lat="47.32931" lon="-2.34862">
        <ele>35.400001525879</ele>
        <time>2022-05-01T09:39:52.000Z</time>
      </trkpt>
      <trkpt lat="47.32932" lon="-2.34858">
        <ele>35.400001525879</ele>
        <time>2022-05-01T09:39:53.000Z</time>
      </trkpt>
      <trkpt lat="47.32925" lon="-2.3483">
        <ele>35.400001525879</ele>
        <time>2022-05-01T09:39:59.000Z</time>
      </trkpt>
      <trkpt lat="47.32911" lon="-2.34791">
        <ele>35.400001525879</ele>
        <time>2022-05-01T09:40:06.000Z</time>
      </trkpt>
      <trkpt lat="47.32903" lon="-2.34784">
        <ele>35.400001525879</ele>
        <time>2022-05-01T09:40:08.000Z</time>
      </trkpt>
      <trkpt lat="47.32897" lon="-2.34784">
        <ele>35.400001525879</ele>
        <time>2022-05-01T09:40:10.000Z</time>
      </trkpt>
      <trkpt lat="47.32887" lon="-2.34789">
        <ele>35.400001525879</ele>
        <time>2022-05-01T09:40:12.000Z</time>
      </trkpt>
      <trkpt lat="47.32882" lon="-2.34792">
        <ele>35.400001525879</ele>
        <time>2022-05-01T09:40:13.000Z</time>
      </trkpt>
      <trkpt lat="47.32851" lon="-2.34816">
        <ele>35.400001525879</ele>
        <time>2022-05-01T09:40:20.000Z</time>
      </trkpt>
      <trkpt lat="47.32817" lon="-2.34844">
        <ele>35.400001525879</ele>
        <time>2022-05-01T09:40:28.000Z</time>
      </trkpt>
      <trkpt lat="47.32781" lon="-2.34869">
        <ele>35.400001525879</ele>
        <time>2022-05-01T09:40:36.000Z</time>
      </trkpt>
      <trkpt lat="47.32749" lon="-2.34892">
        <ele>35.400001525879</ele>
        <time>2022-05-01T09:40:43.000Z</time>
      </trkpt>
      <trkpt lat="47.32718" lon="-2.34913">
        <ele>35.400001525879</ele>
        <time>2022-05-01T09:40:50.000Z</time>
      </trkpt>
      <trkpt lat="47.3269" lon="-2.34934">
        <ele>35.400001525879</ele>
        <time>2022-05-01T09:40:57.000Z</time>
      </trkpt>
      <trkpt lat="47.32665" lon="-2.34957">
        <ele>35.400001525879</ele>
        <time>2022-05-01T09:41:04.000Z</time>
      </trkpt>
      <trkpt lat="47.3266" lon="-2.3496">
        <ele>35.400001525879</ele>
        <time>2022-05-01T09:41:05.000Z</time>
      </trkpt>
      <trkpt lat="47.32643" lon="-2.34972">
        <ele>35.400001525879</ele>
        <time>2022-05-01T09:41:09.000Z</time>
      </trkpt>
      <trkpt lat="47.3263" lon="-2.34979">
        <ele>36</ele>
        <time>2022-05-01T09:41:12.000Z</time>
      </trkpt>
      <trkpt lat="47.32626" lon="-2.34981">
        <ele>36.400001525879</ele>
        <time>2022-05-01T09:41:13.000Z</time>
      </trkpt>
      <trkpt lat="47.32622" lon="-2.34983">
        <ele>36.799999237061</ele>
        <time>2022-05-01T09:41:14.000Z</time>
      </trkpt>
      <trkpt lat="47.32618" lon="-2.34985">
        <ele>37.200000762939</ele>
        <time>2022-05-01T09:41:15.000Z</time>
      </trkpt>
      <trkpt lat="47.32614" lon="-2.34987">
        <ele>37.599998474121</ele>
        <time>2022-05-01T09:41:16.000Z</time>
      </trkpt>
      <trkpt lat="47.32585" lon="-2.35004">
        <ele>37.599998474121</ele>
        <time>2022-05-01T09:41:24.000Z</time>
      </trkpt>
      <trkpt lat="47.3256" lon="-2.35014">
        <ele>37.599998474121</ele>
        <time>2022-05-01T09:41:31.000Z</time>
      </trkpt>
      <trkpt lat="47.32537" lon="-2.35019">
        <ele>37.599998474121</ele>
        <time>2022-05-01T09:41:37.000Z</time>
      </trkpt>
      <trkpt lat="47.32526" lon="-2.3502">
        <ele>38</ele>
        <time>2022-05-01T09:41:40.000Z</time>
      </trkpt>
      <trkpt lat="47.32523" lon="-2.35021">
        <ele>38.400001525879</ele>
        <time>2022-05-01T09:41:41.000Z</time>
      </trkpt>
      <trkpt lat="47.3252" lon="-2.35022">
        <ele>38.799999237061</ele>
        <time>2022-05-01T09:41:42.000Z</time>
      </trkpt>
      <trkpt lat="47.32516" lon="-2.35023">
        <ele>39.200000762939</ele>
        <time>2022-05-01T09:41:43.000Z</time>
      </trkpt>
      <trkpt lat="47.32513" lon="-2.35024">
        <ele>39.599998474121</ele>
        <time>2022-05-01T09:41:44.000Z</time>
      </trkpt>
      <trkpt lat="47.32489" lon="-2.3503">
        <ele>39.599998474121</ele>
        <time>2022-05-01T09:41:49.000Z</time>
      </trkpt>
      <trkpt lat="47.32475" lon="-2.35034">
        <ele>39.599998474121</ele>
        <time>2022-05-01T09:41:52.000Z</time>
      </trkpt>
      <trkpt lat="47.32462" lon="-2.35041">
        <ele>39.599998474121</ele>
        <time>2022-05-01T09:41:55.000Z</time>
      </trkpt>
      <trkpt lat="47.32453" lon="-2.35044">
        <ele>39.599998474121</ele>
        <time>2022-05-01T09:41:57.000Z</time>
      </trkpt>
      <trkpt lat="47.32432" lon="-2.35049">
        <ele>39.599998474121</ele>
        <time>2022-05-01T09:42:01.000Z</time>
      </trkpt>
      <trkpt lat="47.32422" lon="-2.35052">
        <ele>40</ele>
        <time>2022-05-01T09:42:03.000Z</time>
      </trkpt>
      <trkpt lat="47.32416" lon="-2.35052">
        <ele>40.599998474121</ele>
        <time>2022-05-01T09:42:04.000Z</time>
      </trkpt>
      <trkpt lat="47.32411" lon="-2.35052">
        <ele>41</ele>
        <time>2022-05-01T09:42:05.000Z</time>
      </trkpt>
      <trkpt lat="47.32405" lon="-2.35052">
        <ele>41.400001525879</ele>
        <time>2022-05-01T09:42:06.000Z</time>
      </trkpt>
      <trkpt lat="47.32398" lon="-2.35052">
        <ele>41.799999237061</ele>
        <time>2022-05-01T09:42:07.000Z</time>
      </trkpt>
      <trkpt lat="47.32392" lon="-2.35052">
        <ele>41.799999237061</ele>
        <time>2022-05-01T09:42:08.000Z</time>
      </trkpt>
      <trkpt lat="47.3236" lon="-2.35052">
        <ele>41.799999237061</ele>
        <time>2022-05-01T09:42:13.000Z</time>
      </trkpt>
      <trkpt lat="47.32334" lon="-2.35051">
        <ele>41.400001525879</ele>
        <time>2022-05-01T09:42:17.000Z</time>
      </trkpt>
      <trkpt lat="47.32328" lon="-2.35051">
        <ele>41</ele>
        <time>2022-05-01T09:42:18.000Z</time>
      </trkpt>
      <trkpt lat="47.32321" lon="-2.3505">
        <ele>40.599998474121</ele>
        <time>2022-05-01T09:42:19.000Z</time>
      </trkpt>
      <trkpt lat="47.32315" lon="-2.3505">
        <ele>40.200000762939</ele>
        <time>2022-05-01T09:42:20.000Z</time>
      </trkpt>
      <trkpt lat="47.32309" lon="-2.3505">
        <ele>39.799999237061</ele>
        <time>2022-05-01T09:42:21.000Z</time>
      </trkpt>
      <trkpt lat="47.32286" lon="-2.35051">
        <ele>39.799999237061</ele>
        <time>2022-05-01T09:42:25.000Z</time>
      </trkpt>
      <trkpt lat="47.32269" lon="-2.35052">
        <ele>39.799999237061</ele>
        <time>2022-05-01T09:42:28.000Z</time>
      </trkpt>
      <trkpt lat="47.32258" lon="-2.35052">
        <ele>39.799999237061</ele>
        <time>2022-05-01T09:42:30.000Z</time>
      </trkpt>
      <trkpt lat="47.32253" lon="-2.35053">
        <ele>39.799999237061</ele>
        <time>2022-05-01T09:42:31.000Z</time>
      </trkpt>
      <trkpt lat="47.32227" lon="-2.35056">
        <ele>39.799999237061</ele>
        <time>2022-05-01T09:42:35.000Z</time>
      </trkpt>
      <trkpt lat="47.32221" lon="-2.35057">
        <ele>39.400001525879</ele>
        <time>2022-05-01T09:42:36.000Z</time>
      </trkpt>
      <trkpt lat="47.32215" lon="-2.35057">
        <ele>39</ele>
        <time>2022-05-01T09:42:37.000Z</time>
      </trkpt>
      <trkpt lat="47.32209" lon="-2.35058">
        <ele>38.599998474121</ele>
        <time>2022-05-01T09:42:38.000Z</time>
      </trkpt>
      <trkpt lat="47.32203" lon="-2.35059">
        <ele>38.200000762939</ele>
        <time>2022-05-01T09:42:39.000Z</time>
      </trkpt>
      <trkpt lat="47.32197" lon="-2.35059">
        <ele>37.799999237061</ele>
        <time>2022-05-01T09:42:40.000Z</time>
      </trkpt>
      <trkpt lat="47.3219" lon="-2.3506">
        <ele>37.799999237061</ele>
        <time>2022-05-01T09:42:41.000Z</time>
      </trkpt>
      <trkpt lat="47.32147" lon="-2.35064">
        <ele>37.799999237061</ele>
        <time>2022-05-01T09:42:48.000Z</time>
      </trkpt>
      <trkpt lat="47.32102" lon="-2.35064">
        <ele>37.799999237061</ele>
        <time>2022-05-01T09:42:55.000Z</time>
      </trkpt>
      <trkpt lat="47.32064" lon="-2.35063">
        <ele>37.799999237061</ele>
        <time>2022-05-01T09:43:02.000Z</time>
      </trkpt>
      <trkpt lat="47.32047" lon="-2.35062">
        <ele>37.799999237061</ele>
        <time>2022-05-01T09:43:05.000Z</time>
      </trkpt>
      <trkpt lat="47.32039" lon="-2.35065">
        <ele>37.799999237061</ele>
        <time>2022-05-01T09:43:07.000Z</time>
      </trkpt>
      <trkpt lat="47.32041" lon="-2.35075">
        <ele>37.799999237061</ele>
        <time>2022-05-01T09:43:09.000Z</time>
      </trkpt>
      <trkpt lat="47.32047" lon="-2.35096">
        <ele>37.799999237061</ele>
        <time>2022-05-01T09:43:13.000Z</time>
      </trkpt>
      <trkpt lat="47.32047" lon="-2.35108">
        <ele>37.799999237061</ele>
        <time>2022-05-01T09:43:16.000Z</time>
      </trkpt>
      <trkpt lat="47.32045" lon="-2.35112">
        <ele>37.799999237061</ele>
        <time>2022-05-01T09:43:17.000Z</time>
      </trkpt>
      <trkpt lat="47.32033" lon="-2.35129">
        <ele>37.799999237061</ele>
        <time>2022-05-01T09:43:21.000Z</time>
      </trkpt>
      <trkpt lat="47.3201" lon="-2.35153">
        <ele>37.799999237061</ele>
        <time>2022-05-01T09:43:27.000Z</time>
      </trkpt>
      <trkpt lat="47.31988" lon="-2.35176">
        <ele>37.799999237061</ele>
        <time>2022-05-01T09:43:32.000Z</time>
      </trkpt>
      <trkpt lat="47.31959" lon="-2.35205">
        <ele>37.799999237061</ele>
        <time>2022-05-01T09:43:39.000Z</time>
      </trkpt>
      <trkpt lat="47.31938" lon="-2.35224">
        <ele>37.799999237061</ele>
        <time>2022-05-01T09:43:44.000Z</time>
      </trkpt>
      <trkpt lat="47.31913" lon="-2.3525">
        <ele>37.799999237061</ele>
        <time>2022-05-01T09:43:50.000Z</time>
      </trkpt>
      <trkpt lat="47.31882" lon="-2.35276">
        <ele>37.799999237061</ele>
        <time>2022-05-01T09:43:57.000Z</time>
      </trkpt>
      <trkpt lat="47.3187" lon="-2.35287">
        <ele>38.200000762939</ele>
        <time>2022-05-01T09:44:00.000Z</time>
      </trkpt>
      <trkpt lat="47.31865" lon="-2.35289">
        <ele>38.599998474121</ele>
        <time>2022-05-01T09:44:01.000Z</time>
      </trkpt>
      <trkpt lat="47.31861" lon="-2.35292">
        <ele>39</ele>
        <time>2022-05-01T09:44:02.000Z</time>
      </trkpt>
      <trkpt lat="47.31856" lon="-2.35295">
        <ele>39.799999237061</ele>
        <time>2022-05-01T09:44:03.000Z</time>
      </trkpt>
      <trkpt lat="47.31851" lon="-2.35297">
        <ele>39.799999237061</ele>
        <time>2022-05-01T09:44:04.000Z</time>
      </trkpt>
      <trkpt lat="47.31829" lon="-2.3531">
        <ele>39.799999237061</ele>
        <time>2022-05-01T09:44:09.000Z</time>
      </trkpt>
      <trkpt lat="47.31803" lon="-2.35327">
        <ele>40.200000762939</ele>
        <time>2022-05-01T09:44:16.000Z</time>
      </trkpt>
      <trkpt lat="47.31799" lon="-2.3533">
        <ele>40.599998474121</ele>
        <time>2022-05-01T09:44:17.000Z</time>
      </trkpt>
      <trkpt lat="47.31796" lon="-2.35333">
        <ele>41</ele>
        <time>2022-05-01T09:44:18.000Z</time>
      </trkpt>
      <trkpt lat="47.31793" lon="-2.35335">
        <ele>41.400001525879</ele>
        <time>2022-05-01T09:44:19.000Z</time>
      </trkpt>
      <trkpt lat="47.31789" lon="-2.35338">
        <ele>41.799999237061</ele>
        <time>2022-05-01T09:44:20.000Z</time>
      </trkpt>
      <trkpt lat="47.31785" lon="-2.3534">
        <ele>41.799999237061</ele>
        <time>2022-05-01T09:44:21.000Z</time>
      </trkpt>
      <trkpt lat="47.31761" lon="-2.3536">
        <ele>41.799999237061</ele>
        <time>2022-05-01T09:44:28.000Z</time>
      </trkpt>
      <trkpt lat="47.31759" lon="-2.35363">
        <ele>41.799999237061</ele>
        <time>2022-05-01T09:44:29.000Z</time>
      </trkpt>
      <trkpt lat="47.31761" lon="-2.35374">
        <ele>41.799999237061</ele>
        <time>2022-05-01T09:44:32.000Z</time>
      </trkpt>
      <trkpt lat="47.31763" lon="-2.35379">
        <ele>41.799999237061</ele>
        <time>2022-05-01T09:44:33.000Z</time>
      </trkpt>
      <trkpt lat="47.31773" lon="-2.35396">
        <ele>41.799999237061</ele>
        <time>2022-05-01T09:44:37.000Z</time>
      </trkpt>
      <trkpt lat="47.31789" lon="-2.35418">
        <ele>41.799999237061</ele>
        <time>2022-05-01T09:44:41.000Z</time>
      </trkpt>
      <trkpt lat="47.31807" lon="-2.35442">
        <ele>41.799999237061</ele>
        <time>2022-05-01T09:44:47.000Z</time>
      </trkpt>
      <trkpt lat="47.31812" lon="-2.35456">
        <ele>41.799999237061</ele>
        <time>2022-05-01T09:44:51.000Z</time>
      </trkpt>
      <trkpt lat="47.31813" lon="-2.35459">
        <ele>41.400001525879</ele>
        <time>2022-05-01T09:44:52.000Z</time>
      </trkpt>
      <trkpt lat="47.31814" lon="-2.35461">
        <ele>40.599998474121</ele>
        <time>2022-05-01T09:44:53.000Z</time>
      </trkpt>
      <trkpt lat="47.31816" lon="-2.35465">
        <ele>40.200000762939</ele>
        <time>2022-05-01T09:44:54.000Z</time>
      </trkpt>
      <trkpt lat="47.31818" lon="-2.35469">
        <ele>39.799999237061</ele>
        <time>2022-05-01T09:44:55.000Z</time>
      </trkpt>
      <trkpt lat="47.3182" lon="-2.35473">
        <ele>39.799999237061</ele>
        <time>2022-05-01T09:44:56.000Z</time>
      </trkpt>
      <trkpt lat="47.31828" lon="-2.35499">
        <ele>39.799999237061</ele>
        <time>2022-05-01T09:45:01.000Z</time>
      </trkpt>
      <trkpt lat="47.3184" lon="-2.35535">
        <ele>39.799999237061</ele>
        <time>2022-05-01T09:45:08.000Z</time>
      </trkpt>
      <trkpt lat="47.31839" lon="-2.35547">
        <ele>39.799999237061</ele>
        <time>2022-05-01T09:45:10.000Z</time>
      </trkpt>
      <trkpt lat="47.31836" lon="-2.35554">
        <ele>39.799999237061</ele>
        <time>2022-05-01T09:45:12.000Z</time>
      </trkpt>
      <trkpt lat="47.31828" lon="-2.35561">
        <ele>39.799999237061</ele>
        <time>2022-05-01T09:45:15.000Z</time>
      </trkpt>
      <trkpt lat="47.31822" lon="-2.35566">
        <ele>39.799999237061</ele>
        <time>2022-05-01T09:45:17.000Z</time>
      </trkpt>
      <trkpt lat="47.31812" lon="-2.35585">
        <ele>39.799999237061</ele>
        <time>2022-05-01T09:45:22.000Z</time>
      </trkpt>
      <trkpt lat="47.31796" lon="-2.35618">
        <ele>39.799999237061</ele>
        <time>2022-05-01T09:45:29.000Z</time>
      </trkpt>
      <trkpt lat="47.31788" lon="-2.35639">
        <ele>40.200000762939</ele>
        <time>2022-05-01T09:45:34.000Z</time>
      </trkpt>
      <trkpt lat="47.31786" lon="-2.35645">
        <ele>40.599998474121</ele>
        <time>2022-05-01T09:45:35.000Z</time>
      </trkpt>
      <trkpt lat="47.31785" lon="-2.35651">
        <ele>41</ele>
        <time>2022-05-01T09:45:36.000Z</time>
      </trkpt>
      <trkpt lat="47.31785" lon="-2.35656">
        <ele>41.400001525879</ele>
        <time>2022-05-01T09:45:37.000Z</time>
      </trkpt>
      <trkpt lat="47.31784" lon="-2.35662">
        <ele>41.799999237061</ele>
        <time>2022-05-01T09:45:38.000Z</time>
      </trkpt>
      <trkpt lat="47.31783" lon="-2.35667">
        <ele>41.799999237061</ele>
        <time>2022-05-01T09:45:39.000Z</time>
      </trkpt>
      <trkpt lat="47.31779" lon="-2.35697">
        <ele>42.200000762939</ele>
        <time>2022-05-01T09:45:45.000Z</time>
      </trkpt>
      <trkpt lat="47.31778" lon="-2.35702">
        <ele>42.599998474121</ele>
        <time>2022-05-01T09:45:46.000Z</time>
      </trkpt>
      <trkpt lat="47.31778" lon="-2.35708">
        <ele>43</ele>
        <time>2022-05-01T09:45:47.000Z</time>
      </trkpt>
      <trkpt lat="47.31778" lon="-2.35712">
        <ele>43.599998474121</ele>
        <time>2022-05-01T09:45:48.000Z</time>
      </trkpt>
      <trkpt lat="47.31778" lon="-2.35717">
        <ele>44</ele>
        <time>2022-05-01T09:45:49.000Z</time>
      </trkpt>
      <trkpt lat="47.31778" lon="-2.35728">
        <ele>44</ele>
        <time>2022-05-01T09:45:51.000Z</time>
      </trkpt>
      <trkpt lat="47.31782" lon="-2.35764">
        <ele>44</ele>
        <time>2022-05-01T09:45:57.000Z</time>
      </trkpt>
      <trkpt lat="47.31785" lon="-2.35776">
        <ele>44</ele>
        <time>2022-05-01T09:45:59.000Z</time>
      </trkpt>
      <trkpt lat="47.31791" lon="-2.35786">
        <ele>44.400001525879</ele>
        <time>2022-05-01T09:46:01.000Z</time>
      </trkpt>
      <trkpt lat="47.31795" lon="-2.35791">
        <ele>44.799999237061</ele>
        <time>2022-05-01T09:46:02.000Z</time>
      </trkpt>
      <trkpt lat="47.318" lon="-2.35796">
        <ele>45.200000762939</ele>
        <time>2022-05-01T09:46:03.000Z</time>
      </trkpt>
      <trkpt lat="47.31804" lon="-2.35801">
        <ele>45.599998474121</ele>
        <time>2022-05-01T09:46:04.000Z</time>
      </trkpt>
      <trkpt lat="47.31809" lon="-2.35805">
        <ele>46</ele>
        <time>2022-05-01T09:46:05.000Z</time>
      </trkpt>
      <trkpt lat="47.31821" lon="-2.35822">
        <ele>46</ele>
        <time>2022-05-01T09:46:09.000Z</time>
      </trkpt>
      <trkpt lat="47.31826" lon="-2.35832">
        <ele>46</ele>
        <time>2022-05-01T09:46:11.000Z</time>
      </trkpt>
      <trkpt lat="47.31829" lon="-2.35841">
        <ele>46</ele>
        <time>2022-05-01T09:46:13.000Z</time>
      </trkpt>
      <trkpt lat="47.3183" lon="-2.35853">
        <ele>46</ele>
        <time>2022-05-01T09:46:15.000Z</time>
      </trkpt>
      <trkpt lat="47.31826" lon="-2.35861">
        <ele>46</ele>
        <time>2022-05-01T09:46:16.000Z</time>
      </trkpt>
      <trkpt lat="47.31813" lon="-2.35875">
        <ele>46</ele>
        <time>2022-05-01T09:46:19.000Z</time>
      </trkpt>
      <trkpt lat="47.31809" lon="-2.35878">
        <ele>46</ele>
        <time>2022-05-01T09:46:20.000Z</time>
      </trkpt>
      <trkpt lat="47.31779" lon="-2.35899">
        <ele>46</ele>
        <time>2022-05-01T09:46:27.000Z</time>
      </trkpt>
      <trkpt lat="47.3175" lon="-2.35918">
        <ele>46</ele>
        <time>2022-05-01T09:46:34.000Z</time>
      </trkpt>
      <trkpt lat="47.31746" lon="-2.35921">
        <ele>46</ele>
        <time>2022-05-01T09:46:35.000Z</time>
      </trkpt>
      <trkpt lat="47.31725" lon="-2.35935">
        <ele>46.400001525879</ele>
        <time>2022-05-01T09:46:40.000Z</time>
      </trkpt>
      <trkpt lat="47.31721" lon="-2.35938">
        <ele>46.799999237061</ele>
        <time>2022-05-01T09:46:41.000Z</time>
      </trkpt>
      <trkpt lat="47.31718" lon="-2.3594">
        <ele>47.200000762939</ele>
        <time>2022-05-01T09:46:42.000Z</time>
      </trkpt>
      <trkpt lat="47.31713" lon="-2.35943">
        <ele>47.799999237061</ele>
        <time>2022-05-01T09:46:43.000Z</time>
      </trkpt>
      <trkpt lat="47.31709" lon="-2.35945">
        <ele>48.200000762939</ele>
        <time>2022-05-01T09:46:44.000Z</time>
      </trkpt>
      <trkpt lat="47.31696" lon="-2.35951">
        <ele>48.200000762939</ele>
        <time>2022-05-01T09:46:47.000Z</time>
      </trkpt>
      <trkpt lat="47.31683" lon="-2.35959">
        <ele>48.200000762939</ele>
        <time>2022-05-01T09:46:50.000Z</time>
      </trkpt>
      <trkpt lat="47.31675" lon="-2.35962">
        <ele>48.200000762939</ele>
        <time>2022-05-01T09:46:52.000Z</time>
      </trkpt>
      <trkpt lat="47.31646" lon="-2.35979">
        <ele>48.200000762939</ele>
        <time>2022-05-01T09:46:59.000Z</time>
      </trkpt>
      <trkpt lat="47.31643" lon="-2.35983">
        <ele>48.200000762939</ele>
        <time>2022-05-01T09:47:00.000Z</time>
      </trkpt>
      <trkpt lat="47.31639" lon="-2.35987">
        <ele>48.599998474121</ele>
        <time>2022-05-01T09:47:01.000Z</time>
      </trkpt>
      <trkpt lat="47.31635" lon="-2.3599">
        <ele>49</ele>
        <time>2022-05-01T09:47:02.000Z</time>
      </trkpt>
      <trkpt lat="47.31631" lon="-2.35993">
        <ele>49.400001525879</ele>
        <time>2022-05-01T09:47:03.000Z</time>
      </trkpt>
      <trkpt lat="47.31628" lon="-2.35997">
        <ele>49.799999237061</ele>
        <time>2022-05-01T09:47:04.000Z</time>
      </trkpt>
      <trkpt lat="47.31624" lon="-2.36001">
        <ele>50.200000762939</ele>
        <time>2022-05-01T09:47:05.000Z</time>
      </trkpt>
      <trkpt lat="47.3161" lon="-2.36018">
        <ele>50.200000762939</ele>
        <time>2022-05-01T09:47:09.000Z</time>
      </trkpt>
      <trkpt lat="47.31593" lon="-2.36037">
        <ele>50.200000762939</ele>
        <time>2022-05-01T09:47:14.000Z</time>
      </trkpt>
      <trkpt lat="47.31589" lon="-2.3604">
        <ele>50.200000762939</ele>
        <time>2022-05-01T09:47:15.000Z</time>
      </trkpt>
      <trkpt lat="47.31576" lon="-2.36054">
        <ele>50.200000762939</ele>
        <time>2022-05-01T09:47:19.000Z</time>
      </trkpt>
      <trkpt lat="47.31569" lon="-2.3606">
        <ele>50.200000762939</ele>
        <time>2022-05-01T09:47:21.000Z</time>
      </trkpt>
      <trkpt lat="47.31561" lon="-2.36067">
        <ele>50.599998474121</ele>
        <time>2022-05-01T09:47:23.000Z</time>
      </trkpt>
      <trkpt lat="47.31558" lon="-2.36071">
        <ele>51</ele>
        <time>2022-05-01T09:47:24.000Z</time>
      </trkpt>
      <trkpt lat="47.31554" lon="-2.36075">
        <ele>51.400001525879</ele>
        <time>2022-05-01T09:47:25.000Z</time>
      </trkpt>
      <trkpt lat="47.3155" lon="-2.36079">
        <ele>51.799999237061</ele>
        <time>2022-05-01T09:47:26.000Z</time>
      </trkpt>
      <trkpt lat="47.31547" lon="-2.36083">
        <ele>52.400001525879</ele>
        <time>2022-05-01T09:47:27.000Z</time>
      </trkpt>
      <trkpt lat="47.31543" lon="-2.36086">
        <ele>52.400001525879</ele>
        <time>2022-05-01T09:47:28.000Z</time>
      </trkpt>
      <trkpt lat="47.31528" lon="-2.36102">
        <ele>52.400001525879</ele>
        <time>2022-05-01T09:47:32.000Z</time>
      </trkpt>
      <trkpt lat="47.31508" lon="-2.36127">
        <ele>52.400001525879</ele>
        <time>2022-05-01T09:47:38.000Z</time>
      </trkpt>
      <trkpt lat="47.31482" lon="-2.36154">
        <ele>52.400001525879</ele>
        <time>2022-05-01T09:47:45.000Z</time>
      </trkpt>
      <trkpt lat="47.31469" lon="-2.36169">
        <ele>52.400001525879</ele>
        <time>2022-05-01T09:47:50.000Z</time>
      </trkpt>
      <trkpt lat="47.31459" lon="-2.36179">
        <ele>52.400001525879</ele>
        <time>2022-05-01T09:47:56.000Z</time>
      </trkpt>
      <trkpt lat="47.31459" lon="-2.36179">
        <ele>52.400001525879</ele>
        <time>2022-05-01T09:47:57.000Z</time>
      </trkpt>
      <trkpt lat="47.31457" lon="-2.36182">
        <ele>52.400001525879</ele>
        <time>2022-05-01T09:48:13.000Z</time>
      </trkpt>
      <trkpt lat="47.31454" lon="-2.36185">
        <ele>52.400001525879</ele>
        <time>2022-05-01T09:48:15.000Z</time>
      </trkpt>
      <trkpt lat="47.31441" lon="-2.36194">
        <ele>52.400001525879</ele>
        <time>2022-05-01T09:48:19.000Z</time>
      </trkpt>
      <trkpt lat="47.3141" lon="-2.36216">
        <ele>52.400001525879</ele>
        <time>2022-05-01T09:48:27.000Z</time>
      </trkpt>
      <trkpt lat="47.31376" lon="-2.36233">
        <ele>52.400001525879</ele>
        <time>2022-05-01T09:48:35.000Z</time>
      </trkpt>
      <trkpt lat="47.31363" lon="-2.36243">
        <ele>52.799999237061</ele>
        <time>2022-05-01T09:48:38.000Z</time>
      </trkpt>
      <trkpt lat="47.31358" lon="-2.36246">
        <ele>53.200000762939</ele>
        <time>2022-05-01T09:48:39.000Z</time>
      </trkpt>
      <trkpt lat="47.31354" lon="-2.3625">
        <ele>53.599998474121</ele>
        <time>2022-05-01T09:48:40.000Z</time>
      </trkpt>
      <trkpt lat="47.3135" lon="-2.36254">
        <ele>54</ele>
        <time>2022-05-01T09:48:41.000Z</time>
      </trkpt>
      <trkpt lat="47.31345" lon="-2.36258">
        <ele>54.400001525879</ele>
        <time>2022-05-01T09:48:42.000Z</time>
      </trkpt>
      <trkpt lat="47.31341" lon="-2.36262">
        <ele>54.400001525879</ele>
        <time>2022-05-01T09:48:43.000Z</time>
      </trkpt>
      <trkpt lat="47.31328" lon="-2.36276">
        <ele>54.400001525879</ele>
        <time>2022-05-01T09:48:46.000Z</time>
      </trkpt>
      <trkpt lat="47.31315" lon="-2.36289">
        <ele>54.400001525879</ele>
        <time>2022-05-01T09:48:49.000Z</time>
      </trkpt>
      <trkpt lat="47.31282" lon="-2.36307">
        <ele>54.400001525879</ele>
        <time>2022-05-01T09:48:55.000Z</time>
      </trkpt>
      <trkpt lat="47.3127" lon="-2.36312">
        <ele>54.400001525879</ele>
        <time>2022-05-01T09:48:57.000Z</time>
      </trkpt>
      <trkpt lat="47.31252" lon="-2.36321">
        <ele>54.400001525879</ele>
        <time>2022-05-01T09:49:00.000Z</time>
      </trkpt>
      <trkpt lat="47.31228" lon="-2.36337">
        <ele>54</ele>
        <time>2022-05-01T09:49:04.000Z</time>
      </trkpt>
      <trkpt lat="47.31222" lon="-2.36341">
        <ele>53.400001525879</ele>
        <time>2022-05-01T09:49:05.000Z</time>
      </trkpt>
      <trkpt lat="47.31216" lon="-2.36344">
        <ele>53</ele>
        <time>2022-05-01T09:49:06.000Z</time>
      </trkpt>
      <trkpt lat="47.3121" lon="-2.36347">
        <ele>52.599998474121</ele>
        <time>2022-05-01T09:49:07.000Z</time>
      </trkpt>
      <trkpt lat="47.31203" lon="-2.36351">
        <ele>52.200000762939</ele>
        <time>2022-05-01T09:49:08.000Z</time>
      </trkpt>
      <trkpt lat="47.31156" lon="-2.36381">
        <ele>52.200000762939</ele>
        <time>2022-05-01T09:49:16.000Z</time>
      </trkpt>
      <trkpt lat="47.31141" lon="-2.36393">
        <ele>52.200000762939</ele>
        <time>2022-05-01T09:49:19.000Z</time>
      </trkpt>
      <trkpt lat="47.3113" lon="-2.364">
        <ele>52.200000762939</ele>
        <time>2022-05-01T09:49:21.000Z</time>
      </trkpt>
      <trkpt lat="47.31107" lon="-2.36414">
        <ele>52.200000762939</ele>
        <time>2022-05-01T09:49:26.000Z</time>
      </trkpt>
      <trkpt lat="47.31103" lon="-2.36415">
        <ele>52.200000762939</ele>
        <time>2022-05-01T09:49:27.000Z</time>
      </trkpt>
      <trkpt lat="47.31078" lon="-2.36418">
        <ele>52.200000762939</ele>
        <time>2022-05-01T09:49:33.000Z</time>
      </trkpt>
      <trkpt lat="47.31054" lon="-2.36421">
        <ele>52.200000762939</ele>
        <time>2022-05-01T09:49:39.000Z</time>
      </trkpt>
      <trkpt lat="47.31026" lon="-2.36426">
        <ele>52.200000762939</ele>
        <time>2022-05-01T09:49:46.000Z</time>
      </trkpt>
      <trkpt lat="47.30994" lon="-2.36437">
        <ele>52.200000762939</ele>
        <time>2022-05-01T09:49:53.000Z</time>
      </trkpt>
      <trkpt lat="47.30965" lon="-2.36453">
        <ele>52.200000762939</ele>
        <time>2022-05-01T09:50:00.000Z</time>
      </trkpt>
      <trkpt lat="47.30957" lon="-2.36458">
        <ele>52.200000762939</ele>
        <time>2022-05-01T09:50:02.000Z</time>
      </trkpt>
      <trkpt lat="47.30942" lon="-2.36462">
        <ele>52.200000762939</ele>
        <time>2022-05-01T09:50:05.000Z</time>
      </trkpt>
      <trkpt lat="47.30905" lon="-2.36473">
        <ele>52.200000762939</ele>
        <time>2022-05-01T09:50:12.000Z</time>
      </trkpt>
      <trkpt lat="47.3089" lon="-2.36477">
        <ele>52.200000762939</ele>
        <time>2022-05-01T09:50:15.000Z</time>
      </trkpt>
      <trkpt lat="47.30879" lon="-2.3648">
        <ele>52.200000762939</ele>
        <time>2022-05-01T09:50:17.000Z</time>
      </trkpt>
      <trkpt lat="47.30845" lon="-2.36488">
        <ele>52.200000762939</ele>
        <time>2022-05-01T09:50:24.000Z</time>
      </trkpt>
      <trkpt lat="47.30832" lon="-2.36487">
        <ele>52.200000762939</ele>
        <time>2022-05-01T09:50:27.000Z</time>
      </trkpt>
      <trkpt lat="47.30824" lon="-2.36482">
        <ele>52.200000762939</ele>
        <time>2022-05-01T09:50:29.000Z</time>
      </trkpt>
      <trkpt lat="47.3081" lon="-2.36473">
        <ele>52.200000762939</ele>
        <time>2022-05-01T09:50:32.000Z</time>
      </trkpt>
      <trkpt lat="47.30799" lon="-2.36474">
        <ele>52.200000762939</ele>
        <time>2022-05-01T09:50:34.000Z</time>
      </trkpt>
      <trkpt lat="47.30784" lon="-2.36481">
        <ele>52.200000762939</ele>
        <time>2022-05-01T09:50:37.000Z</time>
      </trkpt>
      <trkpt lat="47.30775" lon="-2.36484">
        <ele>52.200000762939</ele>
        <time>2022-05-01T09:50:39.000Z</time>
      </trkpt>
      <trkpt lat="47.30769" lon="-2.36486">
        <ele>52.599998474121</ele>
        <time>2022-05-01T09:50:40.000Z</time>
      </trkpt>
      <trkpt lat="47.30764" lon="-2.36488">
        <ele>53</ele>
        <time>2022-05-01T09:50:41.000Z</time>
      </trkpt>
      <trkpt lat="47.30759" lon="-2.3649">
        <ele>53.400001525879</ele>
        <time>2022-05-01T09:50:42.000Z</time>
      </trkpt>
      <trkpt lat="47.30754" lon="-2.36492">
        <ele>53.799999237061</ele>
        <time>2022-05-01T09:50:43.000Z</time>
      </trkpt>
      <trkpt lat="47.30749" lon="-2.36493">
        <ele>54.200000762939</ele>
        <time>2022-05-01T09:50:44.000Z</time>
      </trkpt>
      <trkpt lat="47.30735" lon="-2.36499">
        <ele>54.200000762939</ele>
        <time>2022-05-01T09:50:47.000Z</time>
      </trkpt>
      <trkpt lat="47.30721" lon="-2.36506">
        <ele>54.200000762939</ele>
        <time>2022-05-01T09:50:50.000Z</time>
      </trkpt>
      <trkpt lat="47.30709" lon="-2.36515">
        <ele>54.200000762939</ele>
        <time>2022-05-01T09:50:53.000Z</time>
      </trkpt>
      <trkpt lat="47.30699" lon="-2.3652">
        <ele>54.599998474121</ele>
        <time>2022-05-01T09:50:56.000Z</time>
      </trkpt>
      <trkpt lat="47.30697" lon="-2.36516">
        <ele>55</ele>
        <time>2022-05-01T09:50:57.000Z</time>
      </trkpt>
      <trkpt lat="47.30695" lon="-2.36512">
        <ele>55.599998474121</ele>
        <time>2022-05-01T09:50:58.000Z</time>
      </trkpt>
      <trkpt lat="47.30691" lon="-2.3651">
        <ele>56</ele>
        <time>2022-05-01T09:50:59.000Z</time>
      </trkpt>
      <trkpt lat="47.30686" lon="-2.3651">
        <ele>56.400001525879</ele>
        <time>2022-05-01T09:51:00.000Z</time>
      </trkpt>
      <trkpt lat="47.30682" lon="-2.36512">
        <ele>56.400001525879</ele>
        <time>2022-05-01T09:51:01.000Z</time>
      </trkpt>
      <trkpt lat="47.30674" lon="-2.36517">
        <ele>56.400001525879</ele>
        <time>2022-05-01T09:51:03.000Z</time>
      </trkpt>
      <trkpt lat="47.30658" lon="-2.36524">
        <ele>56.400001525879</ele>
        <time>2022-05-01T09:51:07.000Z</time>
      </trkpt>
      <trkpt lat="47.30644" lon="-2.36533">
        <ele>56.400001525879</ele>
        <time>2022-05-01T09:51:11.000Z</time>
      </trkpt>
      <trkpt lat="47.30632" lon="-2.36539">
        <ele>56.400001525879</ele>
        <time>2022-05-01T09:51:14.000Z</time>
      </trkpt>
      <trkpt lat="47.30598" lon="-2.36549">
        <ele>56.400001525879</ele>
        <time>2022-05-01T09:51:22.000Z</time>
      </trkpt>
      <trkpt lat="47.30574" lon="-2.36557">
        <ele>56.400001525879</ele>
        <time>2022-05-01T09:51:27.000Z</time>
      </trkpt>
      <trkpt lat="47.30565" lon="-2.36563">
        <ele>56.400001525879</ele>
        <time>2022-05-01T09:51:29.000Z</time>
      </trkpt>
      <trkpt lat="47.30552" lon="-2.36574">
        <ele>56.400001525879</ele>
        <time>2022-05-01T09:51:32.000Z</time>
      </trkpt>
      <trkpt lat="47.30531" lon="-2.36589">
        <ele>56.400001525879</ele>
        <time>2022-05-01T09:51:37.000Z</time>
      </trkpt>
      <trkpt lat="47.30526" lon="-2.36591">
        <ele>56.400001525879</ele>
        <time>2022-05-01T09:51:38.000Z</time>
      </trkpt>
      <trkpt lat="47.30522" lon="-2.36593">
        <ele>56.400001525879</ele>
        <time>2022-05-01T09:51:39.000Z</time>
      </trkpt>
      <trkpt lat="47.30498" lon="-2.36601">
        <ele>56.400001525879</ele>
        <time>2022-05-01T09:51:44.000Z</time>
      </trkpt>
      <trkpt lat="47.30477" lon="-2.36608">
        <ele>56.400001525879</ele>
        <time>2022-05-01T09:51:49.000Z</time>
      </trkpt>
      <trkpt lat="47.30452" lon="-2.36628">
        <ele>56.400001525879</ele>
        <time>2022-05-01T09:51:55.000Z</time>
      </trkpt>
      <trkpt lat="47.30428" lon="-2.3665">
        <ele>56.400001525879</ele>
        <time>2022-05-01T09:52:01.000Z</time>
      </trkpt>
      <trkpt lat="47.30419" lon="-2.36655">
        <ele>56.799999237061</ele>
        <time>2022-05-01T09:52:03.000Z</time>
      </trkpt>
      <trkpt lat="47.30414" lon="-2.36656">
        <ele>57.200000762939</ele>
        <time>2022-05-01T09:52:04.000Z</time>
      </trkpt>
      <trkpt lat="47.3041" lon="-2.36657">
        <ele>57.799999237061</ele>
        <time>2022-05-01T09:52:05.000Z</time>
      </trkpt>
      <trkpt lat="47.30405" lon="-2.36658">
        <ele>58.200000762939</ele>
        <time>2022-05-01T09:52:06.000Z</time>
      </trkpt>
      <trkpt lat="47.304" lon="-2.36659">
        <ele>58.599998474121</ele>
        <time>2022-05-01T09:52:07.000Z</time>
      </trkpt>
      <trkpt lat="47.30384" lon="-2.3666">
        <ele>58.599998474121</ele>
        <time>2022-05-01T09:52:10.000Z</time>
      </trkpt>
      <trkpt lat="47.30371" lon="-2.36659">
        <ele>58.599998474121</ele>
        <time>2022-05-01T09:52:12.000Z</time>
      </trkpt>
      <trkpt lat="47.30339" lon="-2.36654">
        <ele>58.200000762939</ele>
        <time>2022-05-01T09:52:17.000Z</time>
      </trkpt>
      <trkpt lat="47.30334" lon="-2.36653">
        <ele>57.799999237061</ele>
        <time>2022-05-01T09:52:18.000Z</time>
      </trkpt>
      <trkpt lat="47.30328" lon="-2.36651">
        <ele>57.400001525879</ele>
        <time>2022-05-01T09:52:19.000Z</time>
      </trkpt>
      <trkpt lat="47.30322" lon="-2.3665">
        <ele>57</ele>
        <time>2022-05-01T09:52:20.000Z</time>
      </trkpt>
      <trkpt lat="47.30315" lon="-2.36649">
        <ele>56.599998474121</ele>
        <time>2022-05-01T09:52:21.000Z</time>
      </trkpt>
      <trkpt lat="47.30308" lon="-2.36649">
        <ele>56.599998474121</ele>
        <time>2022-05-01T09:52:22.000Z</time>
      </trkpt>
      <trkpt lat="47.30302" lon="-2.3665">
        <ele>56.599998474121</ele>
        <time>2022-05-01T09:52:23.000Z</time>
      </trkpt>
      <trkpt lat="47.30286" lon="-2.36656">
        <ele>56.599998474121</ele>
        <time>2022-05-01T09:52:26.000Z</time>
      </trkpt>
      <trkpt lat="47.30271" lon="-2.36661">
        <ele>56.599998474121</ele>
        <time>2022-05-01T09:52:29.000Z</time>
      </trkpt>
      <trkpt lat="47.30255" lon="-2.36666">
        <ele>56.599998474121</ele>
        <time>2022-05-01T09:52:32.000Z</time>
      </trkpt>
      <trkpt lat="47.30244" lon="-2.36668">
        <ele>56.599998474121</ele>
        <time>2022-05-01T09:52:34.000Z</time>
      </trkpt>
      <trkpt lat="47.30229" lon="-2.3667">
        <ele>56.599998474121</ele>
        <time>2022-05-01T09:52:37.000Z</time>
      </trkpt>
      <trkpt lat="47.3019" lon="-2.36678">
        <ele>56.599998474121</ele>
        <time>2022-05-01T09:52:45.000Z</time>
      </trkpt>
      <trkpt lat="47.30182" lon="-2.36681">
        <ele>56.599998474121</ele>
        <time>2022-05-01T09:52:48.000Z</time>
      </trkpt>
      <trkpt lat="47.30179" lon="-2.36682">
        <ele>56.599998474121</ele>
        <time>2022-05-01T09:52:52.000Z</time>
      </trkpt>
      <trkpt lat="47.30176" lon="-2.36683">
        <ele>56.599998474121</ele>
        <time>2022-05-01T09:53:29.000Z</time>
      </trkpt>
      <trkpt lat="47.30171" lon="-2.36684">
        <ele>56.200000762939</ele>
        <time>2022-05-01T09:53:33.000Z</time>
      </trkpt>
      <trkpt lat="47.30171" lon="-2.36683">
        <ele>55.799999237061</ele>
        <time>2022-05-01T09:53:34.000Z</time>
      </trkpt>
      <trkpt lat="47.3017" lon="-2.36684">
        <ele>54.400001525879</ele>
        <time>2022-05-01T09:53:45.000Z</time>
      </trkpt>
      <trkpt lat="47.30159" lon="-2.36681">
        <ele>54.400001525879</ele>
        <time>2022-05-01T09:53:50.000Z</time>
      </trkpt>
      <trkpt lat="47.30156" lon="-2.36677">
        <ele>54.400001525879</ele>
        <time>2022-05-01T09:53:51.000Z</time>
      </trkpt>
      <trkpt lat="47.30149" lon="-2.36655">
        <ele>54.400001525879</ele>
        <time>2022-05-01T09:53:55.000Z</time>
      </trkpt>
      <trkpt lat="47.30141" lon="-2.36639">
        <ele>54.400001525879</ele>
        <time>2022-05-01T09:53:58.000Z</time>
      </trkpt>
      <trkpt lat="47.30135" lon="-2.36623">
        <ele>54.400001525879</ele>
        <time>2022-05-01T09:54:01.000Z</time>
      </trkpt>
      <trkpt lat="47.3013" lon="-2.36611">
        <ele>54.400001525879</ele>
        <time>2022-05-01T09:54:03.000Z</time>
      </trkpt>
      <trkpt lat="47.30125" lon="-2.36581">
        <ele>54.400001525879</ele>
        <time>2022-05-01T09:54:07.000Z</time>
      </trkpt>
      <trkpt lat="47.30118" lon="-2.3652">
        <ele>54.400001525879</ele>
        <time>2022-05-01T09:54:14.000Z</time>
      </trkpt>
      <trkpt lat="47.30108" lon="-2.36448">
        <ele>54.400001525879</ele>
        <time>2022-05-01T09:54:22.000Z</time>
      </trkpt>
      <trkpt lat="47.30107" lon="-2.36439">
        <ele>54</ele>
        <time>2022-05-01T09:54:23.000Z</time>
      </trkpt>
      <trkpt lat="47.30105" lon="-2.36429">
        <ele>53.599998474121</ele>
        <time>2022-05-01T09:54:24.000Z</time>
      </trkpt>
      <trkpt lat="47.30103" lon="-2.3642">
        <ele>53.200000762939</ele>
        <time>2022-05-01T09:54:25.000Z</time>
      </trkpt>
      <trkpt lat="47.30102" lon="-2.3641">
        <ele>52.799999237061</ele>
        <time>2022-05-01T09:54:26.000Z</time>
      </trkpt>
      <trkpt lat="47.30101" lon="-2.364">
        <ele>52.400001525879</ele>
        <time>2022-05-01T09:54:27.000Z</time>
      </trkpt>
      <trkpt lat="47.30099" lon="-2.36372">
        <ele>52.400001525879</ele>
        <time>2022-05-01T09:54:30.000Z</time>
      </trkpt>
      <trkpt lat="47.30092" lon="-2.36297">
        <ele>52</ele>
        <time>2022-05-01T09:54:38.000Z</time>
      </trkpt>
      <trkpt lat="47.30091" lon="-2.36287">
        <ele>51.599998474121</ele>
        <time>2022-05-01T09:54:39.000Z</time>
      </trkpt>
      <trkpt lat="47.3009" lon="-2.36278">
        <ele>51.200000762939</ele>
        <time>2022-05-01T09:54:40.000Z</time>
      </trkpt>
      <trkpt lat="47.3009" lon="-2.36268">
        <ele>50.599998474121</ele>
        <time>2022-05-01T09:54:41.000Z</time>
      </trkpt>
      <trkpt lat="47.30089" lon="-2.36258">
        <ele>50.200000762939</ele>
        <time>2022-05-01T09:54:42.000Z</time>
      </trkpt>
      <trkpt lat="47.30086" lon="-2.36203">
        <ele>49.799999237061</ele>
        <time>2022-05-01T09:54:48.000Z</time>
      </trkpt>
      <trkpt lat="47.30086" lon="-2.36194">
        <ele>49.400001525879</ele>
        <time>2022-05-01T09:54:49.000Z</time>
      </trkpt>
      <trkpt lat="47.30086" lon="-2.36184">
        <ele>49</ele>
        <time>2022-05-01T09:54:50.000Z</time>
      </trkpt>
      <trkpt lat="47.30086" lon="-2.36176">
        <ele>48.400001525879</ele>
        <time>2022-05-01T09:54:51.000Z</time>
      </trkpt>
      <trkpt lat="47.30087" lon="-2.36167">
        <ele>48</ele>
        <time>2022-05-01T09:54:52.000Z</time>
      </trkpt>
      <trkpt lat="47.30089" lon="-2.36149">
        <ele>48</ele>
        <time>2022-05-01T09:54:54.000Z</time>
      </trkpt>
      <trkpt lat="47.30096" lon="-2.36079">
        <ele>48</ele>
        <time>2022-05-01T09:55:02.000Z</time>
      </trkpt>
      <trkpt lat="47.30099" lon="-2.36052">
        <ele>47.599998474121</ele>
        <time>2022-05-01T09:55:05.000Z</time>
      </trkpt>
      <trkpt lat="47.301" lon="-2.36042">
        <ele>47.200000762939</ele>
        <time>2022-05-01T09:55:06.000Z</time>
      </trkpt>
      <trkpt lat="47.301" lon="-2.36034">
        <ele>46.799999237061</ele>
        <time>2022-05-01T09:55:07.000Z</time>
      </trkpt>
      <trkpt lat="47.30101" lon="-2.36025">
        <ele>46.400001525879</ele>
        <time>2022-05-01T09:55:08.000Z</time>
      </trkpt>
      <trkpt lat="47.30102" lon="-2.36016">
        <ele>46</ele>
        <time>2022-05-01T09:55:09.000Z</time>
      </trkpt>
      <trkpt lat="47.30103" lon="-2.36008">
        <ele>46</ele>
        <time>2022-05-01T09:55:10.000Z</time>
      </trkpt>
      <trkpt lat="47.30113" lon="-2.35952">
        <ele>46</ele>
        <time>2022-05-01T09:55:17.000Z</time>
      </trkpt>
      <trkpt lat="47.30124" lon="-2.35898">
        <ele>46</ele>
        <time>2022-05-01T09:55:24.000Z</time>
      </trkpt>
      <trkpt lat="47.30126" lon="-2.3589">
        <ele>46.400001525879</ele>
        <time>2022-05-01T09:55:25.000Z</time>
      </trkpt>
      <trkpt lat="47.30128" lon="-2.35882">
        <ele>46.799999237061</ele>
        <time>2022-05-01T09:55:26.000Z</time>
      </trkpt>
      <trkpt lat="47.30129" lon="-2.35874">
        <ele>47.200000762939</ele>
        <time>2022-05-01T09:55:27.000Z</time>
      </trkpt>
      <trkpt lat="47.30131" lon="-2.35866">
        <ele>47.599998474121</ele>
        <time>2022-05-01T09:55:28.000Z</time>
      </trkpt>
      <trkpt lat="47.30132" lon="-2.35859">
        <ele>48.200000762939</ele>
        <time>2022-05-01T09:55:29.000Z</time>
      </trkpt>
      <trkpt lat="47.30136" lon="-2.35837">
        <ele>48.200000762939</ele>
        <time>2022-05-01T09:55:32.000Z</time>
      </trkpt>
      <trkpt lat="47.30139" lon="-2.35807">
        <ele>48.599998474121</ele>
        <time>2022-05-01T09:55:36.000Z</time>
      </trkpt>
      <trkpt lat="47.30139" lon="-2.35799">
        <ele>49</ele>
        <time>2022-05-01T09:55:37.000Z</time>
      </trkpt>
      <trkpt lat="47.30139" lon="-2.35792">
        <ele>49.400001525879</ele>
        <time>2022-05-01T09:55:38.000Z</time>
      </trkpt>
      <trkpt lat="47.30139" lon="-2.35785">
        <ele>49.799999237061</ele>
        <time>2022-05-01T09:55:39.000Z</time>
      </trkpt>
      <trkpt lat="47.30138" lon="-2.35777">
        <ele>50.400001525879</ele>
        <time>2022-05-01T09:55:40.000Z</time>
      </trkpt>
      <trkpt lat="47.30137" lon="-2.35749">
        <ele>50.799999237061</ele>
        <time>2022-05-01T09:55:44.000Z</time>
      </trkpt>
      <trkpt lat="47.30137" lon="-2.35742">
        <ele>51.200000762939</ele>
        <time>2022-05-01T09:55:45.000Z</time>
      </trkpt>
      <trkpt lat="47.30136" lon="-2.35736">
        <ele>51.599998474121</ele>
        <time>2022-05-01T09:55:46.000Z</time>
      </trkpt>
      <trkpt lat="47.30135" lon="-2.35729">
        <ele>52</ele>
        <time>2022-05-01T09:55:47.000Z</time>
      </trkpt>
      <trkpt lat="47.30135" lon="-2.35723">
        <ele>52.400001525879</ele>
        <time>2022-05-01T09:55:48.000Z</time>
      </trkpt>
      <trkpt lat="47.30134" lon="-2.35696">
        <ele>52.400001525879</ele>
        <time>2022-05-01T09:55:52.000Z</time>
      </trkpt>
      <trkpt lat="47.30133" lon="-2.3567">
        <ele>52.799999237061</ele>
        <time>2022-05-01T09:55:56.000Z</time>
      </trkpt>
      <trkpt lat="47.30132" lon="-2.35663">
        <ele>53.200000762939</ele>
        <time>2022-05-01T09:55:57.000Z</time>
      </trkpt>
      <trkpt lat="47.30132" lon="-2.35655">
        <ele>54</ele>
        <time>2022-05-01T09:55:58.000Z</time>
      </trkpt>
      <trkpt lat="47.30132" lon="-2.35648">
        <ele>54.400001525879</ele>
        <time>2022-05-01T09:55:59.000Z</time>
      </trkpt>
      <trkpt lat="47.30132" lon="-2.35641">
        <ele>54.400001525879</ele>
        <time>2022-05-01T09:56:00.000Z</time>
      </trkpt>
      <trkpt lat="47.30131" lon="-2.35626">
        <ele>54.400001525879</ele>
        <time>2022-05-01T09:56:02.000Z</time>
      </trkpt>
      <trkpt lat="47.30125" lon="-2.35616">
        <ele>54.400001525879</ele>
        <time>2022-05-01T09:56:04.000Z</time>
      </trkpt>
      <trkpt lat="47.30113" lon="-2.35618">
        <ele>54.400001525879</ele>
        <time>2022-05-01T09:56:06.000Z</time>
      </trkpt>
      <trkpt lat="47.30098" lon="-2.35628">
        <ele>54.400001525879</ele>
        <time>2022-05-01T09:56:09.000Z</time>
      </trkpt>
      <trkpt lat="47.30093" lon="-2.35631">
        <ele>54.400001525879</ele>
        <time>2022-05-01T09:56:10.000Z</time>
      </trkpt>
      <trkpt lat="47.30052" lon="-2.35657">
        <ele>54.400001525879</ele>
        <time>2022-05-01T09:56:18.000Z</time>
      </trkpt>
      <trkpt lat="47.3003" lon="-2.3567">
        <ele>53.599998474121</ele>
        <time>2022-05-01T09:56:22.000Z</time>
      </trkpt>
      <trkpt lat="47.30025" lon="-2.35673">
        <ele>53.200000762939</ele>
        <time>2022-05-01T09:56:23.000Z</time>
      </trkpt>
      <trkpt lat="47.3002" lon="-2.35677">
        <ele>52.799999237061</ele>
        <time>2022-05-01T09:56:24.000Z</time>
      </trkpt>
      <trkpt lat="47.30014" lon="-2.3568">
        <ele>52.400001525879</ele>
        <time>2022-05-01T09:56:25.000Z</time>
      </trkpt>
      <trkpt lat="47.29963" lon="-2.35711">
        <ele>52.400001525879</ele>
        <time>2022-05-01T09:56:34.000Z</time>
      </trkpt>
      <trkpt lat="47.29926" lon="-2.35739">
        <ele>52.400001525879</ele>
        <time>2022-05-01T09:56:41.000Z</time>
      </trkpt>
      <trkpt lat="47.29898" lon="-2.3576">
        <ele>52</ele>
        <time>2022-05-01T09:56:46.000Z</time>
      </trkpt>
      <trkpt lat="47.29892" lon="-2.35764">
        <ele>51.599998474121</ele>
        <time>2022-05-01T09:56:47.000Z</time>
      </trkpt>
      <trkpt lat="47.29885" lon="-2.35766">
        <ele>50.599998474121</ele>
        <time>2022-05-01T09:56:48.000Z</time>
      </trkpt>
      <trkpt lat="47.29879" lon="-2.35769">
        <ele>50.200000762939</ele>
        <time>2022-05-01T09:56:49.000Z</time>
      </trkpt>
      <trkpt lat="47.29837" lon="-2.35785">
        <ele>50.200000762939</ele>
        <time>2022-05-01T09:56:56.000Z</time>
      </trkpt>
      <trkpt lat="47.29812" lon="-2.35793">
        <ele>50.599998474121</ele>
        <time>2022-05-01T09:57:01.000Z</time>
      </trkpt>
      <trkpt lat="47.29807" lon="-2.35794">
        <ele>51</ele>
        <time>2022-05-01T09:57:02.000Z</time>
      </trkpt>
      <trkpt lat="47.29802" lon="-2.35796">
        <ele>51.400001525879</ele>
        <time>2022-05-01T09:57:03.000Z</time>
      </trkpt>
      <trkpt lat="47.29797" lon="-2.35797">
        <ele>51.799999237061</ele>
        <time>2022-05-01T09:57:04.000Z</time>
      </trkpt>
      <trkpt lat="47.29792" lon="-2.35799">
        <ele>52.200000762939</ele>
        <time>2022-05-01T09:57:05.000Z</time>
      </trkpt>
      <trkpt lat="47.29762" lon="-2.35809">
        <ele>52.200000762939</ele>
        <time>2022-05-01T09:57:11.000Z</time>
      </trkpt>
      <trkpt lat="47.29727" lon="-2.35827">
        <ele>52.200000762939</ele>
        <time>2022-05-01T09:57:17.000Z</time>
      </trkpt>
      <trkpt lat="47.297" lon="-2.35842">
        <ele>51.799999237061</ele>
        <time>2022-05-01T09:57:21.000Z</time>
      </trkpt>
      <trkpt lat="47.29692" lon="-2.35845">
        <ele>51.400001525879</ele>
        <time>2022-05-01T09:57:22.000Z</time>
      </trkpt>
      <trkpt lat="47.29685" lon="-2.35848">
        <ele>50.799999237061</ele>
        <time>2022-05-01T09:57:23.000Z</time>
      </trkpt>
      <trkpt lat="47.29679" lon="-2.3585">
        <ele>50.400001525879</ele>
        <time>2022-05-01T09:57:24.000Z</time>
      </trkpt>
      <trkpt lat="47.29672" lon="-2.35853">
        <ele>50</ele>
        <time>2022-05-01T09:57:25.000Z</time>
      </trkpt>
      <trkpt lat="47.29666" lon="-2.35859">
        <ele>50</ele>
        <time>2022-05-01T09:57:26.000Z</time>
      </trkpt>
      <trkpt lat="47.29661" lon="-2.35864">
        <ele>50</ele>
        <time>2022-05-01T09:57:27.000Z</time>
      </trkpt>
      <trkpt lat="47.29643" lon="-2.35875">
        <ele>50</ele>
        <time>2022-05-01T09:57:30.000Z</time>
      </trkpt>
      <trkpt lat="47.2963" lon="-2.35882">
        <ele>50</ele>
        <time>2022-05-01T09:57:32.000Z</time>
      </trkpt>
      <trkpt lat="47.29594" lon="-2.35902">
        <ele>50</ele>
        <time>2022-05-01T09:57:39.000Z</time>
      </trkpt>
      <trkpt lat="47.29546" lon="-2.3593">
        <ele>50</ele>
        <time>2022-05-01T09:57:48.000Z</time>
      </trkpt>
      <trkpt lat="47.29516" lon="-2.35944">
        <ele>50</ele>
        <time>2022-05-01T09:57:54.000Z</time>
      </trkpt>
      <trkpt lat="47.29506" lon="-2.35932">
        <ele>50</ele>
        <time>2022-05-01T09:57:57.000Z</time>
      </trkpt>
      <trkpt lat="47.29503" lon="-2.35919">
        <ele>50</ele>
        <time>2022-05-01T09:57:59.000Z</time>
      </trkpt>
      <trkpt lat="47.295" lon="-2.35907">
        <ele>50</ele>
        <time>2022-05-01T09:58:01.000Z</time>
      </trkpt>
      <trkpt lat="47.29489" lon="-2.35898">
        <ele>50</ele>
        <time>2022-05-01T09:58:04.000Z</time>
      </trkpt>
      <trkpt lat="47.2948" lon="-2.35899">
        <ele>50</ele>
        <time>2022-05-01T09:58:06.000Z</time>
      </trkpt>
      <trkpt lat="47.29464" lon="-2.35903">
        <ele>50</ele>
        <time>2022-05-01T09:58:10.000Z</time>
      </trkpt>
      <trkpt lat="47.29457" lon="-2.35904">
        <ele>50</ele>
        <time>2022-05-01T09:58:13.000Z</time>
      </trkpt>
      <trkpt lat="47.29448" lon="-2.35909">
        <ele>50</ele>
        <time>2022-05-01T09:58:18.000Z</time>
      </trkpt>
      <trkpt lat="47.29441" lon="-2.35917">
        <ele>50</ele>
        <time>2022-05-01T09:58:22.000Z</time>
      </trkpt>
      <trkpt lat="47.29439" lon="-2.35915">
        <ele>50</ele>
        <time>2022-05-01T09:58:23.000Z</time>
      </trkpt>
      <trkpt lat="47.29434" lon="-2.35905">
        <ele>50</ele>
        <time>2022-05-01T09:58:27.000Z</time>
      </trkpt>
      <trkpt lat="47.29432" lon="-2.35902">
        <ele>50</ele>
        <time>2022-05-01T09:58:28.000Z</time>
      </trkpt>
      <trkpt lat="47.29422" lon="-2.35889">
        <ele>50</ele>
        <time>2022-05-01T09:58:34.000Z</time>
      </trkpt>
      <trkpt lat="47.29421" lon="-2.35887">
        <ele>50</ele>
        <time>2022-05-01T09:58:37.000Z</time>
      </trkpt>
      <trkpt lat="47.29417" lon="-2.35882">
        <ele>50</ele>
        <time>2022-05-01T09:58:49.000Z</time>
      </trkpt>
      <trkpt lat="47.29414" lon="-2.35876">
        <ele>50</ele>
        <time>2022-05-01T09:58:51.000Z</time>
      </trkpt>
      <trkpt lat="47.29408" lon="-2.35869">
        <ele>50</ele>
        <time>2022-05-01T09:58:53.000Z</time>
      </trkpt>
      <trkpt lat="47.29397" lon="-2.35855">
        <ele>50</ele>
        <time>2022-05-01T09:58:57.000Z</time>
      </trkpt>
      <trkpt lat="47.29394" lon="-2.35851">
        <ele>50</ele>
        <time>2022-05-01T09:58:58.000Z</time>
      </trkpt>
      <trkpt lat="47.2937" lon="-2.35829">
        <ele>50</ele>
        <time>2022-05-01T09:59:04.000Z</time>
      </trkpt>
      <trkpt lat="47.29345" lon="-2.3581">
        <ele>50</ele>
        <time>2022-05-01T09:59:09.000Z</time>
      </trkpt>
      <trkpt lat="47.29308" lon="-2.35776">
        <ele>50</ele>
        <time>2022-05-01T09:59:17.000Z</time>
      </trkpt>
      <trkpt lat="47.29278" lon="-2.35749">
        <ele>50</ele>
        <time>2022-05-01T09:59:24.000Z</time>
      </trkpt>
      <trkpt lat="47.29265" lon="-2.35738">
        <ele>50</ele>
        <time>2022-05-01T09:59:27.000Z</time>
      </trkpt>
      <trkpt lat="47.29255" lon="-2.3574">
        <ele>50</ele>
        <time>2022-05-01T09:59:29.000Z</time>
      </trkpt>
      <trkpt lat="47.29243" lon="-2.35757">
        <ele>50</ele>
        <time>2022-05-01T09:59:32.000Z</time>
      </trkpt>
      <trkpt lat="47.29239" lon="-2.35763">
        <ele>50</ele>
        <time>2022-05-01T09:59:33.000Z</time>
      </trkpt>
      <trkpt lat="47.29209" lon="-2.35794">
        <ele>50</ele>
        <time>2022-05-01T09:59:40.000Z</time>
      </trkpt>
      <trkpt lat="47.29181" lon="-2.35814">
        <ele>50</ele>
        <time>2022-05-01T09:59:46.000Z</time>
      </trkpt>
      <trkpt lat="47.29172" lon="-2.35819">
        <ele>50</ele>
        <time>2022-05-01T09:59:48.000Z</time>
      </trkpt>
      <trkpt lat="47.29153" lon="-2.35827">
        <ele>50</ele>
        <time>2022-05-01T09:59:52.000Z</time>
      </trkpt>
      <trkpt lat="47.2914" lon="-2.35823">
        <ele>50</ele>
        <time>2022-05-01T09:59:55.000Z</time>
      </trkpt>
      <trkpt lat="47.29133" lon="-2.35804">
        <ele>50</ele>
        <time>2022-05-01T09:59:58.000Z</time>
      </trkpt>
      <trkpt lat="47.29131" lon="-2.35797">
        <ele>50</ele>
        <time>2022-05-01T09:59:59.000Z</time>
      </trkpt>
      <trkpt lat="47.29106" lon="-2.35732">
        <ele>50</ele>
        <time>2022-05-01T10:00:09.000Z</time>
      </trkpt>
      <trkpt lat="47.29093" lon="-2.35694">
        <ele>50</ele>
        <time>2022-05-01T10:00:15.000Z</time>
      </trkpt>
      <trkpt lat="47.29092" lon="-2.35688">
        <ele>50</ele>
        <time>2022-05-01T10:00:16.000Z</time>
      </trkpt>
      <trkpt lat="47.2909" lon="-2.35665">
        <ele>50</ele>
        <time>2022-05-01T10:00:20.000Z</time>
      </trkpt>
      <trkpt lat="47.29085" lon="-2.35646">
        <ele>50</ele>
        <time>2022-05-01T10:00:24.000Z</time>
      </trkpt>
      <trkpt lat="47.29082" lon="-2.35643">
        <ele>50</ele>
        <time>2022-05-01T10:00:25.000Z</time>
      </trkpt>
      <trkpt lat="47.29073" lon="-2.3565">
        <ele>50</ele>
        <time>2022-05-01T10:00:28.000Z</time>
      </trkpt>
      <trkpt lat="47.29057" lon="-2.35669">
        <ele>50</ele>
        <time>2022-05-01T10:00:34.000Z</time>
      </trkpt>
      <trkpt lat="47.29037" lon="-2.35688">
        <ele>50</ele>
        <time>2022-05-01T10:00:40.000Z</time>
      </trkpt>
      <trkpt lat="47.29017" lon="-2.35702">
        <ele>50</ele>
        <time>2022-05-01T10:00:45.000Z</time>
      </trkpt>
      <trkpt lat="47.29009" lon="-2.35705">
        <ele>50</ele>
        <time>2022-05-01T10:00:47.000Z</time>
      </trkpt>
      <trkpt lat="47.28998" lon="-2.35704">
        <ele>50</ele>
        <time>2022-05-01T10:00:51.000Z</time>
      </trkpt>
      <trkpt lat="47.28988" lon="-2.35697">
        <ele>50</ele>
        <time>2022-05-01T10:00:57.000Z</time>
      </trkpt>
      <trkpt lat="47.2898" lon="-2.35685">
        <ele>50</ele>
        <time>2022-05-01T10:01:01.000Z</time>
      </trkpt>
      <trkpt lat="47.28964" lon="-2.35654">
        <ele>50</ele>
        <time>2022-05-01T10:01:10.000Z</time>
      </trkpt>
      <trkpt lat="47.28951" lon="-2.35623">
        <ele>50</ele>
        <time>2022-05-01T10:01:17.000Z</time>
      </trkpt>
      <trkpt lat="47.28944" lon="-2.35607">
        <ele>50</ele>
        <time>2022-05-01T10:01:21.000Z</time>
      </trkpt>
      <trkpt lat="47.28935" lon="-2.35588">
        <ele>50</ele>
        <time>2022-05-01T10:01:26.000Z</time>
      </trkpt>
      <trkpt lat="47.28926" lon="-2.35571">
        <ele>50</ele>
        <time>2022-05-01T10:01:31.000Z</time>
      </trkpt>
      <trkpt lat="47.28915" lon="-2.35559">
        <ele>49.599998474121</ele>
        <time>2022-05-01T10:01:37.000Z</time>
      </trkpt>
      <trkpt lat="47.28914" lon="-2.35557">
        <ele>49</ele>
        <time>2022-05-01T10:01:38.000Z</time>
      </trkpt>
      <trkpt lat="47.28912" lon="-2.35555">
        <ele>48.599998474121</ele>
        <time>2022-05-01T10:01:39.000Z</time>
      </trkpt>
      <trkpt lat="47.28911" lon="-2.35552">
        <ele>48.200000762939</ele>
        <time>2022-05-01T10:01:40.000Z</time>
      </trkpt>
      <trkpt lat="47.2891" lon="-2.3555">
        <ele>47.799999237061</ele>
        <time>2022-05-01T10:01:41.000Z</time>
      </trkpt>
      <trkpt lat="47.28907" lon="-2.35541">
        <ele>47.799999237061</ele>
        <time>2022-05-01T10:01:44.000Z</time>
      </trkpt>
      <trkpt lat="47.289" lon="-2.35525">
        <ele>47.799999237061</ele>
        <time>2022-05-01T10:01:51.000Z</time>
      </trkpt>
      <trkpt lat="47.28896" lon="-2.35515">
        <ele>47.799999237061</ele>
        <time>2022-05-01T10:01:57.000Z</time>
      </trkpt>
      <trkpt lat="47.28889" lon="-2.35505">
        <ele>47.799999237061</ele>
        <time>2022-05-01T10:02:03.000Z</time>
      </trkpt>
      <trkpt lat="47.28882" lon="-2.35485">
        <ele>47.799999237061</ele>
        <time>2022-05-01T10:02:11.000Z</time>
      </trkpt>
      <trkpt lat="47.28882" lon="-2.35484">
        <ele>47.799999237061</ele>
        <time>2022-05-01T10:02:13.000Z</time>
      </trkpt>
      <trkpt lat="47.28842" lon="-2.35639">
        <ele>47.599998474121</ele>
        <time>2022-05-01T10:22:40.000Z</time>
      </trkpt>
      <trkpt lat="47.2884" lon="-2.35643">
        <ele>47.599998474121</ele>
        <time>2022-05-01T10:22:44.000Z</time>
      </trkpt>
      <trkpt lat="47.28837" lon="-2.35647">
        <ele>47.599998474121</ele>
        <time>2022-05-01T10:22:47.000Z</time>
      </trkpt>
      <trkpt lat="47.28827" lon="-2.3566">
        <ele>47.599998474121</ele>
        <time>2022-05-01T10:22:52.000Z</time>
      </trkpt>
      <trkpt lat="47.28813" lon="-2.35679">
        <ele>47.599998474121</ele>
        <time>2022-05-01T10:22:59.000Z</time>
      </trkpt>
      <trkpt lat="47.28803" lon="-2.35702">
        <ele>47.599998474121</ele>
        <time>2022-05-01T10:23:06.000Z</time>
      </trkpt>
      <trkpt lat="47.28795" lon="-2.35717">
        <ele>47.599998474121</ele>
        <time>2022-05-01T10:23:12.000Z</time>
      </trkpt>
      <trkpt lat="47.28786" lon="-2.35736">
        <ele>47.599998474121</ele>
        <time>2022-05-01T10:23:18.000Z</time>
      </trkpt>
      <trkpt lat="47.28774" lon="-2.35762">
        <ele>47.599998474121</ele>
        <time>2022-05-01T10:23:25.000Z</time>
      </trkpt>
      <trkpt lat="47.28758" lon="-2.35789">
        <ele>47.599998474121</ele>
        <time>2022-05-01T10:23:33.000Z</time>
      </trkpt>
      <trkpt lat="47.28745" lon="-2.35814">
        <ele>47.599998474121</ele>
        <time>2022-05-01T10:23:40.000Z</time>
      </trkpt>
      <trkpt lat="47.2873" lon="-2.35844">
        <ele>47.599998474121</ele>
        <time>2022-05-01T10:23:49.000Z</time>
      </trkpt>
      <trkpt lat="47.28715" lon="-2.35869">
        <ele>47.599998474121</ele>
        <time>2022-05-01T10:23:57.000Z</time>
      </trkpt>
      <trkpt lat="47.28697" lon="-2.35898">
        <ele>47.599998474121</ele>
        <time>2022-05-01T10:24:05.000Z</time>
      </trkpt>
      <trkpt lat="47.2867" lon="-2.35929">
        <ele>47.599998474121</ele>
        <time>2022-05-01T10:24:15.000Z</time>
      </trkpt>
      <trkpt lat="47.28664" lon="-2.35945">
        <ele>47.599998474121</ele>
        <time>2022-05-01T10:24:21.000Z</time>
      </trkpt>
      <trkpt lat="47.28665" lon="-2.35948">
        <ele>47.599998474121</ele>
        <time>2022-05-01T10:24:22.000Z</time>
      </trkpt>
      <trkpt lat="47.28667" lon="-2.35955">
        <ele>47.599998474121</ele>
        <time>2022-05-01T10:24:26.000Z</time>
      </trkpt>
      <trkpt lat="47.28664" lon="-2.3596">
        <ele>48</ele>
        <time>2022-05-01T10:24:29.000Z</time>
      </trkpt>
      <trkpt lat="47.28661" lon="-2.3596">
        <ele>48.400001525879</ele>
        <time>2022-05-01T10:24:30.000Z</time>
      </trkpt>
      <trkpt lat="47.28659" lon="-2.35961">
        <ele>48.799999237061</ele>
        <time>2022-05-01T10:24:31.000Z</time>
      </trkpt>
      <trkpt lat="47.28657" lon="-2.35962">
        <ele>49.400001525879</ele>
        <time>2022-05-01T10:24:32.000Z</time>
      </trkpt>
      <trkpt lat="47.28654" lon="-2.35962">
        <ele>49.799999237061</ele>
        <time>2022-05-01T10:24:33.000Z</time>
      </trkpt>
      <trkpt lat="47.28638" lon="-2.35962">
        <ele>49.799999237061</ele>
        <time>2022-05-01T10:24:38.000Z</time>
      </trkpt>
      <trkpt lat="47.28617" lon="-2.35953">
        <ele>49.799999237061</ele>
        <time>2022-05-01T10:24:45.000Z</time>
      </trkpt>
      <trkpt lat="47.28596" lon="-2.35929">
        <ele>49.799999237061</ele>
        <time>2022-05-01T10:24:52.000Z</time>
      </trkpt>
      <trkpt lat="47.28588" lon="-2.35916">
        <ele>49.799999237061</ele>
        <time>2022-05-01T10:24:55.000Z</time>
      </trkpt>
      <trkpt lat="47.28584" lon="-2.35905">
        <ele>49.799999237061</ele>
        <time>2022-05-01T10:24:57.000Z</time>
      </trkpt>
      <trkpt lat="47.28582" lon="-2.35899">
        <ele>49.799999237061</ele>
        <time>2022-05-01T10:24:58.000Z</time>
      </trkpt>
      <trkpt lat="47.28574" lon="-2.35881">
        <ele>49.799999237061</ele>
        <time>2022-05-01T10:25:01.000Z</time>
      </trkpt>
      <trkpt lat="47.28562" lon="-2.35857">
        <ele>49.799999237061</ele>
        <time>2022-05-01T10:25:05.000Z</time>
      </trkpt>
      <trkpt lat="47.28555" lon="-2.35848">
        <ele>49.799999237061</ele>
        <time>2022-05-01T10:25:07.000Z</time>
      </trkpt>
      <trkpt lat="47.28547" lon="-2.35841">
        <ele>49.200000762939</ele>
        <time>2022-05-01T10:25:09.000Z</time>
      </trkpt>
      <trkpt lat="47.28542" lon="-2.35839">
        <ele>48.799999237061</ele>
        <time>2022-05-01T10:25:10.000Z</time>
      </trkpt>
      <trkpt lat="47.28538" lon="-2.35836">
        <ele>48.400001525879</ele>
        <time>2022-05-01T10:25:11.000Z</time>
      </trkpt>
      <trkpt lat="47.28533" lon="-2.35834">
        <ele>48</ele>
        <time>2022-05-01T10:25:12.000Z</time>
      </trkpt>
      <trkpt lat="47.28529" lon="-2.35832">
        <ele>47.599998474121</ele>
        <time>2022-05-01T10:25:13.000Z</time>
      </trkpt>
      <trkpt lat="47.28514" lon="-2.35826">
        <ele>47.599998474121</ele>
        <time>2022-05-01T10:25:16.000Z</time>
      </trkpt>
      <trkpt lat="47.28504" lon="-2.35823">
        <ele>47.599998474121</ele>
        <time>2022-05-01T10:25:18.000Z</time>
      </trkpt>
      <trkpt lat="47.28484" lon="-2.35816">
        <ele>47.599998474121</ele>
        <time>2022-05-01T10:25:22.000Z</time>
      </trkpt>
      <trkpt lat="47.28465" lon="-2.35809">
        <ele>47.599998474121</ele>
        <time>2022-05-01T10:25:26.000Z</time>
      </trkpt>
      <trkpt lat="47.28446" lon="-2.35803">
        <ele>47.599998474121</ele>
        <time>2022-05-01T10:25:30.000Z</time>
      </trkpt>
      <trkpt lat="47.28433" lon="-2.35798">
        <ele>47.599998474121</ele>
        <time>2022-05-01T10:25:33.000Z</time>
      </trkpt>
      <trkpt lat="47.28421" lon="-2.35792">
        <ele>47.599998474121</ele>
        <time>2022-05-01T10:25:36.000Z</time>
      </trkpt>
      <trkpt lat="47.28416" lon="-2.3579">
        <ele>47.599998474121</ele>
        <time>2022-05-01T10:25:37.000Z</time>
      </trkpt>
      <trkpt lat="47.28389" lon="-2.35782">
        <ele>47.599998474121</ele>
        <time>2022-05-01T10:25:43.000Z</time>
      </trkpt>
      <trkpt lat="47.2838" lon="-2.3578">
        <ele>47.599998474121</ele>
        <time>2022-05-01T10:25:45.000Z</time>
      </trkpt>
      <trkpt lat="47.28375" lon="-2.35778">
        <ele>47.200000762939</ele>
        <time>2022-05-01T10:25:46.000Z</time>
      </trkpt>
      <trkpt lat="47.2837" lon="-2.35776">
        <ele>46.799999237061</ele>
        <time>2022-05-01T10:25:47.000Z</time>
      </trkpt>
      <trkpt lat="47.28366" lon="-2.35773">
        <ele>46.400001525879</ele>
        <time>2022-05-01T10:25:48.000Z</time>
      </trkpt>
      <trkpt lat="47.28361" lon="-2.3577">
        <ele>46</ele>
        <time>2022-05-01T10:25:49.000Z</time>
      </trkpt>
      <trkpt lat="47.28357" lon="-2.35768">
        <ele>45.599998474121</ele>
        <time>2022-05-01T10:25:50.000Z</time>
      </trkpt>
      <trkpt lat="47.28349" lon="-2.35763">
        <ele>45.599998474121</ele>
        <time>2022-05-01T10:25:52.000Z</time>
      </trkpt>
      <trkpt lat="47.28318" lon="-2.35738">
        <ele>45.599998474121</ele>
        <time>2022-05-01T10:26:00.000Z</time>
      </trkpt>
      <trkpt lat="47.28309" lon="-2.3573">
        <ele>45.599998474121</ele>
        <time>2022-05-01T10:26:02.000Z</time>
      </trkpt>
      <trkpt lat="47.28299" lon="-2.35718">
        <ele>45.599998474121</ele>
        <time>2022-05-01T10:26:05.000Z</time>
      </trkpt>
      <trkpt lat="47.28274" lon="-2.35692">
        <ele>45.200000762939</ele>
        <time>2022-05-01T10:26:10.000Z</time>
      </trkpt>
      <trkpt lat="47.2827" lon="-2.35687">
        <ele>44.799999237061</ele>
        <time>2022-05-01T10:26:11.000Z</time>
      </trkpt>
      <trkpt lat="47.28267" lon="-2.35681">
        <ele>44.400001525879</ele>
        <time>2022-05-01T10:26:12.000Z</time>
      </trkpt>
      <trkpt lat="47.28263" lon="-2.35675">
        <ele>44</ele>
        <time>2022-05-01T10:26:13.000Z</time>
      </trkpt>
      <trkpt lat="47.28259" lon="-2.35668">
        <ele>43.400001525879</ele>
        <time>2022-05-01T10:26:14.000Z</time>
      </trkpt>
      <trkpt lat="47.28243" lon="-2.35647">
        <ele>43.400001525879</ele>
        <time>2022-05-01T10:26:18.000Z</time>
      </trkpt>
      <trkpt lat="47.28207" lon="-2.35602">
        <ele>43.400001525879</ele>
        <time>2022-05-01T10:26:26.000Z</time>
      </trkpt>
      <trkpt lat="47.28203" lon="-2.35596">
        <ele>43</ele>
        <time>2022-05-01T10:26:27.000Z</time>
      </trkpt>
      <trkpt lat="47.28198" lon="-2.35591">
        <ele>42.200000762939</ele>
        <time>2022-05-01T10:26:28.000Z</time>
      </trkpt>
      <trkpt lat="47.28192" lon="-2.35587">
        <ele>41.799999237061</ele>
        <time>2022-05-01T10:26:29.000Z</time>
      </trkpt>
      <trkpt lat="47.28186" lon="-2.35583">
        <ele>41.400001525879</ele>
        <time>2022-05-01T10:26:30.000Z</time>
      </trkpt>
      <trkpt lat="47.28177" lon="-2.35575">
        <ele>41.400001525879</ele>
        <time>2022-05-01T10:26:32.000Z</time>
      </trkpt>
      <trkpt lat="47.28166" lon="-2.3557">
        <ele>41.400001525879</ele>
        <time>2022-05-01T10:26:34.000Z</time>
      </trkpt>
      <trkpt lat="47.28154" lon="-2.35567">
        <ele>41.400001525879</ele>
        <time>2022-05-01T10:26:37.000Z</time>
      </trkpt>
      <trkpt lat="47.28137" lon="-2.35562">
        <ele>41.400001525879</ele>
        <time>2022-05-01T10:26:41.000Z</time>
      </trkpt>
      <trkpt lat="47.2813" lon="-2.35561">
        <ele>41</ele>
        <time>2022-05-01T10:26:42.000Z</time>
      </trkpt>
      <trkpt lat="47.28124" lon="-2.35561">
        <ele>40.599998474121</ele>
        <time>2022-05-01T10:26:43.000Z</time>
      </trkpt>
      <trkpt lat="47.28118" lon="-2.35561">
        <ele>40.200000762939</ele>
        <time>2022-05-01T10:26:44.000Z</time>
      </trkpt>
      <trkpt lat="47.28112" lon="-2.3556">
        <ele>39.799999237061</ele>
        <time>2022-05-01T10:26:45.000Z</time>
      </trkpt>
      <trkpt lat="47.28106" lon="-2.3556">
        <ele>39.400001525879</ele>
        <time>2022-05-01T10:26:46.000Z</time>
      </trkpt>
      <trkpt lat="47.28095" lon="-2.35559">
        <ele>39.400001525879</ele>
        <time>2022-05-01T10:26:48.000Z</time>
      </trkpt>
      <trkpt lat="47.28083" lon="-2.35558">
        <ele>39.400001525879</ele>
        <time>2022-05-01T10:26:50.000Z</time>
      </trkpt>
      <trkpt lat="47.28063" lon="-2.35559">
        <ele>38.599998474121</ele>
        <time>2022-05-01T10:26:53.000Z</time>
      </trkpt>
      <trkpt lat="47.28056" lon="-2.35559">
        <ele>38.200000762939</ele>
        <time>2022-05-01T10:26:54.000Z</time>
      </trkpt>
      <trkpt lat="47.28049" lon="-2.3556">
        <ele>37.799999237061</ele>
        <time>2022-05-01T10:26:55.000Z</time>
      </trkpt>
      <trkpt lat="47.28041" lon="-2.3556">
        <ele>37.400001525879</ele>
        <time>2022-05-01T10:26:56.000Z</time>
      </trkpt>
      <trkpt lat="47.28016" lon="-2.3556">
        <ele>37.400001525879</ele>
        <time>2022-05-01T10:26:59.000Z</time>
      </trkpt>
      <trkpt lat="47.28008" lon="-2.35562">
        <ele>37.400001525879</ele>
        <time>2022-05-01T10:27:00.000Z</time>
      </trkpt>
      <trkpt lat="47.27982" lon="-2.35572">
        <ele>37</ele>
        <time>2022-05-01T10:27:04.000Z</time>
      </trkpt>
      <trkpt lat="47.27975" lon="-2.35575">
        <ele>36.599998474121</ele>
        <time>2022-05-01T10:27:05.000Z</time>
      </trkpt>
      <trkpt lat="47.27968" lon="-2.35578">
        <ele>36</ele>
        <time>2022-05-01T10:27:06.000Z</time>
      </trkpt>
      <trkpt lat="47.27961" lon="-2.35581">
        <ele>35.599998474121</ele>
        <time>2022-05-01T10:27:07.000Z</time>
      </trkpt>
      <trkpt lat="47.27954" lon="-2.35584">
        <ele>35.200000762939</ele>
        <time>2022-05-01T10:27:08.000Z</time>
      </trkpt>
      <trkpt lat="47.2792" lon="-2.35593">
        <ele>35.200000762939</ele>
        <time>2022-05-01T10:27:13.000Z</time>
      </trkpt>
      <trkpt lat="47.27884" lon="-2.35601">
        <ele>34.799999237061</ele>
        <time>2022-05-01T10:27:18.000Z</time>
      </trkpt>
      <trkpt lat="47.27877" lon="-2.35602">
        <ele>34.400001525879</ele>
        <time>2022-05-01T10:27:19.000Z</time>
      </trkpt>
      <trkpt lat="47.2787" lon="-2.35604">
        <ele>34</ele>
        <time>2022-05-01T10:27:20.000Z</time>
      </trkpt>
      <trkpt lat="47.27862" lon="-2.35606">
        <ele>33.599998474121</ele>
        <time>2022-05-01T10:27:21.000Z</time>
      </trkpt>
      <trkpt lat="47.27855" lon="-2.35607">
        <ele>33.200000762939</ele>
        <time>2022-05-01T10:27:22.000Z</time>
      </trkpt>
      <trkpt lat="47.27826" lon="-2.35617">
        <ele>33.200000762939</ele>
        <time>2022-05-01T10:27:26.000Z</time>
      </trkpt>
      <trkpt lat="47.27797" lon="-2.35626">
        <ele>32.599998474121</ele>
        <time>2022-05-01T10:27:30.000Z</time>
      </trkpt>
      <trkpt lat="47.2779" lon="-2.35629">
        <ele>32.200000762939</ele>
        <time>2022-05-01T10:27:31.000Z</time>
      </trkpt>
      <trkpt lat="47.27783" lon="-2.35633">
        <ele>31.799999237061</ele>
        <time>2022-05-01T10:27:32.000Z</time>
      </trkpt>
      <trkpt lat="47.27776" lon="-2.35638">
        <ele>31.39999961853</ele>
        <time>2022-05-01T10:27:33.000Z</time>
      </trkpt>
      <trkpt lat="47.27769" lon="-2.35645">
        <ele>31</ele>
        <time>2022-05-01T10:27:34.000Z</time>
      </trkpt>
      <trkpt lat="47.27758" lon="-2.3566">
        <ele>31</ele>
        <time>2022-05-01T10:27:36.000Z</time>
      </trkpt>
      <trkpt lat="47.27752" lon="-2.35667">
        <ele>31</ele>
        <time>2022-05-01T10:27:37.000Z</time>
      </trkpt>
      <trkpt lat="47.27737" lon="-2.3569">
        <ele>30.60000038147</ele>
        <time>2022-05-01T10:27:40.000Z</time>
      </trkpt>
      <trkpt lat="47.27732" lon="-2.35697">
        <ele>30.200000762939</ele>
        <time>2022-05-01T10:27:41.000Z</time>
      </trkpt>
      <trkpt lat="47.27727" lon="-2.35705">
        <ele>29.200000762939</ele>
        <time>2022-05-01T10:27:42.000Z</time>
      </trkpt>
      <trkpt lat="47.27722" lon="-2.35712">
        <ele>28.799999237061</ele>
        <time>2022-05-01T10:27:43.000Z</time>
      </trkpt>
      <trkpt lat="47.27703" lon="-2.35729">
        <ele>28.799999237061</ele>
        <time>2022-05-01T10:27:46.000Z</time>
      </trkpt>
      <trkpt lat="47.27696" lon="-2.35734">
        <ele>28.799999237061</ele>
        <time>2022-05-01T10:27:47.000Z</time>
      </trkpt>
      <trkpt lat="47.2769" lon="-2.35738">
        <ele>28.39999961853</ele>
        <time>2022-05-01T10:27:48.000Z</time>
      </trkpt>
      <trkpt lat="47.27685" lon="-2.35744">
        <ele>28</ele>
        <time>2022-05-01T10:27:49.000Z</time>
      </trkpt>
      <trkpt lat="47.27681" lon="-2.35749">
        <ele>27.60000038147</ele>
        <time>2022-05-01T10:27:50.000Z</time>
      </trkpt>
      <trkpt lat="47.27676" lon="-2.35751">
        <ele>27</ele>
        <time>2022-05-01T10:27:51.000Z</time>
      </trkpt>
      <trkpt lat="47.27672" lon="-2.35749">
        <ele>26.60000038147</ele>
        <time>2022-05-01T10:27:52.000Z</time>
      </trkpt>
      <trkpt lat="47.27665" lon="-2.3574">
        <ele>26.60000038147</ele>
        <time>2022-05-01T10:27:54.000Z</time>
      </trkpt>
      <trkpt lat="47.27653" lon="-2.35726">
        <ele>26.60000038147</ele>
        <time>2022-05-01T10:27:58.000Z</time>
      </trkpt>
      <trkpt lat="47.27649" lon="-2.35723">
        <ele>26.60000038147</ele>
        <time>2022-05-01T10:27:59.000Z</time>
      </trkpt>
      <trkpt lat="47.27628" lon="-2.35715">
        <ele>26.60000038147</ele>
        <time>2022-05-01T10:28:03.000Z</time>
      </trkpt>
      <trkpt lat="47.27601" lon="-2.3571">
        <ele>26.60000038147</ele>
        <time>2022-05-01T10:28:07.000Z</time>
      </trkpt>
      <trkpt lat="47.27587" lon="-2.35706">
        <ele>26.200000762939</ele>
        <time>2022-05-01T10:28:09.000Z</time>
      </trkpt>
      <trkpt lat="47.2758" lon="-2.35705">
        <ele>25.799999237061</ele>
        <time>2022-05-01T10:28:10.000Z</time>
      </trkpt>
      <trkpt lat="47.27572" lon="-2.35703">
        <ele>25.39999961853</ele>
        <time>2022-05-01T10:28:11.000Z</time>
      </trkpt>
      <trkpt lat="47.27565" lon="-2.35701">
        <ele>25</ele>
        <time>2022-05-01T10:28:12.000Z</time>
      </trkpt>
      <trkpt lat="47.27558" lon="-2.35699">
        <ele>24.60000038147</ele>
        <time>2022-05-01T10:28:13.000Z</time>
      </trkpt>
      <trkpt lat="47.27529" lon="-2.35691">
        <ele>24.60000038147</ele>
        <time>2022-05-01T10:28:17.000Z</time>
      </trkpt>
      <trkpt lat="47.27506" lon="-2.35685">
        <ele>24.200000762939</ele>
        <time>2022-05-01T10:28:20.000Z</time>
      </trkpt>
      <trkpt lat="47.27499" lon="-2.35684">
        <ele>23.799999237061</ele>
        <time>2022-05-01T10:28:21.000Z</time>
      </trkpt>
      <trkpt lat="47.27492" lon="-2.35682">
        <ele>23.39999961853</ele>
        <time>2022-05-01T10:28:22.000Z</time>
      </trkpt>
      <trkpt lat="47.27485" lon="-2.35681">
        <ele>23</ele>
        <time>2022-05-01T10:28:23.000Z</time>
      </trkpt>
      <trkpt lat="47.27478" lon="-2.35679">
        <ele>22.60000038147</ele>
        <time>2022-05-01T10:28:24.000Z</time>
      </trkpt>
      <trkpt lat="47.27432" lon="-2.35668">
        <ele>22.60000038147</ele>
        <time>2022-05-01T10:28:31.000Z</time>
      </trkpt>
      <trkpt lat="47.27414" lon="-2.35666">
        <ele>22.60000038147</ele>
        <time>2022-05-01T10:28:34.000Z</time>
      </trkpt>
      <trkpt lat="47.27397" lon="-2.3567">
        <ele>22.60000038147</ele>
        <time>2022-05-01T10:28:37.000Z</time>
      </trkpt>
      <trkpt lat="47.27386" lon="-2.35678">
        <ele>22.200000762939</ele>
        <time>2022-05-01T10:28:39.000Z</time>
      </trkpt>
      <trkpt lat="47.27381" lon="-2.35682">
        <ele>21.799999237061</ele>
        <time>2022-05-01T10:28:40.000Z</time>
      </trkpt>
      <trkpt lat="47.27376" lon="-2.35685">
        <ele>21.39999961853</ele>
        <time>2022-05-01T10:28:41.000Z</time>
      </trkpt>
      <trkpt lat="47.27371" lon="-2.35689">
        <ele>21</ele>
        <time>2022-05-01T10:28:42.000Z</time>
      </trkpt>
      <trkpt lat="47.27367" lon="-2.35692">
        <ele>20.60000038147</ele>
        <time>2022-05-01T10:28:43.000Z</time>
      </trkpt>
      <trkpt lat="47.27358" lon="-2.35699">
        <ele>20.60000038147</ele>
        <time>2022-05-01T10:28:46.000Z</time>
      </trkpt>
      <trkpt lat="47.27351" lon="-2.35702">
        <ele>20.60000038147</ele>
        <time>2022-05-01T10:28:49.000Z</time>
      </trkpt>
      <trkpt lat="47.27346" lon="-2.35696">
        <ele>20.60000038147</ele>
        <time>2022-05-01T10:28:51.000Z</time>
      </trkpt>
      <trkpt lat="47.2734" lon="-2.35679">
        <ele>20.60000038147</ele>
        <time>2022-05-01T10:28:55.000Z</time>
      </trkpt>
      <trkpt lat="47.27338" lon="-2.35675">
        <ele>20.60000038147</ele>
        <time>2022-05-01T10:28:56.000Z</time>
      </trkpt>
      <trkpt lat="47.27325" lon="-2.35643">
        <ele>20.60000038147</ele>
        <time>2022-05-01T10:29:03.000Z</time>
      </trkpt>
      <trkpt lat="47.27313" lon="-2.35597">
        <ele>20.60000038147</ele>
        <time>2022-05-01T10:29:11.000Z</time>
      </trkpt>
      <trkpt lat="47.27302" lon="-2.35567">
        <ele>20.60000038147</ele>
        <time>2022-05-01T10:29:18.000Z</time>
      </trkpt>
      <trkpt lat="47.27293" lon="-2.35543">
        <ele>20.60000038147</ele>
        <time>2022-05-01T10:29:25.000Z</time>
      </trkpt>
      <trkpt lat="47.2729" lon="-2.35509">
        <ele>20.60000038147</ele>
        <time>2022-05-01T10:29:31.000Z</time>
      </trkpt>
      <trkpt lat="47.27279" lon="-2.35457">
        <ele>21</ele>
        <time>2022-05-01T10:29:39.000Z</time>
      </trkpt>
      <trkpt lat="47.27277" lon="-2.35451">
        <ele>21.39999961853</ele>
        <time>2022-05-01T10:29:40.000Z</time>
      </trkpt>
      <trkpt lat="47.27275" lon="-2.35445">
        <ele>21.799999237061</ele>
        <time>2022-05-01T10:29:41.000Z</time>
      </trkpt>
      <trkpt lat="47.27274" lon="-2.35438">
        <ele>22.200000762939</ele>
        <time>2022-05-01T10:29:42.000Z</time>
      </trkpt>
      <trkpt lat="47.27272" lon="-2.35432">
        <ele>22.60000038147</ele>
        <time>2022-05-01T10:29:43.000Z</time>
      </trkpt>
      <trkpt lat="47.27268" lon="-2.35419">
        <ele>22.60000038147</ele>
        <time>2022-05-01T10:29:45.000Z</time>
      </trkpt>
      <trkpt lat="47.27266" lon="-2.35405">
        <ele>22.60000038147</ele>
        <time>2022-05-01T10:29:47.000Z</time>
      </trkpt>
      <trkpt lat="47.27254" lon="-2.35344">
        <ele>23</ele>
        <time>2022-05-01T10:29:56.000Z</time>
      </trkpt>
      <trkpt lat="47.27253" lon="-2.35338">
        <ele>23.60000038147</ele>
        <time>2022-05-01T10:29:57.000Z</time>
      </trkpt>
      <trkpt lat="47.27251" lon="-2.35332">
        <ele>24</ele>
        <time>2022-05-01T10:29:58.000Z</time>
      </trkpt>
      <trkpt lat="47.27249" lon="-2.35326">
        <ele>24.39999961853</ele>
        <time>2022-05-01T10:29:59.000Z</time>
      </trkpt>
      <trkpt lat="47.27247" lon="-2.3532">
        <ele>24.799999237061</ele>
        <time>2022-05-01T10:30:00.000Z</time>
      </trkpt>
      <trkpt lat="47.27244" lon="-2.35308">
        <ele>24.799999237061</ele>
        <time>2022-05-01T10:30:02.000Z</time>
      </trkpt>
      <trkpt lat="47.27239" lon="-2.35298">
        <ele>24.799999237061</ele>
        <time>2022-05-01T10:30:04.000Z</time>
      </trkpt>
      <trkpt lat="47.27223" lon="-2.35259">
        <ele>24.799999237061</ele>
        <time>2022-05-01T10:30:11.000Z</time>
      </trkpt>
      <trkpt lat="47.27202" lon="-2.35215">
        <ele>24.799999237061</ele>
        <time>2022-05-01T10:30:18.000Z</time>
      </trkpt>
      <trkpt lat="47.27176" lon="-2.35158">
        <ele>24.799999237061</ele>
        <time>2022-05-01T10:30:26.000Z</time>
      </trkpt>
      <trkpt lat="47.2716" lon="-2.35122">
        <ele>24.799999237061</ele>
        <time>2022-05-01T10:30:31.000Z</time>
      </trkpt>
      <trkpt lat="47.27149" lon="-2.35096">
        <ele>24.799999237061</ele>
        <time>2022-05-01T10:30:35.000Z</time>
      </trkpt>
      <trkpt lat="47.27142" lon="-2.35078">
        <ele>24.799999237061</ele>
        <time>2022-05-01T10:30:38.000Z</time>
      </trkpt>
      <trkpt lat="47.27133" lon="-2.3507">
        <ele>24.799999237061</ele>
        <time>2022-05-01T10:30:41.000Z</time>
      </trkpt>
      <trkpt lat="47.27122" lon="-2.35081">
        <ele>24.799999237061</ele>
        <time>2022-05-01T10:30:44.000Z</time>
      </trkpt>
      <trkpt lat="47.27119" lon="-2.35085">
        <ele>24.799999237061</ele>
        <time>2022-05-01T10:30:45.000Z</time>
      </trkpt>
      <trkpt lat="47.27096" lon="-2.3511">
        <ele>24.799999237061</ele>
        <time>2022-05-01T10:30:50.000Z</time>
      </trkpt>
      <trkpt lat="47.27087" lon="-2.35122">
        <ele>24.39999961853</ele>
        <time>2022-05-01T10:30:54.000Z</time>
      </trkpt>
      <trkpt lat="47.27086" lon="-2.35122">
        <ele>23.799999237061</ele>
        <time>2022-05-01T10:30:55.000Z</time>
      </trkpt>
      <trkpt lat="47.27085" lon="-2.35122">
        <ele>23.39999961853</ele>
        <time>2022-05-01T10:30:56.000Z</time>
      </trkpt>
      <trkpt lat="47.27083" lon="-2.35122">
        <ele>23</ele>
        <time>2022-05-01T10:30:57.000Z</time>
      </trkpt>
      <trkpt lat="47.27082" lon="-2.35121">
        <ele>22.60000038147</ele>
        <time>2022-05-01T10:30:58.000Z</time>
      </trkpt>
      <trkpt lat="47.2708" lon="-2.35119">
        <ele>22.60000038147</ele>
        <time>2022-05-01T10:30:59.000Z</time>
      </trkpt>
      <trkpt lat="47.27065" lon="-2.35099">
        <ele>22.60000038147</ele>
        <time>2022-05-01T10:31:04.000Z</time>
      </trkpt>
      <trkpt lat="47.2704" lon="-2.35062">
        <ele>22.60000038147</ele>
        <time>2022-05-01T10:31:11.000Z</time>
      </trkpt>
      <trkpt lat="47.27015" lon="-2.35024">
        <ele>22.60000038147</ele>
        <time>2022-05-01T10:31:18.000Z</time>
      </trkpt>
      <trkpt lat="47.27012" lon="-2.35019">
        <ele>22.60000038147</ele>
        <time>2022-05-01T10:31:19.000Z</time>
      </trkpt>
      <trkpt lat="47.26993" lon="-2.34986">
        <ele>22.60000038147</ele>
        <time>2022-05-01T10:31:25.000Z</time>
      </trkpt>
      <trkpt lat="47.26961" lon="-2.34938">
        <ele>22.60000038147</ele>
        <time>2022-05-01T10:31:34.000Z</time>
      </trkpt>
      <trkpt lat="47.26933" lon="-2.34904">
        <ele>22.60000038147</ele>
        <time>2022-05-01T10:31:41.000Z</time>
      </trkpt>
      <trkpt lat="47.26915" lon="-2.34874">
        <ele>22.60000038147</ele>
        <time>2022-05-01T10:31:47.000Z</time>
      </trkpt>
      <trkpt lat="47.26894" lon="-2.34845">
        <ele>22.60000038147</ele>
        <time>2022-05-01T10:31:53.000Z</time>
      </trkpt>
      <trkpt lat="47.2689" lon="-2.34839">
        <ele>22.60000038147</ele>
        <time>2022-05-01T10:31:54.000Z</time>
      </trkpt>
      <trkpt lat="47.26865" lon="-2.34801">
        <ele>22.60000038147</ele>
        <time>2022-05-01T10:32:01.000Z</time>
      </trkpt>
      <trkpt lat="47.26854" lon="-2.34785">
        <ele>22.60000038147</ele>
        <time>2022-05-01T10:32:04.000Z</time>
      </trkpt>
      <trkpt lat="47.26846" lon="-2.34775">
        <ele>22.60000038147</ele>
        <time>2022-05-01T10:32:06.000Z</time>
      </trkpt>
      <trkpt lat="47.26819" lon="-2.34739">
        <ele>22.60000038147</ele>
        <time>2022-05-01T10:32:14.000Z</time>
      </trkpt>
      <trkpt lat="47.26817" lon="-2.34739">
        <ele>22.60000038147</ele>
        <time>2022-05-01T10:32:15.000Z</time>
      </trkpt>
      <trkpt lat="47.2681" lon="-2.34744">
        <ele>22.60000038147</ele>
        <time>2022-05-01T10:32:17.000Z</time>
      </trkpt>
      <trkpt lat="47.26805" lon="-2.34752">
        <ele>22.60000038147</ele>
        <time>2022-05-01T10:32:19.000Z</time>
      </trkpt>
      <trkpt lat="47.26792" lon="-2.3477">
        <ele>22.60000038147</ele>
        <time>2022-05-01T10:32:23.000Z</time>
      </trkpt>
      <trkpt lat="47.26776" lon="-2.34797">
        <ele>22.60000038147</ele>
        <time>2022-05-01T10:32:29.000Z</time>
      </trkpt>
      <trkpt lat="47.26768" lon="-2.3481">
        <ele>22.60000038147</ele>
        <time>2022-05-01T10:32:33.000Z</time>
      </trkpt>
      <trkpt lat="47.26757" lon="-2.34799">
        <ele>22.60000038147</ele>
        <time>2022-05-01T10:32:36.000Z</time>
      </trkpt>
      <trkpt lat="47.2673" lon="-2.34764">
        <ele>22.60000038147</ele>
        <time>2022-05-01T10:32:43.000Z</time>
      </trkpt>
      <trkpt lat="47.26694" lon="-2.34719">
        <ele>22.60000038147</ele>
        <time>2022-05-01T10:32:52.000Z</time>
      </trkpt>
      <trkpt lat="47.26653" lon="-2.34668">
        <ele>22.60000038147</ele>
        <time>2022-05-01T10:33:02.000Z</time>
      </trkpt>
      <trkpt lat="47.26614" lon="-2.34617">
        <ele>22.60000038147</ele>
        <time>2022-05-01T10:33:12.000Z</time>
      </trkpt>
      <trkpt lat="47.26576" lon="-2.34574">
        <ele>22.60000038147</ele>
        <time>2022-05-01T10:33:21.000Z</time>
      </trkpt>
      <trkpt lat="47.26536" lon="-2.34533">
        <ele>22.60000038147</ele>
        <time>2022-05-01T10:33:30.000Z</time>
      </trkpt>
      <trkpt lat="47.26498" lon="-2.34504">
        <ele>22.60000038147</ele>
        <time>2022-05-01T10:33:38.000Z</time>
      </trkpt>
      <trkpt lat="47.26466" lon="-2.34481">
        <ele>22.60000038147</ele>
        <time>2022-05-01T10:33:45.000Z</time>
      </trkpt>
      <trkpt lat="47.26458" lon="-2.34473">
        <ele>22.60000038147</ele>
        <time>2022-05-01T10:33:47.000Z</time>
      </trkpt>
      <trkpt lat="47.26454" lon="-2.3447">
        <ele>22.60000038147</ele>
        <time>2022-05-01T10:33:48.000Z</time>
      </trkpt>
      <trkpt lat="47.26436" lon="-2.3446">
        <ele>22.60000038147</ele>
        <time>2022-05-01T10:33:52.000Z</time>
      </trkpt>
      <trkpt lat="47.2639" lon="-2.34425">
        <ele>22.60000038147</ele>
        <time>2022-05-01T10:34:02.000Z</time>
      </trkpt>
      <trkpt lat="47.26351" lon="-2.3439">
        <ele>22.60000038147</ele>
        <time>2022-05-01T10:34:11.000Z</time>
      </trkpt>
      <trkpt lat="47.26338" lon="-2.34381">
        <ele>22.60000038147</ele>
        <time>2022-05-01T10:34:14.000Z</time>
      </trkpt>
      <trkpt lat="47.26328" lon="-2.34379">
        <ele>22.60000038147</ele>
        <time>2022-05-01T10:34:16.000Z</time>
      </trkpt>
      <trkpt lat="47.26316" lon="-2.34365">
        <ele>22.60000038147</ele>
        <time>2022-05-01T10:34:19.000Z</time>
      </trkpt>
      <trkpt lat="47.26313" lon="-2.34359">
        <ele>22.60000038147</ele>
        <time>2022-05-01T10:34:20.000Z</time>
      </trkpt>
      <trkpt lat="47.26309" lon="-2.34354">
        <ele>22.60000038147</ele>
        <time>2022-05-01T10:34:21.000Z</time>
      </trkpt>
      <trkpt lat="47.26296" lon="-2.34339">
        <ele>22.60000038147</ele>
        <time>2022-05-01T10:34:24.000Z</time>
      </trkpt>
      <trkpt lat="47.26262" lon="-2.34302">
        <ele>22.60000038147</ele>
        <time>2022-05-01T10:34:32.000Z</time>
      </trkpt>
      <trkpt lat="47.26258" lon="-2.34297">
        <ele>22.60000038147</ele>
        <time>2022-05-01T10:34:33.000Z</time>
      </trkpt>
      <trkpt lat="47.26245" lon="-2.34285">
        <ele>22.60000038147</ele>
        <time>2022-05-01T10:34:36.000Z</time>
      </trkpt>
      <trkpt lat="47.26237" lon="-2.34275">
        <ele>22.60000038147</ele>
        <time>2022-05-01T10:34:38.000Z</time>
      </trkpt>
      <trkpt lat="47.26198" lon="-2.34235">
        <ele>22.60000038147</ele>
        <time>2022-05-01T10:34:47.000Z</time>
      </trkpt>
      <trkpt lat="47.26169" lon="-2.34206">
        <ele>22.60000038147</ele>
        <time>2022-05-01T10:34:54.000Z</time>
      </trkpt>
      <trkpt lat="47.2615" lon="-2.34187">
        <ele>22.60000038147</ele>
        <time>2022-05-01T10:34:59.000Z</time>
      </trkpt>
      <trkpt lat="47.26146" lon="-2.34185">
        <ele>22.60000038147</ele>
        <time>2022-05-01T10:35:00.000Z</time>
      </trkpt>
      <trkpt lat="47.26128" lon="-2.34175">
        <ele>22.60000038147</ele>
        <time>2022-05-01T10:35:04.000Z</time>
      </trkpt>
      <trkpt lat="47.26111" lon="-2.34158">
        <ele>22.60000038147</ele>
        <time>2022-05-01T10:35:09.000Z</time>
      </trkpt>
      <trkpt lat="47.26097" lon="-2.34147">
        <ele>22.60000038147</ele>
        <time>2022-05-01T10:35:15.000Z</time>
      </trkpt>
      <trkpt lat="47.26085" lon="-2.3414">
        <ele>22.60000038147</ele>
        <time>2022-05-01T10:35:20.000Z</time>
      </trkpt>
      <trkpt lat="47.26073" lon="-2.34136">
        <ele>22.60000038147</ele>
        <time>2022-05-01T10:35:23.000Z</time>
      </trkpt>
      <trkpt lat="47.26064" lon="-2.3413">
        <ele>22.60000038147</ele>
        <time>2022-05-01T10:35:25.000Z</time>
      </trkpt>
      <trkpt lat="47.26054" lon="-2.34126">
        <ele>22.60000038147</ele>
        <time>2022-05-01T10:35:27.000Z</time>
      </trkpt>
      <trkpt lat="47.26039" lon="-2.3412">
        <ele>22.60000038147</ele>
        <time>2022-05-01T10:35:30.000Z</time>
      </trkpt>
      <trkpt lat="47.26002" lon="-2.34101">
        <ele>22.60000038147</ele>
        <time>2022-05-01T10:35:38.000Z</time>
      </trkpt>
      <trkpt lat="47.25968" lon="-2.34086">
        <ele>22.60000038147</ele>
        <time>2022-05-01T10:35:45.000Z</time>
      </trkpt>
      <trkpt lat="47.25934" lon="-2.34073">
        <ele>22.60000038147</ele>
        <time>2022-05-01T10:35:52.000Z</time>
      </trkpt>
      <trkpt lat="47.25914" lon="-2.3407">
        <ele>22.60000038147</ele>
        <time>2022-05-01T10:35:56.000Z</time>
      </trkpt>
      <trkpt lat="47.25908" lon="-2.34067">
        <ele>22.60000038147</ele>
        <time>2022-05-01T10:35:57.000Z</time>
      </trkpt>
      <trkpt lat="47.25899" lon="-2.34048">
        <ele>22.60000038147</ele>
        <time>2022-05-01T10:36:00.000Z</time>
      </trkpt>
      <trkpt lat="47.25902" lon="-2.34025">
        <ele>22.60000038147</ele>
        <time>2022-05-01T10:36:03.000Z</time>
      </trkpt>
      <trkpt lat="47.25908" lon="-2.34006">
        <ele>22.60000038147</ele>
        <time>2022-05-01T10:36:06.000Z</time>
      </trkpt>
      <trkpt lat="47.2591" lon="-2.33999">
        <ele>22.60000038147</ele>
        <time>2022-05-01T10:36:07.000Z</time>
      </trkpt>
      <trkpt lat="47.25924" lon="-2.33953">
        <ele>22.60000038147</ele>
        <time>2022-05-01T10:36:14.000Z</time>
      </trkpt>
      <trkpt lat="47.25927" lon="-2.33947">
        <ele>22.60000038147</ele>
        <time>2022-05-01T10:36:15.000Z</time>
      </trkpt>
      <trkpt lat="47.25934" lon="-2.33936">
        <ele>22</ele>
        <time>2022-05-01T10:36:17.000Z</time>
      </trkpt>
      <trkpt lat="47.25937" lon="-2.33931">
        <ele>21.60000038147</ele>
        <time>2022-05-01T10:36:18.000Z</time>
      </trkpt>
      <trkpt lat="47.2594" lon="-2.33927">
        <ele>21.200000762939</ele>
        <time>2022-05-01T10:36:19.000Z</time>
      </trkpt>
      <trkpt lat="47.25942" lon="-2.33925">
        <ele>20.39999961853</ele>
        <time>2022-05-01T10:36:20.000Z</time>
      </trkpt>
      <trkpt lat="47.25946" lon="-2.33916">
        <ele>20.39999961853</ele>
        <time>2022-05-01T10:36:23.000Z</time>
      </trkpt>
      <trkpt lat="47.25953" lon="-2.33897">
        <ele>20.39999961853</ele>
        <time>2022-05-01T10:36:28.000Z</time>
      </trkpt>
      <trkpt lat="47.25954" lon="-2.33895">
        <ele>20.39999961853</ele>
        <time>2022-05-01T10:36:29.000Z</time>
      </trkpt>
      <trkpt lat="47.25956" lon="-2.33887">
        <ele>20.39999961853</ele>
        <time>2022-05-01T10:36:33.000Z</time>
      </trkpt>
      <trkpt lat="47.25957" lon="-2.33877">
        <ele>20.39999961853</ele>
        <time>2022-05-01T10:36:36.000Z</time>
      </trkpt>
      <trkpt lat="47.25958" lon="-2.33875">
        <ele>20.39999961853</ele>
        <time>2022-05-01T10:36:37.000Z</time>
      </trkpt>
      <trkpt lat="47.25958" lon="-2.33874">
        <ele>20.39999961853</ele>
        <time>2022-05-01T10:36:38.000Z</time>
      </trkpt>
      <trkpt lat="47.25959" lon="-2.3387">
        <ele>20.39999961853</ele>
        <time>2022-05-01T10:36:53.000Z</time>
      </trkpt>
      <trkpt lat="47.2596" lon="-2.33867">
        <ele>20.39999961853</ele>
        <time>2022-05-01T10:36:54.000Z</time>
      </trkpt>
      <trkpt lat="47.25966" lon="-2.33849">
        <ele>20.39999961853</ele>
        <time>2022-05-01T10:36:59.000Z</time>
      </trkpt>
      <trkpt lat="47.25975" lon="-2.33825">
        <ele>20.39999961853</ele>
        <time>2022-05-01T10:37:05.000Z</time>
      </trkpt>
      <trkpt lat="47.25988" lon="-2.33788">
        <ele>20.39999961853</ele>
        <time>2022-05-01T10:37:11.000Z</time>
      </trkpt>
      <trkpt lat="47.26008" lon="-2.33733">
        <ele>20.39999961853</ele>
        <time>2022-05-01T10:37:19.000Z</time>
      </trkpt>
      <trkpt lat="47.26015" lon="-2.33707">
        <ele>20.39999961853</ele>
        <time>2022-05-01T10:37:23.000Z</time>
      </trkpt>
      <trkpt lat="47.26017" lon="-2.33693">
        <ele>20.39999961853</ele>
        <time>2022-05-01T10:37:25.000Z</time>
      </trkpt>
      <trkpt lat="47.26022" lon="-2.33674">
        <ele>20.39999961853</ele>
        <time>2022-05-01T10:37:28.000Z</time>
      </trkpt>
      <trkpt lat="47.26028" lon="-2.3367">
        <ele>20.39999961853</ele>
        <time>2022-05-01T10:37:30.000Z</time>
      </trkpt>
      <trkpt lat="47.26035" lon="-2.33671">
        <ele>20.39999961853</ele>
        <time>2022-05-01T10:37:32.000Z</time>
      </trkpt>
      <trkpt lat="47.2604" lon="-2.33671">
        <ele>20.39999961853</ele>
        <time>2022-05-01T10:37:34.000Z</time>
      </trkpt>
      <trkpt lat="47.2605" lon="-2.33672">
        <ele>20.39999961853</ele>
        <time>2022-05-01T10:37:39.000Z</time>
      </trkpt>
      <trkpt lat="47.26054" lon="-2.33663">
        <ele>20.39999961853</ele>
        <time>2022-05-01T10:37:42.000Z</time>
      </trkpt>
      <trkpt lat="47.26055" lon="-2.33658">
        <ele>20.39999961853</ele>
        <time>2022-05-01T10:37:43.000Z</time>
      </trkpt>
      <trkpt lat="47.26064" lon="-2.33631">
        <ele>20.39999961853</ele>
        <time>2022-05-01T10:37:48.000Z</time>
      </trkpt>
      <trkpt lat="47.2608" lon="-2.33586">
        <ele>20.39999961853</ele>
        <time>2022-05-01T10:37:55.000Z</time>
      </trkpt>
      <trkpt lat="47.261" lon="-2.33528">
        <ele>20.39999961853</ele>
        <time>2022-05-01T10:38:04.000Z</time>
      </trkpt>
      <trkpt lat="47.26116" lon="-2.33484">
        <ele>20.39999961853</ele>
        <time>2022-05-01T10:38:11.000Z</time>
      </trkpt>
      <trkpt lat="47.26119" lon="-2.33478">
        <ele>20.39999961853</ele>
        <time>2022-05-01T10:38:12.000Z</time>
      </trkpt>
      <trkpt lat="47.26121" lon="-2.33472">
        <ele>20.39999961853</ele>
        <time>2022-05-01T10:38:13.000Z</time>
      </trkpt>
      <trkpt lat="47.2613" lon="-2.33447">
        <ele>20.39999961853</ele>
        <time>2022-05-01T10:38:18.000Z</time>
      </trkpt>
      <trkpt lat="47.26132" lon="-2.33436">
        <ele>20.39999961853</ele>
        <time>2022-05-01T10:38:20.000Z</time>
      </trkpt>
      <trkpt lat="47.26131" lon="-2.33424">
        <ele>20.39999961853</ele>
        <time>2022-05-01T10:38:22.000Z</time>
      </trkpt>
      <trkpt lat="47.26121" lon="-2.33413">
        <ele>20.39999961853</ele>
        <time>2022-05-01T10:38:25.000Z</time>
      </trkpt>
      <trkpt lat="47.26099" lon="-2.33383">
        <ele>20.39999961853</ele>
        <time>2022-05-01T10:38:31.000Z</time>
      </trkpt>
      <trkpt lat="47.26076" lon="-2.3335">
        <ele>20.39999961853</ele>
        <time>2022-05-01T10:38:37.000Z</time>
      </trkpt>
      <trkpt lat="47.26073" lon="-2.33343">
        <ele>20.39999961853</ele>
        <time>2022-05-01T10:38:38.000Z</time>
      </trkpt>
      <trkpt lat="47.2606" lon="-2.3331">
        <ele>20.39999961853</ele>
        <time>2022-05-01T10:38:43.000Z</time>
      </trkpt>
      <trkpt lat="47.26042" lon="-2.33258">
        <ele>20.39999961853</ele>
        <time>2022-05-01T10:38:51.000Z</time>
      </trkpt>
      <trkpt lat="47.26033" lon="-2.33233">
        <ele>20.39999961853</ele>
        <time>2022-05-01T10:38:55.000Z</time>
      </trkpt>
      <trkpt lat="47.26029" lon="-2.3322">
        <ele>20.39999961853</ele>
        <time>2022-05-01T10:38:57.000Z</time>
      </trkpt>
      <trkpt lat="47.26012" lon="-2.33173">
        <ele>20.39999961853</ele>
        <time>2022-05-01T10:39:04.000Z</time>
      </trkpt>
      <trkpt lat="47.25992" lon="-2.33115">
        <ele>20.39999961853</ele>
        <time>2022-05-01T10:39:13.000Z</time>
      </trkpt>
      <trkpt lat="47.25983" lon="-2.3308">
        <ele>20.39999961853</ele>
        <time>2022-05-01T10:39:18.000Z</time>
      </trkpt>
      <trkpt lat="47.25963" lon="-2.33024">
        <ele>20.39999961853</ele>
        <time>2022-05-01T10:39:26.000Z</time>
      </trkpt>
      <trkpt lat="47.25943" lon="-2.32966">
        <ele>20.39999961853</ele>
        <time>2022-05-01T10:39:34.000Z</time>
      </trkpt>
      <trkpt lat="47.25917" lon="-2.329">
        <ele>20.39999961853</ele>
        <time>2022-05-01T10:39:43.000Z</time>
      </trkpt>
      <trkpt lat="47.25896" lon="-2.32842">
        <ele>20.39999961853</ele>
        <time>2022-05-01T10:39:51.000Z</time>
      </trkpt>
      <trkpt lat="47.2588" lon="-2.32799">
        <ele>20.39999961853</ele>
        <time>2022-05-01T10:39:58.000Z</time>
      </trkpt>
      <trkpt lat="47.25866" lon="-2.3275">
        <ele>20.39999961853</ele>
        <time>2022-05-01T10:40:06.000Z</time>
      </trkpt>
      <trkpt lat="47.25862" lon="-2.32725">
        <ele>20.39999961853</ele>
        <time>2022-05-01T10:40:11.000Z</time>
      </trkpt>
      <trkpt lat="47.25862" lon="-2.32716">
        <ele>20.39999961853</ele>
        <time>2022-05-01T10:40:13.000Z</time>
      </trkpt>
      <trkpt lat="47.25856" lon="-2.32707">
        <ele>20.39999961853</ele>
        <time>2022-05-01T10:40:15.000Z</time>
      </trkpt>
      <trkpt lat="47.25851" lon="-2.32697">
        <ele>20.39999961853</ele>
        <time>2022-05-01T10:40:17.000Z</time>
      </trkpt>
      <trkpt lat="47.25848" lon="-2.32685">
        <ele>20.39999961853</ele>
        <time>2022-05-01T10:40:19.000Z</time>
      </trkpt>
      <trkpt lat="47.25835" lon="-2.32637">
        <ele>20.39999961853</ele>
        <time>2022-05-01T10:40:26.000Z</time>
      </trkpt>
      <trkpt lat="47.25823" lon="-2.32591">
        <ele>20.39999961853</ele>
        <time>2022-05-01T10:40:33.000Z</time>
      </trkpt>
      <trkpt lat="47.25811" lon="-2.32548">
        <ele>20.39999961853</ele>
        <time>2022-05-01T10:40:40.000Z</time>
      </trkpt>
      <trkpt lat="47.25803" lon="-2.32514">
        <ele>20.39999961853</ele>
        <time>2022-05-01T10:40:45.000Z</time>
      </trkpt>
      <trkpt lat="47.25801" lon="-2.32508">
        <ele>20.39999961853</ele>
        <time>2022-05-01T10:40:46.000Z</time>
      </trkpt>
      <trkpt lat="47.25797" lon="-2.32484">
        <ele>20.39999961853</ele>
        <time>2022-05-01T10:40:50.000Z</time>
      </trkpt>
      <trkpt lat="47.25799" lon="-2.32479">
        <ele>20.39999961853</ele>
        <time>2022-05-01T10:40:51.000Z</time>
      </trkpt>
      <trkpt lat="47.25809" lon="-2.32458">
        <ele>20.39999961853</ele>
        <time>2022-05-01T10:40:56.000Z</time>
      </trkpt>
      <trkpt lat="47.2582" lon="-2.32463">
        <ele>20.39999961853</ele>
        <time>2022-05-01T10:40:59.000Z</time>
      </trkpt>
      <trkpt lat="47.25832" lon="-2.32471">
        <ele>20.39999961853</ele>
        <time>2022-05-01T10:41:02.000Z</time>
      </trkpt>
      <trkpt lat="47.25841" lon="-2.32474">
        <ele>20.39999961853</ele>
        <time>2022-05-01T10:41:04.000Z</time>
      </trkpt>
      <trkpt lat="47.25845" lon="-2.32475">
        <ele>20.39999961853</ele>
        <time>2022-05-01T10:41:05.000Z</time>
      </trkpt>
      <trkpt lat="47.25863" lon="-2.32475">
        <ele>20.39999961853</ele>
        <time>2022-05-01T10:41:09.000Z</time>
      </trkpt>
      <trkpt lat="47.2589" lon="-2.32468">
        <ele>20.39999961853</ele>
        <time>2022-05-01T10:41:15.000Z</time>
      </trkpt>
      <trkpt lat="47.25901" lon="-2.32456">
        <ele>20.39999961853</ele>
        <time>2022-05-01T10:41:18.000Z</time>
      </trkpt>
      <trkpt lat="47.25904" lon="-2.32452">
        <ele>20.39999961853</ele>
        <time>2022-05-01T10:41:19.000Z</time>
      </trkpt>
      <trkpt lat="47.2591" lon="-2.32444">
        <ele>20.39999961853</ele>
        <time>2022-05-01T10:41:22.000Z</time>
      </trkpt>
      <trkpt lat="47.25915" lon="-2.32436">
        <ele>20.39999961853</ele>
        <time>2022-05-01T10:41:26.000Z</time>
      </trkpt>
      <trkpt lat="47.25917" lon="-2.32437">
        <ele>20.39999961853</ele>
        <time>2022-05-01T10:41:27.000Z</time>
      </trkpt>
      <trkpt lat="47.25915" lon="-2.32445">
        <ele>20.39999961853</ele>
        <time>2022-05-01T10:41:30.000Z</time>
      </trkpt>
      <trkpt lat="47.25911" lon="-2.3245">
        <ele>20.39999961853</ele>
        <time>2022-05-01T10:41:32.000Z</time>
      </trkpt>
      <trkpt lat="47.259" lon="-2.3246">
        <ele>20.39999961853</ele>
        <time>2022-05-01T10:41:36.000Z</time>
      </trkpt>
      <trkpt lat="47.25876" lon="-2.32473">
        <ele>20.39999961853</ele>
        <time>2022-05-01T10:41:43.000Z</time>
      </trkpt>
      <trkpt lat="47.25854" lon="-2.32475">
        <ele>20.39999961853</ele>
        <time>2022-05-01T10:41:48.000Z</time>
      </trkpt>
      <trkpt lat="47.25845" lon="-2.32474">
        <ele>20.39999961853</ele>
        <time>2022-05-01T10:41:50.000Z</time>
      </trkpt>
      <trkpt lat="47.25824" lon="-2.32465">
        <ele>20.39999961853</ele>
        <time>2022-05-01T10:41:55.000Z</time>
      </trkpt>
      <trkpt lat="47.2582" lon="-2.32462">
        <ele>20.39999961853</ele>
        <time>2022-05-01T10:41:56.000Z</time>
      </trkpt>
      <trkpt lat="47.25808" lon="-2.32454">
        <ele>20.39999961853</ele>
        <time>2022-05-01T10:41:59.000Z</time>
      </trkpt>
      <trkpt lat="47.25802" lon="-2.32446">
        <ele>20.39999961853</ele>
        <time>2022-05-01T10:42:01.000Z</time>
      </trkpt>
      <trkpt lat="47.25788" lon="-2.32416">
        <ele>20.39999961853</ele>
        <time>2022-05-01T10:42:08.000Z</time>
      </trkpt>
      <trkpt lat="47.2578" lon="-2.32386">
        <ele>20.39999961853</ele>
        <time>2022-05-01T10:42:14.000Z</time>
      </trkpt>
      <trkpt lat="47.25779" lon="-2.32381">
        <ele>20.799999237061</ele>
        <time>2022-05-01T10:42:15.000Z</time>
      </trkpt>
      <trkpt lat="47.25779" lon="-2.32376">
        <ele>21.200000762939</ele>
        <time>2022-05-01T10:42:16.000Z</time>
      </trkpt>
      <trkpt lat="47.25778" lon="-2.32372">
        <ele>21.60000038147</ele>
        <time>2022-05-01T10:42:17.000Z</time>
      </trkpt>
      <trkpt lat="47.25776" lon="-2.32367">
        <ele>22</ele>
        <time>2022-05-01T10:42:18.000Z</time>
      </trkpt>
      <trkpt lat="47.25775" lon="-2.32361">
        <ele>22.39999961853</ele>
        <time>2022-05-01T10:42:19.000Z</time>
      </trkpt>
      <trkpt lat="47.25774" lon="-2.32355">
        <ele>22.39999961853</ele>
        <time>2022-05-01T10:42:20.000Z</time>
      </trkpt>
      <trkpt lat="47.25771" lon="-2.32338">
        <ele>22.799999237061</ele>
        <time>2022-05-01T10:42:23.000Z</time>
      </trkpt>
      <trkpt lat="47.2577" lon="-2.32332">
        <ele>23.200000762939</ele>
        <time>2022-05-01T10:42:24.000Z</time>
      </trkpt>
      <trkpt lat="47.25769" lon="-2.32327">
        <ele>23.60000038147</ele>
        <time>2022-05-01T10:42:25.000Z</time>
      </trkpt>
      <trkpt lat="47.25768" lon="-2.32321">
        <ele>24</ele>
        <time>2022-05-01T10:42:26.000Z</time>
      </trkpt>
      <trkpt lat="47.25767" lon="-2.32315">
        <ele>24.39999961853</ele>
        <time>2022-05-01T10:42:27.000Z</time>
      </trkpt>
      <trkpt lat="47.25766" lon="-2.32309">
        <ele>24.39999961853</ele>
        <time>2022-05-01T10:42:28.000Z</time>
      </trkpt>
      <trkpt lat="47.25762" lon="-2.32287">
        <ele>24.799999237061</ele>
        <time>2022-05-01T10:42:32.000Z</time>
      </trkpt>
      <trkpt lat="47.25761" lon="-2.32282">
        <ele>25.200000762939</ele>
        <time>2022-05-01T10:42:33.000Z</time>
      </trkpt>
      <trkpt lat="47.25759" lon="-2.32276">
        <ele>25.60000038147</ele>
        <time>2022-05-01T10:42:34.000Z</time>
      </trkpt>
      <trkpt lat="47.25758" lon="-2.32271">
        <ele>26.200000762939</ele>
        <time>2022-05-01T10:42:35.000Z</time>
      </trkpt>
      <trkpt lat="47.25757" lon="-2.32265">
        <ele>26.60000038147</ele>
        <time>2022-05-01T10:42:36.000Z</time>
      </trkpt>
      <trkpt lat="47.25755" lon="-2.32254">
        <ele>26.60000038147</ele>
        <time>2022-05-01T10:42:38.000Z</time>
      </trkpt>
      <trkpt lat="47.25751" lon="-2.32237">
        <ele>26.60000038147</ele>
        <time>2022-05-01T10:42:41.000Z</time>
      </trkpt>
      <trkpt lat="47.25747" lon="-2.3222">
        <ele>27</ele>
        <time>2022-05-01T10:42:44.000Z</time>
      </trkpt>
      <trkpt lat="47.25745" lon="-2.32214">
        <ele>27.39999961853</ele>
        <time>2022-05-01T10:42:45.000Z</time>
      </trkpt>
      <trkpt lat="47.25744" lon="-2.32209">
        <ele>27.799999237061</ele>
        <time>2022-05-01T10:42:46.000Z</time>
      </trkpt>
      <trkpt lat="47.25743" lon="-2.32203">
        <ele>28.200000762939</ele>
        <time>2022-05-01T10:42:47.000Z</time>
      </trkpt>
      <trkpt lat="47.25743" lon="-2.32197">
        <ele>28.60000038147</ele>
        <time>2022-05-01T10:42:48.000Z</time>
      </trkpt>
      <trkpt lat="47.25734" lon="-2.32154">
        <ele>28.60000038147</ele>
        <time>2022-05-01T10:42:56.000Z</time>
      </trkpt>
      <trkpt lat="47.25725" lon="-2.32121">
        <ele>29</ele>
        <time>2022-05-01T10:43:02.000Z</time>
      </trkpt>
      <trkpt lat="47.25724" lon="-2.32116">
        <ele>29.39999961853</ele>
        <time>2022-05-01T10:43:03.000Z</time>
      </trkpt>
      <trkpt lat="47.25722" lon="-2.32111">
        <ele>29.799999237061</ele>
        <time>2022-05-01T10:43:04.000Z</time>
      </trkpt>
      <trkpt lat="47.25721" lon="-2.32105">
        <ele>30.39999961853</ele>
        <time>2022-05-01T10:43:05.000Z</time>
      </trkpt>
      <trkpt lat="47.2572" lon="-2.32099">
        <ele>30.799999237061</ele>
        <time>2022-05-01T10:43:06.000Z</time>
      </trkpt>
      <trkpt lat="47.2571" lon="-2.32059">
        <ele>30.799999237061</ele>
        <time>2022-05-01T10:43:13.000Z</time>
      </trkpt>
      <trkpt lat="47.25699" lon="-2.32011">
        <ele>30.799999237061</ele>
        <time>2022-05-01T10:43:21.000Z</time>
      </trkpt>
      <trkpt lat="47.2569" lon="-2.31971">
        <ele>30.799999237061</ele>
        <time>2022-05-01T10:43:28.000Z</time>
      </trkpt>
      <trkpt lat="47.25689" lon="-2.31965">
        <ele>30.799999237061</ele>
        <time>2022-05-01T10:43:29.000Z</time>
      </trkpt>
      <trkpt lat="47.2568" lon="-2.3193">
        <ele>30.799999237061</ele>
        <time>2022-05-01T10:43:35.000Z</time>
      </trkpt>
      <trkpt lat="47.25667" lon="-2.31879">
        <ele>30.799999237061</ele>
        <time>2022-05-01T10:43:44.000Z</time>
      </trkpt>
      <trkpt lat="47.25655" lon="-2.31836">
        <ele>30.799999237061</ele>
        <time>2022-05-01T10:43:52.000Z</time>
      </trkpt>
      <trkpt lat="47.25641" lon="-2.31794">
        <ele>30.799999237061</ele>
        <time>2022-05-01T10:44:00.000Z</time>
      </trkpt>
      <trkpt lat="47.25631" lon="-2.31763">
        <ele>30.799999237061</ele>
        <time>2022-05-01T10:44:07.000Z</time>
      </trkpt>
      <trkpt lat="47.25632" lon="-2.31739">
        <ele>30.799999237061</ele>
        <time>2022-05-01T10:44:13.000Z</time>
      </trkpt>
      <trkpt lat="47.25639" lon="-2.31713">
        <ele>30.799999237061</ele>
        <time>2022-05-01T10:44:19.000Z</time>
      </trkpt>
      <trkpt lat="47.25649" lon="-2.31701">
        <ele>30.799999237061</ele>
        <time>2022-05-01T10:44:24.000Z</time>
      </trkpt>
      <trkpt lat="47.2565" lon="-2.31699">
        <ele>30.799999237061</ele>
        <time>2022-05-01T10:44:25.000Z</time>
      </trkpt>
      <trkpt lat="47.25646" lon="-2.31691">
        <ele>30.799999237061</ele>
        <time>2022-05-01T10:44:28.000Z</time>
      </trkpt>
      <trkpt lat="47.25643" lon="-2.3169">
        <ele>30.799999237061</ele>
        <time>2022-05-01T10:44:29.000Z</time>
      </trkpt>
      <trkpt lat="47.2563" lon="-2.31688">
        <ele>30.799999237061</ele>
        <time>2022-05-01T10:44:34.000Z</time>
      </trkpt>
      <trkpt lat="47.25619" lon="-2.31686">
        <ele>30.799999237061</ele>
        <time>2022-05-01T10:44:39.000Z</time>
      </trkpt>
      <trkpt lat="47.25618" lon="-2.31684">
        <ele>30.799999237061</ele>
        <time>2022-05-01T10:44:40.000Z</time>
      </trkpt>
      <trkpt lat="47.25616" lon="-2.31679">
        <ele>30.799999237061</ele>
        <time>2022-05-01T10:44:44.000Z</time>
      </trkpt>
      <trkpt lat="47.25611" lon="-2.31676">
        <ele>30.799999237061</ele>
        <time>2022-05-01T10:46:13.000Z</time>
      </trkpt>
      <trkpt lat="47.25607" lon="-2.31668">
        <ele>30.799999237061</ele>
        <time>2022-05-01T10:46:17.000Z</time>
      </trkpt>
      <trkpt lat="47.25607" lon="-2.31665">
        <ele>30.799999237061</ele>
        <time>2022-05-01T10:46:18.000Z</time>
      </trkpt>
      <trkpt lat="47.25607" lon="-2.31661">
        <ele>30.799999237061</ele>
        <time>2022-05-01T10:46:19.000Z</time>
      </trkpt>
      <trkpt lat="47.25612" lon="-2.31652">
        <ele>30.799999237061</ele>
        <time>2022-05-01T10:46:22.000Z</time>
      </trkpt>
      <trkpt lat="47.25626" lon="-2.31642">
        <ele>30.799999237061</ele>
        <time>2022-05-01T10:46:27.000Z</time>
      </trkpt>
      <trkpt lat="47.25638" lon="-2.31647">
        <ele>30.799999237061</ele>
        <time>2022-05-01T10:46:31.000Z</time>
      </trkpt>
      <trkpt lat="47.25643" lon="-2.31651">
        <ele>30.200000762939</ele>
        <time>2022-05-01T10:46:33.000Z</time>
      </trkpt>
      <trkpt lat="47.25646" lon="-2.31654">
        <ele>29.799999237061</ele>
        <time>2022-05-01T10:46:34.000Z</time>
      </trkpt>
      <trkpt lat="47.25649" lon="-2.31656">
        <ele>29.39999961853</ele>
        <time>2022-05-01T10:46:35.000Z</time>
      </trkpt>
      <trkpt lat="47.25651" lon="-2.31658">
        <ele>29</ele>
        <time>2022-05-01T10:46:36.000Z</time>
      </trkpt>
      <trkpt lat="47.25655" lon="-2.31659">
        <ele>28.60000038147</ele>
        <time>2022-05-01T10:46:37.000Z</time>
      </trkpt>
      <trkpt lat="47.25671" lon="-2.31665">
        <ele>28.60000038147</ele>
        <time>2022-05-01T10:46:41.000Z</time>
      </trkpt>
      <trkpt lat="47.25679" lon="-2.31672">
        <ele>28.60000038147</ele>
        <time>2022-05-01T10:46:43.000Z</time>
      </trkpt>
      <trkpt lat="47.25684" lon="-2.31674">
        <ele>28.60000038147</ele>
        <time>2022-05-01T10:46:44.000Z</time>
      </trkpt>
      <trkpt lat="47.25706" lon="-2.31687">
        <ele>28.60000038147</ele>
        <time>2022-05-01T10:46:48.000Z</time>
      </trkpt>
      <trkpt lat="47.25728" lon="-2.31703">
        <ele>28.200000762939</ele>
        <time>2022-05-01T10:46:52.000Z</time>
      </trkpt>
      <trkpt lat="47.25735" lon="-2.31707">
        <ele>27.799999237061</ele>
        <time>2022-05-01T10:46:53.000Z</time>
      </trkpt>
      <trkpt lat="47.2574" lon="-2.31712">
        <ele>27.39999961853</ele>
        <time>2022-05-01T10:46:54.000Z</time>
      </trkpt>
      <trkpt lat="47.25745" lon="-2.31718">
        <ele>27</ele>
        <time>2022-05-01T10:46:55.000Z</time>
      </trkpt>
      <trkpt lat="47.25748" lon="-2.31725">
        <ele>26.60000038147</ele>
        <time>2022-05-01T10:46:56.000Z</time>
      </trkpt>
      <trkpt lat="47.25754" lon="-2.31739">
        <ele>26.60000038147</ele>
        <time>2022-05-01T10:46:58.000Z</time>
      </trkpt>
      <trkpt lat="47.25771" lon="-2.31777">
        <ele>26.60000038147</ele>
        <time>2022-05-01T10:47:04.000Z</time>
      </trkpt>
      <trkpt lat="47.25776" lon="-2.31792">
        <ele>26.200000762939</ele>
        <time>2022-05-01T10:47:06.000Z</time>
      </trkpt>
      <trkpt lat="47.25778" lon="-2.31798">
        <ele>25.799999237061</ele>
        <time>2022-05-01T10:47:07.000Z</time>
      </trkpt>
      <trkpt lat="47.2578" lon="-2.31805">
        <ele>25.39999961853</ele>
        <time>2022-05-01T10:47:08.000Z</time>
      </trkpt>
      <trkpt lat="47.25783" lon="-2.31812">
        <ele>25</ele>
        <time>2022-05-01T10:47:09.000Z</time>
      </trkpt>
      <trkpt lat="47.25785" lon="-2.3182">
        <ele>24.60000038147</ele>
        <time>2022-05-01T10:47:10.000Z</time>
      </trkpt>
      <trkpt lat="47.25787" lon="-2.31827">
        <ele>24.60000038147</ele>
        <time>2022-05-01T10:47:11.000Z</time>
      </trkpt>
      <trkpt lat="47.25803" lon="-2.31875">
        <ele>24.60000038147</ele>
        <time>2022-05-01T10:47:18.000Z</time>
      </trkpt>
      <trkpt lat="47.25813" lon="-2.31899">
        <ele>24.60000038147</ele>
        <time>2022-05-01T10:47:22.000Z</time>
      </trkpt>
      <trkpt lat="47.25822" lon="-2.31901">
        <ele>24.60000038147</ele>
        <time>2022-05-01T10:47:24.000Z</time>
      </trkpt>
      <trkpt lat="47.25837" lon="-2.3189">
        <ele>24.60000038147</ele>
        <time>2022-05-01T10:47:27.000Z</time>
      </trkpt>
      <trkpt lat="47.25862" lon="-2.31863">
        <ele>24.60000038147</ele>
        <time>2022-05-01T10:47:32.000Z</time>
      </trkpt>
      <trkpt lat="47.25866" lon="-2.31857">
        <ele>24.60000038147</ele>
        <time>2022-05-01T10:47:33.000Z</time>
      </trkpt>
      <trkpt lat="47.25877" lon="-2.31837">
        <ele>24.60000038147</ele>
        <time>2022-05-01T10:47:36.000Z</time>
      </trkpt>
      <trkpt lat="47.25884" lon="-2.31823">
        <ele>24.60000038147</ele>
        <time>2022-05-01T10:47:38.000Z</time>
      </trkpt>
      <trkpt lat="47.25904" lon="-2.31773">
        <ele>24.60000038147</ele>
        <time>2022-05-01T10:47:45.000Z</time>
      </trkpt>
      <trkpt lat="47.25923" lon="-2.31735">
        <ele>24.60000038147</ele>
        <time>2022-05-01T10:47:51.000Z</time>
      </trkpt>
      <trkpt lat="47.2593" lon="-2.31724">
        <ele>24.60000038147</ele>
        <time>2022-05-01T10:47:53.000Z</time>
      </trkpt>
      <trkpt lat="47.25948" lon="-2.31697">
        <ele>24.60000038147</ele>
        <time>2022-05-01T10:47:58.000Z</time>
      </trkpt>
      <trkpt lat="47.25952" lon="-2.31692">
        <ele>24.60000038147</ele>
        <time>2022-05-01T10:47:59.000Z</time>
      </trkpt>
      <trkpt lat="47.2597" lon="-2.31679">
        <ele>24.60000038147</ele>
        <time>2022-05-01T10:48:03.000Z</time>
      </trkpt>
      <trkpt lat="47.25975" lon="-2.31676">
        <ele>24.60000038147</ele>
        <time>2022-05-01T10:48:04.000Z</time>
      </trkpt>
      <trkpt lat="47.2601" lon="-2.31656">
        <ele>24.60000038147</ele>
        <time>2022-05-01T10:48:11.000Z</time>
      </trkpt>
      <trkpt lat="47.26026" lon="-2.31643">
        <ele>24.60000038147</ele>
        <time>2022-05-01T10:48:14.000Z</time>
      </trkpt>
      <trkpt lat="47.26041" lon="-2.31628">
        <ele>24.60000038147</ele>
        <time>2022-05-01T10:48:17.000Z</time>
      </trkpt>
      <trkpt lat="47.26067" lon="-2.31597">
        <ele>24.60000038147</ele>
        <time>2022-05-01T10:48:23.000Z</time>
      </trkpt>
      <trkpt lat="47.26072" lon="-2.31592">
        <ele>24.200000762939</ele>
        <time>2022-05-01T10:48:24.000Z</time>
      </trkpt>
      <trkpt lat="47.26076" lon="-2.31588">
        <ele>23.799999237061</ele>
        <time>2022-05-01T10:48:25.000Z</time>
      </trkpt>
      <trkpt lat="47.2608" lon="-2.31584">
        <ele>23.39999961853</ele>
        <time>2022-05-01T10:48:26.000Z</time>
      </trkpt>
      <trkpt lat="47.26084" lon="-2.3158">
        <ele>23</ele>
        <time>2022-05-01T10:48:27.000Z</time>
      </trkpt>
      <trkpt lat="47.26089" lon="-2.31582">
        <ele>22.60000038147</ele>
        <time>2022-05-01T10:48:28.000Z</time>
      </trkpt>
      <trkpt lat="47.26106" lon="-2.31596">
        <ele>22.60000038147</ele>
        <time>2022-05-01T10:48:32.000Z</time>
      </trkpt>
      <trkpt lat="47.26116" lon="-2.31605">
        <ele>22.60000038147</ele>
        <time>2022-05-01T10:48:34.000Z</time>
      </trkpt>
      <trkpt lat="47.26126" lon="-2.31607">
        <ele>22.60000038147</ele>
        <time>2022-05-01T10:48:36.000Z</time>
      </trkpt>
      <trkpt lat="47.26136" lon="-2.31606">
        <ele>22.60000038147</ele>
        <time>2022-05-01T10:48:38.000Z</time>
      </trkpt>
      <trkpt lat="47.26147" lon="-2.31605">
        <ele>22.60000038147</ele>
        <time>2022-05-01T10:48:40.000Z</time>
      </trkpt>
      <trkpt lat="47.26157" lon="-2.31602">
        <ele>22.60000038147</ele>
        <time>2022-05-01T10:48:42.000Z</time>
      </trkpt>
      <trkpt lat="47.26199" lon="-2.31589">
        <ele>22.60000038147</ele>
        <time>2022-05-01T10:48:50.000Z</time>
      </trkpt>
      <trkpt lat="47.26214" lon="-2.31588">
        <ele>22.60000038147</ele>
        <time>2022-05-01T10:48:53.000Z</time>
      </trkpt>
      <trkpt lat="47.26224" lon="-2.31592">
        <ele>22.60000038147</ele>
        <time>2022-05-01T10:48:55.000Z</time>
      </trkpt>
      <trkpt lat="47.26242" lon="-2.31604">
        <ele>22.60000038147</ele>
        <time>2022-05-01T10:48:59.000Z</time>
      </trkpt>
      <trkpt lat="47.26246" lon="-2.31608">
        <ele>22.60000038147</ele>
        <time>2022-05-01T10:49:00.000Z</time>
      </trkpt>
      <trkpt lat="47.2625" lon="-2.31613">
        <ele>22.60000038147</ele>
        <time>2022-05-01T10:49:01.000Z</time>
      </trkpt>
      <trkpt lat="47.26262" lon="-2.31634">
        <ele>22.60000038147</ele>
        <time>2022-05-01T10:49:05.000Z</time>
      </trkpt>
      <trkpt lat="47.26265" lon="-2.3164">
        <ele>22.60000038147</ele>
        <time>2022-05-01T10:49:06.000Z</time>
      </trkpt>
      <trkpt lat="47.26274" lon="-2.31663">
        <ele>22.60000038147</ele>
        <time>2022-05-01T10:49:10.000Z</time>
      </trkpt>
      <trkpt lat="47.26292" lon="-2.31699">
        <ele>22.60000038147</ele>
        <time>2022-05-01T10:49:16.000Z</time>
      </trkpt>
      <trkpt lat="47.26303" lon="-2.31708">
        <ele>22.60000038147</ele>
        <time>2022-05-01T10:49:19.000Z</time>
      </trkpt>
      <trkpt lat="47.26307" lon="-2.31707">
        <ele>22.60000038147</ele>
        <time>2022-05-01T10:49:20.000Z</time>
      </trkpt>
      <trkpt lat="47.26325" lon="-2.31698">
        <ele>22.60000038147</ele>
        <time>2022-05-01T10:49:25.000Z</time>
      </trkpt>
      <trkpt lat="47.26327" lon="-2.31693">
        <ele>22.60000038147</ele>
        <time>2022-05-01T10:49:26.000Z</time>
      </trkpt>
      <trkpt lat="47.26333" lon="-2.31687">
        <ele>22.60000038147</ele>
        <time>2022-05-01T10:49:28.000Z</time>
      </trkpt>
      <trkpt lat="47.26352" lon="-2.31677">
        <ele>23</ele>
        <time>2022-05-01T10:49:34.000Z</time>
      </trkpt>
      <trkpt lat="47.26355" lon="-2.31676">
        <ele>23.39999961853</ele>
        <time>2022-05-01T10:49:35.000Z</time>
      </trkpt>
      <trkpt lat="47.26359" lon="-2.31675">
        <ele>23.799999237061</ele>
        <time>2022-05-01T10:49:36.000Z</time>
      </trkpt>
      <trkpt lat="47.26363" lon="-2.31673">
        <ele>24.200000762939</ele>
        <time>2022-05-01T10:49:37.000Z</time>
      </trkpt>
      <trkpt lat="47.26366" lon="-2.31672">
        <ele>24.799999237061</ele>
        <time>2022-05-01T10:49:38.000Z</time>
      </trkpt>
      <trkpt lat="47.26384" lon="-2.31663">
        <ele>24.799999237061</ele>
        <time>2022-05-01T10:49:43.000Z</time>
      </trkpt>
      <trkpt lat="47.26403" lon="-2.31655">
        <ele>24.799999237061</ele>
        <time>2022-05-01T10:49:49.000Z</time>
      </trkpt>
      <trkpt lat="47.26406" lon="-2.31646">
        <ele>24.799999237061</ele>
        <time>2022-05-01T10:49:51.000Z</time>
      </trkpt>
      <trkpt lat="47.26406" lon="-2.31642">
        <ele>24.799999237061</ele>
        <time>2022-05-01T10:49:52.000Z</time>
      </trkpt>
      <trkpt lat="47.26406" lon="-2.31622">
        <ele>25.200000762939</ele>
        <time>2022-05-01T10:49:56.000Z</time>
      </trkpt>
      <trkpt lat="47.26406" lon="-2.31616">
        <ele>25.60000038147</ele>
        <time>2022-05-01T10:49:57.000Z</time>
      </trkpt>
      <trkpt lat="47.26406" lon="-2.3161">
        <ele>26</ele>
        <time>2022-05-01T10:49:58.000Z</time>
      </trkpt>
      <trkpt lat="47.26406" lon="-2.31605">
        <ele>26.39999961853</ele>
        <time>2022-05-01T10:49:59.000Z</time>
      </trkpt>
      <trkpt lat="47.26405" lon="-2.31599">
        <ele>26.799999237061</ele>
        <time>2022-05-01T10:50:00.000Z</time>
      </trkpt>
      <trkpt lat="47.26406" lon="-2.31567">
        <ele>26.799999237061</ele>
        <time>2022-05-01T10:50:06.000Z</time>
      </trkpt>
      <trkpt lat="47.26411" lon="-2.31553">
        <ele>26.799999237061</ele>
        <time>2022-05-01T10:50:10.000Z</time>
      </trkpt>
      <trkpt lat="47.26414" lon="-2.31555">
        <ele>26.799999237061</ele>
        <time>2022-05-01T10:50:14.000Z</time>
      </trkpt>
    </trkseg>
  </trk>
</gpx>